<?xml version="1.0" encoding="UTF-8" standalone="no" ?>
<gpx xmlns="http://www.topografix.com/GPX/1/1" xmlns:xsi="http://www.w3.org/2001/XMLSchema-instance" xsi:schemaLocation="http://www.topografix.com/GPX/1/1 http://www.topografix.com/GPX/1/1/gpx.xsd" version="1.1" creator="VisuGPX - https://www.visugpx.com">
  <metadata>
    <name>Départ camp des Loges, Maison Lafite (St Germain en Laye)</name>
    <desc><![CDATA[30 km de prévu sur la journée avec un pique-nique vers un bel étang : l\'étang du Cora.
35 kms de fait en ayant, normalement, coupé sur le tracé du matin, après deux demi-tour !
On est passé à côté de nombreuses pistes cavalières (en sable!!), dommage qu\'elles ne figurent pas sur les cartes !!]]></desc>
  </metadata>
  <trk>
    <name><![CDATA[Untitled]]></name>
    <trkseg>
      <trkpt lat="48.9216" lon="2.08472">
        <ele>75.199996948242</ele>
        <time>2014-09-21T07:53:08.000Z</time>
      </trkpt>
      <trkpt lat="48.9216" lon="2.08472">
        <ele>75.199996948242</ele>
        <time>2014-09-21T07:53:10.000Z</time>
      </trkpt>
      <trkpt lat="48.92177" lon="2.08455">
        <ele>74.599998474121</ele>
        <time>2014-09-21T08:00:02.000Z</time>
      </trkpt>
      <trkpt lat="48.92187" lon="2.08451">
        <ele>74.400001525879</ele>
        <time>2014-09-21T08:00:10.000Z</time>
      </trkpt>
      <trkpt lat="48.92198" lon="2.0845">
        <ele>74.400001525879</ele>
        <time>2014-09-21T08:00:18.000Z</time>
      </trkpt>
      <trkpt lat="48.92202" lon="2.08452">
        <ele>74.599998474121</ele>
        <time>2014-09-21T08:00:24.000Z</time>
      </trkpt>
      <trkpt lat="48.92204" lon="2.08455">
        <ele>74.599998474121</ele>
        <time>2014-09-21T08:00:27.000Z</time>
      </trkpt>
      <trkpt lat="48.92211" lon="2.0847">
        <ele>75.199996948242</ele>
        <time>2014-09-21T08:00:36.000Z</time>
      </trkpt>
      <trkpt lat="48.92216" lon="2.08479">
        <ele>75.400001525879</ele>
        <time>2014-09-21T08:00:42.000Z</time>
      </trkpt>
      <trkpt lat="48.9222" lon="2.08486">
        <ele>75.800003051758</ele>
        <time>2014-09-21T08:00:46.000Z</time>
      </trkpt>
      <trkpt lat="48.92221" lon="2.08488">
        <ele>75.800003051758</ele>
        <time>2014-09-21T08:00:47.000Z</time>
      </trkpt>
      <trkpt lat="48.92226" lon="2.08498">
        <ele>76</ele>
        <time>2014-09-21T08:00:53.000Z</time>
      </trkpt>
      <trkpt lat="48.92227" lon="2.08499">
        <ele>76</ele>
        <time>2014-09-21T08:00:54.000Z</time>
      </trkpt>
      <trkpt lat="48.92233" lon="2.08514">
        <ele>76.199996948242</ele>
        <time>2014-09-21T08:01:03.000Z</time>
      </trkpt>
      <trkpt lat="48.92234" lon="2.08517">
        <ele>76.199996948242</ele>
        <time>2014-09-21T08:01:05.000Z</time>
      </trkpt>
      <trkpt lat="48.9223" lon="2.08522">
        <ele>76.400001525879</ele>
        <time>2014-09-21T08:01:10.000Z</time>
      </trkpt>
      <trkpt lat="48.92224" lon="2.08519">
        <ele>76.400001525879</ele>
        <time>2014-09-21T08:01:14.000Z</time>
      </trkpt>
      <trkpt lat="48.9221" lon="2.0851">
        <ele>76.199996948242</ele>
        <time>2014-09-21T08:01:23.000Z</time>
      </trkpt>
      <trkpt lat="48.92198" lon="2.08504">
        <ele>76.199996948242</ele>
        <time>2014-09-21T08:01:31.000Z</time>
      </trkpt>
      <trkpt lat="48.92192" lon="2.08513">
        <ele>77.199996948242</ele>
        <time>2014-09-21T08:01:38.000Z</time>
      </trkpt>
      <trkpt lat="48.92185" lon="2.08515">
        <ele>77.400001525879</ele>
        <time>2014-09-21T08:01:44.000Z</time>
      </trkpt>
      <trkpt lat="48.92177" lon="2.08514">
        <ele>77.199996948242</ele>
        <time>2014-09-21T08:01:49.000Z</time>
      </trkpt>
      <trkpt lat="48.92169" lon="2.08517">
        <ele>77.400001525879</ele>
        <time>2014-09-21T08:01:55.000Z</time>
      </trkpt>
      <trkpt lat="48.92163" lon="2.08519">
        <ele>77.599998474121</ele>
        <time>2014-09-21T08:02:00.000Z</time>
      </trkpt>
      <trkpt lat="48.92156" lon="2.08522">
        <ele>77.800003051758</ele>
        <time>2014-09-21T08:02:05.000Z</time>
      </trkpt>
      <trkpt lat="48.92146" lon="2.08525">
        <ele>78</ele>
        <time>2014-09-21T08:02:11.000Z</time>
      </trkpt>
      <trkpt lat="48.92141" lon="2.08525">
        <ele>78</ele>
        <time>2014-09-21T08:02:17.000Z</time>
      </trkpt>
      <trkpt lat="48.9214" lon="2.08526">
        <ele>78</ele>
        <time>2014-09-21T08:02:18.000Z</time>
      </trkpt>
      <trkpt lat="48.92137" lon="2.08532">
        <ele>78.400001525879</ele>
        <time>2014-09-21T08:02:23.000Z</time>
      </trkpt>
      <trkpt lat="48.92137" lon="2.08533">
        <ele>78.400001525879</ele>
        <time>2014-09-21T08:02:24.000Z</time>
      </trkpt>
      <trkpt lat="48.92131" lon="2.08539">
        <ele>78.800003051758</ele>
        <time>2014-09-21T08:02:31.000Z</time>
      </trkpt>
      <trkpt lat="48.92127" lon="2.08541">
        <ele>79</ele>
        <time>2014-09-21T08:02:34.000Z</time>
      </trkpt>
      <trkpt lat="48.92119" lon="2.08545">
        <ele>79.199996948242</ele>
        <time>2014-09-21T08:02:42.000Z</time>
      </trkpt>
      <trkpt lat="48.92113" lon="2.08547">
        <ele>79.199996948242</ele>
        <time>2014-09-21T08:02:47.000Z</time>
      </trkpt>
      <trkpt lat="48.92111" lon="2.08548">
        <ele>79.400001525879</ele>
        <time>2014-09-21T08:02:49.000Z</time>
      </trkpt>
      <trkpt lat="48.92106" lon="2.0855">
        <ele>79.400001525879</ele>
        <time>2014-09-21T08:02:53.000Z</time>
      </trkpt>
      <trkpt lat="48.92101" lon="2.08552">
        <ele>79.599998474121</ele>
        <time>2014-09-21T08:02:56.000Z</time>
      </trkpt>
      <trkpt lat="48.92094" lon="2.08553">
        <ele>79.599998474121</ele>
        <time>2014-09-21T08:03:00.000Z</time>
      </trkpt>
      <trkpt lat="48.92085" lon="2.08561">
        <ele>80</ele>
        <time>2014-09-21T08:03:07.000Z</time>
      </trkpt>
      <trkpt lat="48.92084" lon="2.08562">
        <ele>80</ele>
        <time>2014-09-21T08:03:09.000Z</time>
      </trkpt>
      <trkpt lat="48.92085" lon="2.08565">
        <ele>80.199996948242</ele>
        <time>2014-09-21T08:03:12.000Z</time>
      </trkpt>
      <trkpt lat="48.92076" lon="2.08568">
        <ele>80.199996948242</ele>
        <time>2014-09-21T08:03:18.000Z</time>
      </trkpt>
      <trkpt lat="48.92059" lon="2.08575">
        <ele>80.400001525879</ele>
        <time>2014-09-21T08:03:28.000Z</time>
      </trkpt>
      <trkpt lat="48.92049" lon="2.08579">
        <ele>80.199996948242</ele>
        <time>2014-09-21T08:03:35.000Z</time>
      </trkpt>
      <trkpt lat="48.92041" lon="2.08584">
        <ele>80.199996948242</ele>
        <time>2014-09-21T08:03:42.000Z</time>
      </trkpt>
      <trkpt lat="48.92031" lon="2.08587">
        <ele>80</ele>
        <time>2014-09-21T08:03:50.000Z</time>
      </trkpt>
      <trkpt lat="48.92023" lon="2.08591">
        <ele>79.800003051758</ele>
        <time>2014-09-21T08:03:57.000Z</time>
      </trkpt>
      <trkpt lat="48.92015" lon="2.08593">
        <ele>79.800003051758</ele>
        <time>2014-09-21T08:04:04.000Z</time>
      </trkpt>
      <trkpt lat="48.92009" lon="2.08594">
        <ele>79.599998474121</ele>
        <time>2014-09-21T08:04:08.000Z</time>
      </trkpt>
      <trkpt lat="48.92004" lon="2.08597">
        <ele>79.599998474121</ele>
        <time>2014-09-21T08:04:12.000Z</time>
      </trkpt>
      <trkpt lat="48.9199" lon="2.08605">
        <ele>79.199996948242</ele>
        <time>2014-09-21T08:04:20.000Z</time>
      </trkpt>
      <trkpt lat="48.9198" lon="2.08612">
        <ele>79</ele>
        <time>2014-09-21T08:04:27.000Z</time>
      </trkpt>
      <trkpt lat="48.9197" lon="2.08613">
        <ele>79</ele>
        <time>2014-09-21T08:04:33.000Z</time>
      </trkpt>
      <trkpt lat="48.91963" lon="2.08618">
        <ele>79</ele>
        <time>2014-09-21T08:04:39.000Z</time>
      </trkpt>
      <trkpt lat="48.91962" lon="2.0862">
        <ele>79</ele>
        <time>2014-09-21T08:04:40.000Z</time>
      </trkpt>
      <trkpt lat="48.91957" lon="2.08621">
        <ele>79</ele>
        <time>2014-09-21T08:04:44.000Z</time>
      </trkpt>
      <trkpt lat="48.91952" lon="2.08625">
        <ele>79</ele>
        <time>2014-09-21T08:04:48.000Z</time>
      </trkpt>
      <trkpt lat="48.9195" lon="2.08626">
        <ele>79</ele>
        <time>2014-09-21T08:04:50.000Z</time>
      </trkpt>
      <trkpt lat="48.91942" lon="2.08627">
        <ele>79</ele>
        <time>2014-09-21T08:04:55.000Z</time>
      </trkpt>
      <trkpt lat="48.91938" lon="2.08626">
        <ele>79</ele>
        <time>2014-09-21T08:05:00.000Z</time>
      </trkpt>
      <trkpt lat="48.91911" lon="2.08629">
        <ele>78.199996948242</ele>
        <time>2014-09-21T08:05:46.000Z</time>
      </trkpt>
      <trkpt lat="48.91902" lon="2.08636">
        <ele>78.599998474121</ele>
        <time>2014-09-21T08:05:51.000Z</time>
      </trkpt>
      <trkpt lat="48.91899" lon="2.08639">
        <ele>78.800003051758</ele>
        <time>2014-09-21T08:05:56.000Z</time>
      </trkpt>
      <trkpt lat="48.91892" lon="2.08648">
        <ele>79.199996948242</ele>
        <time>2014-09-21T08:06:02.000Z</time>
      </trkpt>
      <trkpt lat="48.91888" lon="2.08651">
        <ele>79.400001525879</ele>
        <time>2014-09-21T08:06:05.000Z</time>
      </trkpt>
      <trkpt lat="48.91881" lon="2.08654">
        <ele>79.599998474121</ele>
        <time>2014-09-21T08:06:10.000Z</time>
      </trkpt>
      <trkpt lat="48.9187" lon="2.0866">
        <ele>79.800003051758</ele>
        <time>2014-09-21T08:06:17.000Z</time>
      </trkpt>
      <trkpt lat="48.9186" lon="2.08664">
        <ele>80</ele>
        <time>2014-09-21T08:06:24.000Z</time>
      </trkpt>
      <trkpt lat="48.91857" lon="2.08665">
        <ele>80</ele>
        <time>2014-09-21T08:06:26.000Z</time>
      </trkpt>
      <trkpt lat="48.91853" lon="2.08666">
        <ele>80</ele>
        <time>2014-09-21T08:06:30.000Z</time>
      </trkpt>
      <trkpt lat="48.91846" lon="2.08672">
        <ele>80</ele>
        <time>2014-09-21T08:06:33.000Z</time>
      </trkpt>
      <trkpt lat="48.91842" lon="2.08676">
        <ele>80</ele>
        <time>2014-09-21T08:06:36.000Z</time>
      </trkpt>
      <trkpt lat="48.91838" lon="2.0868">
        <ele>80</ele>
        <time>2014-09-21T08:06:39.000Z</time>
      </trkpt>
      <trkpt lat="48.9183" lon="2.0868">
        <ele>80</ele>
        <time>2014-09-21T08:06:46.000Z</time>
      </trkpt>
      <trkpt lat="48.91823" lon="2.08683">
        <ele>79.800003051758</ele>
        <time>2014-09-21T08:06:52.000Z</time>
      </trkpt>
      <trkpt lat="48.91815" lon="2.08685">
        <ele>79.800003051758</ele>
        <time>2014-09-21T08:06:57.000Z</time>
      </trkpt>
      <trkpt lat="48.91804" lon="2.0869">
        <ele>79.800003051758</ele>
        <time>2014-09-21T08:07:07.000Z</time>
      </trkpt>
      <trkpt lat="48.91794" lon="2.08695">
        <ele>79.400001525879</ele>
        <time>2014-09-21T08:07:13.000Z</time>
      </trkpt>
      <trkpt lat="48.91782" lon="2.08702">
        <ele>78.800003051758</ele>
        <time>2014-09-21T08:07:19.000Z</time>
      </trkpt>
      <trkpt lat="48.91775" lon="2.08705">
        <ele>78.599998474121</ele>
        <time>2014-09-21T08:07:25.000Z</time>
      </trkpt>
      <trkpt lat="48.91768" lon="2.08709">
        <ele>78.400001525879</ele>
        <time>2014-09-21T08:07:32.000Z</time>
      </trkpt>
      <trkpt lat="48.91762" lon="2.08711">
        <ele>78.599998474121</ele>
        <time>2014-09-21T08:07:37.000Z</time>
      </trkpt>
      <trkpt lat="48.91758" lon="2.08714">
        <ele>78.599998474121</ele>
        <time>2014-09-21T08:07:40.000Z</time>
      </trkpt>
      <trkpt lat="48.91751" lon="2.08717">
        <ele>78.599998474121</ele>
        <time>2014-09-21T08:07:46.000Z</time>
      </trkpt>
      <trkpt lat="48.91747" lon="2.08717">
        <ele>78.599998474121</ele>
        <time>2014-09-21T08:07:49.000Z</time>
      </trkpt>
      <trkpt lat="48.91746" lon="2.0872">
        <ele>78.599998474121</ele>
        <time>2014-09-21T08:07:52.000Z</time>
      </trkpt>
      <trkpt lat="48.91738" lon="2.08725">
        <ele>78.800003051758</ele>
        <time>2014-09-21T08:07:58.000Z</time>
      </trkpt>
      <trkpt lat="48.91728" lon="2.0873">
        <ele>79</ele>
        <time>2014-09-21T08:08:04.000Z</time>
      </trkpt>
      <trkpt lat="48.91719" lon="2.08734">
        <ele>79.400001525879</ele>
        <time>2014-09-21T08:08:10.000Z</time>
      </trkpt>
      <trkpt lat="48.91715" lon="2.08735">
        <ele>79.400001525879</ele>
        <time>2014-09-21T08:08:15.000Z</time>
      </trkpt>
      <trkpt lat="48.91713" lon="2.0874">
        <ele>79.400001525879</ele>
        <time>2014-09-21T08:08:19.000Z</time>
      </trkpt>
      <trkpt lat="48.91708" lon="2.08748">
        <ele>79.400001525879</ele>
        <time>2014-09-21T08:08:23.000Z</time>
      </trkpt>
      <trkpt lat="48.91704" lon="2.08754">
        <ele>79.400001525879</ele>
        <time>2014-09-21T08:08:28.000Z</time>
      </trkpt>
      <trkpt lat="48.91702" lon="2.08755">
        <ele>79.400001525879</ele>
        <time>2014-09-21T08:08:29.000Z</time>
      </trkpt>
      <trkpt lat="48.91696" lon="2.08753">
        <ele>79.599998474121</ele>
        <time>2014-09-21T08:08:34.000Z</time>
      </trkpt>
      <trkpt lat="48.91693" lon="2.08753">
        <ele>79.800003051758</ele>
        <time>2014-09-21T08:08:42.000Z</time>
      </trkpt>
      <trkpt lat="48.91693" lon="2.08752">
        <ele>79.800003051758</ele>
        <time>2014-09-21T08:08:45.000Z</time>
      </trkpt>
      <trkpt lat="48.91694" lon="2.08759">
        <ele>79.599998474121</ele>
        <time>2014-09-21T08:09:49.000Z</time>
      </trkpt>
      <trkpt lat="48.91688" lon="2.0876">
        <ele>79.800003051758</ele>
        <time>2014-09-21T08:09:52.000Z</time>
      </trkpt>
      <trkpt lat="48.91686" lon="2.08759">
        <ele>79.800003051758</ele>
        <time>2014-09-21T08:09:58.000Z</time>
      </trkpt>
      <trkpt lat="48.91675" lon="2.08762">
        <ele>79.800003051758</ele>
        <time>2014-09-21T08:10:09.000Z</time>
      </trkpt>
      <trkpt lat="48.91672" lon="2.08762">
        <ele>79.800003051758</ele>
        <time>2014-09-21T08:10:11.000Z</time>
      </trkpt>
      <trkpt lat="48.91664" lon="2.08765">
        <ele>79.800003051758</ele>
        <time>2014-09-21T08:10:17.000Z</time>
      </trkpt>
      <trkpt lat="48.91655" lon="2.08768">
        <ele>79.800003051758</ele>
        <time>2014-09-21T08:10:23.000Z</time>
      </trkpt>
      <trkpt lat="48.91647" lon="2.08772">
        <ele>79.599998474121</ele>
        <time>2014-09-21T08:10:29.000Z</time>
      </trkpt>
      <trkpt lat="48.91638" lon="2.08777">
        <ele>79.599998474121</ele>
        <time>2014-09-21T08:10:36.000Z</time>
      </trkpt>
      <trkpt lat="48.91626" lon="2.08782">
        <ele>79.800003051758</ele>
        <time>2014-09-21T08:10:43.000Z</time>
      </trkpt>
      <trkpt lat="48.91624" lon="2.08782">
        <ele>79.800003051758</ele>
        <time>2014-09-21T08:10:45.000Z</time>
      </trkpt>
      <trkpt lat="48.91614" lon="2.08788">
        <ele>80</ele>
        <time>2014-09-21T08:10:52.000Z</time>
      </trkpt>
      <trkpt lat="48.91606" lon="2.08792">
        <ele>80</ele>
        <time>2014-09-21T08:10:57.000Z</time>
      </trkpt>
      <trkpt lat="48.91593" lon="2.08798">
        <ele>79.599998474121</ele>
        <time>2014-09-21T08:11:04.000Z</time>
      </trkpt>
      <trkpt lat="48.9158" lon="2.08802">
        <ele>79.400001525879</ele>
        <time>2014-09-21T08:11:11.000Z</time>
      </trkpt>
      <trkpt lat="48.9157" lon="2.08808">
        <ele>79.800003051758</ele>
        <time>2014-09-21T08:11:18.000Z</time>
      </trkpt>
      <trkpt lat="48.91561" lon="2.08813">
        <ele>80</ele>
        <time>2014-09-21T08:11:24.000Z</time>
      </trkpt>
      <trkpt lat="48.9155" lon="2.08819">
        <ele>80.400001525879</ele>
        <time>2014-09-21T08:11:31.000Z</time>
      </trkpt>
      <trkpt lat="48.91537" lon="2.08824">
        <ele>80.800003051758</ele>
        <time>2014-09-21T08:11:38.000Z</time>
      </trkpt>
      <trkpt lat="48.91532" lon="2.08829">
        <ele>80.800003051758</ele>
        <time>2014-09-21T08:11:44.000Z</time>
      </trkpt>
      <trkpt lat="48.91529" lon="2.08838">
        <ele>80.599998474121</ele>
        <time>2014-09-21T08:11:49.000Z</time>
      </trkpt>
      <trkpt lat="48.91535" lon="2.08855">
        <ele>80.199996948242</ele>
        <time>2014-09-21T08:11:57.000Z</time>
      </trkpt>
      <trkpt lat="48.91543" lon="2.08868">
        <ele>79.800003051758</ele>
        <time>2014-09-21T08:12:04.000Z</time>
      </trkpt>
      <trkpt lat="48.91552" lon="2.08882">
        <ele>79.400001525879</ele>
        <time>2014-09-21T08:12:12.000Z</time>
      </trkpt>
      <trkpt lat="48.91561" lon="2.08899">
        <ele>78.800003051758</ele>
        <time>2014-09-21T08:12:21.000Z</time>
      </trkpt>
      <trkpt lat="48.9157" lon="2.08914">
        <ele>78.400001525879</ele>
        <time>2014-09-21T08:12:29.000Z</time>
      </trkpt>
      <trkpt lat="48.91578" lon="2.08926">
        <ele>78</ele>
        <time>2014-09-21T08:12:36.000Z</time>
      </trkpt>
      <trkpt lat="48.91589" lon="2.08942">
        <ele>77.400001525879</ele>
        <time>2014-09-21T08:12:45.000Z</time>
      </trkpt>
      <trkpt lat="48.91596" lon="2.08954">
        <ele>77</ele>
        <time>2014-09-21T08:12:52.000Z</time>
      </trkpt>
      <trkpt lat="48.91603" lon="2.08966">
        <ele>76.800003051758</ele>
        <time>2014-09-21T08:12:59.000Z</time>
      </trkpt>
      <trkpt lat="48.91609" lon="2.08977">
        <ele>76.400001525879</ele>
        <time>2014-09-21T08:13:06.000Z</time>
      </trkpt>
      <trkpt lat="48.91615" lon="2.08987">
        <ele>76.199996948242</ele>
        <time>2014-09-21T08:13:11.000Z</time>
      </trkpt>
      <trkpt lat="48.91622" lon="2.08997">
        <ele>76.199996948242</ele>
        <time>2014-09-21T08:13:17.000Z</time>
      </trkpt>
      <trkpt lat="48.91629" lon="2.0901">
        <ele>76.199996948242</ele>
        <time>2014-09-21T08:13:24.000Z</time>
      </trkpt>
      <trkpt lat="48.91637" lon="2.09026">
        <ele>76.400001525879</ele>
        <time>2014-09-21T08:13:32.000Z</time>
      </trkpt>
      <trkpt lat="48.91646" lon="2.09041">
        <ele>76.400001525879</ele>
        <time>2014-09-21T08:13:42.000Z</time>
      </trkpt>
      <trkpt lat="48.91655" lon="2.09057">
        <ele>76.599998474121</ele>
        <time>2014-09-21T08:13:51.000Z</time>
      </trkpt>
      <trkpt lat="48.91662" lon="2.09069">
        <ele>76.599998474121</ele>
        <time>2014-09-21T08:13:58.000Z</time>
      </trkpt>
      <trkpt lat="48.91673" lon="2.09088">
        <ele>76.800003051758</ele>
        <time>2014-09-21T08:14:09.000Z</time>
      </trkpt>
      <trkpt lat="48.91678" lon="2.09099">
        <ele>76.800003051758</ele>
        <time>2014-09-21T08:14:16.000Z</time>
      </trkpt>
      <trkpt lat="48.9168" lon="2.09101">
        <ele>76.800003051758</ele>
        <time>2014-09-21T08:14:19.000Z</time>
      </trkpt>
      <trkpt lat="48.91688" lon="2.09116">
        <ele>77</ele>
        <time>2014-09-21T08:14:28.000Z</time>
      </trkpt>
      <trkpt lat="48.91695" lon="2.09129">
        <ele>77</ele>
        <time>2014-09-21T08:14:36.000Z</time>
      </trkpt>
      <trkpt lat="48.91704" lon="2.09144">
        <ele>77</ele>
        <time>2014-09-21T08:14:45.000Z</time>
      </trkpt>
      <trkpt lat="48.9171" lon="2.09154">
        <ele>77</ele>
        <time>2014-09-21T08:14:51.000Z</time>
      </trkpt>
      <trkpt lat="48.91713" lon="2.09157">
        <ele>77</ele>
        <time>2014-09-21T08:14:53.000Z</time>
      </trkpt>
      <trkpt lat="48.91718" lon="2.09165">
        <ele>77</ele>
        <time>2014-09-21T08:14:58.000Z</time>
      </trkpt>
      <trkpt lat="48.91721" lon="2.09172">
        <ele>77.199996948242</ele>
        <time>2014-09-21T08:15:02.000Z</time>
      </trkpt>
      <trkpt lat="48.91723" lon="2.09179">
        <ele>77.199996948242</ele>
        <time>2014-09-21T08:15:05.000Z</time>
      </trkpt>
      <trkpt lat="48.91734" lon="2.09193">
        <ele>77.400001525879</ele>
        <time>2014-09-21T08:15:13.000Z</time>
      </trkpt>
      <trkpt lat="48.91741" lon="2.09203">
        <ele>77.599998474121</ele>
        <time>2014-09-21T08:15:19.000Z</time>
      </trkpt>
      <trkpt lat="48.91748" lon="2.09213">
        <ele>77.599998474121</ele>
        <time>2014-09-21T08:15:25.000Z</time>
      </trkpt>
      <trkpt lat="48.91753" lon="2.09223">
        <ele>77.800003051758</ele>
        <time>2014-09-21T08:15:33.000Z</time>
      </trkpt>
      <trkpt lat="48.91756" lon="2.09232">
        <ele>77.800003051758</ele>
        <time>2014-09-21T08:15:37.000Z</time>
      </trkpt>
      <trkpt lat="48.91756" lon="2.09237">
        <ele>77.800003051758</ele>
        <time>2014-09-21T08:15:39.000Z</time>
      </trkpt>
      <trkpt lat="48.91757" lon="2.09244">
        <ele>77.800003051758</ele>
        <time>2014-09-21T08:15:45.000Z</time>
      </trkpt>
      <trkpt lat="48.91758" lon="2.09247">
        <ele>77.599998474121</ele>
        <time>2014-09-21T08:15:47.000Z</time>
      </trkpt>
      <trkpt lat="48.91771" lon="2.09255">
        <ele>77.599998474121</ele>
        <time>2014-09-21T08:15:55.000Z</time>
      </trkpt>
      <trkpt lat="48.91783" lon="2.09257">
        <ele>77.400001525879</ele>
        <time>2014-09-21T08:16:04.000Z</time>
      </trkpt>
      <trkpt lat="48.91796" lon="2.09262">
        <ele>77.400001525879</ele>
        <time>2014-09-21T08:16:13.000Z</time>
      </trkpt>
      <trkpt lat="48.91802" lon="2.09263">
        <ele>77.599998474121</ele>
        <time>2014-09-21T08:16:17.000Z</time>
      </trkpt>
      <trkpt lat="48.91813" lon="2.09265">
        <ele>77.800003051758</ele>
        <time>2014-09-21T08:16:23.000Z</time>
      </trkpt>
      <trkpt lat="48.91818" lon="2.09267">
        <ele>78</ele>
        <time>2014-09-21T08:16:26.000Z</time>
      </trkpt>
      <trkpt lat="48.91824" lon="2.09269">
        <ele>78</ele>
        <time>2014-09-21T08:16:30.000Z</time>
      </trkpt>
      <trkpt lat="48.91834" lon="2.09278">
        <ele>77.599998474121</ele>
        <time>2014-09-21T08:16:37.000Z</time>
      </trkpt>
      <trkpt lat="48.91845" lon="2.09283">
        <ele>77.599998474121</ele>
        <time>2014-09-21T08:16:43.000Z</time>
      </trkpt>
      <trkpt lat="48.91856" lon="2.09289">
        <ele>77.599998474121</ele>
        <time>2014-09-21T08:16:51.000Z</time>
      </trkpt>
      <trkpt lat="48.91864" lon="2.0929">
        <ele>78.400001525879</ele>
        <time>2014-09-21T08:16:57.000Z</time>
      </trkpt>
      <trkpt lat="48.9187" lon="2.09294">
        <ele>78.599998474121</ele>
        <time>2014-09-21T08:17:01.000Z</time>
      </trkpt>
      <trkpt lat="48.91871" lon="2.09294">
        <ele>78.599998474121</ele>
        <time>2014-09-21T08:17:02.000Z</time>
      </trkpt>
      <trkpt lat="48.91883" lon="2.09296">
        <ele>79.599998474121</ele>
        <time>2014-09-21T08:17:12.000Z</time>
      </trkpt>
      <trkpt lat="48.91898" lon="2.09304">
        <ele>80.599998474121</ele>
        <time>2014-09-21T08:17:22.000Z</time>
      </trkpt>
      <trkpt lat="48.91907" lon="2.09307">
        <ele>81.199996948242</ele>
        <time>2014-09-21T08:17:28.000Z</time>
      </trkpt>
      <trkpt lat="48.91923" lon="2.09312">
        <ele>82.400001525879</ele>
        <time>2014-09-21T08:17:37.000Z</time>
      </trkpt>
      <trkpt lat="48.91931" lon="2.09315">
        <ele>82.800003051758</ele>
        <time>2014-09-21T08:17:43.000Z</time>
      </trkpt>
      <trkpt lat="48.91939" lon="2.09318">
        <ele>83</ele>
        <time>2014-09-21T08:17:49.000Z</time>
      </trkpt>
      <trkpt lat="48.9195" lon="2.09327">
        <ele>83</ele>
        <time>2014-09-21T08:17:57.000Z</time>
      </trkpt>
      <trkpt lat="48.91957" lon="2.09332">
        <ele>83</ele>
        <time>2014-09-21T08:18:02.000Z</time>
      </trkpt>
      <trkpt lat="48.91962" lon="2.09335">
        <ele>83.199996948242</ele>
        <time>2014-09-21T08:18:06.000Z</time>
      </trkpt>
      <trkpt lat="48.91969" lon="2.09336">
        <ele>83.199996948242</ele>
        <time>2014-09-21T08:18:11.000Z</time>
      </trkpt>
      <trkpt lat="48.91969" lon="2.09337">
        <ele>83.199996948242</ele>
        <time>2014-09-21T08:18:12.000Z</time>
      </trkpt>
      <trkpt lat="48.91978" lon="2.09339">
        <ele>83.199996948242</ele>
        <time>2014-09-21T08:18:17.000Z</time>
      </trkpt>
      <trkpt lat="48.91982" lon="2.09339">
        <ele>83.199996948242</ele>
        <time>2014-09-21T08:18:19.000Z</time>
      </trkpt>
      <trkpt lat="48.91989" lon="2.09344">
        <ele>83.199996948242</ele>
        <time>2014-09-21T08:18:26.000Z</time>
      </trkpt>
      <trkpt lat="48.91997" lon="2.09347">
        <ele>83.199996948242</ele>
        <time>2014-09-21T08:18:33.000Z</time>
      </trkpt>
      <trkpt lat="48.92003" lon="2.09347">
        <ele>83.199996948242</ele>
        <time>2014-09-21T08:18:37.000Z</time>
      </trkpt>
      <trkpt lat="48.92013" lon="2.0935">
        <ele>83.199996948242</ele>
        <time>2014-09-21T08:18:42.000Z</time>
      </trkpt>
      <trkpt lat="48.92022" lon="2.09354">
        <ele>83.400001525879</ele>
        <time>2014-09-21T08:18:47.000Z</time>
      </trkpt>
      <trkpt lat="48.92033" lon="2.09361">
        <ele>83.199996948242</ele>
        <time>2014-09-21T08:18:53.000Z</time>
      </trkpt>
      <trkpt lat="48.92043" lon="2.09362">
        <ele>83.199996948242</ele>
        <time>2014-09-21T08:18:59.000Z</time>
      </trkpt>
      <trkpt lat="48.92047" lon="2.09365">
        <ele>83.199996948242</ele>
        <time>2014-09-21T08:19:03.000Z</time>
      </trkpt>
      <trkpt lat="48.9205" lon="2.09367">
        <ele>83.199996948242</ele>
        <time>2014-09-21T08:19:07.000Z</time>
      </trkpt>
      <trkpt lat="48.92063" lon="2.09372">
        <ele>83</ele>
        <time>2014-09-21T08:19:14.000Z</time>
      </trkpt>
      <trkpt lat="48.92072" lon="2.09375">
        <ele>83</ele>
        <time>2014-09-21T08:19:21.000Z</time>
      </trkpt>
      <trkpt lat="48.92085" lon="2.09379">
        <ele>82.800003051758</ele>
        <time>2014-09-21T08:19:28.000Z</time>
      </trkpt>
      <trkpt lat="48.92095" lon="2.09381">
        <ele>82.800003051758</ele>
        <time>2014-09-21T08:19:35.000Z</time>
      </trkpt>
      <trkpt lat="48.92102" lon="2.09382">
        <ele>82.800003051758</ele>
        <time>2014-09-21T08:19:42.000Z</time>
      </trkpt>
      <trkpt lat="48.92107" lon="2.09387">
        <ele>82.800003051758</ele>
        <time>2014-09-21T08:19:48.000Z</time>
      </trkpt>
      <trkpt lat="48.92109" lon="2.09388">
        <ele>82.800003051758</ele>
        <time>2014-09-21T08:19:49.000Z</time>
      </trkpt>
      <trkpt lat="48.92112" lon="2.09393">
        <ele>83</ele>
        <time>2014-09-21T08:19:52.000Z</time>
      </trkpt>
      <trkpt lat="48.92112" lon="2.09397">
        <ele>83</ele>
        <time>2014-09-21T08:19:56.000Z</time>
      </trkpt>
      <trkpt lat="48.92114" lon="2.09397">
        <ele>83</ele>
        <time>2014-09-21T08:19:59.000Z</time>
      </trkpt>
      <trkpt lat="48.92131" lon="2.094">
        <ele>83.400001525879</ele>
        <time>2014-09-21T08:20:04.000Z</time>
      </trkpt>
      <trkpt lat="48.92142" lon="2.09406">
        <ele>83.800003051758</ele>
        <time>2014-09-21T08:20:10.000Z</time>
      </trkpt>
      <trkpt lat="48.92149" lon="2.09407">
        <ele>84</ele>
        <time>2014-09-21T08:20:15.000Z</time>
      </trkpt>
      <trkpt lat="48.92153" lon="2.09409">
        <ele>84</ele>
        <time>2014-09-21T08:20:19.000Z</time>
      </trkpt>
      <trkpt lat="48.92154" lon="2.09411">
        <ele>84.199996948242</ele>
        <time>2014-09-21T08:20:24.000Z</time>
      </trkpt>
      <trkpt lat="48.92161" lon="2.09414">
        <ele>84.199996948242</ele>
        <time>2014-09-21T08:20:29.000Z</time>
      </trkpt>
      <trkpt lat="48.9217" lon="2.09417">
        <ele>84.599998474121</ele>
        <time>2014-09-21T08:20:35.000Z</time>
      </trkpt>
      <trkpt lat="48.92172" lon="2.09415">
        <ele>84.599998474121</ele>
        <time>2014-09-21T08:20:36.000Z</time>
      </trkpt>
      <trkpt lat="48.92178" lon="2.09418">
        <ele>84.800003051758</ele>
        <time>2014-09-21T08:20:41.000Z</time>
      </trkpt>
      <trkpt lat="48.92186" lon="2.09421">
        <ele>85</ele>
        <time>2014-09-21T08:20:46.000Z</time>
      </trkpt>
      <trkpt lat="48.92189" lon="2.09421">
        <ele>85</ele>
        <time>2014-09-21T08:20:48.000Z</time>
      </trkpt>
      <trkpt lat="48.922" lon="2.09427">
        <ele>84.800003051758</ele>
        <time>2014-09-21T08:20:54.000Z</time>
      </trkpt>
      <trkpt lat="48.92205" lon="2.09427">
        <ele>84.599998474121</ele>
        <time>2014-09-21T08:20:56.000Z</time>
      </trkpt>
      <trkpt lat="48.9221" lon="2.09429">
        <ele>84.599998474121</ele>
        <time>2014-09-21T08:20:59.000Z</time>
      </trkpt>
      <trkpt lat="48.92217" lon="2.09434">
        <ele>84.400001525879</ele>
        <time>2014-09-21T08:21:05.000Z</time>
      </trkpt>
      <trkpt lat="48.92225" lon="2.09437">
        <ele>84.199996948242</ele>
        <time>2014-09-21T08:21:09.000Z</time>
      </trkpt>
      <trkpt lat="48.92235" lon="2.09442">
        <ele>84</ele>
        <time>2014-09-21T08:21:14.000Z</time>
      </trkpt>
      <trkpt lat="48.92241" lon="2.09443">
        <ele>84</ele>
        <time>2014-09-21T08:21:17.000Z</time>
      </trkpt>
      <trkpt lat="48.92243" lon="2.09446">
        <ele>84</ele>
        <time>2014-09-21T08:21:22.000Z</time>
      </trkpt>
      <trkpt lat="48.92255" lon="2.0945">
        <ele>83.800003051758</ele>
        <time>2014-09-21T08:21:27.000Z</time>
      </trkpt>
      <trkpt lat="48.92263" lon="2.09459">
        <ele>83.599998474121</ele>
        <time>2014-09-21T08:21:33.000Z</time>
      </trkpt>
      <trkpt lat="48.92271" lon="2.09461">
        <ele>83.400001525879</ele>
        <time>2014-09-21T08:21:38.000Z</time>
      </trkpt>
      <trkpt lat="48.92276" lon="2.09463">
        <ele>83.400001525879</ele>
        <time>2014-09-21T08:21:42.000Z</time>
      </trkpt>
      <trkpt lat="48.92281" lon="2.09465">
        <ele>83.199996948242</ele>
        <time>2014-09-21T08:21:45.000Z</time>
      </trkpt>
      <trkpt lat="48.9229" lon="2.09468">
        <ele>83.199996948242</ele>
        <time>2014-09-21T08:21:52.000Z</time>
      </trkpt>
      <trkpt lat="48.92297" lon="2.09474">
        <ele>83</ele>
        <time>2014-09-21T08:21:58.000Z</time>
      </trkpt>
      <trkpt lat="48.923" lon="2.09477">
        <ele>82.800003051758</ele>
        <time>2014-09-21T08:22:03.000Z</time>
      </trkpt>
      <trkpt lat="48.92308" lon="2.09472">
        <ele>82.800003051758</ele>
        <time>2014-09-21T08:22:08.000Z</time>
      </trkpt>
      <trkpt lat="48.9231" lon="2.09473">
        <ele>82.800003051758</ele>
        <time>2014-09-21T08:22:10.000Z</time>
      </trkpt>
      <trkpt lat="48.92322" lon="2.09477">
        <ele>82.599998474121</ele>
        <time>2014-09-21T08:22:15.000Z</time>
      </trkpt>
      <trkpt lat="48.92328" lon="2.09483">
        <ele>82.400001525879</ele>
        <time>2014-09-21T08:22:20.000Z</time>
      </trkpt>
      <trkpt lat="48.92333" lon="2.09487">
        <ele>82.400001525879</ele>
        <time>2014-09-21T08:22:24.000Z</time>
      </trkpt>
      <trkpt lat="48.92337" lon="2.09489">
        <ele>82.199996948242</ele>
        <time>2014-09-21T08:22:27.000Z</time>
      </trkpt>
      <trkpt lat="48.92345" lon="2.09497">
        <ele>82.199996948242</ele>
        <time>2014-09-21T08:22:34.000Z</time>
      </trkpt>
      <trkpt lat="48.92353" lon="2.09501">
        <ele>82</ele>
        <time>2014-09-21T08:22:40.000Z</time>
      </trkpt>
      <trkpt lat="48.92365" lon="2.09504">
        <ele>82</ele>
        <time>2014-09-21T08:22:45.000Z</time>
      </trkpt>
      <trkpt lat="48.92373" lon="2.09506">
        <ele>82.199996948242</ele>
        <time>2014-09-21T08:22:49.000Z</time>
      </trkpt>
      <trkpt lat="48.92387" lon="2.0951">
        <ele>82.599998474121</ele>
        <time>2014-09-21T08:22:56.000Z</time>
      </trkpt>
      <trkpt lat="48.92388" lon="2.09511">
        <ele>82.599998474121</ele>
        <time>2014-09-21T08:22:57.000Z</time>
      </trkpt>
      <trkpt lat="48.92393" lon="2.09518">
        <ele>82.599998474121</ele>
        <time>2014-09-21T08:23:02.000Z</time>
      </trkpt>
      <trkpt lat="48.92402" lon="2.09518">
        <ele>82.800003051758</ele>
        <time>2014-09-21T08:23:08.000Z</time>
      </trkpt>
      <trkpt lat="48.92403" lon="2.09518">
        <ele>82.800003051758</ele>
        <time>2014-09-21T08:23:09.000Z</time>
      </trkpt>
      <trkpt lat="48.92411" lon="2.09523">
        <ele>83</ele>
        <time>2014-09-21T08:23:16.000Z</time>
      </trkpt>
      <trkpt lat="48.92416" lon="2.09526">
        <ele>83</ele>
        <time>2014-09-21T08:23:22.000Z</time>
      </trkpt>
      <trkpt lat="48.92427" lon="2.09535">
        <ele>83.199996948242</ele>
        <time>2014-09-21T08:23:34.000Z</time>
      </trkpt>
      <trkpt lat="48.9243" lon="2.09535">
        <ele>83.199996948242</ele>
        <time>2014-09-21T08:23:35.000Z</time>
      </trkpt>
      <trkpt lat="48.92434" lon="2.09535">
        <ele>83.400001525879</ele>
        <time>2014-09-21T08:23:37.000Z</time>
      </trkpt>
      <trkpt lat="48.92442" lon="2.09536">
        <ele>83.599998474121</ele>
        <time>2014-09-21T08:23:40.000Z</time>
      </trkpt>
      <trkpt lat="48.92456" lon="2.0954">
        <ele>83.599998474121</ele>
        <time>2014-09-21T08:23:46.000Z</time>
      </trkpt>
      <trkpt lat="48.92465" lon="2.09542">
        <ele>83.800003051758</ele>
        <time>2014-09-21T08:23:53.000Z</time>
      </trkpt>
      <trkpt lat="48.92471" lon="2.09546">
        <ele>83.800003051758</ele>
        <time>2014-09-21T08:23:58.000Z</time>
      </trkpt>
      <trkpt lat="48.92475" lon="2.09546">
        <ele>83.800003051758</ele>
        <time>2014-09-21T08:24:02.000Z</time>
      </trkpt>
      <trkpt lat="48.92484" lon="2.09552">
        <ele>83.800003051758</ele>
        <time>2014-09-21T08:24:09.000Z</time>
      </trkpt>
      <trkpt lat="48.92492" lon="2.09549">
        <ele>84</ele>
        <time>2014-09-21T08:24:17.000Z</time>
      </trkpt>
      <trkpt lat="48.92504" lon="2.09549">
        <ele>84</ele>
        <time>2014-09-21T08:24:27.000Z</time>
      </trkpt>
      <trkpt lat="48.92508" lon="2.09554">
        <ele>84</ele>
        <time>2014-09-21T08:24:32.000Z</time>
      </trkpt>
      <trkpt lat="48.92512" lon="2.09557">
        <ele>84</ele>
        <time>2014-09-21T08:24:36.000Z</time>
      </trkpt>
      <trkpt lat="48.92517" lon="2.09565">
        <ele>84</ele>
        <time>2014-09-21T08:24:40.000Z</time>
      </trkpt>
      <trkpt lat="48.92522" lon="2.09574">
        <ele>84</ele>
        <time>2014-09-21T08:24:47.000Z</time>
      </trkpt>
      <trkpt lat="48.92524" lon="2.09574">
        <ele>84</ele>
        <time>2014-09-21T08:24:48.000Z</time>
      </trkpt>
      <trkpt lat="48.92532" lon="2.09574">
        <ele>83.800003051758</ele>
        <time>2014-09-21T08:24:52.000Z</time>
      </trkpt>
      <trkpt lat="48.92535" lon="2.09578">
        <ele>83.800003051758</ele>
        <time>2014-09-21T08:24:59.000Z</time>
      </trkpt>
      <trkpt lat="48.92533" lon="2.09578">
        <ele>83.800003051758</ele>
        <time>2014-09-21T08:25:04.000Z</time>
      </trkpt>
      <trkpt lat="48.92536" lon="2.09585">
        <ele>84</ele>
        <time>2014-09-21T08:25:10.000Z</time>
      </trkpt>
      <trkpt lat="48.92541" lon="2.09598">
        <ele>84</ele>
        <time>2014-09-21T08:25:15.000Z</time>
      </trkpt>
      <trkpt lat="48.92551" lon="2.09603">
        <ele>84</ele>
        <time>2014-09-21T08:25:21.000Z</time>
      </trkpt>
      <trkpt lat="48.92557" lon="2.09605">
        <ele>83.800003051758</ele>
        <time>2014-09-21T08:25:25.000Z</time>
      </trkpt>
      <trkpt lat="48.92567" lon="2.09607">
        <ele>83.599998474121</ele>
        <time>2014-09-21T08:25:32.000Z</time>
      </trkpt>
      <trkpt lat="48.92568" lon="2.09608">
        <ele>83.599998474121</ele>
        <time>2014-09-21T08:25:33.000Z</time>
      </trkpt>
      <trkpt lat="48.92571" lon="2.09613">
        <ele>83.800003051758</ele>
        <time>2014-09-21T08:25:38.000Z</time>
      </trkpt>
      <trkpt lat="48.92576" lon="2.09617">
        <ele>83.800003051758</ele>
        <time>2014-09-21T08:25:42.000Z</time>
      </trkpt>
      <trkpt lat="48.92584" lon="2.09621">
        <ele>83.599998474121</ele>
        <time>2014-09-21T08:25:49.000Z</time>
      </trkpt>
      <trkpt lat="48.92588" lon="2.09627">
        <ele>83.599998474121</ele>
        <time>2014-09-21T08:25:54.000Z</time>
      </trkpt>
      <trkpt lat="48.9259" lon="2.09628">
        <ele>83.599998474121</ele>
        <time>2014-09-21T08:25:59.000Z</time>
      </trkpt>
      <trkpt lat="48.92599" lon="2.09641">
        <ele>83.800003051758</ele>
        <time>2014-09-21T08:26:29.000Z</time>
      </trkpt>
      <trkpt lat="48.92607" lon="2.09641">
        <ele>83.599998474121</ele>
        <time>2014-09-21T08:26:48.000Z</time>
      </trkpt>
      <trkpt lat="48.9261" lon="2.09645">
        <ele>83.599998474121</ele>
        <time>2014-09-21T08:26:51.000Z</time>
      </trkpt>
      <trkpt lat="48.92618" lon="2.09648">
        <ele>83.599998474121</ele>
        <time>2014-09-21T08:26:57.000Z</time>
      </trkpt>
      <trkpt lat="48.92627" lon="2.09658">
        <ele>83.800003051758</ele>
        <time>2014-09-21T08:27:03.000Z</time>
      </trkpt>
      <trkpt lat="48.92631" lon="2.09662">
        <ele>83.800003051758</ele>
        <time>2014-09-21T08:27:07.000Z</time>
      </trkpt>
      <trkpt lat="48.92636" lon="2.09667">
        <ele>83.599998474121</ele>
        <time>2014-09-21T08:27:12.000Z</time>
      </trkpt>
      <trkpt lat="48.92639" lon="2.09666">
        <ele>83.599998474121</ele>
        <time>2014-09-21T08:27:13.000Z</time>
      </trkpt>
      <trkpt lat="48.92652" lon="2.09671">
        <ele>83.400001525879</ele>
        <time>2014-09-21T08:27:20.000Z</time>
      </trkpt>
      <trkpt lat="48.92664" lon="2.09679">
        <ele>83.400001525879</ele>
        <time>2014-09-21T08:27:27.000Z</time>
      </trkpt>
      <trkpt lat="48.92668" lon="2.09684">
        <ele>83.199996948242</ele>
        <time>2014-09-21T08:27:32.000Z</time>
      </trkpt>
      <trkpt lat="48.92673" lon="2.09689">
        <ele>83.199996948242</ele>
        <time>2014-09-21T08:27:36.000Z</time>
      </trkpt>
      <trkpt lat="48.92681" lon="2.09697">
        <ele>83.199996948242</ele>
        <time>2014-09-21T08:27:43.000Z</time>
      </trkpt>
      <trkpt lat="48.92695" lon="2.09706">
        <ele>82.599998474121</ele>
        <time>2014-09-21T08:27:51.000Z</time>
      </trkpt>
      <trkpt lat="48.92701" lon="2.0971">
        <ele>82</ele>
        <time>2014-09-21T08:27:56.000Z</time>
      </trkpt>
      <trkpt lat="48.92709" lon="2.09715">
        <ele>81.400001525879</ele>
        <time>2014-09-21T08:28:04.000Z</time>
      </trkpt>
      <trkpt lat="48.92717" lon="2.09721">
        <ele>80.800003051758</ele>
        <time>2014-09-21T08:28:11.000Z</time>
      </trkpt>
      <trkpt lat="48.92724" lon="2.09727">
        <ele>80.199996948242</ele>
        <time>2014-09-21T08:28:17.000Z</time>
      </trkpt>
      <trkpt lat="48.92738" lon="2.09736">
        <ele>79</ele>
        <time>2014-09-21T08:28:27.000Z</time>
      </trkpt>
      <trkpt lat="48.92743" lon="2.09741">
        <ele>78.599998474121</ele>
        <time>2014-09-21T08:28:33.000Z</time>
      </trkpt>
      <trkpt lat="48.92749" lon="2.09747">
        <ele>78</ele>
        <time>2014-09-21T08:28:39.000Z</time>
      </trkpt>
      <trkpt lat="48.92755" lon="2.0975">
        <ele>77.599998474121</ele>
        <time>2014-09-21T08:28:43.000Z</time>
      </trkpt>
      <trkpt lat="48.92759" lon="2.09754">
        <ele>77.199996948242</ele>
        <time>2014-09-21T08:28:47.000Z</time>
      </trkpt>
      <trkpt lat="48.92765" lon="2.0976">
        <ele>76.599998474121</ele>
        <time>2014-09-21T08:28:53.000Z</time>
      </trkpt>
      <trkpt lat="48.92768" lon="2.09762">
        <ele>76.199996948242</ele>
        <time>2014-09-21T08:28:57.000Z</time>
      </trkpt>
      <trkpt lat="48.92781" lon="2.09765">
        <ele>75.400001525879</ele>
        <time>2014-09-21T08:29:03.000Z</time>
      </trkpt>
      <trkpt lat="48.9279" lon="2.09771">
        <ele>75</ele>
        <time>2014-09-21T08:29:09.000Z</time>
      </trkpt>
      <trkpt lat="48.92792" lon="2.09775">
        <ele>75</ele>
        <time>2014-09-21T08:29:13.000Z</time>
      </trkpt>
      <trkpt lat="48.92797" lon="2.09781">
        <ele>74.800003051758</ele>
        <time>2014-09-21T08:29:18.000Z</time>
      </trkpt>
      <trkpt lat="48.92798" lon="2.09782">
        <ele>74.599998474121</ele>
        <time>2014-09-21T08:29:19.000Z</time>
      </trkpt>
      <trkpt lat="48.92807" lon="2.09788">
        <ele>74.199996948242</ele>
        <time>2014-09-21T08:29:26.000Z</time>
      </trkpt>
      <trkpt lat="48.92817" lon="2.09794">
        <ele>73.800003051758</ele>
        <time>2014-09-21T08:29:33.000Z</time>
      </trkpt>
      <trkpt lat="48.9282" lon="2.09795">
        <ele>73.800003051758</ele>
        <time>2014-09-21T08:29:36.000Z</time>
      </trkpt>
      <trkpt lat="48.92829" lon="2.09803">
        <ele>73.400001525879</ele>
        <time>2014-09-21T08:29:43.000Z</time>
      </trkpt>
      <trkpt lat="48.92834" lon="2.09808">
        <ele>73</ele>
        <time>2014-09-21T08:29:48.000Z</time>
      </trkpt>
      <trkpt lat="48.92841" lon="2.09814">
        <ele>72.800003051758</ele>
        <time>2014-09-21T08:29:53.000Z</time>
      </trkpt>
      <trkpt lat="48.92852" lon="2.09821">
        <ele>72.199996948242</ele>
        <time>2014-09-21T08:29:59.000Z</time>
      </trkpt>
      <trkpt lat="48.92861" lon="2.09825">
        <ele>72.199996948242</ele>
        <time>2014-09-21T08:30:05.000Z</time>
      </trkpt>
      <trkpt lat="48.92875" lon="2.09833">
        <ele>72.400001525879</ele>
        <time>2014-09-21T08:30:14.000Z</time>
      </trkpt>
      <trkpt lat="48.92881" lon="2.09836">
        <ele>72.599998474121</ele>
        <time>2014-09-21T08:30:18.000Z</time>
      </trkpt>
      <trkpt lat="48.92892" lon="2.09842">
        <ele>72.800003051758</ele>
        <time>2014-09-21T08:30:25.000Z</time>
      </trkpt>
      <trkpt lat="48.92894" lon="2.09843">
        <ele>72.800003051758</ele>
        <time>2014-09-21T08:30:29.000Z</time>
      </trkpt>
      <trkpt lat="48.92879" lon="2.09848">
        <ele>72.599998474121</ele>
        <time>2014-09-21T08:33:24.000Z</time>
      </trkpt>
      <trkpt lat="48.92875" lon="2.09847">
        <ele>72.400001525879</ele>
        <time>2014-09-21T08:33:27.000Z</time>
      </trkpt>
      <trkpt lat="48.92873" lon="2.09847">
        <ele>72.400001525879</ele>
        <time>2014-09-21T08:33:32.000Z</time>
      </trkpt>
      <trkpt lat="48.92866" lon="2.0984">
        <ele>72.199996948242</ele>
        <time>2014-09-21T08:33:46.000Z</time>
      </trkpt>
      <trkpt lat="48.92862" lon="2.09834">
        <ele>72</ele>
        <time>2014-09-21T08:33:51.000Z</time>
      </trkpt>
      <trkpt lat="48.92855" lon="2.09829">
        <ele>72</ele>
        <time>2014-09-21T08:33:57.000Z</time>
      </trkpt>
      <trkpt lat="48.92848" lon="2.09824">
        <ele>72.400001525879</ele>
        <time>2014-09-21T08:34:02.000Z</time>
      </trkpt>
      <trkpt lat="48.92843" lon="2.0982">
        <ele>72.599998474121</ele>
        <time>2014-09-21T08:34:07.000Z</time>
      </trkpt>
      <trkpt lat="48.92832" lon="2.09813">
        <ele>73</ele>
        <time>2014-09-21T08:34:14.000Z</time>
      </trkpt>
      <trkpt lat="48.92826" lon="2.09807">
        <ele>73.400001525879</ele>
        <time>2014-09-21T08:34:19.000Z</time>
      </trkpt>
      <trkpt lat="48.92819" lon="2.09801">
        <ele>73.599998474121</ele>
        <time>2014-09-21T08:34:25.000Z</time>
      </trkpt>
      <trkpt lat="48.92814" lon="2.09796">
        <ele>74</ele>
        <time>2014-09-21T08:34:29.000Z</time>
      </trkpt>
      <trkpt lat="48.92808" lon="2.09791">
        <ele>74.199996948242</ele>
        <time>2014-09-21T08:34:34.000Z</time>
      </trkpt>
      <trkpt lat="48.92799" lon="2.09784">
        <ele>74.599998474121</ele>
        <time>2014-09-21T08:34:41.000Z</time>
      </trkpt>
      <trkpt lat="48.92793" lon="2.09779">
        <ele>74.800003051758</ele>
        <time>2014-09-21T08:34:47.000Z</time>
      </trkpt>
      <trkpt lat="48.92787" lon="2.09775">
        <ele>75.199996948242</ele>
        <time>2014-09-21T08:34:51.000Z</time>
      </trkpt>
      <trkpt lat="48.92774" lon="2.0977">
        <ele>75.800003051758</ele>
        <time>2014-09-21T08:34:57.000Z</time>
      </trkpt>
      <trkpt lat="48.92756" lon="2.09766">
        <ele>77.199996948242</ele>
        <time>2014-09-21T08:35:03.000Z</time>
      </trkpt>
      <trkpt lat="48.92746" lon="2.09761">
        <ele>78.199996948242</ele>
        <time>2014-09-21T08:35:08.000Z</time>
      </trkpt>
      <trkpt lat="48.92739" lon="2.09754">
        <ele>78.800003051758</ele>
        <time>2014-09-21T08:35:15.000Z</time>
      </trkpt>
      <trkpt lat="48.92735" lon="2.09747">
        <ele>79.199996948242</ele>
        <time>2014-09-21T08:35:22.000Z</time>
      </trkpt>
      <trkpt lat="48.92729" lon="2.09742">
        <ele>79.800003051758</ele>
        <time>2014-09-21T08:35:27.000Z</time>
      </trkpt>
      <trkpt lat="48.92725" lon="2.09736">
        <ele>80</ele>
        <time>2014-09-21T08:35:33.000Z</time>
      </trkpt>
      <trkpt lat="48.92721" lon="2.09732">
        <ele>80.400001525879</ele>
        <time>2014-09-21T08:35:38.000Z</time>
      </trkpt>
      <trkpt lat="48.92714" lon="2.09726">
        <ele>81</ele>
        <time>2014-09-21T08:35:43.000Z</time>
      </trkpt>
      <trkpt lat="48.92708" lon="2.09721">
        <ele>81.599998474121</ele>
        <time>2014-09-21T08:35:47.000Z</time>
      </trkpt>
      <trkpt lat="48.92698" lon="2.09715">
        <ele>82.400001525879</ele>
        <time>2014-09-21T08:35:52.000Z</time>
      </trkpt>
      <trkpt lat="48.92685" lon="2.09708">
        <ele>83</ele>
        <time>2014-09-21T08:35:59.000Z</time>
      </trkpt>
      <trkpt lat="48.92678" lon="2.09701">
        <ele>83.199996948242</ele>
        <time>2014-09-21T08:36:05.000Z</time>
      </trkpt>
      <trkpt lat="48.9267" lon="2.09695">
        <ele>83.199996948242</ele>
        <time>2014-09-21T08:36:10.000Z</time>
      </trkpt>
      <trkpt lat="48.9266" lon="2.09691">
        <ele>83.400001525879</ele>
        <time>2014-09-21T08:36:16.000Z</time>
      </trkpt>
      <trkpt lat="48.92648" lon="2.09686">
        <ele>83.599998474121</ele>
        <time>2014-09-21T08:36:21.000Z</time>
      </trkpt>
      <trkpt lat="48.92638" lon="2.09679">
        <ele>83.599998474121</ele>
        <time>2014-09-21T08:36:26.000Z</time>
      </trkpt>
      <trkpt lat="48.92632" lon="2.09675">
        <ele>83.800003051758</ele>
        <time>2014-09-21T08:36:30.000Z</time>
      </trkpt>
      <trkpt lat="48.92621" lon="2.0967">
        <ele>83.800003051758</ele>
        <time>2014-09-21T08:36:35.000Z</time>
      </trkpt>
      <trkpt lat="48.92612" lon="2.09661">
        <ele>84</ele>
        <time>2014-09-21T08:36:42.000Z</time>
      </trkpt>
      <trkpt lat="48.92606" lon="2.09657">
        <ele>84</ele>
        <time>2014-09-21T08:36:47.000Z</time>
      </trkpt>
      <trkpt lat="48.926" lon="2.09649">
        <ele>84</ele>
        <time>2014-09-21T08:36:54.000Z</time>
      </trkpt>
      <trkpt lat="48.92592" lon="2.09642">
        <ele>84</ele>
        <time>2014-09-21T08:37:00.000Z</time>
      </trkpt>
      <trkpt lat="48.92585" lon="2.09636">
        <ele>84</ele>
        <time>2014-09-21T08:37:05.000Z</time>
      </trkpt>
      <trkpt lat="48.9258" lon="2.0963">
        <ele>84</ele>
        <time>2014-09-21T08:37:09.000Z</time>
      </trkpt>
      <trkpt lat="48.92578" lon="2.09627">
        <ele>84</ele>
        <time>2014-09-21T08:37:11.000Z</time>
      </trkpt>
      <trkpt lat="48.92566" lon="2.0962">
        <ele>84</ele>
        <time>2014-09-21T08:37:18.000Z</time>
      </trkpt>
      <trkpt lat="48.92555" lon="2.0961">
        <ele>84</ele>
        <time>2014-09-21T08:37:27.000Z</time>
      </trkpt>
      <trkpt lat="48.92548" lon="2.09603">
        <ele>84</ele>
        <time>2014-09-21T08:37:32.000Z</time>
      </trkpt>
      <trkpt lat="48.92544" lon="2.096">
        <ele>84</ele>
        <time>2014-09-21T08:37:36.000Z</time>
      </trkpt>
      <trkpt lat="48.9254" lon="2.09598">
        <ele>84</ele>
        <time>2014-09-21T08:37:40.000Z</time>
      </trkpt>
      <trkpt lat="48.9253" lon="2.09601">
        <ele>84</ele>
        <time>2014-09-21T08:37:48.000Z</time>
      </trkpt>
      <trkpt lat="48.92524" lon="2.09604">
        <ele>84</ele>
        <time>2014-09-21T08:37:54.000Z</time>
      </trkpt>
      <trkpt lat="48.92524" lon="2.09604">
        <ele>84</ele>
        <time>2014-09-21T08:37:55.000Z</time>
      </trkpt>
      <trkpt lat="48.92523" lon="2.09619">
        <ele>84</ele>
        <time>2014-09-21T08:38:31.000Z</time>
      </trkpt>
      <trkpt lat="48.92518" lon="2.09631">
        <ele>84</ele>
        <time>2014-09-21T08:38:36.000Z</time>
      </trkpt>
      <trkpt lat="48.92514" lon="2.09646">
        <ele>83.800003051758</ele>
        <time>2014-09-21T08:38:42.000Z</time>
      </trkpt>
      <trkpt lat="48.9251" lon="2.09663">
        <ele>83.800003051758</ele>
        <time>2014-09-21T08:38:49.000Z</time>
      </trkpt>
      <trkpt lat="48.92506" lon="2.09684">
        <ele>83.199996948242</ele>
        <time>2014-09-21T08:38:54.000Z</time>
      </trkpt>
      <trkpt lat="48.92503" lon="2.09699">
        <ele>82.800003051758</ele>
        <time>2014-09-21T08:38:59.000Z</time>
      </trkpt>
      <trkpt lat="48.92497" lon="2.09716">
        <ele>82.400001525879</ele>
        <time>2014-09-21T08:39:07.000Z</time>
      </trkpt>
      <trkpt lat="48.92496" lon="2.09723">
        <ele>82.199996948242</ele>
        <time>2014-09-21T08:39:10.000Z</time>
      </trkpt>
      <trkpt lat="48.92493" lon="2.09737">
        <ele>82</ele>
        <time>2014-09-21T08:39:16.000Z</time>
      </trkpt>
      <trkpt lat="48.9249" lon="2.09749">
        <ele>82</ele>
        <time>2014-09-21T08:39:21.000Z</time>
      </trkpt>
      <trkpt lat="48.9249" lon="2.09751">
        <ele>82</ele>
        <time>2014-09-21T08:39:22.000Z</time>
      </trkpt>
      <trkpt lat="48.92487" lon="2.09764">
        <ele>82</ele>
        <time>2014-09-21T08:39:29.000Z</time>
      </trkpt>
      <trkpt lat="48.92485" lon="2.09777">
        <ele>82</ele>
        <time>2014-09-21T08:39:36.000Z</time>
      </trkpt>
      <trkpt lat="48.92485" lon="2.09794">
        <ele>82</ele>
        <time>2014-09-21T08:39:43.000Z</time>
      </trkpt>
      <trkpt lat="48.92481" lon="2.09808">
        <ele>82.199996948242</ele>
        <time>2014-09-21T08:39:50.000Z</time>
      </trkpt>
      <trkpt lat="48.92478" lon="2.09824">
        <ele>82.599998474121</ele>
        <time>2014-09-21T08:39:57.000Z</time>
      </trkpt>
      <trkpt lat="48.92474" lon="2.09838">
        <ele>82.800003051758</ele>
        <time>2014-09-21T08:40:03.000Z</time>
      </trkpt>
      <trkpt lat="48.92472" lon="2.09855">
        <ele>83</ele>
        <time>2014-09-21T08:40:09.000Z</time>
      </trkpt>
      <trkpt lat="48.9247" lon="2.09871">
        <ele>83.199996948242</ele>
        <time>2014-09-21T08:40:15.000Z</time>
      </trkpt>
      <trkpt lat="48.92468" lon="2.09886">
        <ele>83.400001525879</ele>
        <time>2014-09-21T08:40:20.000Z</time>
      </trkpt>
      <trkpt lat="48.92463" lon="2.09895">
        <ele>83.599998474121</ele>
        <time>2014-09-21T08:40:27.000Z</time>
      </trkpt>
      <trkpt lat="48.92462" lon="2.09909">
        <ele>83.800003051758</ele>
        <time>2014-09-21T08:40:33.000Z</time>
      </trkpt>
      <trkpt lat="48.92463" lon="2.09923">
        <ele>84</ele>
        <time>2014-09-21T08:40:38.000Z</time>
      </trkpt>
      <trkpt lat="48.92457" lon="2.09935">
        <ele>84.199996948242</ele>
        <time>2014-09-21T08:40:44.000Z</time>
      </trkpt>
      <trkpt lat="48.92456" lon="2.09939">
        <ele>84.199996948242</ele>
        <time>2014-09-21T08:40:46.000Z</time>
      </trkpt>
      <trkpt lat="48.92453" lon="2.09948">
        <ele>84.199996948242</ele>
        <time>2014-09-21T08:40:51.000Z</time>
      </trkpt>
      <trkpt lat="48.92447" lon="2.09965">
        <ele>84</ele>
        <time>2014-09-21T08:40:59.000Z</time>
      </trkpt>
      <trkpt lat="48.92444" lon="2.09973">
        <ele>84</ele>
        <time>2014-09-21T08:41:03.000Z</time>
      </trkpt>
      <trkpt lat="48.92444" lon="2.09977">
        <ele>84</ele>
        <time>2014-09-21T08:41:05.000Z</time>
      </trkpt>
      <trkpt lat="48.92441" lon="2.09995">
        <ele>84</ele>
        <time>2014-09-21T08:41:14.000Z</time>
      </trkpt>
      <trkpt lat="48.92436" lon="2.10011">
        <ele>83.199996948242</ele>
        <time>2014-09-21T08:41:21.000Z</time>
      </trkpt>
      <trkpt lat="48.92432" lon="2.10028">
        <ele>82.400001525879</ele>
        <time>2014-09-21T08:41:29.000Z</time>
      </trkpt>
      <trkpt lat="48.92433" lon="2.10045">
        <ele>81.800003051758</ele>
        <time>2014-09-21T08:41:36.000Z</time>
      </trkpt>
      <trkpt lat="48.92429" lon="2.10061">
        <ele>81</ele>
        <time>2014-09-21T08:41:43.000Z</time>
      </trkpt>
      <trkpt lat="48.92425" lon="2.10077">
        <ele>80.400001525879</ele>
        <time>2014-09-21T08:41:49.000Z</time>
      </trkpt>
      <trkpt lat="48.92422" lon="2.10086">
        <ele>80.400001525879</ele>
        <time>2014-09-21T08:41:53.000Z</time>
      </trkpt>
      <trkpt lat="48.92422" lon="2.10102">
        <ele>80.400001525879</ele>
        <time>2014-09-21T08:41:59.000Z</time>
      </trkpt>
      <trkpt lat="48.92419" lon="2.10112">
        <ele>80.199996948242</ele>
        <time>2014-09-21T08:42:03.000Z</time>
      </trkpt>
      <trkpt lat="48.92415" lon="2.10123">
        <ele>80</ele>
        <time>2014-09-21T08:42:08.000Z</time>
      </trkpt>
      <trkpt lat="48.92412" lon="2.10143">
        <ele>80.199996948242</ele>
        <time>2014-09-21T08:42:18.000Z</time>
      </trkpt>
      <trkpt lat="48.92408" lon="2.10156">
        <ele>80.199996948242</ele>
        <time>2014-09-21T08:42:25.000Z</time>
      </trkpt>
      <trkpt lat="48.92405" lon="2.10172">
        <ele>80.199996948242</ele>
        <time>2014-09-21T08:42:33.000Z</time>
      </trkpt>
      <trkpt lat="48.92406" lon="2.10181">
        <ele>80.400001525879</ele>
        <time>2014-09-21T08:42:37.000Z</time>
      </trkpt>
      <trkpt lat="48.92406" lon="2.10199">
        <ele>80.599998474121</ele>
        <time>2014-09-21T08:42:46.000Z</time>
      </trkpt>
      <trkpt lat="48.92404" lon="2.10211">
        <ele>80.599998474121</ele>
        <time>2014-09-21T08:42:51.000Z</time>
      </trkpt>
      <trkpt lat="48.92403" lon="2.10227">
        <ele>80.199996948242</ele>
        <time>2014-09-21T08:42:58.000Z</time>
      </trkpt>
      <trkpt lat="48.92401" lon="2.10242">
        <ele>79.599998474121</ele>
        <time>2014-09-21T08:43:05.000Z</time>
      </trkpt>
      <trkpt lat="48.92398" lon="2.10258">
        <ele>79</ele>
        <time>2014-09-21T08:43:13.000Z</time>
      </trkpt>
      <trkpt lat="48.92394" lon="2.10275">
        <ele>78</ele>
        <time>2014-09-21T08:43:21.000Z</time>
      </trkpt>
      <trkpt lat="48.92388" lon="2.1029">
        <ele>78</ele>
        <time>2014-09-21T08:43:27.000Z</time>
      </trkpt>
      <trkpt lat="48.92383" lon="2.10302">
        <ele>78</ele>
        <time>2014-09-21T08:43:33.000Z</time>
      </trkpt>
      <trkpt lat="48.92377" lon="2.1031">
        <ele>78</ele>
        <time>2014-09-21T08:43:39.000Z</time>
      </trkpt>
      <trkpt lat="48.92371" lon="2.10317">
        <ele>78</ele>
        <time>2014-09-21T08:43:45.000Z</time>
      </trkpt>
      <trkpt lat="48.92367" lon="2.10324">
        <ele>78</ele>
        <time>2014-09-21T08:43:49.000Z</time>
      </trkpt>
      <trkpt lat="48.92363" lon="2.10343">
        <ele>78.599998474121</ele>
        <time>2014-09-21T08:43:58.000Z</time>
      </trkpt>
      <trkpt lat="48.92365" lon="2.10343">
        <ele>78.400001525879</ele>
        <time>2014-09-21T08:44:02.000Z</time>
      </trkpt>
      <trkpt lat="48.92365" lon="2.10342">
        <ele>78.400001525879</ele>
        <time>2014-09-21T08:44:04.000Z</time>
      </trkpt>
      <trkpt lat="48.92362" lon="2.10347">
        <ele>78.599998474121</ele>
        <time>2014-09-21T08:44:27.000Z</time>
      </trkpt>
      <trkpt lat="48.92348" lon="2.10355">
        <ele>79.199996948242</ele>
        <time>2014-09-21T08:44:31.000Z</time>
      </trkpt>
      <trkpt lat="48.92342" lon="2.10362">
        <ele>79.599998474121</ele>
        <time>2014-09-21T08:44:34.000Z</time>
      </trkpt>
      <trkpt lat="48.92338" lon="2.1037">
        <ele>80</ele>
        <time>2014-09-21T08:44:38.000Z</time>
      </trkpt>
      <trkpt lat="48.92336" lon="2.10373">
        <ele>80.199996948242</ele>
        <time>2014-09-21T08:44:40.000Z</time>
      </trkpt>
      <trkpt lat="48.9233" lon="2.10382">
        <ele>80.599998474121</ele>
        <time>2014-09-21T08:44:46.000Z</time>
      </trkpt>
      <trkpt lat="48.92329" lon="2.10384">
        <ele>80.800003051758</ele>
        <time>2014-09-21T08:44:47.000Z</time>
      </trkpt>
      <trkpt lat="48.92319" lon="2.10393">
        <ele>81</ele>
        <time>2014-09-21T08:44:53.000Z</time>
      </trkpt>
      <trkpt lat="48.92316" lon="2.10396">
        <ele>81.199996948242</ele>
        <time>2014-09-21T08:44:55.000Z</time>
      </trkpt>
      <trkpt lat="48.92312" lon="2.10401">
        <ele>81.400001525879</ele>
        <time>2014-09-21T08:44:59.000Z</time>
      </trkpt>
      <trkpt lat="48.92304" lon="2.10412">
        <ele>81.599998474121</ele>
        <time>2014-09-21T08:45:05.000Z</time>
      </trkpt>
      <trkpt lat="48.92296" lon="2.10419">
        <ele>81.599998474121</ele>
        <time>2014-09-21T08:45:10.000Z</time>
      </trkpt>
      <trkpt lat="48.92286" lon="2.10425">
        <ele>81.400001525879</ele>
        <time>2014-09-21T08:45:17.000Z</time>
      </trkpt>
      <trkpt lat="48.92279" lon="2.10436">
        <ele>81.400001525879</ele>
        <time>2014-09-21T08:45:23.000Z</time>
      </trkpt>
      <trkpt lat="48.92272" lon="2.10448">
        <ele>81</ele>
        <time>2014-09-21T08:45:31.000Z</time>
      </trkpt>
      <trkpt lat="48.92268" lon="2.10449">
        <ele>80.800003051758</ele>
        <time>2014-09-21T08:45:35.000Z</time>
      </trkpt>
      <trkpt lat="48.9226" lon="2.10455">
        <ele>80.400001525879</ele>
        <time>2014-09-21T08:45:41.000Z</time>
      </trkpt>
      <trkpt lat="48.92251" lon="2.1046">
        <ele>80</ele>
        <time>2014-09-21T08:45:49.000Z</time>
      </trkpt>
      <trkpt lat="48.92247" lon="2.10469">
        <ele>79.599998474121</ele>
        <time>2014-09-21T08:45:55.000Z</time>
      </trkpt>
      <trkpt lat="48.92236" lon="2.10479">
        <ele>79</ele>
        <time>2014-09-21T08:46:01.000Z</time>
      </trkpt>
      <trkpt lat="48.92233" lon="2.10484">
        <ele>78.800003051758</ele>
        <time>2014-09-21T08:46:05.000Z</time>
      </trkpt>
      <trkpt lat="48.92222" lon="2.10503">
        <ele>77.800003051758</ele>
        <time>2014-09-21T08:46:13.000Z</time>
      </trkpt>
      <trkpt lat="48.92209" lon="2.10511">
        <ele>77</ele>
        <time>2014-09-21T08:46:21.000Z</time>
      </trkpt>
      <trkpt lat="48.92205" lon="2.10512">
        <ele>76.599998474121</ele>
        <time>2014-09-21T08:46:25.000Z</time>
      </trkpt>
      <trkpt lat="48.92202" lon="2.10514">
        <ele>76</ele>
        <time>2014-09-21T08:46:28.000Z</time>
      </trkpt>
      <trkpt lat="48.92194" lon="2.10522">
        <ele>74.599998474121</ele>
        <time>2014-09-21T08:46:33.000Z</time>
      </trkpt>
      <trkpt lat="48.92181" lon="2.10534">
        <ele>72</ele>
        <time>2014-09-21T08:46:39.000Z</time>
      </trkpt>
      <trkpt lat="48.92177" lon="2.10538">
        <ele>71.400001525879</ele>
        <time>2014-09-21T08:46:41.000Z</time>
      </trkpt>
      <trkpt lat="48.92165" lon="2.10547">
        <ele>69.199996948242</ele>
        <time>2014-09-21T08:46:49.000Z</time>
      </trkpt>
      <trkpt lat="48.92163" lon="2.10549">
        <ele>68.800003051758</ele>
        <time>2014-09-21T08:46:53.000Z</time>
      </trkpt>
      <trkpt lat="48.92161" lon="2.10548">
        <ele>68.599998474121</ele>
        <time>2014-09-21T08:46:58.000Z</time>
      </trkpt>
      <trkpt lat="48.92159" lon="2.10547">
        <ele>68.599998474121</ele>
        <time>2014-09-21T08:47:00.000Z</time>
      </trkpt>
      <trkpt lat="48.92154" lon="2.10546">
        <ele>68.199996948242</ele>
        <time>2014-09-21T08:47:05.000Z</time>
      </trkpt>
      <trkpt lat="48.92153" lon="2.10546">
        <ele>68.199996948242</ele>
        <time>2014-09-21T08:47:06.000Z</time>
      </trkpt>
      <trkpt lat="48.92148" lon="2.10559">
        <ele>67.400001525879</ele>
        <time>2014-09-21T08:47:13.000Z</time>
      </trkpt>
      <trkpt lat="48.92134" lon="2.1057">
        <ele>66</ele>
        <time>2014-09-21T08:47:22.000Z</time>
      </trkpt>
      <trkpt lat="48.92121" lon="2.1058">
        <ele>64.599998474121</ele>
        <time>2014-09-21T08:47:30.000Z</time>
      </trkpt>
      <trkpt lat="48.92107" lon="2.10587">
        <ele>63.599998474121</ele>
        <time>2014-09-21T08:47:37.000Z</time>
      </trkpt>
      <trkpt lat="48.92096" lon="2.10595">
        <ele>62.200000762939</ele>
        <time>2014-09-21T08:47:43.000Z</time>
      </trkpt>
      <trkpt lat="48.92094" lon="2.10596">
        <ele>62</ele>
        <time>2014-09-21T08:47:44.000Z</time>
      </trkpt>
      <trkpt lat="48.92086" lon="2.10601">
        <ele>61</ele>
        <time>2014-09-21T08:47:52.000Z</time>
      </trkpt>
      <trkpt lat="48.9208" lon="2.10604">
        <ele>60.400001525879</ele>
        <time>2014-09-21T08:47:59.000Z</time>
      </trkpt>
      <trkpt lat="48.9208" lon="2.10604">
        <ele>60.400001525879</ele>
        <time>2014-09-21T08:48:01.000Z</time>
      </trkpt>
      <trkpt lat="48.92069" lon="2.10621">
        <ele>58.599998474121</ele>
        <time>2014-09-21T08:49:10.000Z</time>
      </trkpt>
      <trkpt lat="48.9206" lon="2.10629">
        <ele>58.200000762939</ele>
        <time>2014-09-21T08:49:14.000Z</time>
      </trkpt>
      <trkpt lat="48.92053" lon="2.10637">
        <ele>57.599998474121</ele>
        <time>2014-09-21T08:49:21.000Z</time>
      </trkpt>
      <trkpt lat="48.92046" lon="2.10641">
        <ele>57.200000762939</ele>
        <time>2014-09-21T08:49:27.000Z</time>
      </trkpt>
      <trkpt lat="48.92037" lon="2.10647">
        <ele>56.799999237061</ele>
        <time>2014-09-21T08:49:34.000Z</time>
      </trkpt>
      <trkpt lat="48.92032" lon="2.1065">
        <ele>56.400001525879</ele>
        <time>2014-09-21T08:49:41.000Z</time>
      </trkpt>
      <trkpt lat="48.92034" lon="2.10646">
        <ele>56.599998474121</ele>
        <time>2014-09-21T08:53:24.000Z</time>
      </trkpt>
      <trkpt lat="48.92049" lon="2.10635">
        <ele>57.599998474121</ele>
        <time>2014-09-21T08:53:29.000Z</time>
      </trkpt>
      <trkpt lat="48.92056" lon="2.10628">
        <ele>58</ele>
        <time>2014-09-21T08:53:34.000Z</time>
      </trkpt>
      <trkpt lat="48.92061" lon="2.10624">
        <ele>58.200000762939</ele>
        <time>2014-09-21T08:53:39.000Z</time>
      </trkpt>
      <trkpt lat="48.92065" lon="2.10619">
        <ele>58.400001525879</ele>
        <time>2014-09-21T08:53:45.000Z</time>
      </trkpt>
      <trkpt lat="48.92067" lon="2.10614">
        <ele>58.799999237061</ele>
        <time>2014-09-21T08:53:51.000Z</time>
      </trkpt>
      <trkpt lat="48.92071" lon="2.10611">
        <ele>59.200000762939</ele>
        <time>2014-09-21T08:53:59.000Z</time>
      </trkpt>
      <trkpt lat="48.92078" lon="2.10599">
        <ele>60.599998474121</ele>
        <time>2014-09-21T08:56:02.000Z</time>
      </trkpt>
      <trkpt lat="48.92082" lon="2.10597">
        <ele>60.799999237061</ele>
        <time>2014-09-21T08:56:08.000Z</time>
      </trkpt>
      <trkpt lat="48.92082" lon="2.10596">
        <ele>61</ele>
        <time>2014-09-21T08:56:11.000Z</time>
      </trkpt>
      <trkpt lat="48.92084" lon="2.10595">
        <ele>61.200000762939</ele>
        <time>2014-09-21T08:56:15.000Z</time>
      </trkpt>
      <trkpt lat="48.92089" lon="2.10592">
        <ele>61.799999237061</ele>
        <time>2014-09-21T08:56:21.000Z</time>
      </trkpt>
      <trkpt lat="48.92095" lon="2.1059">
        <ele>62.400001525879</ele>
        <time>2014-09-21T08:56:28.000Z</time>
      </trkpt>
      <trkpt lat="48.92101" lon="2.10583">
        <ele>63.200000762939</ele>
        <time>2014-09-21T08:56:36.000Z</time>
      </trkpt>
      <trkpt lat="48.92103" lon="2.1058">
        <ele>63.599998474121</ele>
        <time>2014-09-21T08:56:38.000Z</time>
      </trkpt>
      <trkpt lat="48.92111" lon="2.10576">
        <ele>64.199996948242</ele>
        <time>2014-09-21T08:56:45.000Z</time>
      </trkpt>
      <trkpt lat="48.92114" lon="2.10576">
        <ele>64.400001525879</ele>
        <time>2014-09-21T08:56:49.000Z</time>
      </trkpt>
      <trkpt lat="48.92117" lon="2.10571">
        <ele>65</ele>
        <time>2014-09-21T08:56:54.000Z</time>
      </trkpt>
      <trkpt lat="48.92124" lon="2.10563">
        <ele>65.599998474121</ele>
        <time>2014-09-21T08:56:59.000Z</time>
      </trkpt>
      <trkpt lat="48.92132" lon="2.10559">
        <ele>66.400001525879</ele>
        <time>2014-09-21T08:57:05.000Z</time>
      </trkpt>
      <trkpt lat="48.92137" lon="2.10554">
        <ele>67</ele>
        <time>2014-09-21T08:57:09.000Z</time>
      </trkpt>
      <trkpt lat="48.92143" lon="2.10548">
        <ele>67.599998474121</ele>
        <time>2014-09-21T08:57:13.000Z</time>
      </trkpt>
      <trkpt lat="48.92152" lon="2.10539">
        <ele>68.599998474121</ele>
        <time>2014-09-21T08:57:20.000Z</time>
      </trkpt>
      <trkpt lat="48.92158" lon="2.10537">
        <ele>69.400001525879</ele>
        <time>2014-09-21T08:57:24.000Z</time>
      </trkpt>
      <trkpt lat="48.92164" lon="2.10532">
        <ele>70.400001525879</ele>
        <time>2014-09-21T08:57:31.000Z</time>
      </trkpt>
      <trkpt lat="48.92171" lon="2.10523">
        <ele>72</ele>
        <time>2014-09-21T08:57:37.000Z</time>
      </trkpt>
      <trkpt lat="48.9218" lon="2.10515">
        <ele>73.800003051758</ele>
        <time>2014-09-21T08:57:44.000Z</time>
      </trkpt>
      <trkpt lat="48.92183" lon="2.10511">
        <ele>74.599998474121</ele>
        <time>2014-09-21T08:57:48.000Z</time>
      </trkpt>
      <trkpt lat="48.92194" lon="2.10501">
        <ele>76.599998474121</ele>
        <time>2014-09-21T08:57:56.000Z</time>
      </trkpt>
      <trkpt lat="48.92197" lon="2.10499">
        <ele>77</ele>
        <time>2014-09-21T08:57:58.000Z</time>
      </trkpt>
      <trkpt lat="48.92202" lon="2.10494">
        <ele>77.400001525879</ele>
        <time>2014-09-21T08:58:03.000Z</time>
      </trkpt>
      <trkpt lat="48.9221" lon="2.10491">
        <ele>77.800003051758</ele>
        <time>2014-09-21T08:58:09.000Z</time>
      </trkpt>
      <trkpt lat="48.92218" lon="2.10484">
        <ele>78.199996948242</ele>
        <time>2014-09-21T08:58:14.000Z</time>
      </trkpt>
      <trkpt lat="48.92225" lon="2.10477">
        <ele>78.599998474121</ele>
        <time>2014-09-21T08:58:20.000Z</time>
      </trkpt>
      <trkpt lat="48.92229" lon="2.10468">
        <ele>79</ele>
        <time>2014-09-21T08:58:25.000Z</time>
      </trkpt>
      <trkpt lat="48.92236" lon="2.10458">
        <ele>79.400001525879</ele>
        <time>2014-09-21T08:58:31.000Z</time>
      </trkpt>
      <trkpt lat="48.92244" lon="2.10454">
        <ele>79.800003051758</ele>
        <time>2014-09-21T08:58:35.000Z</time>
      </trkpt>
      <trkpt lat="48.92252" lon="2.10452">
        <ele>80.199996948242</ele>
        <time>2014-09-21T08:58:39.000Z</time>
      </trkpt>
      <trkpt lat="48.92257" lon="2.10447">
        <ele>80.599998474121</ele>
        <time>2014-09-21T08:58:43.000Z</time>
      </trkpt>
      <trkpt lat="48.92266" lon="2.10439">
        <ele>81</ele>
        <time>2014-09-21T08:58:50.000Z</time>
      </trkpt>
      <trkpt lat="48.92273" lon="2.10432">
        <ele>81.400001525879</ele>
        <time>2014-09-21T08:58:57.000Z</time>
      </trkpt>
      <trkpt lat="48.92279" lon="2.10431">
        <ele>81.400001525879</ele>
        <time>2014-09-21T08:59:01.000Z</time>
      </trkpt>
      <trkpt lat="48.92286" lon="2.10421">
        <ele>81.599998474121</ele>
        <time>2014-09-21T08:59:06.000Z</time>
      </trkpt>
      <trkpt lat="48.92292" lon="2.1041">
        <ele>81.800003051758</ele>
        <time>2014-09-21T08:59:11.000Z</time>
      </trkpt>
      <trkpt lat="48.92295" lon="2.10407">
        <ele>81.599998474121</ele>
        <time>2014-09-21T08:59:13.000Z</time>
      </trkpt>
      <trkpt lat="48.92302" lon="2.10402">
        <ele>81.400001525879</ele>
        <time>2014-09-21T08:59:19.000Z</time>
      </trkpt>
      <trkpt lat="48.92307" lon="2.104">
        <ele>81.400001525879</ele>
        <time>2014-09-21T08:59:23.000Z</time>
      </trkpt>
      <trkpt lat="48.92308" lon="2.10396">
        <ele>81.199996948242</ele>
        <time>2014-09-21T08:59:25.000Z</time>
      </trkpt>
      <trkpt lat="48.92313" lon="2.1039">
        <ele>81</ele>
        <time>2014-09-21T08:59:30.000Z</time>
      </trkpt>
      <trkpt lat="48.92317" lon="2.10389">
        <ele>81</ele>
        <time>2014-09-21T08:59:33.000Z</time>
      </trkpt>
      <trkpt lat="48.92324" lon="2.10383">
        <ele>80.800003051758</ele>
        <time>2014-09-21T08:59:38.000Z</time>
      </trkpt>
      <trkpt lat="48.92333" lon="2.10377">
        <ele>80.400001525879</ele>
        <time>2014-09-21T08:59:45.000Z</time>
      </trkpt>
      <trkpt lat="48.92339" lon="2.10371">
        <ele>80</ele>
        <time>2014-09-21T08:59:50.000Z</time>
      </trkpt>
      <trkpt lat="48.92345" lon="2.10364">
        <ele>79.599998474121</ele>
        <time>2014-09-21T08:59:54.000Z</time>
      </trkpt>
      <trkpt lat="48.9235" lon="2.10354">
        <ele>79.199996948242</ele>
        <time>2014-09-21T08:59:59.000Z</time>
      </trkpt>
      <trkpt lat="48.92351" lon="2.10353">
        <ele>79.199996948242</ele>
        <time>2014-09-21T09:00:00.000Z</time>
      </trkpt>
      <trkpt lat="48.92356" lon="2.10355">
        <ele>79</ele>
        <time>2014-09-21T09:00:03.000Z</time>
      </trkpt>
      <trkpt lat="48.9237" lon="2.1036">
        <ele>79</ele>
        <time>2014-09-21T09:00:11.000Z</time>
      </trkpt>
      <trkpt lat="48.92378" lon="2.10358">
        <ele>78.800003051758</ele>
        <time>2014-09-21T09:00:14.000Z</time>
      </trkpt>
      <trkpt lat="48.92389" lon="2.1035">
        <ele>78.599998474121</ele>
        <time>2014-09-21T09:00:22.000Z</time>
      </trkpt>
      <trkpt lat="48.92394" lon="2.10347">
        <ele>78.599998474121</ele>
        <time>2014-09-21T09:00:27.000Z</time>
      </trkpt>
      <trkpt lat="48.92399" lon="2.10349">
        <ele>78.800003051758</ele>
        <time>2014-09-21T09:00:32.000Z</time>
      </trkpt>
      <trkpt lat="48.92419" lon="2.10353">
        <ele>79</ele>
        <time>2014-09-21T09:00:39.000Z</time>
      </trkpt>
      <trkpt lat="48.92425" lon="2.10359">
        <ele>79.199996948242</ele>
        <time>2014-09-21T09:00:43.000Z</time>
      </trkpt>
      <trkpt lat="48.92428" lon="2.10367">
        <ele>79.400001525879</ele>
        <time>2014-09-21T09:00:48.000Z</time>
      </trkpt>
      <trkpt lat="48.92432" lon="2.10382">
        <ele>79.599998474121</ele>
        <time>2014-09-21T09:00:55.000Z</time>
      </trkpt>
      <trkpt lat="48.92442" lon="2.10396">
        <ele>79.800003051758</ele>
        <time>2014-09-21T09:01:03.000Z</time>
      </trkpt>
      <trkpt lat="48.92451" lon="2.10408">
        <ele>79.800003051758</ele>
        <time>2014-09-21T09:01:10.000Z</time>
      </trkpt>
      <trkpt lat="48.92452" lon="2.1041">
        <ele>79.800003051758</ele>
        <time>2014-09-21T09:01:11.000Z</time>
      </trkpt>
      <trkpt lat="48.92458" lon="2.10419">
        <ele>80</ele>
        <time>2014-09-21T09:01:16.000Z</time>
      </trkpt>
      <trkpt lat="48.92459" lon="2.10438">
        <ele>80.400001525879</ele>
        <time>2014-09-21T09:01:23.000Z</time>
      </trkpt>
      <trkpt lat="48.92462" lon="2.1045">
        <ele>80.400001525879</ele>
        <time>2014-09-21T09:01:30.000Z</time>
      </trkpt>
      <trkpt lat="48.92469" lon="2.10454">
        <ele>80.599998474121</ele>
        <time>2014-09-21T09:01:36.000Z</time>
      </trkpt>
      <trkpt lat="48.9247" lon="2.10464">
        <ele>80.599998474121</ele>
        <time>2014-09-21T09:01:41.000Z</time>
      </trkpt>
      <trkpt lat="48.92479" lon="2.1047">
        <ele>80.800003051758</ele>
        <time>2014-09-21T09:01:47.000Z</time>
      </trkpt>
      <trkpt lat="48.92489" lon="2.10481">
        <ele>80.800003051758</ele>
        <time>2014-09-21T09:01:54.000Z</time>
      </trkpt>
      <trkpt lat="48.92493" lon="2.10487">
        <ele>81</ele>
        <time>2014-09-21T09:02:00.000Z</time>
      </trkpt>
      <trkpt lat="48.92506" lon="2.10492">
        <ele>81</ele>
        <time>2014-09-21T09:02:07.000Z</time>
      </trkpt>
      <trkpt lat="48.92506" lon="2.10502">
        <ele>80.800003051758</ele>
        <time>2014-09-21T09:02:12.000Z</time>
      </trkpt>
      <trkpt lat="48.92512" lon="2.10519">
        <ele>80.599998474121</ele>
        <time>2014-09-21T09:02:19.000Z</time>
      </trkpt>
      <trkpt lat="48.92514" lon="2.10524">
        <ele>80.599998474121</ele>
        <time>2014-09-21T09:02:21.000Z</time>
      </trkpt>
      <trkpt lat="48.92518" lon="2.10537">
        <ele>80.400001525879</ele>
        <time>2014-09-21T09:02:28.000Z</time>
      </trkpt>
      <trkpt lat="48.92518" lon="2.1054">
        <ele>80.400001525879</ele>
        <time>2014-09-21T09:02:30.000Z</time>
      </trkpt>
      <trkpt lat="48.92522" lon="2.10555">
        <ele>80.199996948242</ele>
        <time>2014-09-21T09:02:37.000Z</time>
      </trkpt>
      <trkpt lat="48.92529" lon="2.10565">
        <ele>80.199996948242</ele>
        <time>2014-09-21T09:02:44.000Z</time>
      </trkpt>
      <trkpt lat="48.92535" lon="2.10575">
        <ele>80</ele>
        <time>2014-09-21T09:02:50.000Z</time>
      </trkpt>
      <trkpt lat="48.92539" lon="2.10586">
        <ele>79.800003051758</ele>
        <time>2014-09-21T09:02:56.000Z</time>
      </trkpt>
      <trkpt lat="48.9254" lon="2.10593">
        <ele>79.599998474121</ele>
        <time>2014-09-21T09:02:59.000Z</time>
      </trkpt>
      <trkpt lat="48.92547" lon="2.10604">
        <ele>79.400001525879</ele>
        <time>2014-09-21T09:03:05.000Z</time>
      </trkpt>
      <trkpt lat="48.92552" lon="2.10613">
        <ele>79</ele>
        <time>2014-09-21T09:03:11.000Z</time>
      </trkpt>
      <trkpt lat="48.92555" lon="2.10614">
        <ele>79</ele>
        <time>2014-09-21T09:03:14.000Z</time>
      </trkpt>
      <trkpt lat="48.9256" lon="2.10621">
        <ele>78.800003051758</ele>
        <time>2014-09-21T09:03:18.000Z</time>
      </trkpt>
      <trkpt lat="48.92564" lon="2.1063">
        <ele>78.599998474121</ele>
        <time>2014-09-21T09:03:23.000Z</time>
      </trkpt>
      <trkpt lat="48.92568" lon="2.10636">
        <ele>78.400001525879</ele>
        <time>2014-09-21T09:03:26.000Z</time>
      </trkpt>
      <trkpt lat="48.92572" lon="2.10644">
        <ele>78.199996948242</ele>
        <time>2014-09-21T09:03:31.000Z</time>
      </trkpt>
      <trkpt lat="48.92577" lon="2.10651">
        <ele>78</ele>
        <time>2014-09-21T09:03:35.000Z</time>
      </trkpt>
      <trkpt lat="48.9258" lon="2.10657">
        <ele>77.800003051758</ele>
        <time>2014-09-21T09:03:39.000Z</time>
      </trkpt>
      <trkpt lat="48.92586" lon="2.10663">
        <ele>77.599998474121</ele>
        <time>2014-09-21T09:03:44.000Z</time>
      </trkpt>
      <trkpt lat="48.92597" lon="2.10668">
        <ele>77.400001525879</ele>
        <time>2014-09-21T09:03:50.000Z</time>
      </trkpt>
      <trkpt lat="48.92599" lon="2.1067">
        <ele>77.400001525879</ele>
        <time>2014-09-21T09:03:51.000Z</time>
      </trkpt>
      <trkpt lat="48.92603" lon="2.10681">
        <ele>77</ele>
        <time>2014-09-21T09:03:57.000Z</time>
      </trkpt>
      <trkpt lat="48.92608" lon="2.1069">
        <ele>76.599998474121</ele>
        <time>2014-09-21T09:04:03.000Z</time>
      </trkpt>
      <trkpt lat="48.92615" lon="2.10701">
        <ele>76</ele>
        <time>2014-09-21T09:04:10.000Z</time>
      </trkpt>
      <trkpt lat="48.92621" lon="2.10715">
        <ele>75.400001525879</ele>
        <time>2014-09-21T09:04:17.000Z</time>
      </trkpt>
      <trkpt lat="48.92632" lon="2.10727">
        <ele>74.800003051758</ele>
        <time>2014-09-21T09:04:24.000Z</time>
      </trkpt>
      <trkpt lat="48.92639" lon="2.10738">
        <ele>74.199996948242</ele>
        <time>2014-09-21T09:04:30.000Z</time>
      </trkpt>
      <trkpt lat="48.92648" lon="2.10753">
        <ele>73.800003051758</ele>
        <time>2014-09-21T09:04:39.000Z</time>
      </trkpt>
      <trkpt lat="48.92652" lon="2.10765">
        <ele>73.400001525879</ele>
        <time>2014-09-21T09:04:46.000Z</time>
      </trkpt>
      <trkpt lat="48.92657" lon="2.1077">
        <ele>73.400001525879</ele>
        <time>2014-09-21T09:04:51.000Z</time>
      </trkpt>
      <trkpt lat="48.92659" lon="2.10772">
        <ele>73.400001525879</ele>
        <time>2014-09-21T09:04:53.000Z</time>
      </trkpt>
      <trkpt lat="48.92661" lon="2.10782">
        <ele>73</ele>
        <time>2014-09-21T09:04:57.000Z</time>
      </trkpt>
      <trkpt lat="48.92663" lon="2.10783">
        <ele>73</ele>
        <time>2014-09-21T09:04:58.000Z</time>
      </trkpt>
      <trkpt lat="48.92665" lon="2.10788">
        <ele>73</ele>
        <time>2014-09-21T09:05:01.000Z</time>
      </trkpt>
      <trkpt lat="48.92672" lon="2.10799">
        <ele>72.599998474121</ele>
        <time>2014-09-21T09:05:06.000Z</time>
      </trkpt>
      <trkpt lat="48.92685" lon="2.10813">
        <ele>72.400001525879</ele>
        <time>2014-09-21T09:05:16.000Z</time>
      </trkpt>
      <trkpt lat="48.92688" lon="2.10822">
        <ele>72.199996948242</ele>
        <time>2014-09-21T09:05:21.000Z</time>
      </trkpt>
      <trkpt lat="48.92688" lon="2.10823">
        <ele>72</ele>
        <time>2014-09-21T09:05:22.000Z</time>
      </trkpt>
      <trkpt lat="48.92694" lon="2.10829">
        <ele>72</ele>
        <time>2014-09-21T09:05:26.000Z</time>
      </trkpt>
      <trkpt lat="48.927" lon="2.10839">
        <ele>72.199996948242</ele>
        <time>2014-09-21T09:05:33.000Z</time>
      </trkpt>
      <trkpt lat="48.92703" lon="2.10842">
        <ele>72.400001525879</ele>
        <time>2014-09-21T09:05:36.000Z</time>
      </trkpt>
      <trkpt lat="48.92713" lon="2.1085">
        <ele>72.599998474121</ele>
        <time>2014-09-21T09:05:43.000Z</time>
      </trkpt>
      <trkpt lat="48.92721" lon="2.10859">
        <ele>72.800003051758</ele>
        <time>2014-09-21T09:05:49.000Z</time>
      </trkpt>
      <trkpt lat="48.92727" lon="2.10871">
        <ele>73</ele>
        <time>2014-09-21T09:05:55.000Z</time>
      </trkpt>
      <trkpt lat="48.92734" lon="2.1088">
        <ele>73.199996948242</ele>
        <time>2014-09-21T09:06:00.000Z</time>
      </trkpt>
      <trkpt lat="48.92737" lon="2.10885">
        <ele>73.199996948242</ele>
        <time>2014-09-21T09:06:03.000Z</time>
      </trkpt>
      <trkpt lat="48.92739" lon="2.10889">
        <ele>73.400001525879</ele>
        <time>2014-09-21T09:06:07.000Z</time>
      </trkpt>
      <trkpt lat="48.92745" lon="2.109">
        <ele>73.599998474121</ele>
        <time>2014-09-21T09:06:14.000Z</time>
      </trkpt>
      <trkpt lat="48.92746" lon="2.109">
        <ele>73.599998474121</ele>
        <time>2014-09-21T09:06:15.000Z</time>
      </trkpt>
      <trkpt lat="48.92754" lon="2.10908">
        <ele>73.800003051758</ele>
        <time>2014-09-21T09:06:22.000Z</time>
      </trkpt>
      <trkpt lat="48.92753" lon="2.10913">
        <ele>73.800003051758</ele>
        <time>2014-09-21T09:06:25.000Z</time>
      </trkpt>
      <trkpt lat="48.92754" lon="2.10919">
        <ele>73.599998474121</ele>
        <time>2014-09-21T09:06:27.000Z</time>
      </trkpt>
      <trkpt lat="48.92764" lon="2.10927">
        <ele>73.599998474121</ele>
        <time>2014-09-21T09:06:31.000Z</time>
      </trkpt>
      <trkpt lat="48.92763" lon="2.10948">
        <ele>73.400001525879</ele>
        <time>2014-09-21T09:06:40.000Z</time>
      </trkpt>
      <trkpt lat="48.92772" lon="2.10955">
        <ele>73.400001525879</ele>
        <time>2014-09-21T09:06:47.000Z</time>
      </trkpt>
      <trkpt lat="48.9278" lon="2.10972">
        <ele>73.199996948242</ele>
        <time>2014-09-21T09:06:55.000Z</time>
      </trkpt>
      <trkpt lat="48.92781" lon="2.10977">
        <ele>73</ele>
        <time>2014-09-21T09:06:58.000Z</time>
      </trkpt>
      <trkpt lat="48.9279" lon="2.1099">
        <ele>72.599998474121</ele>
        <time>2014-09-21T09:07:06.000Z</time>
      </trkpt>
      <trkpt lat="48.92794" lon="2.11001">
        <ele>72.199996948242</ele>
        <time>2014-09-21T09:07:12.000Z</time>
      </trkpt>
      <trkpt lat="48.92795" lon="2.11003">
        <ele>72</ele>
        <time>2014-09-21T09:07:13.000Z</time>
      </trkpt>
      <trkpt lat="48.92798" lon="2.11016">
        <ele>71.400001525879</ele>
        <time>2014-09-21T09:07:19.000Z</time>
      </trkpt>
      <trkpt lat="48.92804" lon="2.11022">
        <ele>71</ele>
        <time>2014-09-21T09:07:23.000Z</time>
      </trkpt>
      <trkpt lat="48.92814" lon="2.11028">
        <ele>70.400001525879</ele>
        <time>2014-09-21T09:07:28.000Z</time>
      </trkpt>
      <trkpt lat="48.92823" lon="2.11034">
        <ele>69.800003051758</ele>
        <time>2014-09-21T09:07:34.000Z</time>
      </trkpt>
      <trkpt lat="48.92823" lon="2.11036">
        <ele>69.800003051758</ele>
        <time>2014-09-21T09:07:35.000Z</time>
      </trkpt>
      <trkpt lat="48.92828" lon="2.11048">
        <ele>69.199996948242</ele>
        <time>2014-09-21T09:07:41.000Z</time>
      </trkpt>
      <trkpt lat="48.92833" lon="2.11055">
        <ele>68.599998474121</ele>
        <time>2014-09-21T09:07:46.000Z</time>
      </trkpt>
      <trkpt lat="48.92838" lon="2.11067">
        <ele>68</ele>
        <time>2014-09-21T09:07:52.000Z</time>
      </trkpt>
      <trkpt lat="48.92844" lon="2.11079">
        <ele>67.400001525879</ele>
        <time>2014-09-21T09:07:58.000Z</time>
      </trkpt>
      <trkpt lat="48.92849" lon="2.11091">
        <ele>67.199996948242</ele>
        <time>2014-09-21T09:08:04.000Z</time>
      </trkpt>
      <trkpt lat="48.92856" lon="2.11093">
        <ele>67</ele>
        <time>2014-09-21T09:08:10.000Z</time>
      </trkpt>
      <trkpt lat="48.92859" lon="2.11094">
        <ele>67</ele>
        <time>2014-09-21T09:08:14.000Z</time>
      </trkpt>
      <trkpt lat="48.92859" lon="2.11094">
        <ele>67</ele>
        <time>2014-09-21T09:08:16.000Z</time>
      </trkpt>
      <trkpt lat="48.92859" lon="2.11096">
        <ele>67</ele>
        <time>2014-09-21T09:08:46.000Z</time>
      </trkpt>
      <trkpt lat="48.92867" lon="2.11108">
        <ele>67.199996948242</ele>
        <time>2014-09-21T09:08:52.000Z</time>
      </trkpt>
      <trkpt lat="48.92873" lon="2.11117">
        <ele>67.400001525879</ele>
        <time>2014-09-21T09:08:57.000Z</time>
      </trkpt>
      <trkpt lat="48.92882" lon="2.11126">
        <ele>67.599998474121</ele>
        <time>2014-09-21T09:09:04.000Z</time>
      </trkpt>
      <trkpt lat="48.92888" lon="2.11131">
        <ele>67.800003051758</ele>
        <time>2014-09-21T09:09:10.000Z</time>
      </trkpt>
      <trkpt lat="48.92897" lon="2.11137">
        <ele>68</ele>
        <time>2014-09-21T09:09:15.000Z</time>
      </trkpt>
      <trkpt lat="48.92908" lon="2.11146">
        <ele>68.199996948242</ele>
        <time>2014-09-21T09:09:24.000Z</time>
      </trkpt>
      <trkpt lat="48.92911" lon="2.11149">
        <ele>68.199996948242</ele>
        <time>2014-09-21T09:09:28.000Z</time>
      </trkpt>
      <trkpt lat="48.92917" lon="2.11154">
        <ele>68.400001525879</ele>
        <time>2014-09-21T09:09:32.000Z</time>
      </trkpt>
      <trkpt lat="48.92927" lon="2.11163">
        <ele>68.800003051758</ele>
        <time>2014-09-21T09:09:39.000Z</time>
      </trkpt>
      <trkpt lat="48.92936" lon="2.1117">
        <ele>69.199996948242</ele>
        <time>2014-09-21T09:09:47.000Z</time>
      </trkpt>
      <trkpt lat="48.92948" lon="2.11178">
        <ele>70</ele>
        <time>2014-09-21T09:09:55.000Z</time>
      </trkpt>
      <trkpt lat="48.92954" lon="2.11184">
        <ele>70.599998474121</ele>
        <time>2014-09-21T09:10:00.000Z</time>
      </trkpt>
      <trkpt lat="48.92959" lon="2.11186">
        <ele>70.800003051758</ele>
        <time>2014-09-21T09:10:03.000Z</time>
      </trkpt>
      <trkpt lat="48.92962" lon="2.11188">
        <ele>71</ele>
        <time>2014-09-21T09:10:05.000Z</time>
      </trkpt>
      <trkpt lat="48.92971" lon="2.11194">
        <ele>71.599998474121</ele>
        <time>2014-09-21T09:10:12.000Z</time>
      </trkpt>
      <trkpt lat="48.92974" lon="2.11195">
        <ele>71.800003051758</ele>
        <time>2014-09-21T09:10:15.000Z</time>
      </trkpt>
      <trkpt lat="48.92981" lon="2.11201">
        <ele>72.400001525879</ele>
        <time>2014-09-21T09:10:21.000Z</time>
      </trkpt>
      <trkpt lat="48.9299" lon="2.11209">
        <ele>73.199996948242</ele>
        <time>2014-09-21T09:10:28.000Z</time>
      </trkpt>
      <trkpt lat="48.92999" lon="2.11215">
        <ele>73.800003051758</ele>
        <time>2014-09-21T09:10:34.000Z</time>
      </trkpt>
      <trkpt lat="48.93002" lon="2.11217">
        <ele>74</ele>
        <time>2014-09-21T09:10:36.000Z</time>
      </trkpt>
      <trkpt lat="48.93015" lon="2.11223">
        <ele>75</ele>
        <time>2014-09-21T09:10:44.000Z</time>
      </trkpt>
      <trkpt lat="48.93023" lon="2.11233">
        <ele>75.599998474121</ele>
        <time>2014-09-21T09:10:50.000Z</time>
      </trkpt>
      <trkpt lat="48.93027" lon="2.11238">
        <ele>76</ele>
        <time>2014-09-21T09:10:55.000Z</time>
      </trkpt>
      <trkpt lat="48.93028" lon="2.11242">
        <ele>76</ele>
        <time>2014-09-21T09:11:00.000Z</time>
      </trkpt>
      <trkpt lat="48.93028" lon="2.11242">
        <ele>76</ele>
        <time>2014-09-21T09:11:02.000Z</time>
      </trkpt>
      <trkpt lat="48.93037" lon="2.11249">
        <ele>76.199996948242</ele>
        <time>2014-09-21T09:11:36.000Z</time>
      </trkpt>
      <trkpt lat="48.9304" lon="2.11249">
        <ele>76.199996948242</ele>
        <time>2014-09-21T09:11:42.000Z</time>
      </trkpt>
      <trkpt lat="48.93049" lon="2.11248">
        <ele>76.400001525879</ele>
        <time>2014-09-21T09:11:49.000Z</time>
      </trkpt>
      <trkpt lat="48.93044" lon="2.1125">
        <ele>76.400001525879</ele>
        <time>2014-09-21T09:11:53.000Z</time>
      </trkpt>
      <trkpt lat="48.9304" lon="2.11247">
        <ele>76.199996948242</ele>
        <time>2014-09-21T09:12:00.000Z</time>
      </trkpt>
      <trkpt lat="48.9304" lon="2.11247">
        <ele>76.199996948242</ele>
        <time>2014-09-21T09:12:01.000Z</time>
      </trkpt>
      <trkpt lat="48.93038" lon="2.11239">
        <ele>76</ele>
        <time>2014-09-21T09:12:07.000Z</time>
      </trkpt>
      <trkpt lat="48.9303" lon="2.11231">
        <ele>75.800003051758</ele>
        <time>2014-09-21T09:12:20.000Z</time>
      </trkpt>
      <trkpt lat="48.93035" lon="2.11244">
        <ele>76.199996948242</ele>
        <time>2014-09-21T09:12:32.000Z</time>
      </trkpt>
      <trkpt lat="48.93043" lon="2.11249">
        <ele>76.199996948242</ele>
        <time>2014-09-21T09:12:37.000Z</time>
      </trkpt>
      <trkpt lat="48.9305" lon="2.11258">
        <ele>76.400001525879</ele>
        <time>2014-09-21T09:12:43.000Z</time>
      </trkpt>
      <trkpt lat="48.93057" lon="2.11265">
        <ele>76.599998474121</ele>
        <time>2014-09-21T09:12:48.000Z</time>
      </trkpt>
      <trkpt lat="48.93064" lon="2.11272">
        <ele>76.800003051758</ele>
        <time>2014-09-21T09:12:53.000Z</time>
      </trkpt>
      <trkpt lat="48.93067" lon="2.11273">
        <ele>76.800003051758</ele>
        <time>2014-09-21T09:12:55.000Z</time>
      </trkpt>
      <trkpt lat="48.9307" lon="2.11276">
        <ele>77</ele>
        <time>2014-09-21T09:12:57.000Z</time>
      </trkpt>
      <trkpt lat="48.93082" lon="2.11278">
        <ele>77.199996948242</ele>
        <time>2014-09-21T09:13:04.000Z</time>
      </trkpt>
      <trkpt lat="48.93096" lon="2.11283">
        <ele>77.400001525879</ele>
        <time>2014-09-21T09:13:12.000Z</time>
      </trkpt>
      <trkpt lat="48.93105" lon="2.11288">
        <ele>77.599998474121</ele>
        <time>2014-09-21T09:13:18.000Z</time>
      </trkpt>
      <trkpt lat="48.93109" lon="2.11291">
        <ele>77.599998474121</ele>
        <time>2014-09-21T09:13:23.000Z</time>
      </trkpt>
      <trkpt lat="48.93118" lon="2.11297">
        <ele>77.599998474121</ele>
        <time>2014-09-21T09:13:29.000Z</time>
      </trkpt>
      <trkpt lat="48.9312" lon="2.11298">
        <ele>77.400001525879</ele>
        <time>2014-09-21T09:13:31.000Z</time>
      </trkpt>
      <trkpt lat="48.93128" lon="2.11305">
        <ele>77.400001525879</ele>
        <time>2014-09-21T09:13:38.000Z</time>
      </trkpt>
      <trkpt lat="48.93134" lon="2.11314">
        <ele>77.599998474121</ele>
        <time>2014-09-21T09:13:45.000Z</time>
      </trkpt>
      <trkpt lat="48.93136" lon="2.11318">
        <ele>77.599998474121</ele>
        <time>2014-09-21T09:13:52.000Z</time>
      </trkpt>
      <trkpt lat="48.93136" lon="2.11318">
        <ele>77.599998474121</ele>
        <time>2014-09-21T09:13:53.000Z</time>
      </trkpt>
      <trkpt lat="48.93133" lon="2.11329">
        <ele>77.599998474121</ele>
        <time>2014-09-21T09:13:58.000Z</time>
      </trkpt>
      <trkpt lat="48.93133" lon="2.1134">
        <ele>77.599998474121</ele>
        <time>2014-09-21T09:14:10.000Z</time>
      </trkpt>
      <trkpt lat="48.9314" lon="2.11336">
        <ele>77.599998474121</ele>
        <time>2014-09-21T09:14:25.000Z</time>
      </trkpt>
      <trkpt lat="48.9315" lon="2.11329">
        <ele>77.400001525879</ele>
        <time>2014-09-21T09:14:31.000Z</time>
      </trkpt>
      <trkpt lat="48.93154" lon="2.11329">
        <ele>77.400001525879</ele>
        <time>2014-09-21T09:14:35.000Z</time>
      </trkpt>
      <trkpt lat="48.93164" lon="2.11341">
        <ele>77.400001525879</ele>
        <time>2014-09-21T09:14:46.000Z</time>
      </trkpt>
      <trkpt lat="48.9318" lon="2.11348">
        <ele>77.199996948242</ele>
        <time>2014-09-21T09:14:49.000Z</time>
      </trkpt>
      <trkpt lat="48.93193" lon="2.11359">
        <ele>77</ele>
        <time>2014-09-21T09:14:53.000Z</time>
      </trkpt>
      <trkpt lat="48.93207" lon="2.1137">
        <ele>77</ele>
        <time>2014-09-21T09:14:57.000Z</time>
      </trkpt>
      <trkpt lat="48.93217" lon="2.11376">
        <ele>77</ele>
        <time>2014-09-21T09:15:01.000Z</time>
      </trkpt>
      <trkpt lat="48.93231" lon="2.11386">
        <ele>77</ele>
        <time>2014-09-21T09:15:05.000Z</time>
      </trkpt>
      <trkpt lat="48.93247" lon="2.11395">
        <ele>77</ele>
        <time>2014-09-21T09:15:09.000Z</time>
      </trkpt>
      <trkpt lat="48.93263" lon="2.11407">
        <ele>77</ele>
        <time>2014-09-21T09:15:14.000Z</time>
      </trkpt>
      <trkpt lat="48.93278" lon="2.11425">
        <ele>77</ele>
        <time>2014-09-21T09:15:20.000Z</time>
      </trkpt>
      <trkpt lat="48.93287" lon="2.11437">
        <ele>76.800003051758</ele>
        <time>2014-09-21T09:15:25.000Z</time>
      </trkpt>
      <trkpt lat="48.93295" lon="2.11444">
        <ele>76.599998474121</ele>
        <time>2014-09-21T09:15:31.000Z</time>
      </trkpt>
      <trkpt lat="48.93305" lon="2.11451">
        <ele>76</ele>
        <time>2014-09-21T09:15:37.000Z</time>
      </trkpt>
      <trkpt lat="48.93308" lon="2.11456">
        <ele>76</ele>
        <time>2014-09-21T09:15:42.000Z</time>
      </trkpt>
      <trkpt lat="48.93315" lon="2.11462">
        <ele>75.800003051758</ele>
        <time>2014-09-21T09:15:48.000Z</time>
      </trkpt>
      <trkpt lat="48.93319" lon="2.11469">
        <ele>75.800003051758</ele>
        <time>2014-09-21T09:15:54.000Z</time>
      </trkpt>
      <trkpt lat="48.93329" lon="2.11473">
        <ele>75.199996948242</ele>
        <time>2014-09-21T09:16:01.000Z</time>
      </trkpt>
      <trkpt lat="48.93332" lon="2.11475">
        <ele>75</ele>
        <time>2014-09-21T09:16:06.000Z</time>
      </trkpt>
      <trkpt lat="48.93334" lon="2.11463">
        <ele>74.800003051758</ele>
        <time>2014-09-21T09:16:14.000Z</time>
      </trkpt>
      <trkpt lat="48.93335" lon="2.11455">
        <ele>74.599998474121</ele>
        <time>2014-09-21T09:16:18.000Z</time>
      </trkpt>
      <trkpt lat="48.93334" lon="2.11447">
        <ele>74.599998474121</ele>
        <time>2014-09-21T09:16:24.000Z</time>
      </trkpt>
      <trkpt lat="48.93334" lon="2.11447">
        <ele>74.599998474121</ele>
        <time>2014-09-21T09:16:25.000Z</time>
      </trkpt>
      <trkpt lat="48.93335" lon="2.11443">
        <ele>74.400001525879</ele>
        <time>2014-09-21T09:16:33.000Z</time>
      </trkpt>
      <trkpt lat="48.93336" lon="2.11428">
        <ele>74.199996948242</ele>
        <time>2014-09-21T09:16:37.000Z</time>
      </trkpt>
      <trkpt lat="48.93338" lon="2.11406">
        <ele>74</ele>
        <time>2014-09-21T09:16:41.000Z</time>
      </trkpt>
      <trkpt lat="48.93341" lon="2.11377">
        <ele>74.199996948242</ele>
        <time>2014-09-21T09:16:46.000Z</time>
      </trkpt>
      <trkpt lat="48.93341" lon="2.11337">
        <ele>74.599998474121</ele>
        <time>2014-09-21T09:16:50.000Z</time>
      </trkpt>
      <trkpt lat="48.9334" lon="2.11324">
        <ele>74.800003051758</ele>
        <time>2014-09-21T09:16:51.000Z</time>
      </trkpt>
      <trkpt lat="48.93338" lon="2.11303">
        <ele>74.400001525879</ele>
        <time>2014-09-21T09:16:53.000Z</time>
      </trkpt>
      <trkpt lat="48.93343" lon="2.1127">
        <ele>73.800003051758</ele>
        <time>2014-09-21T09:16:58.000Z</time>
      </trkpt>
      <trkpt lat="48.93348" lon="2.11233">
        <ele>73.199996948242</ele>
        <time>2014-09-21T09:17:03.000Z</time>
      </trkpt>
      <trkpt lat="48.93348" lon="2.11205">
        <ele>73.199996948242</ele>
        <time>2014-09-21T09:17:07.000Z</time>
      </trkpt>
      <trkpt lat="48.93353" lon="2.11177">
        <ele>73.199996948242</ele>
        <time>2014-09-21T09:17:11.000Z</time>
      </trkpt>
      <trkpt lat="48.93357" lon="2.11159">
        <ele>73</ele>
        <time>2014-09-21T09:17:14.000Z</time>
      </trkpt>
      <trkpt lat="48.93359" lon="2.11147">
        <ele>73.199996948242</ele>
        <time>2014-09-21T09:17:16.000Z</time>
      </trkpt>
      <trkpt lat="48.93362" lon="2.1112">
        <ele>73.599998474121</ele>
        <time>2014-09-21T09:17:20.000Z</time>
      </trkpt>
      <trkpt lat="48.93367" lon="2.11086">
        <ele>74</ele>
        <time>2014-09-21T09:17:23.000Z</time>
      </trkpt>
      <trkpt lat="48.93371" lon="2.11043">
        <ele>74</ele>
        <time>2014-09-21T09:17:27.000Z</time>
      </trkpt>
      <trkpt lat="48.93378" lon="2.11007">
        <ele>73.400001525879</ele>
        <time>2014-09-21T09:17:31.000Z</time>
      </trkpt>
      <trkpt lat="48.93382" lon="2.10963">
        <ele>72.800003051758</ele>
        <time>2014-09-21T09:17:38.000Z</time>
      </trkpt>
      <trkpt lat="48.93382" lon="2.10956">
        <ele>72.800003051758</ele>
        <time>2014-09-21T09:17:39.000Z</time>
      </trkpt>
      <trkpt lat="48.93381" lon="2.10926">
        <ele>72.599998474121</ele>
        <time>2014-09-21T09:17:44.000Z</time>
      </trkpt>
      <trkpt lat="48.93386" lon="2.109">
        <ele>72.599998474121</ele>
        <time>2014-09-21T09:17:48.000Z</time>
      </trkpt>
      <trkpt lat="48.93387" lon="2.10886">
        <ele>72.199996948242</ele>
        <time>2014-09-21T09:17:50.000Z</time>
      </trkpt>
      <trkpt lat="48.9339" lon="2.10847">
        <ele>72.199996948242</ele>
        <time>2014-09-21T09:17:55.000Z</time>
      </trkpt>
      <trkpt lat="48.93391" lon="2.10839">
        <ele>72.400001525879</ele>
        <time>2014-09-21T09:17:56.000Z</time>
      </trkpt>
      <trkpt lat="48.93395" lon="2.10809">
        <ele>72.599998474121</ele>
        <time>2014-09-21T09:18:00.000Z</time>
      </trkpt>
      <trkpt lat="48.93399" lon="2.10782">
        <ele>72.599998474121</ele>
        <time>2014-09-21T09:18:03.000Z</time>
      </trkpt>
      <trkpt lat="48.93404" lon="2.10751">
        <ele>72.400001525879</ele>
        <time>2014-09-21T09:18:07.000Z</time>
      </trkpt>
      <trkpt lat="48.93404" lon="2.10736">
        <ele>72.400001525879</ele>
        <time>2014-09-21T09:18:09.000Z</time>
      </trkpt>
      <trkpt lat="48.93407" lon="2.10707">
        <ele>72</ele>
        <time>2014-09-21T09:18:13.000Z</time>
      </trkpt>
      <trkpt lat="48.9341" lon="2.10692">
        <ele>72.400001525879</ele>
        <time>2014-09-21T09:18:15.000Z</time>
      </trkpt>
      <trkpt lat="48.93416" lon="2.1064">
        <ele>73.400001525879</ele>
        <time>2014-09-21T09:18:20.000Z</time>
      </trkpt>
      <trkpt lat="48.93419" lon="2.10591">
        <ele>73.400001525879</ele>
        <time>2014-09-21T09:18:26.000Z</time>
      </trkpt>
      <trkpt lat="48.9342" lon="2.10583">
        <ele>73.400001525879</ele>
        <time>2014-09-21T09:18:27.000Z</time>
      </trkpt>
      <trkpt lat="48.93421" lon="2.10568">
        <ele>73.599998474121</ele>
        <time>2014-09-21T09:18:29.000Z</time>
      </trkpt>
      <trkpt lat="48.93426" lon="2.10526">
        <ele>73.199996948242</ele>
        <time>2014-09-21T09:18:34.000Z</time>
      </trkpt>
      <trkpt lat="48.93429" lon="2.10504">
        <ele>73</ele>
        <time>2014-09-21T09:18:37.000Z</time>
      </trkpt>
      <trkpt lat="48.9343" lon="2.10481">
        <ele>72.800003051758</ele>
        <time>2014-09-21T09:18:40.000Z</time>
      </trkpt>
      <trkpt lat="48.93435" lon="2.10427">
        <ele>72.199996948242</ele>
        <time>2014-09-21T09:18:48.000Z</time>
      </trkpt>
      <trkpt lat="48.93439" lon="2.10384">
        <ele>71.599998474121</ele>
        <time>2014-09-21T09:18:55.000Z</time>
      </trkpt>
      <trkpt lat="48.9344" lon="2.10372">
        <ele>71.599998474121</ele>
        <time>2014-09-21T09:18:57.000Z</time>
      </trkpt>
      <trkpt lat="48.93444" lon="2.10339">
        <ele>71.199996948242</ele>
        <time>2014-09-21T09:19:03.000Z</time>
      </trkpt>
      <trkpt lat="48.93444" lon="2.10304">
        <ele>71.400001525879</ele>
        <time>2014-09-21T09:19:09.000Z</time>
      </trkpt>
      <trkpt lat="48.93446" lon="2.10274">
        <ele>71.800003051758</ele>
        <time>2014-09-21T09:19:14.000Z</time>
      </trkpt>
      <trkpt lat="48.93448" lon="2.10258">
        <ele>72.199996948242</ele>
        <time>2014-09-21T09:19:18.000Z</time>
      </trkpt>
      <trkpt lat="48.9345" lon="2.10251">
        <ele>72.400001525879</ele>
        <time>2014-09-21T09:19:21.000Z</time>
      </trkpt>
      <trkpt lat="48.93452" lon="2.10233">
        <ele>72.800003051758</ele>
        <time>2014-09-21T09:19:29.000Z</time>
      </trkpt>
      <trkpt lat="48.93455" lon="2.10212">
        <ele>73.400001525879</ele>
        <time>2014-09-21T09:19:38.000Z</time>
      </trkpt>
      <trkpt lat="48.93457" lon="2.10193">
        <ele>74</ele>
        <time>2014-09-21T09:19:46.000Z</time>
      </trkpt>
      <trkpt lat="48.93458" lon="2.10181">
        <ele>74.400001525879</ele>
        <time>2014-09-21T09:19:52.000Z</time>
      </trkpt>
      <trkpt lat="48.93459" lon="2.1016">
        <ele>75</ele>
        <time>2014-09-21T09:20:01.000Z</time>
      </trkpt>
      <trkpt lat="48.9346" lon="2.10155">
        <ele>75</ele>
        <time>2014-09-21T09:20:03.000Z</time>
      </trkpt>
      <trkpt lat="48.93461" lon="2.10148">
        <ele>75.400001525879</ele>
        <time>2014-09-21T09:20:06.000Z</time>
      </trkpt>
      <trkpt lat="48.9346" lon="2.10131">
        <ele>76</ele>
        <time>2014-09-21T09:20:11.000Z</time>
      </trkpt>
      <trkpt lat="48.93463" lon="2.10088">
        <ele>77.199996948242</ele>
        <time>2014-09-21T09:20:19.000Z</time>
      </trkpt>
      <trkpt lat="48.93468" lon="2.10061">
        <ele>78</ele>
        <time>2014-09-21T09:20:24.000Z</time>
      </trkpt>
      <trkpt lat="48.9347" lon="2.10033">
        <ele>79</ele>
        <time>2014-09-21T09:20:29.000Z</time>
      </trkpt>
      <trkpt lat="48.93475" lon="2.10008">
        <ele>79.199996948242</ele>
        <time>2014-09-21T09:20:34.000Z</time>
      </trkpt>
      <trkpt lat="48.93476" lon="2.09983">
        <ele>79</ele>
        <time>2014-09-21T09:20:38.000Z</time>
      </trkpt>
      <trkpt lat="48.9348" lon="2.09951">
        <ele>78.599998474121</ele>
        <time>2014-09-21T09:20:43.000Z</time>
      </trkpt>
      <trkpt lat="48.93481" lon="2.09938">
        <ele>78.199996948242</ele>
        <time>2014-09-21T09:20:45.000Z</time>
      </trkpt>
      <trkpt lat="48.93487" lon="2.09908">
        <ele>77.400001525879</ele>
        <time>2014-09-21T09:20:50.000Z</time>
      </trkpt>
      <trkpt lat="48.93489" lon="2.09894">
        <ele>77</ele>
        <time>2014-09-21T09:20:52.000Z</time>
      </trkpt>
      <trkpt lat="48.9349" lon="2.09872">
        <ele>76.800003051758</ele>
        <time>2014-09-21T09:20:55.000Z</time>
      </trkpt>
      <trkpt lat="48.93485" lon="2.09819">
        <ele>76.199996948242</ele>
        <time>2014-09-21T09:21:01.000Z</time>
      </trkpt>
      <trkpt lat="48.93492" lon="2.09798">
        <ele>75.199996948242</ele>
        <time>2014-09-21T09:21:06.000Z</time>
      </trkpt>
      <trkpt lat="48.93498" lon="2.0975">
        <ele>74.400001525879</ele>
        <time>2014-09-21T09:21:14.000Z</time>
      </trkpt>
      <trkpt lat="48.935" lon="2.09732">
        <ele>74.199996948242</ele>
        <time>2014-09-21T09:21:18.000Z</time>
      </trkpt>
      <trkpt lat="48.93501" lon="2.09709">
        <ele>73.800003051758</ele>
        <time>2014-09-21T09:21:22.000Z</time>
      </trkpt>
      <trkpt lat="48.93504" lon="2.09678">
        <ele>73.400001525879</ele>
        <time>2014-09-21T09:21:27.000Z</time>
      </trkpt>
      <trkpt lat="48.93505" lon="2.09649">
        <ele>73.199996948242</ele>
        <time>2014-09-21T09:21:32.000Z</time>
      </trkpt>
      <trkpt lat="48.93508" lon="2.0962">
        <ele>72.599998474121</ele>
        <time>2014-09-21T09:21:38.000Z</time>
      </trkpt>
      <trkpt lat="48.93509" lon="2.096">
        <ele>72.199996948242</ele>
        <time>2014-09-21T09:21:44.000Z</time>
      </trkpt>
      <trkpt lat="48.93512" lon="2.09589">
        <ele>71.800003051758</ele>
        <time>2014-09-21T09:21:50.000Z</time>
      </trkpt>
      <trkpt lat="48.93512" lon="2.09577">
        <ele>71.400001525879</ele>
        <time>2014-09-21T09:21:56.000Z</time>
      </trkpt>
      <trkpt lat="48.93512" lon="2.0957">
        <ele>71.599998474121</ele>
        <time>2014-09-21T09:21:59.000Z</time>
      </trkpt>
      <trkpt lat="48.93515" lon="2.09562">
        <ele>71.400001525879</ele>
        <time>2014-09-21T09:22:04.000Z</time>
      </trkpt>
      <trkpt lat="48.93515" lon="2.09561">
        <ele>71.400001525879</ele>
        <time>2014-09-21T09:22:06.000Z</time>
      </trkpt>
      <trkpt lat="48.93519" lon="2.09547">
        <ele>71.199996948242</ele>
        <time>2014-09-21T09:22:54.000Z</time>
      </trkpt>
      <trkpt lat="48.93521" lon="2.09531">
        <ele>71.199996948242</ele>
        <time>2014-09-21T09:23:00.000Z</time>
      </trkpt>
      <trkpt lat="48.9352" lon="2.09519">
        <ele>71.199996948242</ele>
        <time>2014-09-21T09:23:06.000Z</time>
      </trkpt>
      <trkpt lat="48.9352" lon="2.09508">
        <ele>71.199996948242</ele>
        <time>2014-09-21T09:23:13.000Z</time>
      </trkpt>
      <trkpt lat="48.9352" lon="2.09508">
        <ele>71.199996948242</ele>
        <time>2014-09-21T09:23:15.000Z</time>
      </trkpt>
      <trkpt lat="48.93523" lon="2.09525">
        <ele>71</ele>
        <time>2014-09-21T09:23:46.000Z</time>
      </trkpt>
      <trkpt lat="48.93523" lon="2.09533">
        <ele>71</ele>
        <time>2014-09-21T09:23:49.000Z</time>
      </trkpt>
      <trkpt lat="48.93522" lon="2.09542">
        <ele>71</ele>
        <time>2014-09-21T09:23:56.000Z</time>
      </trkpt>
      <trkpt lat="48.93523" lon="2.09547">
        <ele>71</ele>
        <time>2014-09-21T09:24:02.000Z</time>
      </trkpt>
      <trkpt lat="48.93526" lon="2.09551">
        <ele>71</ele>
        <time>2014-09-21T09:24:08.000Z</time>
      </trkpt>
      <trkpt lat="48.93527" lon="2.09552">
        <ele>71</ele>
        <time>2014-09-21T09:24:11.000Z</time>
      </trkpt>
      <trkpt lat="48.93528" lon="2.09554">
        <ele>71</ele>
        <time>2014-09-21T09:24:14.000Z</time>
      </trkpt>
      <trkpt lat="48.9352" lon="2.09548">
        <ele>71.199996948242</ele>
        <time>2014-09-21T09:25:45.000Z</time>
      </trkpt>
      <trkpt lat="48.93521" lon="2.09532">
        <ele>71.199996948242</ele>
        <time>2014-09-21T09:25:50.000Z</time>
      </trkpt>
      <trkpt lat="48.93521" lon="2.0952">
        <ele>71.199996948242</ele>
        <time>2014-09-21T09:25:55.000Z</time>
      </trkpt>
      <trkpt lat="48.93521" lon="2.09508">
        <ele>71.199996948242</ele>
        <time>2014-09-21T09:26:01.000Z</time>
      </trkpt>
      <trkpt lat="48.93521" lon="2.09507">
        <ele>71.199996948242</ele>
        <time>2014-09-21T09:26:03.000Z</time>
      </trkpt>
      <trkpt lat="48.9352" lon="2.09505">
        <ele>71.199996948242</ele>
        <time>2014-09-21T09:26:13.000Z</time>
      </trkpt>
      <trkpt lat="48.93518" lon="2.09501">
        <ele>71.199996948242</ele>
        <time>2014-09-21T09:26:17.000Z</time>
      </trkpt>
      <trkpt lat="48.93519" lon="2.09501">
        <ele>71.199996948242</ele>
        <time>2014-09-21T09:26:20.000Z</time>
      </trkpt>
      <trkpt lat="48.93521" lon="2.09497">
        <ele>71.199996948242</ele>
        <time>2014-09-21T09:26:30.000Z</time>
      </trkpt>
      <trkpt lat="48.93525" lon="2.09483">
        <ele>70.800003051758</ele>
        <time>2014-09-21T09:26:37.000Z</time>
      </trkpt>
      <trkpt lat="48.93528" lon="2.09471">
        <ele>70.599998474121</ele>
        <time>2014-09-21T09:26:42.000Z</time>
      </trkpt>
      <trkpt lat="48.93528" lon="2.09458">
        <ele>70.400001525879</ele>
        <time>2014-09-21T09:26:48.000Z</time>
      </trkpt>
      <trkpt lat="48.93528" lon="2.09447">
        <ele>70.400001525879</ele>
        <time>2014-09-21T09:26:53.000Z</time>
      </trkpt>
      <trkpt lat="48.93528" lon="2.09433">
        <ele>70.199996948242</ele>
        <time>2014-09-21T09:27:00.000Z</time>
      </trkpt>
      <trkpt lat="48.93529" lon="2.0942">
        <ele>70</ele>
        <time>2014-09-21T09:27:05.000Z</time>
      </trkpt>
      <trkpt lat="48.93529" lon="2.09418">
        <ele>70</ele>
        <time>2014-09-21T09:27:06.000Z</time>
      </trkpt>
      <trkpt lat="48.93531" lon="2.09406">
        <ele>70</ele>
        <time>2014-09-21T09:27:12.000Z</time>
      </trkpt>
      <trkpt lat="48.93532" lon="2.09402">
        <ele>70</ele>
        <time>2014-09-21T09:27:14.000Z</time>
      </trkpt>
      <trkpt lat="48.93531" lon="2.09392">
        <ele>69.800003051758</ele>
        <time>2014-09-21T09:27:18.000Z</time>
      </trkpt>
      <trkpt lat="48.93532" lon="2.09376">
        <ele>69.599998474121</ele>
        <time>2014-09-21T09:27:24.000Z</time>
      </trkpt>
      <trkpt lat="48.93532" lon="2.09366">
        <ele>69.400001525879</ele>
        <time>2014-09-21T09:27:27.000Z</time>
      </trkpt>
      <trkpt lat="48.93533" lon="2.09351">
        <ele>69.199996948242</ele>
        <time>2014-09-21T09:27:32.000Z</time>
      </trkpt>
      <trkpt lat="48.93533" lon="2.09345">
        <ele>69.199996948242</ele>
        <time>2014-09-21T09:27:34.000Z</time>
      </trkpt>
      <trkpt lat="48.93535" lon="2.09331">
        <ele>69</ele>
        <time>2014-09-21T09:27:40.000Z</time>
      </trkpt>
      <trkpt lat="48.93535" lon="2.09322">
        <ele>68.800003051758</ele>
        <time>2014-09-21T09:27:44.000Z</time>
      </trkpt>
      <trkpt lat="48.93535" lon="2.09319">
        <ele>68.800003051758</ele>
        <time>2014-09-21T09:27:45.000Z</time>
      </trkpt>
      <trkpt lat="48.93537" lon="2.09302">
        <ele>68.599998474121</ele>
        <time>2014-09-21T09:27:51.000Z</time>
      </trkpt>
      <trkpt lat="48.93535" lon="2.09276">
        <ele>68.199996948242</ele>
        <time>2014-09-21T09:27:57.000Z</time>
      </trkpt>
      <trkpt lat="48.93535" lon="2.09265">
        <ele>68.199996948242</ele>
        <time>2014-09-21T09:28:00.000Z</time>
      </trkpt>
      <trkpt lat="48.93536" lon="2.0926">
        <ele>68</ele>
        <time>2014-09-21T09:28:02.000Z</time>
      </trkpt>
      <trkpt lat="48.93536" lon="2.09252">
        <ele>68</ele>
        <time>2014-09-21T09:28:06.000Z</time>
      </trkpt>
      <trkpt lat="48.93535" lon="2.09241">
        <ele>68</ele>
        <time>2014-09-21T09:28:12.000Z</time>
      </trkpt>
      <trkpt lat="48.93535" lon="2.09229">
        <ele>68</ele>
        <time>2014-09-21T09:28:16.000Z</time>
      </trkpt>
      <trkpt lat="48.93536" lon="2.09205">
        <ele>68</ele>
        <time>2014-09-21T09:28:23.000Z</time>
      </trkpt>
      <trkpt lat="48.93536" lon="2.09196">
        <ele>68</ele>
        <time>2014-09-21T09:28:26.000Z</time>
      </trkpt>
      <trkpt lat="48.93537" lon="2.0917">
        <ele>68</ele>
        <time>2014-09-21T09:28:32.000Z</time>
      </trkpt>
      <trkpt lat="48.93538" lon="2.09162">
        <ele>68.199996948242</ele>
        <time>2014-09-21T09:28:34.000Z</time>
      </trkpt>
      <trkpt lat="48.9354" lon="2.09135">
        <ele>68.400001525879</ele>
        <time>2014-09-21T09:28:41.000Z</time>
      </trkpt>
      <trkpt lat="48.93539" lon="2.09126">
        <ele>68.400001525879</ele>
        <time>2014-09-21T09:28:43.000Z</time>
      </trkpt>
      <trkpt lat="48.93541" lon="2.09097">
        <ele>68.400001525879</ele>
        <time>2014-09-21T09:28:49.000Z</time>
      </trkpt>
      <trkpt lat="48.93541" lon="2.09093">
        <ele>68.400001525879</ele>
        <time>2014-09-21T09:28:50.000Z</time>
      </trkpt>
      <trkpt lat="48.93542" lon="2.09076">
        <ele>68.599998474121</ele>
        <time>2014-09-21T09:28:54.000Z</time>
      </trkpt>
      <trkpt lat="48.93541" lon="2.09066">
        <ele>68.800003051758</ele>
        <time>2014-09-21T09:28:58.000Z</time>
      </trkpt>
      <trkpt lat="48.93544" lon="2.09052">
        <ele>69.400001525879</ele>
        <time>2014-09-21T09:29:05.000Z</time>
      </trkpt>
      <trkpt lat="48.93544" lon="2.09044">
        <ele>69.599998474121</ele>
        <time>2014-09-21T09:29:08.000Z</time>
      </trkpt>
      <trkpt lat="48.93544" lon="2.09027">
        <ele>70</ele>
        <time>2014-09-21T09:29:14.000Z</time>
      </trkpt>
      <trkpt lat="48.93546" lon="2.09011">
        <ele>70.199996948242</ele>
        <time>2014-09-21T09:29:18.000Z</time>
      </trkpt>
      <trkpt lat="48.93546" lon="2.09002">
        <ele>70.199996948242</ele>
        <time>2014-09-21T09:29:20.000Z</time>
      </trkpt>
      <trkpt lat="48.93546" lon="2.08973">
        <ele>71</ele>
        <time>2014-09-21T09:29:26.000Z</time>
      </trkpt>
      <trkpt lat="48.93543" lon="2.08954">
        <ele>71.800003051758</ele>
        <time>2014-09-21T09:29:30.000Z</time>
      </trkpt>
      <trkpt lat="48.93544" lon="2.08921">
        <ele>73.400001525879</ele>
        <time>2014-09-21T09:29:37.000Z</time>
      </trkpt>
      <trkpt lat="48.93549" lon="2.08886">
        <ele>74</ele>
        <time>2014-09-21T09:29:42.000Z</time>
      </trkpt>
      <trkpt lat="48.9355" lon="2.08871">
        <ele>74.199996948242</ele>
        <time>2014-09-21T09:29:44.000Z</time>
      </trkpt>
      <trkpt lat="48.9355" lon="2.08841">
        <ele>74.599998474121</ele>
        <time>2014-09-21T09:29:48.000Z</time>
      </trkpt>
      <trkpt lat="48.93549" lon="2.08812">
        <ele>74.800003051758</ele>
        <time>2014-09-21T09:29:52.000Z</time>
      </trkpt>
      <trkpt lat="48.93553" lon="2.08781">
        <ele>75.199996948242</ele>
        <time>2014-09-21T09:29:57.000Z</time>
      </trkpt>
      <trkpt lat="48.93557" lon="2.08744">
        <ele>74</ele>
        <time>2014-09-21T09:30:03.000Z</time>
      </trkpt>
      <trkpt lat="48.93559" lon="2.08695">
        <ele>73.800003051758</ele>
        <time>2014-09-21T09:30:11.000Z</time>
      </trkpt>
      <trkpt lat="48.93563" lon="2.08645">
        <ele>73.599998474121</ele>
        <time>2014-09-21T09:30:19.000Z</time>
      </trkpt>
      <trkpt lat="48.93564" lon="2.08605">
        <ele>73.400001525879</ele>
        <time>2014-09-21T09:30:26.000Z</time>
      </trkpt>
      <trkpt lat="48.93565" lon="2.08577">
        <ele>73</ele>
        <time>2014-09-21T09:30:31.000Z</time>
      </trkpt>
      <trkpt lat="48.93568" lon="2.08537">
        <ele>72</ele>
        <time>2014-09-21T09:30:38.000Z</time>
      </trkpt>
      <trkpt lat="48.93572" lon="2.08514">
        <ele>71.400001525879</ele>
        <time>2014-09-21T09:30:43.000Z</time>
      </trkpt>
      <trkpt lat="48.93571" lon="2.08486">
        <ele>71</ele>
        <time>2014-09-21T09:30:48.000Z</time>
      </trkpt>
      <trkpt lat="48.93571" lon="2.08456">
        <ele>70.199996948242</ele>
        <time>2014-09-21T09:30:54.000Z</time>
      </trkpt>
      <trkpt lat="48.93573" lon="2.08426">
        <ele>68.599998474121</ele>
        <time>2014-09-21T09:31:00.000Z</time>
      </trkpt>
      <trkpt lat="48.93575" lon="2.08401">
        <ele>67.800003051758</ele>
        <time>2014-09-21T09:31:05.000Z</time>
      </trkpt>
      <trkpt lat="48.93574" lon="2.08375">
        <ele>67.800003051758</ele>
        <time>2014-09-21T09:31:11.000Z</time>
      </trkpt>
      <trkpt lat="48.93575" lon="2.08353">
        <ele>66.800003051758</ele>
        <time>2014-09-21T09:31:17.000Z</time>
      </trkpt>
      <trkpt lat="48.93578" lon="2.08332">
        <ele>65.599998474121</ele>
        <time>2014-09-21T09:31:24.000Z</time>
      </trkpt>
      <trkpt lat="48.93578" lon="2.08318">
        <ele>65.400001525879</ele>
        <time>2014-09-21T09:31:29.000Z</time>
      </trkpt>
      <trkpt lat="48.93578" lon="2.08305">
        <ele>65.199996948242</ele>
        <time>2014-09-21T09:31:34.000Z</time>
      </trkpt>
      <trkpt lat="48.93579" lon="2.08287">
        <ele>64.800003051758</ele>
        <time>2014-09-21T09:31:40.000Z</time>
      </trkpt>
      <trkpt lat="48.93581" lon="2.08273">
        <ele>64.599998474121</ele>
        <time>2014-09-21T09:31:46.000Z</time>
      </trkpt>
      <trkpt lat="48.93582" lon="2.08263">
        <ele>64.199996948242</ele>
        <time>2014-09-21T09:31:50.000Z</time>
      </trkpt>
      <trkpt lat="48.93583" lon="2.08257">
        <ele>64.199996948242</ele>
        <time>2014-09-21T09:31:53.000Z</time>
      </trkpt>
      <trkpt lat="48.93583" lon="2.08245">
        <ele>64</ele>
        <time>2014-09-21T09:31:59.000Z</time>
      </trkpt>
      <trkpt lat="48.93582" lon="2.08231">
        <ele>63.400001525879</ele>
        <time>2014-09-21T09:32:04.000Z</time>
      </trkpt>
      <trkpt lat="48.93582" lon="2.08216">
        <ele>62.400001525879</ele>
        <time>2014-09-21T09:32:09.000Z</time>
      </trkpt>
      <trkpt lat="48.93583" lon="2.08203">
        <ele>62</ele>
        <time>2014-09-21T09:32:13.000Z</time>
      </trkpt>
      <trkpt lat="48.93585" lon="2.08183">
        <ele>61</ele>
        <time>2014-09-21T09:32:21.000Z</time>
      </trkpt>
      <trkpt lat="48.93586" lon="2.08168">
        <ele>60.400001525879</ele>
        <time>2014-09-21T09:32:27.000Z</time>
      </trkpt>
      <trkpt lat="48.93584" lon="2.08157">
        <ele>60.200000762939</ele>
        <time>2014-09-21T09:32:34.000Z</time>
      </trkpt>
      <trkpt lat="48.93585" lon="2.0814">
        <ele>60</ele>
        <time>2014-09-21T09:32:39.000Z</time>
      </trkpt>
      <trkpt lat="48.93585" lon="2.08132">
        <ele>59.599998474121</ele>
        <time>2014-09-21T09:32:41.000Z</time>
      </trkpt>
      <trkpt lat="48.93585" lon="2.08119">
        <ele>59.200000762939</ele>
        <time>2014-09-21T09:32:46.000Z</time>
      </trkpt>
      <trkpt lat="48.93585" lon="2.08116">
        <ele>59</ele>
        <time>2014-09-21T09:32:48.000Z</time>
      </trkpt>
      <trkpt lat="48.93586" lon="2.08099">
        <ele>58.400001525879</ele>
        <time>2014-09-21T09:32:56.000Z</time>
      </trkpt>
      <trkpt lat="48.93589" lon="2.08085">
        <ele>57.599998474121</ele>
        <time>2014-09-21T09:33:01.000Z</time>
      </trkpt>
      <trkpt lat="48.93591" lon="2.08072">
        <ele>56.599998474121</ele>
        <time>2014-09-21T09:33:06.000Z</time>
      </trkpt>
      <trkpt lat="48.93591" lon="2.08059">
        <ele>55.599998474121</ele>
        <time>2014-09-21T09:33:11.000Z</time>
      </trkpt>
      <trkpt lat="48.93591" lon="2.08048">
        <ele>55.599998474121</ele>
        <time>2014-09-21T09:33:16.000Z</time>
      </trkpt>
      <trkpt lat="48.93592" lon="2.0804">
        <ele>55.599998474121</ele>
        <time>2014-09-21T09:33:19.000Z</time>
      </trkpt>
      <trkpt lat="48.93592" lon="2.08026">
        <ele>55.599998474121</ele>
        <time>2014-09-21T09:33:25.000Z</time>
      </trkpt>
      <trkpt lat="48.93593" lon="2.08019">
        <ele>55.599998474121</ele>
        <time>2014-09-21T09:33:28.000Z</time>
      </trkpt>
      <trkpt lat="48.93593" lon="2.08017">
        <ele>55.599998474121</ele>
        <time>2014-09-21T09:33:30.000Z</time>
      </trkpt>
      <trkpt lat="48.93593" lon="2.0801">
        <ele>55.599998474121</ele>
        <time>2014-09-21T09:33:33.000Z</time>
      </trkpt>
      <trkpt lat="48.93594" lon="2.07997">
        <ele>55.400001525879</ele>
        <time>2014-09-21T09:33:38.000Z</time>
      </trkpt>
      <trkpt lat="48.93594" lon="2.07995">
        <ele>55.400001525879</ele>
        <time>2014-09-21T09:33:39.000Z</time>
      </trkpt>
      <trkpt lat="48.93596" lon="2.07965">
        <ele>54.799999237061</ele>
        <time>2014-09-21T09:33:48.000Z</time>
      </trkpt>
      <trkpt lat="48.93597" lon="2.07954">
        <ele>54.599998474121</ele>
        <time>2014-09-21T09:33:51.000Z</time>
      </trkpt>
      <trkpt lat="48.93598" lon="2.07939">
        <ele>54.400001525879</ele>
        <time>2014-09-21T09:33:57.000Z</time>
      </trkpt>
      <trkpt lat="48.93597" lon="2.07935">
        <ele>54.400001525879</ele>
        <time>2014-09-21T09:33:59.000Z</time>
      </trkpt>
      <trkpt lat="48.93597" lon="2.07925">
        <ele>54.200000762939</ele>
        <time>2014-09-21T09:34:03.000Z</time>
      </trkpt>
      <trkpt lat="48.936" lon="2.07907">
        <ele>54</ele>
        <time>2014-09-21T09:34:09.000Z</time>
      </trkpt>
      <trkpt lat="48.93602" lon="2.07898">
        <ele>53.400001525879</ele>
        <time>2014-09-21T09:34:12.000Z</time>
      </trkpt>
      <trkpt lat="48.93602" lon="2.07887">
        <ele>52.799999237061</ele>
        <time>2014-09-21T09:34:16.000Z</time>
      </trkpt>
      <trkpt lat="48.93602" lon="2.07866">
        <ele>51.599998474121</ele>
        <time>2014-09-21T09:34:24.000Z</time>
      </trkpt>
      <trkpt lat="48.93601" lon="2.07864">
        <ele>51.400001525879</ele>
        <time>2014-09-21T09:34:25.000Z</time>
      </trkpt>
      <trkpt lat="48.93601" lon="2.07846">
        <ele>50.400001525879</ele>
        <time>2014-09-21T09:34:32.000Z</time>
      </trkpt>
      <trkpt lat="48.93602" lon="2.07844">
        <ele>50.200000762939</ele>
        <time>2014-09-21T09:34:33.000Z</time>
      </trkpt>
      <trkpt lat="48.93602" lon="2.07834">
        <ele>49.599998474121</ele>
        <time>2014-09-21T09:34:37.000Z</time>
      </trkpt>
      <trkpt lat="48.93602" lon="2.07819">
        <ele>49</ele>
        <time>2014-09-21T09:34:43.000Z</time>
      </trkpt>
      <trkpt lat="48.936" lon="2.07804">
        <ele>49</ele>
        <time>2014-09-21T09:34:49.000Z</time>
      </trkpt>
      <trkpt lat="48.93596" lon="2.07801">
        <ele>49</ele>
        <time>2014-09-21T09:34:53.000Z</time>
      </trkpt>
      <trkpt lat="48.93583" lon="2.07805">
        <ele>49</ele>
        <time>2014-09-21T09:35:01.000Z</time>
      </trkpt>
      <trkpt lat="48.93569" lon="2.07812">
        <ele>49.599998474121</ele>
        <time>2014-09-21T09:35:09.000Z</time>
      </trkpt>
      <trkpt lat="48.93559" lon="2.07818">
        <ele>50</ele>
        <time>2014-09-21T09:35:15.000Z</time>
      </trkpt>
      <trkpt lat="48.93544" lon="2.07824">
        <ele>50.400001525879</ele>
        <time>2014-09-21T09:35:23.000Z</time>
      </trkpt>
      <trkpt lat="48.93537" lon="2.07827">
        <ele>50.799999237061</ele>
        <time>2014-09-21T09:35:30.000Z</time>
      </trkpt>
      <trkpt lat="48.93536" lon="2.07828">
        <ele>50.799999237061</ele>
        <time>2014-09-21T09:35:33.000Z</time>
      </trkpt>
      <trkpt lat="48.93524" lon="2.07833">
        <ele>51.400001525879</ele>
        <time>2014-09-21T09:37:37.000Z</time>
      </trkpt>
      <trkpt lat="48.93509" lon="2.07842">
        <ele>52.200000762939</ele>
        <time>2014-09-21T09:37:41.000Z</time>
      </trkpt>
      <trkpt lat="48.93483" lon="2.07856">
        <ele>53.799999237061</ele>
        <time>2014-09-21T09:37:48.000Z</time>
      </trkpt>
      <trkpt lat="48.93464" lon="2.07867">
        <ele>54.400001525879</ele>
        <time>2014-09-21T09:37:53.000Z</time>
      </trkpt>
      <trkpt lat="48.93448" lon="2.07875">
        <ele>54.599998474121</ele>
        <time>2014-09-21T09:37:58.000Z</time>
      </trkpt>
      <trkpt lat="48.93428" lon="2.07884">
        <ele>56</ele>
        <time>2014-09-21T09:38:05.000Z</time>
      </trkpt>
      <trkpt lat="48.93405" lon="2.07896">
        <ele>57</ele>
        <time>2014-09-21T09:38:11.000Z</time>
      </trkpt>
      <trkpt lat="48.93391" lon="2.07898">
        <ele>57.400001525879</ele>
        <time>2014-09-21T09:38:16.000Z</time>
      </trkpt>
      <trkpt lat="48.93385" lon="2.07901">
        <ele>57.400001525879</ele>
        <time>2014-09-21T09:38:21.000Z</time>
      </trkpt>
      <trkpt lat="48.93383" lon="2.07904">
        <ele>57.400001525879</ele>
        <time>2014-09-21T09:38:23.000Z</time>
      </trkpt>
      <trkpt lat="48.93382" lon="2.07905">
        <ele>57.400001525879</ele>
        <time>2014-09-21T09:38:27.000Z</time>
      </trkpt>
      <trkpt lat="48.93375" lon="2.07892">
        <ele>58.200000762939</ele>
        <time>2014-09-21T09:44:11.000Z</time>
      </trkpt>
      <trkpt lat="48.93373" lon="2.07891">
        <ele>58.400001525879</ele>
        <time>2014-09-21T09:44:18.000Z</time>
      </trkpt>
      <trkpt lat="48.93368" lon="2.07889">
        <ele>58.599998474121</ele>
        <time>2014-09-21T09:44:28.000Z</time>
      </trkpt>
      <trkpt lat="48.93358" lon="2.07881">
        <ele>59.400001525879</ele>
        <time>2014-09-21T09:44:34.000Z</time>
      </trkpt>
      <trkpt lat="48.93346" lon="2.07869">
        <ele>60.799999237061</ele>
        <time>2014-09-21T09:44:43.000Z</time>
      </trkpt>
      <trkpt lat="48.93338" lon="2.07859">
        <ele>61.799999237061</ele>
        <time>2014-09-21T09:44:49.000Z</time>
      </trkpt>
      <trkpt lat="48.93329" lon="2.07846">
        <ele>63</ele>
        <time>2014-09-21T09:44:57.000Z</time>
      </trkpt>
      <trkpt lat="48.93324" lon="2.07838">
        <ele>63.799999237061</ele>
        <time>2014-09-21T09:45:03.000Z</time>
      </trkpt>
      <trkpt lat="48.93315" lon="2.07833">
        <ele>64.800003051758</ele>
        <time>2014-09-21T09:45:10.000Z</time>
      </trkpt>
      <trkpt lat="48.93306" lon="2.07823">
        <ele>65.800003051758</ele>
        <time>2014-09-21T09:45:17.000Z</time>
      </trkpt>
      <trkpt lat="48.93298" lon="2.07812">
        <ele>66.199996948242</ele>
        <time>2014-09-21T09:45:23.000Z</time>
      </trkpt>
      <trkpt lat="48.9329" lon="2.07804">
        <ele>66.800003051758</ele>
        <time>2014-09-21T09:45:29.000Z</time>
      </trkpt>
      <trkpt lat="48.93281" lon="2.07798">
        <ele>67.400001525879</ele>
        <time>2014-09-21T09:45:35.000Z</time>
      </trkpt>
      <trkpt lat="48.93274" lon="2.07788">
        <ele>68</ele>
        <time>2014-09-21T09:45:41.000Z</time>
      </trkpt>
      <trkpt lat="48.93274" lon="2.07786">
        <ele>68</ele>
        <time>2014-09-21T09:45:42.000Z</time>
      </trkpt>
      <trkpt lat="48.93272" lon="2.07778">
        <ele>68</ele>
        <time>2014-09-21T09:45:46.000Z</time>
      </trkpt>
      <trkpt lat="48.93263" lon="2.07774">
        <ele>68.199996948242</ele>
        <time>2014-09-21T09:45:52.000Z</time>
      </trkpt>
      <trkpt lat="48.93261" lon="2.07772">
        <ele>68.199996948242</ele>
        <time>2014-09-21T09:45:53.000Z</time>
      </trkpt>
      <trkpt lat="48.9325" lon="2.07762">
        <ele>68.199996948242</ele>
        <time>2014-09-21T09:46:01.000Z</time>
      </trkpt>
      <trkpt lat="48.93241" lon="2.07754">
        <ele>68.400001525879</ele>
        <time>2014-09-21T09:46:07.000Z</time>
      </trkpt>
      <trkpt lat="48.93235" lon="2.07742">
        <ele>68.599998474121</ele>
        <time>2014-09-21T09:46:13.000Z</time>
      </trkpt>
      <trkpt lat="48.93228" lon="2.07729">
        <ele>69.199996948242</ele>
        <time>2014-09-21T09:46:21.000Z</time>
      </trkpt>
      <trkpt lat="48.93222" lon="2.07724">
        <ele>69.599998474121</ele>
        <time>2014-09-21T09:46:25.000Z</time>
      </trkpt>
      <trkpt lat="48.93215" lon="2.07716">
        <ele>70</ele>
        <time>2014-09-21T09:46:30.000Z</time>
      </trkpt>
      <trkpt lat="48.93203" lon="2.07711">
        <ele>70.400001525879</ele>
        <time>2014-09-21T09:46:37.000Z</time>
      </trkpt>
      <trkpt lat="48.93197" lon="2.07703">
        <ele>70.800003051758</ele>
        <time>2014-09-21T09:46:43.000Z</time>
      </trkpt>
      <trkpt lat="48.93192" lon="2.07694">
        <ele>71.400001525879</ele>
        <time>2014-09-21T09:46:48.000Z</time>
      </trkpt>
      <trkpt lat="48.9319" lon="2.07692">
        <ele>71.400001525879</ele>
        <time>2014-09-21T09:46:49.000Z</time>
      </trkpt>
      <trkpt lat="48.93179" lon="2.07675">
        <ele>72.599998474121</ele>
        <time>2014-09-21T09:46:58.000Z</time>
      </trkpt>
      <trkpt lat="48.93173" lon="2.07666">
        <ele>73.199996948242</ele>
        <time>2014-09-21T09:47:03.000Z</time>
      </trkpt>
      <trkpt lat="48.93166" lon="2.07655">
        <ele>73.800003051758</ele>
        <time>2014-09-21T09:47:09.000Z</time>
      </trkpt>
      <trkpt lat="48.93156" lon="2.07645">
        <ele>74.400001525879</ele>
        <time>2014-09-21T09:47:16.000Z</time>
      </trkpt>
      <trkpt lat="48.93152" lon="2.07642">
        <ele>74.599998474121</ele>
        <time>2014-09-21T09:47:20.000Z</time>
      </trkpt>
      <trkpt lat="48.93152" lon="2.07638">
        <ele>74.800003051758</ele>
        <time>2014-09-21T09:47:22.000Z</time>
      </trkpt>
      <trkpt lat="48.93153" lon="2.07637">
        <ele>74.800003051758</ele>
        <time>2014-09-21T09:47:26.000Z</time>
      </trkpt>
      <trkpt lat="48.93158" lon="2.07636">
        <ele>74.599998474121</ele>
        <time>2014-09-21T09:48:17.000Z</time>
      </trkpt>
      <trkpt lat="48.93158" lon="2.07636">
        <ele>74.599998474121</ele>
        <time>2014-09-21T09:48:18.000Z</time>
      </trkpt>
      <trkpt lat="48.93163" lon="2.07644">
        <ele>74.199996948242</ele>
        <time>2014-09-21T09:48:46.000Z</time>
      </trkpt>
      <trkpt lat="48.93162" lon="2.07648">
        <ele>74</ele>
        <time>2014-09-21T09:49:02.000Z</time>
      </trkpt>
      <trkpt lat="48.93151" lon="2.07628">
        <ele>75.199996948242</ele>
        <time>2014-09-21T09:50:06.000Z</time>
      </trkpt>
      <trkpt lat="48.93151" lon="2.07627">
        <ele>75.199996948242</ele>
        <time>2014-09-21T09:50:08.000Z</time>
      </trkpt>
      <trkpt lat="48.93154" lon="2.07624">
        <ele>75.199996948242</ele>
        <time>2014-09-21T09:52:59.000Z</time>
      </trkpt>
      <trkpt lat="48.93145" lon="2.07619">
        <ele>75.599998474121</ele>
        <time>2014-09-21T09:53:04.000Z</time>
      </trkpt>
      <trkpt lat="48.93137" lon="2.07612">
        <ele>76</ele>
        <time>2014-09-21T09:53:11.000Z</time>
      </trkpt>
      <trkpt lat="48.93126" lon="2.07604">
        <ele>76.599998474121</ele>
        <time>2014-09-21T09:53:18.000Z</time>
      </trkpt>
      <trkpt lat="48.93114" lon="2.07591">
        <ele>77.199996948242</ele>
        <time>2014-09-21T09:53:26.000Z</time>
      </trkpt>
      <trkpt lat="48.93106" lon="2.07582">
        <ele>77.800003051758</ele>
        <time>2014-09-21T09:53:33.000Z</time>
      </trkpt>
      <trkpt lat="48.931" lon="2.0757">
        <ele>77.800003051758</ele>
        <time>2014-09-21T09:53:39.000Z</time>
      </trkpt>
      <trkpt lat="48.93099" lon="2.07568">
        <ele>78</ele>
        <time>2014-09-21T09:53:40.000Z</time>
      </trkpt>
      <trkpt lat="48.93088" lon="2.07549">
        <ele>77.599998474121</ele>
        <time>2014-09-21T09:53:49.000Z</time>
      </trkpt>
      <trkpt lat="48.93078" lon="2.07538">
        <ele>77.599998474121</ele>
        <time>2014-09-21T09:53:58.000Z</time>
      </trkpt>
      <trkpt lat="48.9307" lon="2.0753">
        <ele>77.400001525879</ele>
        <time>2014-09-21T09:54:05.000Z</time>
      </trkpt>
      <trkpt lat="48.93065" lon="2.07524">
        <ele>77.400001525879</ele>
        <time>2014-09-21T09:54:11.000Z</time>
      </trkpt>
      <trkpt lat="48.93054" lon="2.07512">
        <ele>77.199996948242</ele>
        <time>2014-09-21T09:54:19.000Z</time>
      </trkpt>
      <trkpt lat="48.93053" lon="2.0751">
        <ele>77.199996948242</ele>
        <time>2014-09-21T09:54:20.000Z</time>
      </trkpt>
      <trkpt lat="48.9304" lon="2.07499">
        <ele>77</ele>
        <time>2014-09-21T09:54:29.000Z</time>
      </trkpt>
      <trkpt lat="48.9303" lon="2.07488">
        <ele>76.800003051758</ele>
        <time>2014-09-21T09:54:37.000Z</time>
      </trkpt>
      <trkpt lat="48.93019" lon="2.07478">
        <ele>76.599998474121</ele>
        <time>2014-09-21T09:54:44.000Z</time>
      </trkpt>
      <trkpt lat="48.93008" lon="2.0747">
        <ele>76.599998474121</ele>
        <time>2014-09-21T09:54:51.000Z</time>
      </trkpt>
      <trkpt lat="48.92999" lon="2.07458">
        <ele>76.400001525879</ele>
        <time>2014-09-21T09:54:58.000Z</time>
      </trkpt>
      <trkpt lat="48.92995" lon="2.07452">
        <ele>76.400001525879</ele>
        <time>2014-09-21T09:55:02.000Z</time>
      </trkpt>
      <trkpt lat="48.92986" lon="2.0744">
        <ele>76.199996948242</ele>
        <time>2014-09-21T09:55:09.000Z</time>
      </trkpt>
      <trkpt lat="48.92974" lon="2.07435">
        <ele>76.199996948242</ele>
        <time>2014-09-21T09:55:16.000Z</time>
      </trkpt>
      <trkpt lat="48.92969" lon="2.07422">
        <ele>76</ele>
        <time>2014-09-21T09:55:22.000Z</time>
      </trkpt>
      <trkpt lat="48.92962" lon="2.07411">
        <ele>75.800003051758</ele>
        <time>2014-09-21T09:55:28.000Z</time>
      </trkpt>
      <trkpt lat="48.92958" lon="2.07405">
        <ele>75.599998474121</ele>
        <time>2014-09-21T09:55:31.000Z</time>
      </trkpt>
      <trkpt lat="48.92954" lon="2.07398">
        <ele>75.599998474121</ele>
        <time>2014-09-21T09:55:35.000Z</time>
      </trkpt>
      <trkpt lat="48.92943" lon="2.07389">
        <ele>75.400001525879</ele>
        <time>2014-09-21T09:55:42.000Z</time>
      </trkpt>
      <trkpt lat="48.92935" lon="2.07376">
        <ele>75.400001525879</ele>
        <time>2014-09-21T09:55:49.000Z</time>
      </trkpt>
      <trkpt lat="48.9293" lon="2.07368">
        <ele>75.199996948242</ele>
        <time>2014-09-21T09:55:54.000Z</time>
      </trkpt>
      <trkpt lat="48.9292" lon="2.07356">
        <ele>75.199996948242</ele>
        <time>2014-09-21T09:56:02.000Z</time>
      </trkpt>
      <trkpt lat="48.92912" lon="2.07344">
        <ele>75</ele>
        <time>2014-09-21T09:56:09.000Z</time>
      </trkpt>
      <trkpt lat="48.92911" lon="2.07342">
        <ele>75</ele>
        <time>2014-09-21T09:56:10.000Z</time>
      </trkpt>
      <trkpt lat="48.92903" lon="2.07332">
        <ele>75</ele>
        <time>2014-09-21T09:56:17.000Z</time>
      </trkpt>
      <trkpt lat="48.92898" lon="2.07327">
        <ele>75</ele>
        <time>2014-09-21T09:56:21.000Z</time>
      </trkpt>
      <trkpt lat="48.9289" lon="2.07317">
        <ele>75</ele>
        <time>2014-09-21T09:56:28.000Z</time>
      </trkpt>
      <trkpt lat="48.9288" lon="2.07311">
        <ele>75</ele>
        <time>2014-09-21T09:56:34.000Z</time>
      </trkpt>
      <trkpt lat="48.92873" lon="2.07303">
        <ele>75</ele>
        <time>2014-09-21T09:56:39.000Z</time>
      </trkpt>
      <trkpt lat="48.92864" lon="2.07294">
        <ele>75</ele>
        <time>2014-09-21T09:56:46.000Z</time>
      </trkpt>
      <trkpt lat="48.92853" lon="2.07284">
        <ele>75</ele>
        <time>2014-09-21T09:56:53.000Z</time>
      </trkpt>
      <trkpt lat="48.92839" lon="2.07275">
        <ele>75.199996948242</ele>
        <time>2014-09-21T09:57:01.000Z</time>
      </trkpt>
      <trkpt lat="48.92836" lon="2.07266">
        <ele>75</ele>
        <time>2014-09-21T09:57:07.000Z</time>
      </trkpt>
      <trkpt lat="48.92837" lon="2.07259">
        <ele>74.800003051758</ele>
        <time>2014-09-21T09:57:13.000Z</time>
      </trkpt>
      <trkpt lat="48.92837" lon="2.07258">
        <ele>74.800003051758</ele>
        <time>2014-09-21T09:57:15.000Z</time>
      </trkpt>
      <trkpt lat="48.92813" lon="2.07239">
        <ele>75</ele>
        <time>2014-09-21T09:59:16.000Z</time>
      </trkpt>
      <trkpt lat="48.92797" lon="2.07238">
        <ele>75.199996948242</ele>
        <time>2014-09-21T09:59:25.000Z</time>
      </trkpt>
      <trkpt lat="48.92794" lon="2.07235">
        <ele>75.199996948242</ele>
        <time>2014-09-21T09:59:28.000Z</time>
      </trkpt>
      <trkpt lat="48.9278" lon="2.07231">
        <ele>75.199996948242</ele>
        <time>2014-09-21T09:59:38.000Z</time>
      </trkpt>
      <trkpt lat="48.92768" lon="2.07231">
        <ele>75.599998474121</ele>
        <time>2014-09-21T09:59:46.000Z</time>
      </trkpt>
      <trkpt lat="48.92759" lon="2.07227">
        <ele>76</ele>
        <time>2014-09-21T09:59:51.000Z</time>
      </trkpt>
      <trkpt lat="48.92744" lon="2.07226">
        <ele>76.400001525879</ele>
        <time>2014-09-21T09:59:56.000Z</time>
      </trkpt>
      <trkpt lat="48.92722" lon="2.07221">
        <ele>76.800003051758</ele>
        <time>2014-09-21T10:00:03.000Z</time>
      </trkpt>
      <trkpt lat="48.92704" lon="2.07215">
        <ele>77</ele>
        <time>2014-09-21T10:00:10.000Z</time>
      </trkpt>
      <trkpt lat="48.92692" lon="2.0721">
        <ele>77.199996948242</ele>
        <time>2014-09-21T10:00:14.000Z</time>
      </trkpt>
      <trkpt lat="48.92673" lon="2.07207">
        <ele>77.199996948242</ele>
        <time>2014-09-21T10:00:20.000Z</time>
      </trkpt>
      <trkpt lat="48.92654" lon="2.07203">
        <ele>77</ele>
        <time>2014-09-21T10:00:26.000Z</time>
      </trkpt>
      <trkpt lat="48.92638" lon="2.07195">
        <ele>77</ele>
        <time>2014-09-21T10:00:31.000Z</time>
      </trkpt>
      <trkpt lat="48.92621" lon="2.07192">
        <ele>77.400001525879</ele>
        <time>2014-09-21T10:00:36.000Z</time>
      </trkpt>
      <trkpt lat="48.92597" lon="2.07188">
        <ele>78</ele>
        <time>2014-09-21T10:00:43.000Z</time>
      </trkpt>
      <trkpt lat="48.92577" lon="2.07188">
        <ele>78.800003051758</ele>
        <time>2014-09-21T10:00:49.000Z</time>
      </trkpt>
      <trkpt lat="48.92553" lon="2.07183">
        <ele>79.400001525879</ele>
        <time>2014-09-21T10:00:56.000Z</time>
      </trkpt>
      <trkpt lat="48.9252" lon="2.07178">
        <ele>79.199996948242</ele>
        <time>2014-09-21T10:01:05.000Z</time>
      </trkpt>
      <trkpt lat="48.92499" lon="2.07173">
        <ele>78.199996948242</ele>
        <time>2014-09-21T10:01:11.000Z</time>
      </trkpt>
      <trkpt lat="48.92474" lon="2.07169">
        <ele>76.800003051758</ele>
        <time>2014-09-21T10:01:18.000Z</time>
      </trkpt>
      <trkpt lat="48.92445" lon="2.07163">
        <ele>75.199996948242</ele>
        <time>2014-09-21T10:01:26.000Z</time>
      </trkpt>
      <trkpt lat="48.92422" lon="2.07162">
        <ele>76</ele>
        <time>2014-09-21T10:01:32.000Z</time>
      </trkpt>
      <trkpt lat="48.92402" lon="2.07158">
        <ele>76.800003051758</ele>
        <time>2014-09-21T10:01:39.000Z</time>
      </trkpt>
      <trkpt lat="48.92389" lon="2.07155">
        <ele>77.400001525879</ele>
        <time>2014-09-21T10:01:43.000Z</time>
      </trkpt>
      <trkpt lat="48.92363" lon="2.07156">
        <ele>78.599998474121</ele>
        <time>2014-09-21T10:01:49.000Z</time>
      </trkpt>
      <trkpt lat="48.92351" lon="2.07155">
        <ele>79.199996948242</ele>
        <time>2014-09-21T10:01:53.000Z</time>
      </trkpt>
      <trkpt lat="48.92338" lon="2.07153">
        <ele>79.400001525879</ele>
        <time>2014-09-21T10:01:59.000Z</time>
      </trkpt>
      <trkpt lat="48.92332" lon="2.07149">
        <ele>79.599998474121</ele>
        <time>2014-09-21T10:02:03.000Z</time>
      </trkpt>
      <trkpt lat="48.92328" lon="2.07147">
        <ele>79.599998474121</ele>
        <time>2014-09-21T10:02:06.000Z</time>
      </trkpt>
      <trkpt lat="48.92324" lon="2.07145">
        <ele>79.800003051758</ele>
        <time>2014-09-21T10:02:10.000Z</time>
      </trkpt>
      <trkpt lat="48.92324" lon="2.07144">
        <ele>79.800003051758</ele>
        <time>2014-09-21T10:02:17.000Z</time>
      </trkpt>
      <trkpt lat="48.92324" lon="2.07144">
        <ele>79.800003051758</ele>
        <time>2014-09-21T10:02:18.000Z</time>
      </trkpt>
      <trkpt lat="48.9232" lon="2.07156">
        <ele>79.599998474121</ele>
        <time>2014-09-21T10:02:38.000Z</time>
      </trkpt>
      <trkpt lat="48.9232" lon="2.07174">
        <ele>79.599998474121</ele>
        <time>2014-09-21T10:02:42.000Z</time>
      </trkpt>
      <trkpt lat="48.9232" lon="2.0719">
        <ele>79.800003051758</ele>
        <time>2014-09-21T10:02:48.000Z</time>
      </trkpt>
      <trkpt lat="48.9232" lon="2.07201">
        <ele>80</ele>
        <time>2014-09-21T10:02:53.000Z</time>
      </trkpt>
      <trkpt lat="48.92322" lon="2.07215">
        <ele>80</ele>
        <time>2014-09-21T10:03:00.000Z</time>
      </trkpt>
      <trkpt lat="48.92324" lon="2.07232">
        <ele>80.199996948242</ele>
        <time>2014-09-21T10:03:06.000Z</time>
      </trkpt>
      <trkpt lat="48.92324" lon="2.07238">
        <ele>80.400001525879</ele>
        <time>2014-09-21T10:03:09.000Z</time>
      </trkpt>
      <trkpt lat="48.92323" lon="2.07259">
        <ele>80.199996948242</ele>
        <time>2014-09-21T10:03:17.000Z</time>
      </trkpt>
      <trkpt lat="48.92324" lon="2.07273">
        <ele>80</ele>
        <time>2014-09-21T10:03:22.000Z</time>
      </trkpt>
      <trkpt lat="48.92325" lon="2.07287">
        <ele>79.800003051758</ele>
        <time>2014-09-21T10:03:28.000Z</time>
      </trkpt>
      <trkpt lat="48.92326" lon="2.07302">
        <ele>79.800003051758</ele>
        <time>2014-09-21T10:03:34.000Z</time>
      </trkpt>
      <trkpt lat="48.92324" lon="2.07322">
        <ele>80.199996948242</ele>
        <time>2014-09-21T10:03:42.000Z</time>
      </trkpt>
      <trkpt lat="48.92323" lon="2.07332">
        <ele>80.199996948242</ele>
        <time>2014-09-21T10:03:46.000Z</time>
      </trkpt>
      <trkpt lat="48.92321" lon="2.07354">
        <ele>80.599998474121</ele>
        <time>2014-09-21T10:03:55.000Z</time>
      </trkpt>
      <trkpt lat="48.9232" lon="2.07365">
        <ele>80.800003051758</ele>
        <time>2014-09-21T10:03:59.000Z</time>
      </trkpt>
      <trkpt lat="48.92317" lon="2.07375">
        <ele>81</ele>
        <time>2014-09-21T10:04:04.000Z</time>
      </trkpt>
      <trkpt lat="48.92314" lon="2.07391">
        <ele>81</ele>
        <time>2014-09-21T10:04:11.000Z</time>
      </trkpt>
      <trkpt lat="48.92308" lon="2.07405">
        <ele>81.199996948242</ele>
        <time>2014-09-21T10:04:17.000Z</time>
      </trkpt>
      <trkpt lat="48.92308" lon="2.07419">
        <ele>81</ele>
        <time>2014-09-21T10:04:23.000Z</time>
      </trkpt>
      <trkpt lat="48.92306" lon="2.07429">
        <ele>80.800003051758</ele>
        <time>2014-09-21T10:04:27.000Z</time>
      </trkpt>
      <trkpt lat="48.92304" lon="2.07439">
        <ele>80.599998474121</ele>
        <time>2014-09-21T10:04:32.000Z</time>
      </trkpt>
      <trkpt lat="48.92301" lon="2.07455">
        <ele>80.400001525879</ele>
        <time>2014-09-21T10:04:39.000Z</time>
      </trkpt>
      <trkpt lat="48.92301" lon="2.07469">
        <ele>80.400001525879</ele>
        <time>2014-09-21T10:04:45.000Z</time>
      </trkpt>
      <trkpt lat="48.92302" lon="2.07486">
        <ele>80</ele>
        <time>2014-09-21T10:04:52.000Z</time>
      </trkpt>
      <trkpt lat="48.92302" lon="2.07502">
        <ele>80.199996948242</ele>
        <time>2014-09-21T10:04:58.000Z</time>
      </trkpt>
      <trkpt lat="48.92302" lon="2.07518">
        <ele>80.599998474121</ele>
        <time>2014-09-21T10:05:05.000Z</time>
      </trkpt>
      <trkpt lat="48.92302" lon="2.07536">
        <ele>80.800003051758</ele>
        <time>2014-09-21T10:05:12.000Z</time>
      </trkpt>
      <trkpt lat="48.92301" lon="2.07552">
        <ele>81</ele>
        <time>2014-09-21T10:05:18.000Z</time>
      </trkpt>
      <trkpt lat="48.92298" lon="2.07566">
        <ele>81.199996948242</ele>
        <time>2014-09-21T10:05:24.000Z</time>
      </trkpt>
      <trkpt lat="48.92298" lon="2.07582">
        <ele>81.599998474121</ele>
        <time>2014-09-21T10:05:30.000Z</time>
      </trkpt>
      <trkpt lat="48.923" lon="2.07596">
        <ele>81.800003051758</ele>
        <time>2014-09-21T10:05:35.000Z</time>
      </trkpt>
      <trkpt lat="48.923" lon="2.07598">
        <ele>81.800003051758</ele>
        <time>2014-09-21T10:05:36.000Z</time>
      </trkpt>
      <trkpt lat="48.92301" lon="2.07608">
        <ele>82</ele>
        <time>2014-09-21T10:05:40.000Z</time>
      </trkpt>
      <trkpt lat="48.92302" lon="2.07623">
        <ele>81.800003051758</ele>
        <time>2014-09-21T10:05:46.000Z</time>
      </trkpt>
      <trkpt lat="48.92299" lon="2.0764">
        <ele>81.599998474121</ele>
        <time>2014-09-21T10:05:52.000Z</time>
      </trkpt>
      <trkpt lat="48.92297" lon="2.0765">
        <ele>81.400001525879</ele>
        <time>2014-09-21T10:05:56.000Z</time>
      </trkpt>
      <trkpt lat="48.92296" lon="2.07665">
        <ele>81</ele>
        <time>2014-09-21T10:06:02.000Z</time>
      </trkpt>
      <trkpt lat="48.92295" lon="2.07682">
        <ele>80.400001525879</ele>
        <time>2014-09-21T10:06:09.000Z</time>
      </trkpt>
      <trkpt lat="48.92291" lon="2.07701">
        <ele>79.800003051758</ele>
        <time>2014-09-21T10:06:17.000Z</time>
      </trkpt>
      <trkpt lat="48.92289" lon="2.07715">
        <ele>79.199996948242</ele>
        <time>2014-09-21T10:06:23.000Z</time>
      </trkpt>
      <trkpt lat="48.92286" lon="2.07726">
        <ele>78.800003051758</ele>
        <time>2014-09-21T10:06:29.000Z</time>
      </trkpt>
      <trkpt lat="48.92288" lon="2.07729">
        <ele>78.599998474121</ele>
        <time>2014-09-21T10:06:36.000Z</time>
      </trkpt>
      <trkpt lat="48.92289" lon="2.07729">
        <ele>78.599998474121</ele>
        <time>2014-09-21T10:06:39.000Z</time>
      </trkpt>
      <trkpt lat="48.92289" lon="2.07737">
        <ele>78.400001525879</ele>
        <time>2014-09-21T10:06:46.000Z</time>
      </trkpt>
      <trkpt lat="48.92288" lon="2.07747">
        <ele>78.199996948242</ele>
        <time>2014-09-21T10:06:49.000Z</time>
      </trkpt>
      <trkpt lat="48.92288" lon="2.07763">
        <ele>78.199996948242</ele>
        <time>2014-09-21T10:06:56.000Z</time>
      </trkpt>
      <trkpt lat="48.92286" lon="2.07769">
        <ele>78.400001525879</ele>
        <time>2014-09-21T10:06:58.000Z</time>
      </trkpt>
      <trkpt lat="48.92284" lon="2.07787">
        <ele>78.599998474121</ele>
        <time>2014-09-21T10:07:05.000Z</time>
      </trkpt>
      <trkpt lat="48.92286" lon="2.07804">
        <ele>78.800003051758</ele>
        <time>2014-09-21T10:07:12.000Z</time>
      </trkpt>
      <trkpt lat="48.92289" lon="2.07822">
        <ele>79</ele>
        <time>2014-09-21T10:07:19.000Z</time>
      </trkpt>
      <trkpt lat="48.92289" lon="2.07844">
        <ele>79</ele>
        <time>2014-09-21T10:07:27.000Z</time>
      </trkpt>
      <trkpt lat="48.92287" lon="2.07857">
        <ele>79</ele>
        <time>2014-09-21T10:07:33.000Z</time>
      </trkpt>
      <trkpt lat="48.92287" lon="2.07878">
        <ele>79</ele>
        <time>2014-09-21T10:07:42.000Z</time>
      </trkpt>
      <trkpt lat="48.92285" lon="2.07883">
        <ele>79</ele>
        <time>2014-09-21T10:07:44.000Z</time>
      </trkpt>
      <trkpt lat="48.92281" lon="2.07896">
        <ele>79</ele>
        <time>2014-09-21T10:07:49.000Z</time>
      </trkpt>
      <trkpt lat="48.92282" lon="2.07907">
        <ele>79</ele>
        <time>2014-09-21T10:07:54.000Z</time>
      </trkpt>
      <trkpt lat="48.92279" lon="2.07923">
        <ele>78.400001525879</ele>
        <time>2014-09-21T10:08:00.000Z</time>
      </trkpt>
      <trkpt lat="48.92273" lon="2.07938">
        <ele>77.599998474121</ele>
        <time>2014-09-21T10:08:07.000Z</time>
      </trkpt>
      <trkpt lat="48.92267" lon="2.07958">
        <ele>76.800003051758</ele>
        <time>2014-09-21T10:08:16.000Z</time>
      </trkpt>
      <trkpt lat="48.92264" lon="2.07974">
        <ele>76</ele>
        <time>2014-09-21T10:08:21.000Z</time>
      </trkpt>
      <trkpt lat="48.92263" lon="2.07987">
        <ele>75.599998474121</ele>
        <time>2014-09-21T10:08:26.000Z</time>
      </trkpt>
      <trkpt lat="48.92265" lon="2.08004">
        <ele>75.800003051758</ele>
        <time>2014-09-21T10:08:33.000Z</time>
      </trkpt>
      <trkpt lat="48.92265" lon="2.08021">
        <ele>76.199996948242</ele>
        <time>2014-09-21T10:08:40.000Z</time>
      </trkpt>
      <trkpt lat="48.9226" lon="2.08032">
        <ele>76.800003051758</ele>
        <time>2014-09-21T10:08:46.000Z</time>
      </trkpt>
      <trkpt lat="48.92259" lon="2.08045">
        <ele>77.199996948242</ele>
        <time>2014-09-21T10:08:51.000Z</time>
      </trkpt>
      <trkpt lat="48.92258" lon="2.08058">
        <ele>77.400001525879</ele>
        <time>2014-09-21T10:08:57.000Z</time>
      </trkpt>
      <trkpt lat="48.92259" lon="2.0806">
        <ele>77.400001525879</ele>
        <time>2014-09-21T10:08:58.000Z</time>
      </trkpt>
      <trkpt lat="48.92259" lon="2.0808">
        <ele>77.800003051758</ele>
        <time>2014-09-21T10:09:06.000Z</time>
      </trkpt>
      <trkpt lat="48.92258" lon="2.08087">
        <ele>77.800003051758</ele>
        <time>2014-09-21T10:09:09.000Z</time>
      </trkpt>
      <trkpt lat="48.92256" lon="2.08105">
        <ele>78.199996948242</ele>
        <time>2014-09-21T10:09:15.000Z</time>
      </trkpt>
      <trkpt lat="48.9226" lon="2.08124">
        <ele>78.199996948242</ele>
        <time>2014-09-21T10:09:22.000Z</time>
      </trkpt>
      <trkpt lat="48.92263" lon="2.08142">
        <ele>78.400001525879</ele>
        <time>2014-09-21T10:09:29.000Z</time>
      </trkpt>
      <trkpt lat="48.9226" lon="2.08162">
        <ele>78.400001525879</ele>
        <time>2014-09-21T10:09:37.000Z</time>
      </trkpt>
      <trkpt lat="48.92257" lon="2.08178">
        <ele>78.199996948242</ele>
        <time>2014-09-21T10:09:44.000Z</time>
      </trkpt>
      <trkpt lat="48.92251" lon="2.08194">
        <ele>78.199996948242</ele>
        <time>2014-09-21T10:09:51.000Z</time>
      </trkpt>
      <trkpt lat="48.9225" lon="2.08211">
        <ele>78</ele>
        <time>2014-09-21T10:09:59.000Z</time>
      </trkpt>
      <trkpt lat="48.92248" lon="2.08228">
        <ele>77.599998474121</ele>
        <time>2014-09-21T10:10:07.000Z</time>
      </trkpt>
      <trkpt lat="48.92247" lon="2.0824">
        <ele>77.400001525879</ele>
        <time>2014-09-21T10:10:13.000Z</time>
      </trkpt>
      <trkpt lat="48.92246" lon="2.0825">
        <ele>77.400001525879</ele>
        <time>2014-09-21T10:10:18.000Z</time>
      </trkpt>
      <trkpt lat="48.92247" lon="2.0827">
        <ele>77.400001525879</ele>
        <time>2014-09-21T10:10:27.000Z</time>
      </trkpt>
      <trkpt lat="48.92251" lon="2.08283">
        <ele>77.199996948242</ele>
        <time>2014-09-21T10:10:33.000Z</time>
      </trkpt>
      <trkpt lat="48.9225" lon="2.083">
        <ele>77.199996948242</ele>
        <time>2014-09-21T10:10:40.000Z</time>
      </trkpt>
      <trkpt lat="48.9225" lon="2.08316">
        <ele>76.599998474121</ele>
        <time>2014-09-21T10:10:47.000Z</time>
      </trkpt>
      <trkpt lat="48.92247" lon="2.08331">
        <ele>76</ele>
        <time>2014-09-21T10:10:55.000Z</time>
      </trkpt>
      <trkpt lat="48.92244" lon="2.08345">
        <ele>75.400001525879</ele>
        <time>2014-09-21T10:11:02.000Z</time>
      </trkpt>
      <trkpt lat="48.92239" lon="2.0836">
        <ele>75</ele>
        <time>2014-09-21T10:11:09.000Z</time>
      </trkpt>
      <trkpt lat="48.92237" lon="2.08377">
        <ele>74.599998474121</ele>
        <time>2014-09-21T10:11:17.000Z</time>
      </trkpt>
      <trkpt lat="48.92235" lon="2.08388">
        <ele>74.400001525879</ele>
        <time>2014-09-21T10:11:23.000Z</time>
      </trkpt>
      <trkpt lat="48.92233" lon="2.08403">
        <ele>74.199996948242</ele>
        <time>2014-09-21T10:11:30.000Z</time>
      </trkpt>
      <trkpt lat="48.92233" lon="2.08416">
        <ele>74</ele>
        <time>2014-09-21T10:11:37.000Z</time>
      </trkpt>
      <trkpt lat="48.92233" lon="2.08421">
        <ele>74.199996948242</ele>
        <time>2014-09-21T10:11:40.000Z</time>
      </trkpt>
      <trkpt lat="48.92232" lon="2.08424">
        <ele>74.199996948242</ele>
        <time>2014-09-21T10:11:45.000Z</time>
      </trkpt>
      <trkpt lat="48.92232" lon="2.08435">
        <ele>74.199996948242</ele>
        <time>2014-09-21T10:13:31.000Z</time>
      </trkpt>
      <trkpt lat="48.92237" lon="2.08444">
        <ele>74.599998474121</ele>
        <time>2014-09-21T10:13:35.000Z</time>
      </trkpt>
      <trkpt lat="48.92248" lon="2.08466">
        <ele>75</ele>
        <time>2014-09-21T10:13:47.000Z</time>
      </trkpt>
      <trkpt lat="48.92256" lon="2.08478">
        <ele>75.400001525879</ele>
        <time>2014-09-21T10:13:55.000Z</time>
      </trkpt>
      <trkpt lat="48.92264" lon="2.0848">
        <ele>75.599998474121</ele>
        <time>2014-09-21T10:14:00.000Z</time>
      </trkpt>
      <trkpt lat="48.92275" lon="2.08488">
        <ele>76</ele>
        <time>2014-09-21T10:14:07.000Z</time>
      </trkpt>
      <trkpt lat="48.92282" lon="2.08493">
        <ele>76.400001525879</ele>
        <time>2014-09-21T10:14:12.000Z</time>
      </trkpt>
      <trkpt lat="48.9229" lon="2.08496">
        <ele>76.599998474121</ele>
        <time>2014-09-21T10:14:17.000Z</time>
      </trkpt>
      <trkpt lat="48.92303" lon="2.08502">
        <ele>77</ele>
        <time>2014-09-21T10:14:25.000Z</time>
      </trkpt>
      <trkpt lat="48.92315" lon="2.08506">
        <ele>77.400001525879</ele>
        <time>2014-09-21T10:14:32.000Z</time>
      </trkpt>
      <trkpt lat="48.92326" lon="2.0851">
        <ele>77.800003051758</ele>
        <time>2014-09-21T10:14:39.000Z</time>
      </trkpt>
      <trkpt lat="48.92337" lon="2.08515">
        <ele>78.199996948242</ele>
        <time>2014-09-21T10:14:46.000Z</time>
      </trkpt>
      <trkpt lat="48.92347" lon="2.08518">
        <ele>78.599998474121</ele>
        <time>2014-09-21T10:14:53.000Z</time>
      </trkpt>
      <trkpt lat="48.92356" lon="2.08519">
        <ele>79</ele>
        <time>2014-09-21T10:14:59.000Z</time>
      </trkpt>
      <trkpt lat="48.92371" lon="2.08527">
        <ele>78.599998474121</ele>
        <time>2014-09-21T10:15:06.000Z</time>
      </trkpt>
      <trkpt lat="48.92379" lon="2.0853">
        <ele>78.400001525879</ele>
        <time>2014-09-21T10:15:11.000Z</time>
      </trkpt>
      <trkpt lat="48.92391" lon="2.08535">
        <ele>78.199996948242</ele>
        <time>2014-09-21T10:15:18.000Z</time>
      </trkpt>
      <trkpt lat="48.92403" lon="2.0854">
        <ele>78</ele>
        <time>2014-09-21T10:15:25.000Z</time>
      </trkpt>
      <trkpt lat="48.92409" lon="2.08544">
        <ele>77.800003051758</ele>
        <time>2014-09-21T10:15:29.000Z</time>
      </trkpt>
      <trkpt lat="48.92417" lon="2.08546">
        <ele>77.199996948242</ele>
        <time>2014-09-21T10:15:34.000Z</time>
      </trkpt>
      <trkpt lat="48.92428" lon="2.08549">
        <ele>76.599998474121</ele>
        <time>2014-09-21T10:15:41.000Z</time>
      </trkpt>
      <trkpt lat="48.92438" lon="2.08554">
        <ele>76.199996948242</ele>
        <time>2014-09-21T10:15:47.000Z</time>
      </trkpt>
      <trkpt lat="48.92449" lon="2.0856">
        <ele>75.599998474121</ele>
        <time>2014-09-21T10:15:54.000Z</time>
      </trkpt>
      <trkpt lat="48.92461" lon="2.08566">
        <ele>75</ele>
        <time>2014-09-21T10:16:01.000Z</time>
      </trkpt>
      <trkpt lat="48.92476" lon="2.08572">
        <ele>74.199996948242</ele>
        <time>2014-09-21T10:16:10.000Z</time>
      </trkpt>
      <trkpt lat="48.92484" lon="2.08576">
        <ele>73.800003051758</ele>
        <time>2014-09-21T10:16:16.000Z</time>
      </trkpt>
      <trkpt lat="48.92489" lon="2.08579">
        <ele>73.599998474121</ele>
        <time>2014-09-21T10:16:19.000Z</time>
      </trkpt>
      <trkpt lat="48.92494" lon="2.08579">
        <ele>73.400001525879</ele>
        <time>2014-09-21T10:16:23.000Z</time>
      </trkpt>
      <trkpt lat="48.92505" lon="2.08583">
        <ele>72.800003051758</ele>
        <time>2014-09-21T10:16:30.000Z</time>
      </trkpt>
      <trkpt lat="48.92506" lon="2.08583">
        <ele>72.599998474121</ele>
        <time>2014-09-21T10:16:31.000Z</time>
      </trkpt>
      <trkpt lat="48.92516" lon="2.08586">
        <ele>72.199996948242</ele>
        <time>2014-09-21T10:16:37.000Z</time>
      </trkpt>
      <trkpt lat="48.92527" lon="2.08591">
        <ele>71.800003051758</ele>
        <time>2014-09-21T10:16:45.000Z</time>
      </trkpt>
      <trkpt lat="48.92535" lon="2.08596">
        <ele>71.599998474121</ele>
        <time>2014-09-21T10:16:50.000Z</time>
      </trkpt>
      <trkpt lat="48.92545" lon="2.08601">
        <ele>71.400001525879</ele>
        <time>2014-09-21T10:16:56.000Z</time>
      </trkpt>
      <trkpt lat="48.92555" lon="2.08605">
        <ele>71.199996948242</ele>
        <time>2014-09-21T10:17:02.000Z</time>
      </trkpt>
      <trkpt lat="48.92563" lon="2.08607">
        <ele>71.199996948242</ele>
        <time>2014-09-21T10:17:07.000Z</time>
      </trkpt>
      <trkpt lat="48.92572" lon="2.08612">
        <ele>71.199996948242</ele>
        <time>2014-09-21T10:17:12.000Z</time>
      </trkpt>
      <trkpt lat="48.92578" lon="2.08614">
        <ele>71.199996948242</ele>
        <time>2014-09-21T10:17:16.000Z</time>
      </trkpt>
      <trkpt lat="48.92591" lon="2.08618">
        <ele>71.199996948242</ele>
        <time>2014-09-21T10:17:24.000Z</time>
      </trkpt>
      <trkpt lat="48.92603" lon="2.08623">
        <ele>71.199996948242</ele>
        <time>2014-09-21T10:17:30.000Z</time>
      </trkpt>
      <trkpt lat="48.92613" lon="2.08628">
        <ele>70.800003051758</ele>
        <time>2014-09-21T10:17:35.000Z</time>
      </trkpt>
      <trkpt lat="48.92617" lon="2.0863">
        <ele>70.400001525879</ele>
        <time>2014-09-21T10:17:37.000Z</time>
      </trkpt>
      <trkpt lat="48.92622" lon="2.08632">
        <ele>70</ele>
        <time>2014-09-21T10:17:41.000Z</time>
      </trkpt>
      <trkpt lat="48.92633" lon="2.08635">
        <ele>69.199996948242</ele>
        <time>2014-09-21T10:17:48.000Z</time>
      </trkpt>
      <trkpt lat="48.92646" lon="2.08641">
        <ele>68.199996948242</ele>
        <time>2014-09-21T10:17:56.000Z</time>
      </trkpt>
      <trkpt lat="48.92657" lon="2.08647">
        <ele>67.599998474121</ele>
        <time>2014-09-21T10:18:02.000Z</time>
      </trkpt>
      <trkpt lat="48.92666" lon="2.08651">
        <ele>66.800003051758</ele>
        <time>2014-09-21T10:18:07.000Z</time>
      </trkpt>
      <trkpt lat="48.92676" lon="2.08656">
        <ele>66.199996948242</ele>
        <time>2014-09-21T10:18:13.000Z</time>
      </trkpt>
      <trkpt lat="48.92687" lon="2.08661">
        <ele>65.400001525879</ele>
        <time>2014-09-21T10:18:20.000Z</time>
      </trkpt>
      <trkpt lat="48.92696" lon="2.08666">
        <ele>65</ele>
        <time>2014-09-21T10:18:26.000Z</time>
      </trkpt>
      <trkpt lat="48.92701" lon="2.08667">
        <ele>65</ele>
        <time>2014-09-21T10:18:29.000Z</time>
      </trkpt>
      <trkpt lat="48.92708" lon="2.0867">
        <ele>64.800003051758</ele>
        <time>2014-09-21T10:18:33.000Z</time>
      </trkpt>
      <trkpt lat="48.92722" lon="2.08677">
        <ele>64.800003051758</ele>
        <time>2014-09-21T10:18:42.000Z</time>
      </trkpt>
      <trkpt lat="48.92732" lon="2.08682">
        <ele>64.800003051758</ele>
        <time>2014-09-21T10:18:48.000Z</time>
      </trkpt>
      <trkpt lat="48.92744" lon="2.08687">
        <ele>64.599998474121</ele>
        <time>2014-09-21T10:18:55.000Z</time>
      </trkpt>
      <trkpt lat="48.92753" lon="2.08691">
        <ele>64.599998474121</ele>
        <time>2014-09-21T10:19:01.000Z</time>
      </trkpt>
      <trkpt lat="48.92764" lon="2.08696">
        <ele>64.599998474121</ele>
        <time>2014-09-21T10:19:08.000Z</time>
      </trkpt>
      <trkpt lat="48.92773" lon="2.08699">
        <ele>64.599998474121</ele>
        <time>2014-09-21T10:19:13.000Z</time>
      </trkpt>
      <trkpt lat="48.92781" lon="2.08703">
        <ele>64.400001525879</ele>
        <time>2014-09-21T10:19:18.000Z</time>
      </trkpt>
      <trkpt lat="48.92785" lon="2.08705">
        <ele>64.400001525879</ele>
        <time>2014-09-21T10:19:21.000Z</time>
      </trkpt>
      <trkpt lat="48.92798" lon="2.0871">
        <ele>64.400001525879</ele>
        <time>2014-09-21T10:19:29.000Z</time>
      </trkpt>
      <trkpt lat="48.92815" lon="2.08717">
        <ele>64.400001525879</ele>
        <time>2014-09-21T10:19:39.000Z</time>
      </trkpt>
      <trkpt lat="48.92825" lon="2.08722">
        <ele>64.199996948242</ele>
        <time>2014-09-21T10:19:46.000Z</time>
      </trkpt>
      <trkpt lat="48.92837" lon="2.08727">
        <ele>64.199996948242</ele>
        <time>2014-09-21T10:19:53.000Z</time>
      </trkpt>
      <trkpt lat="48.92846" lon="2.0873">
        <ele>64.199996948242</ele>
        <time>2014-09-21T10:19:59.000Z</time>
      </trkpt>
      <trkpt lat="48.92851" lon="2.08733">
        <ele>64.199996948242</ele>
        <time>2014-09-21T10:20:02.000Z</time>
      </trkpt>
      <trkpt lat="48.92862" lon="2.08737">
        <ele>64.400001525879</ele>
        <time>2014-09-21T10:20:08.000Z</time>
      </trkpt>
      <trkpt lat="48.92865" lon="2.08738">
        <ele>64.599998474121</ele>
        <time>2014-09-21T10:20:10.000Z</time>
      </trkpt>
      <trkpt lat="48.92867" lon="2.0874">
        <ele>64.599998474121</ele>
        <time>2014-09-21T10:20:12.000Z</time>
      </trkpt>
      <trkpt lat="48.92882" lon="2.08744">
        <ele>65.199996948242</ele>
        <time>2014-09-21T10:20:21.000Z</time>
      </trkpt>
      <trkpt lat="48.92894" lon="2.08747">
        <ele>65.800003051758</ele>
        <time>2014-09-21T10:20:27.000Z</time>
      </trkpt>
      <trkpt lat="48.92909" lon="2.08753">
        <ele>66.800003051758</ele>
        <time>2014-09-21T10:20:34.000Z</time>
      </trkpt>
      <trkpt lat="48.92917" lon="2.08757">
        <ele>67.199996948242</ele>
        <time>2014-09-21T10:20:39.000Z</time>
      </trkpt>
      <trkpt lat="48.92929" lon="2.08762">
        <ele>67.800003051758</ele>
        <time>2014-09-21T10:20:45.000Z</time>
      </trkpt>
      <trkpt lat="48.92932" lon="2.08763">
        <ele>68</ele>
        <time>2014-09-21T10:20:46.000Z</time>
      </trkpt>
      <trkpt lat="48.92949" lon="2.08767">
        <ele>69.199996948242</ele>
        <time>2014-09-21T10:20:52.000Z</time>
      </trkpt>
      <trkpt lat="48.92961" lon="2.08773">
        <ele>70.199996948242</ele>
        <time>2014-09-21T10:20:56.000Z</time>
      </trkpt>
      <trkpt lat="48.92982" lon="2.08784">
        <ele>72</ele>
        <time>2014-09-21T10:21:02.000Z</time>
      </trkpt>
      <trkpt lat="48.93009" lon="2.08798">
        <ele>74.199996948242</ele>
        <time>2014-09-21T10:21:09.000Z</time>
      </trkpt>
      <trkpt lat="48.9303" lon="2.08807">
        <ele>75.599998474121</ele>
        <time>2014-09-21T10:21:14.000Z</time>
      </trkpt>
      <trkpt lat="48.9305" lon="2.08814">
        <ele>75.599998474121</ele>
        <time>2014-09-21T10:21:19.000Z</time>
      </trkpt>
      <trkpt lat="48.93057" lon="2.08817">
        <ele>75.800003051758</ele>
        <time>2014-09-21T10:21:21.000Z</time>
      </trkpt>
      <trkpt lat="48.93074" lon="2.08823">
        <ele>76</ele>
        <time>2014-09-21T10:21:25.000Z</time>
      </trkpt>
      <trkpt lat="48.93086" lon="2.08829">
        <ele>76</ele>
        <time>2014-09-21T10:21:28.000Z</time>
      </trkpt>
      <trkpt lat="48.93106" lon="2.08838">
        <ele>75.800003051758</ele>
        <time>2014-09-21T10:21:33.000Z</time>
      </trkpt>
      <trkpt lat="48.93126" lon="2.08846">
        <ele>75.599998474121</ele>
        <time>2014-09-21T10:21:38.000Z</time>
      </trkpt>
      <trkpt lat="48.93152" lon="2.08857">
        <ele>75.199996948242</ele>
        <time>2014-09-21T10:21:44.000Z</time>
      </trkpt>
      <trkpt lat="48.93176" lon="2.08864">
        <ele>75.199996948242</ele>
        <time>2014-09-21T10:21:49.000Z</time>
      </trkpt>
      <trkpt lat="48.93202" lon="2.08874">
        <ele>75</ele>
        <time>2014-09-21T10:21:54.000Z</time>
      </trkpt>
      <trkpt lat="48.9322" lon="2.08884">
        <ele>75</ele>
        <time>2014-09-21T10:21:58.000Z</time>
      </trkpt>
      <trkpt lat="48.93246" lon="2.08895">
        <ele>75</ele>
        <time>2014-09-21T10:22:04.000Z</time>
      </trkpt>
      <trkpt lat="48.93254" lon="2.08899">
        <ele>75</ele>
        <time>2014-09-21T10:22:06.000Z</time>
      </trkpt>
      <trkpt lat="48.93277" lon="2.0891">
        <ele>75</ele>
        <time>2014-09-21T10:22:12.000Z</time>
      </trkpt>
      <trkpt lat="48.93297" lon="2.08919">
        <ele>74.199996948242</ele>
        <time>2014-09-21T10:22:17.000Z</time>
      </trkpt>
      <trkpt lat="48.93306" lon="2.08923">
        <ele>74</ele>
        <time>2014-09-21T10:22:19.000Z</time>
      </trkpt>
      <trkpt lat="48.93332" lon="2.08932">
        <ele>73.199996948242</ele>
        <time>2014-09-21T10:22:24.000Z</time>
      </trkpt>
      <trkpt lat="48.93347" lon="2.08939">
        <ele>72.800003051758</ele>
        <time>2014-09-21T10:22:28.000Z</time>
      </trkpt>
      <trkpt lat="48.93374" lon="2.08949">
        <ele>72.400001525879</ele>
        <time>2014-09-21T10:22:34.000Z</time>
      </trkpt>
      <trkpt lat="48.93378" lon="2.08951">
        <ele>72.199996948242</ele>
        <time>2014-09-21T10:22:35.000Z</time>
      </trkpt>
      <trkpt lat="48.93401" lon="2.08963">
        <ele>72</ele>
        <time>2014-09-21T10:22:40.000Z</time>
      </trkpt>
      <trkpt lat="48.93421" lon="2.08972">
        <ele>71.800003051758</ele>
        <time>2014-09-21T10:22:43.000Z</time>
      </trkpt>
      <trkpt lat="48.93445" lon="2.08982">
        <ele>71.400001525879</ele>
        <time>2014-09-21T10:22:47.000Z</time>
      </trkpt>
      <trkpt lat="48.93482" lon="2.08999">
        <ele>70.400001525879</ele>
        <time>2014-09-21T10:22:53.000Z</time>
      </trkpt>
      <trkpt lat="48.93511" lon="2.0901">
        <ele>69.800003051758</ele>
        <time>2014-09-21T10:22:59.000Z</time>
      </trkpt>
      <trkpt lat="48.93533" lon="2.0902">
        <ele>69.599998474121</ele>
        <time>2014-09-21T10:23:03.000Z</time>
      </trkpt>
      <trkpt lat="48.93543" lon="2.09024">
        <ele>70</ele>
        <time>2014-09-21T10:23:06.000Z</time>
      </trkpt>
      <trkpt lat="48.93555" lon="2.09033">
        <ele>70.199996948242</ele>
        <time>2014-09-21T10:23:11.000Z</time>
      </trkpt>
      <trkpt lat="48.93561" lon="2.09039">
        <ele>70.199996948242</ele>
        <time>2014-09-21T10:23:17.000Z</time>
      </trkpt>
      <trkpt lat="48.93562" lon="2.09042">
        <ele>70.199996948242</ele>
        <time>2014-09-21T10:23:21.000Z</time>
      </trkpt>
      <trkpt lat="48.93555" lon="2.09043">
        <ele>70</ele>
        <time>2014-09-21T10:23:43.000Z</time>
      </trkpt>
      <trkpt lat="48.93548" lon="2.09034">
        <ele>69.800003051758</ele>
        <time>2014-09-21T10:23:49.000Z</time>
      </trkpt>
      <trkpt lat="48.93548" lon="2.09034">
        <ele>69.800003051758</ele>
        <time>2014-09-21T10:23:50.000Z</time>
      </trkpt>
      <trkpt lat="48.93551" lon="2.09031">
        <ele>70</ele>
        <time>2014-09-21T10:24:00.000Z</time>
      </trkpt>
      <trkpt lat="48.93554" lon="2.09029">
        <ele>70.199996948242</ele>
        <time>2014-09-21T10:24:02.000Z</time>
      </trkpt>
      <trkpt lat="48.93555" lon="2.09027">
        <ele>70.199996948242</ele>
        <time>2014-09-21T10:24:04.000Z</time>
      </trkpt>
      <trkpt lat="48.93553" lon="2.09025">
        <ele>70.199996948242</ele>
        <time>2014-09-21T10:24:10.000Z</time>
      </trkpt>
      <trkpt lat="48.93554" lon="2.09027">
        <ele>70.199996948242</ele>
        <time>2014-09-21T10:24:15.000Z</time>
      </trkpt>
      <trkpt lat="48.93561" lon="2.0903">
        <ele>70.400001525879</ele>
        <time>2014-09-21T10:24:28.000Z</time>
      </trkpt>
      <trkpt lat="48.93567" lon="2.0903">
        <ele>70.400001525879</ele>
        <time>2014-09-21T10:24:31.000Z</time>
      </trkpt>
      <trkpt lat="48.93574" lon="2.09035">
        <ele>70.400001525879</ele>
        <time>2014-09-21T10:24:38.000Z</time>
      </trkpt>
      <trkpt lat="48.93581" lon="2.09037">
        <ele>70.599998474121</ele>
        <time>2014-09-21T10:24:43.000Z</time>
      </trkpt>
      <trkpt lat="48.93593" lon="2.09036">
        <ele>70.599998474121</ele>
        <time>2014-09-21T10:24:51.000Z</time>
      </trkpt>
      <trkpt lat="48.93605" lon="2.09039">
        <ele>70.599998474121</ele>
        <time>2014-09-21T10:24:58.000Z</time>
      </trkpt>
      <trkpt lat="48.93616" lon="2.09043">
        <ele>70.400001525879</ele>
        <time>2014-09-21T10:25:06.000Z</time>
      </trkpt>
      <trkpt lat="48.93627" lon="2.09046">
        <ele>70.400001525879</ele>
        <time>2014-09-21T10:25:14.000Z</time>
      </trkpt>
      <trkpt lat="48.9364" lon="2.09049">
        <ele>70.199996948242</ele>
        <time>2014-09-21T10:25:20.000Z</time>
      </trkpt>
      <trkpt lat="48.93654" lon="2.09056">
        <ele>70.199996948242</ele>
        <time>2014-09-21T10:25:25.000Z</time>
      </trkpt>
      <trkpt lat="48.93669" lon="2.09061">
        <ele>70</ele>
        <time>2014-09-21T10:25:30.000Z</time>
      </trkpt>
      <trkpt lat="48.93689" lon="2.09067">
        <ele>69.800003051758</ele>
        <time>2014-09-21T10:25:35.000Z</time>
      </trkpt>
      <trkpt lat="48.93711" lon="2.09073">
        <ele>70</ele>
        <time>2014-09-21T10:25:42.000Z</time>
      </trkpt>
      <trkpt lat="48.93723" lon="2.09077">
        <ele>70</ele>
        <time>2014-09-21T10:25:47.000Z</time>
      </trkpt>
      <trkpt lat="48.93735" lon="2.09081">
        <ele>70</ele>
        <time>2014-09-21T10:25:53.000Z</time>
      </trkpt>
      <trkpt lat="48.93743" lon="2.09083">
        <ele>70</ele>
        <time>2014-09-21T10:26:00.000Z</time>
      </trkpt>
      <trkpt lat="48.93748" lon="2.09083">
        <ele>70</ele>
        <time>2014-09-21T10:26:03.000Z</time>
      </trkpt>
      <trkpt lat="48.93753" lon="2.09085">
        <ele>70</ele>
        <time>2014-09-21T10:26:07.000Z</time>
      </trkpt>
      <trkpt lat="48.9376" lon="2.09088">
        <ele>69.800003051758</ele>
        <time>2014-09-21T10:26:11.000Z</time>
      </trkpt>
      <trkpt lat="48.93768" lon="2.09093">
        <ele>69.800003051758</ele>
        <time>2014-09-21T10:26:17.000Z</time>
      </trkpt>
      <trkpt lat="48.93771" lon="2.09095">
        <ele>69.800003051758</ele>
        <time>2014-09-21T10:26:19.000Z</time>
      </trkpt>
      <trkpt lat="48.93784" lon="2.09098">
        <ele>69.199996948242</ele>
        <time>2014-09-21T10:26:27.000Z</time>
      </trkpt>
      <trkpt lat="48.93799" lon="2.09102">
        <ele>68.599998474121</ele>
        <time>2014-09-21T10:26:33.000Z</time>
      </trkpt>
      <trkpt lat="48.93811" lon="2.09104">
        <ele>67.599998474121</ele>
        <time>2014-09-21T10:26:39.000Z</time>
      </trkpt>
      <trkpt lat="48.93822" lon="2.09108">
        <ele>66.800003051758</ele>
        <time>2014-09-21T10:26:46.000Z</time>
      </trkpt>
      <trkpt lat="48.93823" lon="2.09108">
        <ele>66.599998474121</ele>
        <time>2014-09-21T10:26:47.000Z</time>
      </trkpt>
      <trkpt lat="48.93825" lon="2.09108">
        <ele>66.400001525879</ele>
        <time>2014-09-21T10:26:49.000Z</time>
      </trkpt>
      <trkpt lat="48.93835" lon="2.09109">
        <ele>65.599998474121</ele>
        <time>2014-09-21T10:26:55.000Z</time>
      </trkpt>
      <trkpt lat="48.93847" lon="2.09113">
        <ele>64.800003051758</ele>
        <time>2014-09-21T10:27:00.000Z</time>
      </trkpt>
      <trkpt lat="48.93851" lon="2.09112">
        <ele>64.400001525879</ele>
        <time>2014-09-21T10:27:02.000Z</time>
      </trkpt>
      <trkpt lat="48.93857" lon="2.09116">
        <ele>64</ele>
        <time>2014-09-21T10:27:06.000Z</time>
      </trkpt>
      <trkpt lat="48.93867" lon="2.09118">
        <ele>63.799999237061</ele>
        <time>2014-09-21T10:27:13.000Z</time>
      </trkpt>
      <trkpt lat="48.9387" lon="2.09119">
        <ele>63.799999237061</ele>
        <time>2014-09-21T10:27:15.000Z</time>
      </trkpt>
      <trkpt lat="48.93882" lon="2.09124">
        <ele>63.799999237061</ele>
        <time>2014-09-21T10:27:23.000Z</time>
      </trkpt>
      <trkpt lat="48.93894" lon="2.09127">
        <ele>63.799999237061</ele>
        <time>2014-09-21T10:27:31.000Z</time>
      </trkpt>
      <trkpt lat="48.93905" lon="2.09131">
        <ele>63.799999237061</ele>
        <time>2014-09-21T10:27:37.000Z</time>
      </trkpt>
      <trkpt lat="48.9392" lon="2.09135">
        <ele>63.799999237061</ele>
        <time>2014-09-21T10:27:45.000Z</time>
      </trkpt>
      <trkpt lat="48.93924" lon="2.09136">
        <ele>63.799999237061</ele>
        <time>2014-09-21T10:27:48.000Z</time>
      </trkpt>
      <trkpt lat="48.93931" lon="2.09139">
        <ele>63.799999237061</ele>
        <time>2014-09-21T10:27:56.000Z</time>
      </trkpt>
      <trkpt lat="48.93939" lon="2.09143">
        <ele>63.799999237061</ele>
        <time>2014-09-21T10:28:09.000Z</time>
      </trkpt>
      <trkpt lat="48.93938" lon="2.09141">
        <ele>63.799999237061</ele>
        <time>2014-09-21T10:28:14.000Z</time>
      </trkpt>
      <trkpt lat="48.93943" lon="2.09137">
        <ele>63.799999237061</ele>
        <time>2014-09-21T10:28:36.000Z</time>
      </trkpt>
      <trkpt lat="48.93947" lon="2.09139">
        <ele>63.799999237061</ele>
        <time>2014-09-21T10:28:39.000Z</time>
      </trkpt>
      <trkpt lat="48.93949" lon="2.09144">
        <ele>64</ele>
        <time>2014-09-21T10:28:44.000Z</time>
      </trkpt>
      <trkpt lat="48.93952" lon="2.09146">
        <ele>64</ele>
        <time>2014-09-21T10:28:48.000Z</time>
      </trkpt>
      <trkpt lat="48.93965" lon="2.09146">
        <ele>64.199996948242</ele>
        <time>2014-09-21T10:28:54.000Z</time>
      </trkpt>
      <trkpt lat="48.93969" lon="2.09149">
        <ele>64.199996948242</ele>
        <time>2014-09-21T10:28:58.000Z</time>
      </trkpt>
      <trkpt lat="48.93971" lon="2.09149">
        <ele>64.199996948242</ele>
        <time>2014-09-21T10:29:00.000Z</time>
      </trkpt>
      <trkpt lat="48.93977" lon="2.09146">
        <ele>64.199996948242</ele>
        <time>2014-09-21T10:29:06.000Z</time>
      </trkpt>
      <trkpt lat="48.93987" lon="2.09147">
        <ele>64.400001525879</ele>
        <time>2014-09-21T10:29:12.000Z</time>
      </trkpt>
      <trkpt lat="48.93994" lon="2.09149">
        <ele>64.599998474121</ele>
        <time>2014-09-21T10:29:16.000Z</time>
      </trkpt>
      <trkpt lat="48.94002" lon="2.09151">
        <ele>64.599998474121</ele>
        <time>2014-09-21T10:29:21.000Z</time>
      </trkpt>
      <trkpt lat="48.94012" lon="2.09153">
        <ele>64.800003051758</ele>
        <time>2014-09-21T10:29:27.000Z</time>
      </trkpt>
      <trkpt lat="48.94018" lon="2.09154">
        <ele>64.800003051758</ele>
        <time>2014-09-21T10:29:31.000Z</time>
      </trkpt>
      <trkpt lat="48.94027" lon="2.09156">
        <ele>64.800003051758</ele>
        <time>2014-09-21T10:29:38.000Z</time>
      </trkpt>
      <trkpt lat="48.94035" lon="2.09159">
        <ele>65</ele>
        <time>2014-09-21T10:29:44.000Z</time>
      </trkpt>
      <trkpt lat="48.94043" lon="2.09161">
        <ele>65</ele>
        <time>2014-09-21T10:29:49.000Z</time>
      </trkpt>
      <trkpt lat="48.94046" lon="2.09161">
        <ele>65</ele>
        <time>2014-09-21T10:29:51.000Z</time>
      </trkpt>
      <trkpt lat="48.94053" lon="2.09167">
        <ele>65.400001525879</ele>
        <time>2014-09-21T10:29:56.000Z</time>
      </trkpt>
      <trkpt lat="48.94061" lon="2.09171">
        <ele>65.599998474121</ele>
        <time>2014-09-21T10:30:01.000Z</time>
      </trkpt>
      <trkpt lat="48.94064" lon="2.09172">
        <ele>65.599998474121</ele>
        <time>2014-09-21T10:30:03.000Z</time>
      </trkpt>
      <trkpt lat="48.94076" lon="2.09176">
        <ele>65.800003051758</ele>
        <time>2014-09-21T10:30:11.000Z</time>
      </trkpt>
      <trkpt lat="48.94086" lon="2.09174">
        <ele>65.599998474121</ele>
        <time>2014-09-21T10:30:18.000Z</time>
      </trkpt>
      <trkpt lat="48.94095" lon="2.09176">
        <ele>65.800003051758</ele>
        <time>2014-09-21T10:30:25.000Z</time>
      </trkpt>
      <trkpt lat="48.94103" lon="2.09178">
        <ele>65.800003051758</ele>
        <time>2014-09-21T10:30:30.000Z</time>
      </trkpt>
      <trkpt lat="48.94111" lon="2.09183">
        <ele>66.199996948242</ele>
        <time>2014-09-21T10:30:35.000Z</time>
      </trkpt>
      <trkpt lat="48.94125" lon="2.09189">
        <ele>66.400001525879</ele>
        <time>2014-09-21T10:30:44.000Z</time>
      </trkpt>
      <trkpt lat="48.94131" lon="2.09191">
        <ele>66.400001525879</ele>
        <time>2014-09-21T10:30:49.000Z</time>
      </trkpt>
      <trkpt lat="48.94136" lon="2.09188">
        <ele>66.400001525879</ele>
        <time>2014-09-21T10:30:53.000Z</time>
      </trkpt>
      <trkpt lat="48.94146" lon="2.09189">
        <ele>66.400001525879</ele>
        <time>2014-09-21T10:30:59.000Z</time>
      </trkpt>
      <trkpt lat="48.94157" lon="2.09197">
        <ele>67</ele>
        <time>2014-09-21T10:31:07.000Z</time>
      </trkpt>
      <trkpt lat="48.94168" lon="2.09204">
        <ele>67.400001525879</ele>
        <time>2014-09-21T10:31:15.000Z</time>
      </trkpt>
      <trkpt lat="48.94179" lon="2.09208">
        <ele>67.599998474121</ele>
        <time>2014-09-21T10:31:21.000Z</time>
      </trkpt>
      <trkpt lat="48.9419" lon="2.09213">
        <ele>67.800003051758</ele>
        <time>2014-09-21T10:31:26.000Z</time>
      </trkpt>
      <trkpt lat="48.94192" lon="2.09213">
        <ele>68</ele>
        <time>2014-09-21T10:31:27.000Z</time>
      </trkpt>
      <trkpt lat="48.94198" lon="2.09212">
        <ele>68</ele>
        <time>2014-09-21T10:31:31.000Z</time>
      </trkpt>
      <trkpt lat="48.94207" lon="2.09211">
        <ele>68</ele>
        <time>2014-09-21T10:31:38.000Z</time>
      </trkpt>
      <trkpt lat="48.94218" lon="2.09216">
        <ele>68.400001525879</ele>
        <time>2014-09-21T10:31:45.000Z</time>
      </trkpt>
      <trkpt lat="48.94228" lon="2.0922">
        <ele>68.599998474121</ele>
        <time>2014-09-21T10:31:51.000Z</time>
      </trkpt>
      <trkpt lat="48.94237" lon="2.09222">
        <ele>68.800003051758</ele>
        <time>2014-09-21T10:31:58.000Z</time>
      </trkpt>
      <trkpt lat="48.94249" lon="2.09225">
        <ele>69</ele>
        <time>2014-09-21T10:32:06.000Z</time>
      </trkpt>
      <trkpt lat="48.94254" lon="2.09227">
        <ele>69.199996948242</ele>
        <time>2014-09-21T10:32:10.000Z</time>
      </trkpt>
      <trkpt lat="48.94269" lon="2.0923">
        <ele>69.400001525879</ele>
        <time>2014-09-21T10:32:18.000Z</time>
      </trkpt>
      <trkpt lat="48.94276" lon="2.09233">
        <ele>69.599998474121</ele>
        <time>2014-09-21T10:32:23.000Z</time>
      </trkpt>
      <trkpt lat="48.94277" lon="2.09233">
        <ele>69.599998474121</ele>
        <time>2014-09-21T10:32:24.000Z</time>
      </trkpt>
      <trkpt lat="48.94287" lon="2.09234">
        <ele>69.199996948242</ele>
        <time>2014-09-21T10:32:31.000Z</time>
      </trkpt>
      <trkpt lat="48.94296" lon="2.09237">
        <ele>69</ele>
        <time>2014-09-21T10:32:36.000Z</time>
      </trkpt>
      <trkpt lat="48.94298" lon="2.09238">
        <ele>69</ele>
        <time>2014-09-21T10:32:38.000Z</time>
      </trkpt>
      <trkpt lat="48.94308" lon="2.09239">
        <ele>68.599998474121</ele>
        <time>2014-09-21T10:32:45.000Z</time>
      </trkpt>
      <trkpt lat="48.94319" lon="2.09242">
        <ele>68.400001525879</ele>
        <time>2014-09-21T10:32:52.000Z</time>
      </trkpt>
      <trkpt lat="48.9432" lon="2.09242">
        <ele>68.400001525879</ele>
        <time>2014-09-21T10:32:53.000Z</time>
      </trkpt>
      <trkpt lat="48.94329" lon="2.09246">
        <ele>68</ele>
        <time>2014-09-21T10:32:59.000Z</time>
      </trkpt>
      <trkpt lat="48.9433" lon="2.09246">
        <ele>68</ele>
        <time>2014-09-21T10:33:00.000Z</time>
      </trkpt>
      <trkpt lat="48.94333" lon="2.09245">
        <ele>68</ele>
        <time>2014-09-21T10:33:02.000Z</time>
      </trkpt>
      <trkpt lat="48.94345" lon="2.09244">
        <ele>67.400001525879</ele>
        <time>2014-09-21T10:33:10.000Z</time>
      </trkpt>
      <trkpt lat="48.94353" lon="2.09246">
        <ele>67.199996948242</ele>
        <time>2014-09-21T10:33:15.000Z</time>
      </trkpt>
      <trkpt lat="48.94363" lon="2.09247">
        <ele>67</ele>
        <time>2014-09-21T10:33:20.000Z</time>
      </trkpt>
      <trkpt lat="48.94372" lon="2.09251">
        <ele>67</ele>
        <time>2014-09-21T10:33:25.000Z</time>
      </trkpt>
      <trkpt lat="48.94381" lon="2.09255">
        <ele>67</ele>
        <time>2014-09-21T10:33:30.000Z</time>
      </trkpt>
      <trkpt lat="48.94387" lon="2.09255">
        <ele>66.800003051758</ele>
        <time>2014-09-21T10:33:34.000Z</time>
      </trkpt>
      <trkpt lat="48.94397" lon="2.0926">
        <ele>66.800003051758</ele>
        <time>2014-09-21T10:33:40.000Z</time>
      </trkpt>
      <trkpt lat="48.9441" lon="2.09265">
        <ele>66.800003051758</ele>
        <time>2014-09-21T10:33:46.000Z</time>
      </trkpt>
      <trkpt lat="48.94411" lon="2.09266">
        <ele>66.800003051758</ele>
        <time>2014-09-21T10:33:47.000Z</time>
      </trkpt>
      <trkpt lat="48.94425" lon="2.09273">
        <ele>66.800003051758</ele>
        <time>2014-09-21T10:33:54.000Z</time>
      </trkpt>
      <trkpt lat="48.94444" lon="2.09277">
        <ele>66.400001525879</ele>
        <time>2014-09-21T10:34:02.000Z</time>
      </trkpt>
      <trkpt lat="48.94458" lon="2.09281">
        <ele>66</ele>
        <time>2014-09-21T10:34:08.000Z</time>
      </trkpt>
      <trkpt lat="48.94468" lon="2.09281">
        <ele>65.599998474121</ele>
        <time>2014-09-21T10:34:16.000Z</time>
      </trkpt>
      <trkpt lat="48.94479" lon="2.09285">
        <ele>65.199996948242</ele>
        <time>2014-09-21T10:34:23.000Z</time>
      </trkpt>
      <trkpt lat="48.9449" lon="2.09289">
        <ele>64.800003051758</ele>
        <time>2014-09-21T10:34:30.000Z</time>
      </trkpt>
      <trkpt lat="48.94501" lon="2.09292">
        <ele>64.400001525879</ele>
        <time>2014-09-21T10:34:37.000Z</time>
      </trkpt>
      <trkpt lat="48.94513" lon="2.09294">
        <ele>63.799999237061</ele>
        <time>2014-09-21T10:34:44.000Z</time>
      </trkpt>
      <trkpt lat="48.94524" lon="2.09301">
        <ele>63.400001525879</ele>
        <time>2014-09-21T10:34:52.000Z</time>
      </trkpt>
      <trkpt lat="48.9453" lon="2.09298">
        <ele>63</ele>
        <time>2014-09-21T10:34:57.000Z</time>
      </trkpt>
      <trkpt lat="48.94543" lon="2.09301">
        <ele>62.799999237061</ele>
        <time>2014-09-21T10:35:05.000Z</time>
      </trkpt>
      <trkpt lat="48.9455" lon="2.093">
        <ele>62.400001525879</ele>
        <time>2014-09-21T10:35:10.000Z</time>
      </trkpt>
      <trkpt lat="48.94564" lon="2.09307">
        <ele>62.400001525879</ele>
        <time>2014-09-21T10:35:17.000Z</time>
      </trkpt>
      <trkpt lat="48.94574" lon="2.09312">
        <ele>62.400001525879</ele>
        <time>2014-09-21T10:35:23.000Z</time>
      </trkpt>
      <trkpt lat="48.94581" lon="2.09316">
        <ele>62.400001525879</ele>
        <time>2014-09-21T10:35:28.000Z</time>
      </trkpt>
      <trkpt lat="48.9459" lon="2.0932">
        <ele>62.200000762939</ele>
        <time>2014-09-21T10:35:33.000Z</time>
      </trkpt>
      <trkpt lat="48.94605" lon="2.09323">
        <ele>61.799999237061</ele>
        <time>2014-09-21T10:35:39.000Z</time>
      </trkpt>
      <trkpt lat="48.94615" lon="2.09325">
        <ele>62</ele>
        <time>2014-09-21T10:35:45.000Z</time>
      </trkpt>
      <trkpt lat="48.94626" lon="2.0933">
        <ele>62.200000762939</ele>
        <time>2014-09-21T10:35:50.000Z</time>
      </trkpt>
      <trkpt lat="48.94635" lon="2.09334">
        <ele>62.200000762939</ele>
        <time>2014-09-21T10:35:56.000Z</time>
      </trkpt>
      <trkpt lat="48.94641" lon="2.09332">
        <ele>62.400001525879</ele>
        <time>2014-09-21T10:36:02.000Z</time>
      </trkpt>
      <trkpt lat="48.94653" lon="2.09339">
        <ele>62.400001525879</ele>
        <time>2014-09-21T10:36:08.000Z</time>
      </trkpt>
      <trkpt lat="48.94664" lon="2.09344">
        <ele>62.400001525879</ele>
        <time>2014-09-21T10:36:16.000Z</time>
      </trkpt>
      <trkpt lat="48.9468" lon="2.09347">
        <ele>62.599998474121</ele>
        <time>2014-09-21T10:36:24.000Z</time>
      </trkpt>
      <trkpt lat="48.94684" lon="2.09347">
        <ele>62.599998474121</ele>
        <time>2014-09-21T10:36:27.000Z</time>
      </trkpt>
      <trkpt lat="48.94693" lon="2.09349">
        <ele>62.599998474121</ele>
        <time>2014-09-21T10:36:32.000Z</time>
      </trkpt>
      <trkpt lat="48.94699" lon="2.0935">
        <ele>62.200000762939</ele>
        <time>2014-09-21T10:36:37.000Z</time>
      </trkpt>
      <trkpt lat="48.94705" lon="2.09348">
        <ele>61.799999237061</ele>
        <time>2014-09-21T10:36:42.000Z</time>
      </trkpt>
      <trkpt lat="48.94712" lon="2.09349">
        <ele>61.400001525879</ele>
        <time>2014-09-21T10:36:46.000Z</time>
      </trkpt>
      <trkpt lat="48.9472" lon="2.09351">
        <ele>61</ele>
        <time>2014-09-21T10:36:51.000Z</time>
      </trkpt>
      <trkpt lat="48.94722" lon="2.09351">
        <ele>61</ele>
        <time>2014-09-21T10:36:52.000Z</time>
      </trkpt>
      <trkpt lat="48.94735" lon="2.09352">
        <ele>60.400001525879</ele>
        <time>2014-09-21T10:37:00.000Z</time>
      </trkpt>
      <trkpt lat="48.94736" lon="2.09353">
        <ele>60.400001525879</ele>
        <time>2014-09-21T10:37:01.000Z</time>
      </trkpt>
      <trkpt lat="48.94743" lon="2.09352">
        <ele>60.200000762939</ele>
        <time>2014-09-21T10:37:05.000Z</time>
      </trkpt>
      <trkpt lat="48.94752" lon="2.09357">
        <ele>59.599998474121</ele>
        <time>2014-09-21T10:37:11.000Z</time>
      </trkpt>
      <trkpt lat="48.94753" lon="2.09358">
        <ele>59.599998474121</ele>
        <time>2014-09-21T10:37:12.000Z</time>
      </trkpt>
      <trkpt lat="48.94766" lon="2.09362">
        <ele>59</ele>
        <time>2014-09-21T10:37:20.000Z</time>
      </trkpt>
      <trkpt lat="48.94773" lon="2.09363">
        <ele>58.799999237061</ele>
        <time>2014-09-21T10:37:25.000Z</time>
      </trkpt>
      <trkpt lat="48.94774" lon="2.09363">
        <ele>58.599998474121</ele>
        <time>2014-09-21T10:37:26.000Z</time>
      </trkpt>
      <trkpt lat="48.94784" lon="2.09365">
        <ele>58.200000762939</ele>
        <time>2014-09-21T10:37:32.000Z</time>
      </trkpt>
      <trkpt lat="48.94794" lon="2.0937">
        <ele>57.799999237061</ele>
        <time>2014-09-21T10:37:38.000Z</time>
      </trkpt>
      <trkpt lat="48.94806" lon="2.09376">
        <ele>57</ele>
        <time>2014-09-21T10:37:44.000Z</time>
      </trkpt>
      <trkpt lat="48.9481" lon="2.09379">
        <ele>56.799999237061</ele>
        <time>2014-09-21T10:37:46.000Z</time>
      </trkpt>
      <trkpt lat="48.94826" lon="2.09386">
        <ele>56</ele>
        <time>2014-09-21T10:37:53.000Z</time>
      </trkpt>
      <trkpt lat="48.94834" lon="2.09387">
        <ele>55.599998474121</ele>
        <time>2014-09-21T10:37:57.000Z</time>
      </trkpt>
      <trkpt lat="48.94848" lon="2.09393">
        <ele>54.799999237061</ele>
        <time>2014-09-21T10:38:06.000Z</time>
      </trkpt>
      <trkpt lat="48.94857" lon="2.09396">
        <ele>54.400001525879</ele>
        <time>2014-09-21T10:38:11.000Z</time>
      </trkpt>
      <trkpt lat="48.94864" lon="2.09397">
        <ele>54.200000762939</ele>
        <time>2014-09-21T10:38:15.000Z</time>
      </trkpt>
      <trkpt lat="48.94875" lon="2.09401">
        <ele>54</ele>
        <time>2014-09-21T10:38:21.000Z</time>
      </trkpt>
      <trkpt lat="48.94877" lon="2.09402">
        <ele>54</ele>
        <time>2014-09-21T10:38:22.000Z</time>
      </trkpt>
      <trkpt lat="48.94884" lon="2.09407">
        <ele>53.799999237061</ele>
        <time>2014-09-21T10:38:26.000Z</time>
      </trkpt>
      <trkpt lat="48.94896" lon="2.09411">
        <ele>53.599998474121</ele>
        <time>2014-09-21T10:38:33.000Z</time>
      </trkpt>
      <trkpt lat="48.94907" lon="2.09411">
        <ele>53.400001525879</ele>
        <time>2014-09-21T10:38:40.000Z</time>
      </trkpt>
      <trkpt lat="48.94913" lon="2.09412">
        <ele>53.400001525879</ele>
        <time>2014-09-21T10:38:45.000Z</time>
      </trkpt>
      <trkpt lat="48.94919" lon="2.09412">
        <ele>53.200000762939</ele>
        <time>2014-09-21T10:38:48.000Z</time>
      </trkpt>
      <trkpt lat="48.94924" lon="2.09413">
        <ele>53.200000762939</ele>
        <time>2014-09-21T10:38:54.000Z</time>
      </trkpt>
      <trkpt lat="48.94939" lon="2.09448">
        <ele>53.400001525879</ele>
        <time>2014-09-21T10:40:59.000Z</time>
      </trkpt>
      <trkpt lat="48.94939" lon="2.09456">
        <ele>53.599998474121</ele>
        <time>2014-09-21T10:41:04.000Z</time>
      </trkpt>
      <trkpt lat="48.94941" lon="2.09461">
        <ele>53.599998474121</ele>
        <time>2014-09-21T10:41:06.000Z</time>
      </trkpt>
      <trkpt lat="48.94939" lon="2.09468">
        <ele>53.799999237061</ele>
        <time>2014-09-21T10:41:10.000Z</time>
      </trkpt>
      <trkpt lat="48.9494" lon="2.09475">
        <ele>53.799999237061</ele>
        <time>2014-09-21T10:41:13.000Z</time>
      </trkpt>
      <trkpt lat="48.94941" lon="2.09484">
        <ele>53.799999237061</ele>
        <time>2014-09-21T10:41:17.000Z</time>
      </trkpt>
      <trkpt lat="48.9494" lon="2.09494">
        <ele>54</ele>
        <time>2014-09-21T10:41:21.000Z</time>
      </trkpt>
      <trkpt lat="48.94941" lon="2.09497">
        <ele>54.200000762939</ele>
        <time>2014-09-21T10:41:23.000Z</time>
      </trkpt>
      <trkpt lat="48.94936" lon="2.09509">
        <ele>54.400001525879</ele>
        <time>2014-09-21T10:41:29.000Z</time>
      </trkpt>
      <trkpt lat="48.94934" lon="2.09526">
        <ele>55</ele>
        <time>2014-09-21T10:41:38.000Z</time>
      </trkpt>
      <trkpt lat="48.94944" lon="2.09542">
        <ele>55.200000762939</ele>
        <time>2014-09-21T10:41:47.000Z</time>
      </trkpt>
      <trkpt lat="48.94946" lon="2.09558">
        <ele>55.599998474121</ele>
        <time>2014-09-21T10:41:54.000Z</time>
      </trkpt>
      <trkpt lat="48.9495" lon="2.09579">
        <ele>56.200000762939</ele>
        <time>2014-09-21T10:42:03.000Z</time>
      </trkpt>
      <trkpt lat="48.94954" lon="2.09602">
        <ele>56.599998474121</ele>
        <time>2014-09-21T10:42:12.000Z</time>
      </trkpt>
      <trkpt lat="48.94954" lon="2.09614">
        <ele>56.799999237061</ele>
        <time>2014-09-21T10:42:17.000Z</time>
      </trkpt>
      <trkpt lat="48.94955" lon="2.09629">
        <ele>57</ele>
        <time>2014-09-21T10:42:23.000Z</time>
      </trkpt>
      <trkpt lat="48.94956" lon="2.09644">
        <ele>57.200000762939</ele>
        <time>2014-09-21T10:42:29.000Z</time>
      </trkpt>
      <trkpt lat="48.94959" lon="2.09658">
        <ele>57.400001525879</ele>
        <time>2014-09-21T10:42:35.000Z</time>
      </trkpt>
      <trkpt lat="48.94961" lon="2.09676">
        <ele>57.599998474121</ele>
        <time>2014-09-21T10:42:39.000Z</time>
      </trkpt>
      <trkpt lat="48.94964" lon="2.0971">
        <ele>57.599998474121</ele>
        <time>2014-09-21T10:42:45.000Z</time>
      </trkpt>
      <trkpt lat="48.94968" lon="2.09749">
        <ele>57.200000762939</ele>
        <time>2014-09-21T10:42:51.000Z</time>
      </trkpt>
      <trkpt lat="48.94972" lon="2.09776">
        <ele>57.200000762939</ele>
        <time>2014-09-21T10:42:55.000Z</time>
      </trkpt>
      <trkpt lat="48.94976" lon="2.09798">
        <ele>57.200000762939</ele>
        <time>2014-09-21T10:42:58.000Z</time>
      </trkpt>
      <trkpt lat="48.94977" lon="2.09813">
        <ele>57.400001525879</ele>
        <time>2014-09-21T10:43:00.000Z</time>
      </trkpt>
      <trkpt lat="48.94982" lon="2.0985">
        <ele>57.200000762939</ele>
        <time>2014-09-21T10:43:05.000Z</time>
      </trkpt>
      <trkpt lat="48.94988" lon="2.09891">
        <ele>57.799999237061</ele>
        <time>2014-09-21T10:43:11.000Z</time>
      </trkpt>
      <trkpt lat="48.94991" lon="2.09923">
        <ele>58.799999237061</ele>
        <time>2014-09-21T10:43:17.000Z</time>
      </trkpt>
      <trkpt lat="48.94997" lon="2.09966">
        <ele>59.599998474121</ele>
        <time>2014-09-21T10:43:26.000Z</time>
      </trkpt>
      <trkpt lat="48.95" lon="2.09989">
        <ele>60.599998474121</ele>
        <time>2014-09-21T10:43:31.000Z</time>
      </trkpt>
      <trkpt lat="48.95005" lon="2.10017">
        <ele>62.200000762939</ele>
        <time>2014-09-21T10:43:37.000Z</time>
      </trkpt>
      <trkpt lat="48.95016" lon="2.10059">
        <ele>64.199996948242</ele>
        <time>2014-09-21T10:43:44.000Z</time>
      </trkpt>
      <trkpt lat="48.95027" lon="2.10097">
        <ele>65</ele>
        <time>2014-09-21T10:43:50.000Z</time>
      </trkpt>
      <trkpt lat="48.95029" lon="2.10111">
        <ele>64.800003051758</ele>
        <time>2014-09-21T10:43:52.000Z</time>
      </trkpt>
      <trkpt lat="48.95035" lon="2.10148">
        <ele>64.599998474121</ele>
        <time>2014-09-21T10:43:58.000Z</time>
      </trkpt>
      <trkpt lat="48.95041" lon="2.10179">
        <ele>63.799999237061</ele>
        <time>2014-09-21T10:44:03.000Z</time>
      </trkpt>
      <trkpt lat="48.95049" lon="2.10198">
        <ele>63</ele>
        <time>2014-09-21T10:44:06.000Z</time>
      </trkpt>
      <trkpt lat="48.95056" lon="2.10234">
        <ele>62.200000762939</ele>
        <time>2014-09-21T10:44:12.000Z</time>
      </trkpt>
      <trkpt lat="48.95063" lon="2.10258">
        <ele>61.599998474121</ele>
        <time>2014-09-21T10:44:16.000Z</time>
      </trkpt>
      <trkpt lat="48.95068" lon="2.10289">
        <ele>61.400001525879</ele>
        <time>2014-09-21T10:44:20.000Z</time>
      </trkpt>
      <trkpt lat="48.95071" lon="2.1033">
        <ele>60.799999237061</ele>
        <time>2014-09-21T10:44:25.000Z</time>
      </trkpt>
      <trkpt lat="48.95073" lon="2.10338">
        <ele>60.599998474121</ele>
        <time>2014-09-21T10:44:26.000Z</time>
      </trkpt>
      <trkpt lat="48.95085" lon="2.10394">
        <ele>59.200000762939</ele>
        <time>2014-09-21T10:44:33.000Z</time>
      </trkpt>
      <trkpt lat="48.95097" lon="2.10433">
        <ele>58.599998474121</ele>
        <time>2014-09-21T10:44:38.000Z</time>
      </trkpt>
      <trkpt lat="48.95106" lon="2.10465">
        <ele>58.799999237061</ele>
        <time>2014-09-21T10:44:42.000Z</time>
      </trkpt>
      <trkpt lat="48.95112" lon="2.10513">
        <ele>58.799999237061</ele>
        <time>2014-09-21T10:44:48.000Z</time>
      </trkpt>
      <trkpt lat="48.95118" lon="2.10554">
        <ele>58.599998474121</ele>
        <time>2014-09-21T10:44:53.000Z</time>
      </trkpt>
      <trkpt lat="48.95125" lon="2.10588">
        <ele>58.400001525879</ele>
        <time>2014-09-21T10:44:57.000Z</time>
      </trkpt>
      <trkpt lat="48.95134" lon="2.10618">
        <ele>58.400001525879</ele>
        <time>2014-09-21T10:45:01.000Z</time>
      </trkpt>
      <trkpt lat="48.95139" lon="2.10639">
        <ele>58.200000762939</ele>
        <time>2014-09-21T10:45:04.000Z</time>
      </trkpt>
      <trkpt lat="48.95141" lon="2.10652">
        <ele>58.200000762939</ele>
        <time>2014-09-21T10:45:06.000Z</time>
      </trkpt>
      <trkpt lat="48.95143" lon="2.10666">
        <ele>58.200000762939</ele>
        <time>2014-09-21T10:45:08.000Z</time>
      </trkpt>
      <trkpt lat="48.95148" lon="2.10705">
        <ele>59</ele>
        <time>2014-09-21T10:45:14.000Z</time>
      </trkpt>
      <trkpt lat="48.95152" lon="2.10734">
        <ele>58.599998474121</ele>
        <time>2014-09-21T10:45:18.000Z</time>
      </trkpt>
      <trkpt lat="48.95157" lon="2.10748">
        <ele>58.599998474121</ele>
        <time>2014-09-21T10:45:20.000Z</time>
      </trkpt>
      <trkpt lat="48.95159" lon="2.10754">
        <ele>58.599998474121</ele>
        <time>2014-09-21T10:45:22.000Z</time>
      </trkpt>
      <trkpt lat="48.95165" lon="2.10779">
        <ele>58.599998474121</ele>
        <time>2014-09-21T10:45:28.000Z</time>
      </trkpt>
      <trkpt lat="48.9517" lon="2.10804">
        <ele>58.799999237061</ele>
        <time>2014-09-21T10:45:33.000Z</time>
      </trkpt>
      <trkpt lat="48.95176" lon="2.10822">
        <ele>58.599998474121</ele>
        <time>2014-09-21T10:45:38.000Z</time>
      </trkpt>
      <trkpt lat="48.95176" lon="2.10832">
        <ele>58.599998474121</ele>
        <time>2014-09-21T10:45:42.000Z</time>
      </trkpt>
      <trkpt lat="48.95174" lon="2.10838">
        <ele>58.599998474121</ele>
        <time>2014-09-21T10:45:46.000Z</time>
      </trkpt>
      <trkpt lat="48.95173" lon="2.1084">
        <ele>58.400001525879</ele>
        <time>2014-09-21T10:45:50.000Z</time>
      </trkpt>
      <trkpt lat="48.95169" lon="2.10846">
        <ele>58.400001525879</ele>
        <time>2014-09-21T10:46:19.000Z</time>
      </trkpt>
      <trkpt lat="48.95172" lon="2.10849">
        <ele>58.599998474121</ele>
        <time>2014-09-21T10:46:23.000Z</time>
      </trkpt>
      <trkpt lat="48.9517" lon="2.10843">
        <ele>58.400001525879</ele>
        <time>2014-09-21T10:46:45.000Z</time>
      </trkpt>
      <trkpt lat="48.95169" lon="2.10843">
        <ele>58.400001525879</ele>
        <time>2014-09-21T10:46:47.000Z</time>
      </trkpt>
      <trkpt lat="48.95171" lon="2.10844">
        <ele>58.400001525879</ele>
        <time>2014-09-21T10:46:50.000Z</time>
      </trkpt>
      <trkpt lat="48.95174" lon="2.10851">
        <ele>58.599998474121</ele>
        <time>2014-09-21T10:46:57.000Z</time>
      </trkpt>
      <trkpt lat="48.95175" lon="2.1086">
        <ele>58.799999237061</ele>
        <time>2014-09-21T10:47:29.000Z</time>
      </trkpt>
      <trkpt lat="48.95169" lon="2.10852">
        <ele>58.599998474121</ele>
        <time>2014-09-21T10:47:32.000Z</time>
      </trkpt>
      <trkpt lat="48.95168" lon="2.1085">
        <ele>58.400001525879</ele>
        <time>2014-09-21T10:47:36.000Z</time>
      </trkpt>
      <trkpt lat="48.95171" lon="2.10849">
        <ele>58.599998474121</ele>
        <time>2014-09-21T10:47:40.000Z</time>
      </trkpt>
      <trkpt lat="48.95176" lon="2.10844">
        <ele>58.599998474121</ele>
        <time>2014-09-21T10:47:45.000Z</time>
      </trkpt>
      <trkpt lat="48.95178" lon="2.10845">
        <ele>58.799999237061</ele>
        <time>2014-09-21T10:47:46.000Z</time>
      </trkpt>
      <trkpt lat="48.95181" lon="2.10845">
        <ele>58.799999237061</ele>
        <time>2014-09-21T10:47:52.000Z</time>
      </trkpt>
      <trkpt lat="48.95182" lon="2.10846">
        <ele>59</ele>
        <time>2014-09-21T10:47:55.000Z</time>
      </trkpt>
      <trkpt lat="48.95168" lon="2.10846">
        <ele>58.400001525879</ele>
        <time>2014-09-21T10:50:23.000Z</time>
      </trkpt>
      <trkpt lat="48.95164" lon="2.1085">
        <ele>58.400001525879</ele>
        <time>2014-09-21T10:50:27.000Z</time>
      </trkpt>
      <trkpt lat="48.95162" lon="2.10855">
        <ele>58.400001525879</ele>
        <time>2014-09-21T10:50:29.000Z</time>
      </trkpt>
      <trkpt lat="48.95154" lon="2.1087">
        <ele>58.200000762939</ele>
        <time>2014-09-21T10:50:35.000Z</time>
      </trkpt>
      <trkpt lat="48.95146" lon="2.1088">
        <ele>58</ele>
        <time>2014-09-21T10:50:41.000Z</time>
      </trkpt>
      <trkpt lat="48.95136" lon="2.10894">
        <ele>57.799999237061</ele>
        <time>2014-09-21T10:50:48.000Z</time>
      </trkpt>
      <trkpt lat="48.95134" lon="2.10897">
        <ele>57.799999237061</ele>
        <time>2014-09-21T10:50:50.000Z</time>
      </trkpt>
      <trkpt lat="48.95123" lon="2.10911">
        <ele>57.599998474121</ele>
        <time>2014-09-21T10:50:58.000Z</time>
      </trkpt>
      <trkpt lat="48.95116" lon="2.10925">
        <ele>57.599998474121</ele>
        <time>2014-09-21T10:51:05.000Z</time>
      </trkpt>
      <trkpt lat="48.95108" lon="2.10938">
        <ele>58</ele>
        <time>2014-09-21T10:51:12.000Z</time>
      </trkpt>
      <trkpt lat="48.95101" lon="2.1095">
        <ele>58.200000762939</ele>
        <time>2014-09-21T10:51:19.000Z</time>
      </trkpt>
      <trkpt lat="48.95096" lon="2.10954">
        <ele>58</ele>
        <time>2014-09-21T10:51:22.000Z</time>
      </trkpt>
      <trkpt lat="48.95087" lon="2.10969">
        <ele>58.200000762939</ele>
        <time>2014-09-21T10:51:28.000Z</time>
      </trkpt>
      <trkpt lat="48.95084" lon="2.10973">
        <ele>58.200000762939</ele>
        <time>2014-09-21T10:51:30.000Z</time>
      </trkpt>
      <trkpt lat="48.95072" lon="2.10985">
        <ele>58.400001525879</ele>
        <time>2014-09-21T10:51:38.000Z</time>
      </trkpt>
      <trkpt lat="48.9507" lon="2.10987">
        <ele>58.400001525879</ele>
        <time>2014-09-21T10:51:40.000Z</time>
      </trkpt>
      <trkpt lat="48.95066" lon="2.1099">
        <ele>58.400001525879</ele>
        <time>2014-09-21T10:51:43.000Z</time>
      </trkpt>
      <trkpt lat="48.95058" lon="2.11">
        <ele>58.599998474121</ele>
        <time>2014-09-21T10:51:49.000Z</time>
      </trkpt>
      <trkpt lat="48.95052" lon="2.11006">
        <ele>58.599998474121</ele>
        <time>2014-09-21T10:51:53.000Z</time>
      </trkpt>
      <trkpt lat="48.95043" lon="2.11017">
        <ele>59</ele>
        <time>2014-09-21T10:52:01.000Z</time>
      </trkpt>
      <trkpt lat="48.95033" lon="2.11027">
        <ele>59.400001525879</ele>
        <time>2014-09-21T10:52:07.000Z</time>
      </trkpt>
      <trkpt lat="48.95026" lon="2.11038">
        <ele>60.200000762939</ele>
        <time>2014-09-21T10:52:13.000Z</time>
      </trkpt>
      <trkpt lat="48.9502" lon="2.11048">
        <ele>60.799999237061</ele>
        <time>2014-09-21T10:52:19.000Z</time>
      </trkpt>
      <trkpt lat="48.95011" lon="2.11051">
        <ele>61</ele>
        <time>2014-09-21T10:52:24.000Z</time>
      </trkpt>
      <trkpt lat="48.95002" lon="2.11058">
        <ele>61.400001525879</ele>
        <time>2014-09-21T10:52:30.000Z</time>
      </trkpt>
      <trkpt lat="48.94996" lon="2.11068">
        <ele>61.799999237061</ele>
        <time>2014-09-21T10:52:35.000Z</time>
      </trkpt>
      <trkpt lat="48.9499" lon="2.11074">
        <ele>62</ele>
        <time>2014-09-21T10:52:40.000Z</time>
      </trkpt>
      <trkpt lat="48.94984" lon="2.11081">
        <ele>62</ele>
        <time>2014-09-21T10:52:45.000Z</time>
      </trkpt>
      <trkpt lat="48.94979" lon="2.11093">
        <ele>62.200000762939</ele>
        <time>2014-09-21T10:52:51.000Z</time>
      </trkpt>
      <trkpt lat="48.94968" lon="2.11104">
        <ele>62</ele>
        <time>2014-09-21T10:52:58.000Z</time>
      </trkpt>
      <trkpt lat="48.94961" lon="2.11111">
        <ele>62.400001525879</ele>
        <time>2014-09-21T10:53:03.000Z</time>
      </trkpt>
      <trkpt lat="48.94952" lon="2.11125">
        <ele>63.200000762939</ele>
        <time>2014-09-21T10:53:09.000Z</time>
      </trkpt>
      <trkpt lat="48.94948" lon="2.11135">
        <ele>63.799999237061</ele>
        <time>2014-09-21T10:53:14.000Z</time>
      </trkpt>
      <trkpt lat="48.9494" lon="2.11142">
        <ele>64.199996948242</ele>
        <time>2014-09-21T10:53:20.000Z</time>
      </trkpt>
      <trkpt lat="48.94925" lon="2.11156">
        <ele>64.599998474121</ele>
        <time>2014-09-21T10:53:29.000Z</time>
      </trkpt>
      <trkpt lat="48.94918" lon="2.11168">
        <ele>64.599998474121</ele>
        <time>2014-09-21T10:53:36.000Z</time>
      </trkpt>
      <trkpt lat="48.94906" lon="2.11183">
        <ele>64.400001525879</ele>
        <time>2014-09-21T10:53:44.000Z</time>
      </trkpt>
      <trkpt lat="48.94896" lon="2.1119">
        <ele>64.199996948242</ele>
        <time>2014-09-21T10:53:50.000Z</time>
      </trkpt>
      <trkpt lat="48.94888" lon="2.11199">
        <ele>64.199996948242</ele>
        <time>2014-09-21T10:53:55.000Z</time>
      </trkpt>
      <trkpt lat="48.94885" lon="2.11204">
        <ele>64.400001525879</ele>
        <time>2014-09-21T10:53:57.000Z</time>
      </trkpt>
      <trkpt lat="48.94877" lon="2.11216">
        <ele>64.599998474121</ele>
        <time>2014-09-21T10:54:03.000Z</time>
      </trkpt>
      <trkpt lat="48.94869" lon="2.11223">
        <ele>64.599998474121</ele>
        <time>2014-09-21T10:54:11.000Z</time>
      </trkpt>
      <trkpt lat="48.94865" lon="2.11224">
        <ele>64.599998474121</ele>
        <time>2014-09-21T10:54:17.000Z</time>
      </trkpt>
      <trkpt lat="48.94866" lon="2.11223">
        <ele>64.599998474121</ele>
        <time>2014-09-21T10:54:20.000Z</time>
      </trkpt>
      <trkpt lat="48.94856" lon="2.11217">
        <ele>64.400001525879</ele>
        <time>2014-09-21T10:55:00.000Z</time>
      </trkpt>
      <trkpt lat="48.94855" lon="2.11214">
        <ele>64.400001525879</ele>
        <time>2014-09-21T10:55:04.000Z</time>
      </trkpt>
      <trkpt lat="48.94865" lon="2.11198">
        <ele>64</ele>
        <time>2014-09-21T10:55:50.000Z</time>
      </trkpt>
      <trkpt lat="48.94873" lon="2.11204">
        <ele>64.199996948242</ele>
        <time>2014-09-21T10:55:55.000Z</time>
      </trkpt>
      <trkpt lat="48.9488" lon="2.11208">
        <ele>64.400001525879</ele>
        <time>2014-09-21T10:56:00.000Z</time>
      </trkpt>
      <trkpt lat="48.94887" lon="2.1121">
        <ele>64.599998474121</ele>
        <time>2014-09-21T10:56:04.000Z</time>
      </trkpt>
      <trkpt lat="48.94903" lon="2.11217">
        <ele>64.800003051758</ele>
        <time>2014-09-21T10:56:11.000Z</time>
      </trkpt>
      <trkpt lat="48.94915" lon="2.11222">
        <ele>65.199996948242</ele>
        <time>2014-09-21T10:56:17.000Z</time>
      </trkpt>
      <trkpt lat="48.94917" lon="2.11222">
        <ele>65.199996948242</ele>
        <time>2014-09-21T10:56:19.000Z</time>
      </trkpt>
      <trkpt lat="48.94931" lon="2.11221">
        <ele>65.400001525879</ele>
        <time>2014-09-21T10:56:26.000Z</time>
      </trkpt>
      <trkpt lat="48.94947" lon="2.11227">
        <ele>65.800003051758</ele>
        <time>2014-09-21T10:56:31.000Z</time>
      </trkpt>
      <trkpt lat="48.94965" lon="2.11235">
        <ele>65.800003051758</ele>
        <time>2014-09-21T10:56:37.000Z</time>
      </trkpt>
      <trkpt lat="48.9499" lon="2.11241">
        <ele>66</ele>
        <time>2014-09-21T10:56:43.000Z</time>
      </trkpt>
      <trkpt lat="48.95013" lon="2.1125">
        <ele>66</ele>
        <time>2014-09-21T10:56:48.000Z</time>
      </trkpt>
      <trkpt lat="48.95028" lon="2.11257">
        <ele>65.800003051758</ele>
        <time>2014-09-21T10:56:51.000Z</time>
      </trkpt>
      <trkpt lat="48.9505" lon="2.11263">
        <ele>65.199996948242</ele>
        <time>2014-09-21T10:56:56.000Z</time>
      </trkpt>
      <trkpt lat="48.95065" lon="2.11269">
        <ele>65</ele>
        <time>2014-09-21T10:57:00.000Z</time>
      </trkpt>
      <trkpt lat="48.95073" lon="2.11272">
        <ele>64.800003051758</ele>
        <time>2014-09-21T10:57:03.000Z</time>
      </trkpt>
      <trkpt lat="48.95098" lon="2.11281">
        <ele>64.199996948242</ele>
        <time>2014-09-21T10:57:09.000Z</time>
      </trkpt>
      <trkpt lat="48.95135" lon="2.11293">
        <ele>64.400001525879</ele>
        <time>2014-09-21T10:57:14.000Z</time>
      </trkpt>
      <trkpt lat="48.95165" lon="2.11303">
        <ele>65</ele>
        <time>2014-09-21T10:57:18.000Z</time>
      </trkpt>
      <trkpt lat="48.95192" lon="2.1131">
        <ele>64.599998474121</ele>
        <time>2014-09-21T10:57:22.000Z</time>
      </trkpt>
      <trkpt lat="48.95203" lon="2.11313">
        <ele>64</ele>
        <time>2014-09-21T10:57:24.000Z</time>
      </trkpt>
      <trkpt lat="48.95228" lon="2.11324">
        <ele>63.200000762939</ele>
        <time>2014-09-21T10:57:29.000Z</time>
      </trkpt>
      <trkpt lat="48.95255" lon="2.11333">
        <ele>62.200000762939</ele>
        <time>2014-09-21T10:57:36.000Z</time>
      </trkpt>
      <trkpt lat="48.95269" lon="2.1134">
        <ele>61.799999237061</ele>
        <time>2014-09-21T10:57:40.000Z</time>
      </trkpt>
      <trkpt lat="48.95286" lon="2.11345">
        <ele>61</ele>
        <time>2014-09-21T10:57:45.000Z</time>
      </trkpt>
      <trkpt lat="48.95293" lon="2.11352">
        <ele>60.799999237061</ele>
        <time>2014-09-21T10:57:51.000Z</time>
      </trkpt>
      <trkpt lat="48.95306" lon="2.11359">
        <ele>60.200000762939</ele>
        <time>2014-09-21T10:57:57.000Z</time>
      </trkpt>
      <trkpt lat="48.95325" lon="2.1137">
        <ele>59.799999237061</ele>
        <time>2014-09-21T10:58:04.000Z</time>
      </trkpt>
      <trkpt lat="48.95344" lon="2.1138">
        <ele>59.400001525879</ele>
        <time>2014-09-21T10:58:10.000Z</time>
      </trkpt>
      <trkpt lat="48.95359" lon="2.11382">
        <ele>59</ele>
        <time>2014-09-21T10:58:14.000Z</time>
      </trkpt>
      <trkpt lat="48.95384" lon="2.11391">
        <ele>58.400001525879</ele>
        <time>2014-09-21T10:58:20.000Z</time>
      </trkpt>
      <trkpt lat="48.95416" lon="2.11403">
        <ele>57.599998474121</ele>
        <time>2014-09-21T10:58:25.000Z</time>
      </trkpt>
      <trkpt lat="48.95428" lon="2.11407">
        <ele>57.400001525879</ele>
        <time>2014-09-21T10:58:27.000Z</time>
      </trkpt>
      <trkpt lat="48.95441" lon="2.1141">
        <ele>57</ele>
        <time>2014-09-21T10:58:29.000Z</time>
      </trkpt>
      <trkpt lat="48.9546" lon="2.11416">
        <ele>56.400001525879</ele>
        <time>2014-09-21T10:58:33.000Z</time>
      </trkpt>
      <trkpt lat="48.95477" lon="2.1142">
        <ele>55.799999237061</ele>
        <time>2014-09-21T10:58:37.000Z</time>
      </trkpt>
      <trkpt lat="48.95507" lon="2.11429">
        <ele>54.799999237061</ele>
        <time>2014-09-21T10:58:42.000Z</time>
      </trkpt>
      <trkpt lat="48.95539" lon="2.11441">
        <ele>53.599998474121</ele>
        <time>2014-09-21T10:58:48.000Z</time>
      </trkpt>
      <trkpt lat="48.9557" lon="2.11448">
        <ele>52.799999237061</ele>
        <time>2014-09-21T10:58:53.000Z</time>
      </trkpt>
      <trkpt lat="48.95577" lon="2.11449">
        <ele>52.799999237061</ele>
        <time>2014-09-21T10:58:54.000Z</time>
      </trkpt>
      <trkpt lat="48.95599" lon="2.11455">
        <ele>52.799999237061</ele>
        <time>2014-09-21T10:58:58.000Z</time>
      </trkpt>
      <trkpt lat="48.95613" lon="2.11459">
        <ele>52.799999237061</ele>
        <time>2014-09-21T10:59:01.000Z</time>
      </trkpt>
      <trkpt lat="48.95637" lon="2.11469">
        <ele>52.599998474121</ele>
        <time>2014-09-21T10:59:06.000Z</time>
      </trkpt>
      <trkpt lat="48.95655" lon="2.11474">
        <ele>52.400001525879</ele>
        <time>2014-09-21T10:59:10.000Z</time>
      </trkpt>
      <trkpt lat="48.95687" lon="2.11489">
        <ele>52.200000762939</ele>
        <time>2014-09-21T10:59:17.000Z</time>
      </trkpt>
      <trkpt lat="48.95692" lon="2.11491">
        <ele>52.200000762939</ele>
        <time>2014-09-21T10:59:18.000Z</time>
      </trkpt>
      <trkpt lat="48.95703" lon="2.11494">
        <ele>52.200000762939</ele>
        <time>2014-09-21T10:59:20.000Z</time>
      </trkpt>
      <trkpt lat="48.95727" lon="2.11503">
        <ele>52</ele>
        <time>2014-09-21T10:59:25.000Z</time>
      </trkpt>
      <trkpt lat="48.95747" lon="2.1151">
        <ele>51.799999237061</ele>
        <time>2014-09-21T10:59:29.000Z</time>
      </trkpt>
      <trkpt lat="48.95758" lon="2.11518">
        <ele>51.599998474121</ele>
        <time>2014-09-21T10:59:32.000Z</time>
      </trkpt>
      <trkpt lat="48.95767" lon="2.11524">
        <ele>51.400001525879</ele>
        <time>2014-09-21T10:59:35.000Z</time>
      </trkpt>
      <trkpt lat="48.95774" lon="2.11526">
        <ele>51.400001525879</ele>
        <time>2014-09-21T10:59:37.000Z</time>
      </trkpt>
      <trkpt lat="48.95791" lon="2.11528">
        <ele>51.200000762939</ele>
        <time>2014-09-21T10:59:42.000Z</time>
      </trkpt>
      <trkpt lat="48.95796" lon="2.11529">
        <ele>51</ele>
        <time>2014-09-21T10:59:44.000Z</time>
      </trkpt>
      <trkpt lat="48.95813" lon="2.11537">
        <ele>50.400001525879</ele>
        <time>2014-09-21T10:59:50.000Z</time>
      </trkpt>
      <trkpt lat="48.95819" lon="2.11539">
        <ele>50.200000762939</ele>
        <time>2014-09-21T10:59:55.000Z</time>
      </trkpt>
      <trkpt lat="48.95829" lon="2.11542">
        <ele>50</ele>
        <time>2014-09-21T11:00:02.000Z</time>
      </trkpt>
      <trkpt lat="48.95838" lon="2.11543">
        <ele>49.599998474121</ele>
        <time>2014-09-21T11:00:09.000Z</time>
      </trkpt>
      <trkpt lat="48.95849" lon="2.11549">
        <ele>49.200000762939</ele>
        <time>2014-09-21T11:00:15.000Z</time>
      </trkpt>
      <trkpt lat="48.95859" lon="2.11554">
        <ele>48.799999237061</ele>
        <time>2014-09-21T11:00:21.000Z</time>
      </trkpt>
      <trkpt lat="48.9586" lon="2.11555">
        <ele>48.799999237061</ele>
        <time>2014-09-21T11:00:22.000Z</time>
      </trkpt>
      <trkpt lat="48.95872" lon="2.11562">
        <ele>48.200000762939</ele>
        <time>2014-09-21T11:00:31.000Z</time>
      </trkpt>
      <trkpt lat="48.95881" lon="2.11565">
        <ele>47.799999237061</ele>
        <time>2014-09-21T11:00:37.000Z</time>
      </trkpt>
      <trkpt lat="48.95886" lon="2.11571">
        <ele>47.599998474121</ele>
        <time>2014-09-21T11:00:42.000Z</time>
      </trkpt>
      <trkpt lat="48.95894" lon="2.11573">
        <ele>47.200000762939</ele>
        <time>2014-09-21T11:00:48.000Z</time>
      </trkpt>
      <trkpt lat="48.95899" lon="2.11575">
        <ele>47</ele>
        <time>2014-09-21T11:00:52.000Z</time>
      </trkpt>
      <trkpt lat="48.95908" lon="2.11575">
        <ele>46.799999237061</ele>
        <time>2014-09-21T11:00:59.000Z</time>
      </trkpt>
      <trkpt lat="48.95917" lon="2.11579">
        <ele>46.599998474121</ele>
        <time>2014-09-21T11:01:05.000Z</time>
      </trkpt>
      <trkpt lat="48.95928" lon="2.11584">
        <ele>46.200000762939</ele>
        <time>2014-09-21T11:01:12.000Z</time>
      </trkpt>
      <trkpt lat="48.95938" lon="2.11588">
        <ele>46</ele>
        <time>2014-09-21T11:01:18.000Z</time>
      </trkpt>
      <trkpt lat="48.95951" lon="2.11592">
        <ele>45.799999237061</ele>
        <time>2014-09-21T11:01:25.000Z</time>
      </trkpt>
      <trkpt lat="48.95961" lon="2.11595">
        <ele>45.799999237061</ele>
        <time>2014-09-21T11:01:33.000Z</time>
      </trkpt>
      <trkpt lat="48.95968" lon="2.11598">
        <ele>45.599998474121</ele>
        <time>2014-09-21T11:01:38.000Z</time>
      </trkpt>
      <trkpt lat="48.95984" lon="2.11603">
        <ele>45.200000762939</ele>
        <time>2014-09-21T11:01:48.000Z</time>
      </trkpt>
      <trkpt lat="48.95995" lon="2.11607">
        <ele>45</ele>
        <time>2014-09-21T11:01:55.000Z</time>
      </trkpt>
      <trkpt lat="48.96013" lon="2.11611">
        <ele>44.599998474121</ele>
        <time>2014-09-21T11:02:05.000Z</time>
      </trkpt>
      <trkpt lat="48.96025" lon="2.11615">
        <ele>44.599998474121</ele>
        <time>2014-09-21T11:02:13.000Z</time>
      </trkpt>
      <trkpt lat="48.96029" lon="2.11613">
        <ele>44.799999237061</ele>
        <time>2014-09-21T11:02:19.000Z</time>
      </trkpt>
      <trkpt lat="48.96028" lon="2.11612">
        <ele>44.599998474121</ele>
        <time>2014-09-21T11:02:22.000Z</time>
      </trkpt>
      <trkpt lat="48.96021" lon="2.11606">
        <ele>44.400001525879</ele>
        <time>2014-09-21T11:02:24.000Z</time>
      </trkpt>
      <trkpt lat="48.96016" lon="2.11605">
        <ele>44.599998474121</ele>
        <time>2014-09-21T11:02:31.000Z</time>
      </trkpt>
      <trkpt lat="48.96022" lon="2.11602">
        <ele>44.400001525879</ele>
        <time>2014-09-21T11:02:40.000Z</time>
      </trkpt>
      <trkpt lat="48.96024" lon="2.11592">
        <ele>44.200000762939</ele>
        <time>2014-09-21T11:02:45.000Z</time>
      </trkpt>
      <trkpt lat="48.96029" lon="2.11581">
        <ele>44.400001525879</ele>
        <time>2014-09-21T11:02:51.000Z</time>
      </trkpt>
      <trkpt lat="48.96032" lon="2.11568">
        <ele>44.599998474121</ele>
        <time>2014-09-21T11:02:58.000Z</time>
      </trkpt>
      <trkpt lat="48.96035" lon="2.11555">
        <ele>44.599998474121</ele>
        <time>2014-09-21T11:03:04.000Z</time>
      </trkpt>
      <trkpt lat="48.96037" lon="2.11542">
        <ele>44.599998474121</ele>
        <time>2014-09-21T11:03:09.000Z</time>
      </trkpt>
      <trkpt lat="48.96036" lon="2.11536">
        <ele>44.400001525879</ele>
        <time>2014-09-21T11:03:11.000Z</time>
      </trkpt>
      <trkpt lat="48.96034" lon="2.11523">
        <ele>44.200000762939</ele>
        <time>2014-09-21T11:03:15.000Z</time>
      </trkpt>
      <trkpt lat="48.96029" lon="2.115">
        <ele>43.400001525879</ele>
        <time>2014-09-21T11:03:23.000Z</time>
      </trkpt>
      <trkpt lat="48.96031" lon="2.11489">
        <ele>43.799999237061</ele>
        <time>2014-09-21T11:03:29.000Z</time>
      </trkpt>
      <trkpt lat="48.96031" lon="2.11472">
        <ele>44</ele>
        <time>2014-09-21T11:03:36.000Z</time>
      </trkpt>
      <trkpt lat="48.96031" lon="2.11469">
        <ele>44.200000762939</ele>
        <time>2014-09-21T11:03:37.000Z</time>
      </trkpt>
      <trkpt lat="48.96033" lon="2.11454">
        <ele>44.400001525879</ele>
        <time>2014-09-21T11:03:44.000Z</time>
      </trkpt>
      <trkpt lat="48.96036" lon="2.11442">
        <ele>45</ele>
        <time>2014-09-21T11:03:50.000Z</time>
      </trkpt>
      <trkpt lat="48.96042" lon="2.11428">
        <ele>45.799999237061</ele>
        <time>2014-09-21T11:03:57.000Z</time>
      </trkpt>
      <trkpt lat="48.96043" lon="2.11416">
        <ele>45.799999237061</ele>
        <time>2014-09-21T11:04:02.000Z</time>
      </trkpt>
      <trkpt lat="48.96045" lon="2.11404">
        <ele>45.799999237061</ele>
        <time>2014-09-21T11:04:07.000Z</time>
      </trkpt>
      <trkpt lat="48.96047" lon="2.1139">
        <ele>45.799999237061</ele>
        <time>2014-09-21T11:04:13.000Z</time>
      </trkpt>
      <trkpt lat="48.96046" lon="2.11387">
        <ele>45.799999237061</ele>
        <time>2014-09-21T11:04:14.000Z</time>
      </trkpt>
      <trkpt lat="48.96045" lon="2.1136">
        <ele>45.799999237061</ele>
        <time>2014-09-21T11:04:23.000Z</time>
      </trkpt>
      <trkpt lat="48.96046" lon="2.11356">
        <ele>45.799999237061</ele>
        <time>2014-09-21T11:04:25.000Z</time>
      </trkpt>
      <trkpt lat="48.96047" lon="2.11347">
        <ele>46</ele>
        <time>2014-09-21T11:04:29.000Z</time>
      </trkpt>
      <trkpt lat="48.96047" lon="2.11342">
        <ele>45.799999237061</ele>
        <time>2014-09-21T11:04:32.000Z</time>
      </trkpt>
      <trkpt lat="48.9605" lon="2.11332">
        <ele>46.200000762939</ele>
        <time>2014-09-21T11:04:36.000Z</time>
      </trkpt>
      <trkpt lat="48.96052" lon="2.11311">
        <ele>46.200000762939</ele>
        <time>2014-09-21T11:04:43.000Z</time>
      </trkpt>
      <trkpt lat="48.96051" lon="2.11298">
        <ele>46.200000762939</ele>
        <time>2014-09-21T11:04:48.000Z</time>
      </trkpt>
      <trkpt lat="48.96052" lon="2.11283">
        <ele>46.400001525879</ele>
        <time>2014-09-21T11:04:54.000Z</time>
      </trkpt>
      <trkpt lat="48.96056" lon="2.11267">
        <ele>46.599998474121</ele>
        <time>2014-09-21T11:05:01.000Z</time>
      </trkpt>
      <trkpt lat="48.96058" lon="2.11255">
        <ele>46.599998474121</ele>
        <time>2014-09-21T11:05:07.000Z</time>
      </trkpt>
      <trkpt lat="48.9606" lon="2.11251">
        <ele>46.599998474121</ele>
        <time>2014-09-21T11:05:09.000Z</time>
      </trkpt>
      <trkpt lat="48.96061" lon="2.11241">
        <ele>46.599998474121</ele>
        <time>2014-09-21T11:05:13.000Z</time>
      </trkpt>
      <trkpt lat="48.96064" lon="2.11226">
        <ele>46.799999237061</ele>
        <time>2014-09-21T11:05:19.000Z</time>
      </trkpt>
      <trkpt lat="48.96067" lon="2.11216">
        <ele>47</ele>
        <time>2014-09-21T11:05:24.000Z</time>
      </trkpt>
      <trkpt lat="48.96068" lon="2.11202">
        <ele>47.200000762939</ele>
        <time>2014-09-21T11:05:30.000Z</time>
      </trkpt>
      <trkpt lat="48.96069" lon="2.1119">
        <ele>47.200000762939</ele>
        <time>2014-09-21T11:05:35.000Z</time>
      </trkpt>
      <trkpt lat="48.96069" lon="2.11182">
        <ele>47.200000762939</ele>
        <time>2014-09-21T11:05:39.000Z</time>
      </trkpt>
      <trkpt lat="48.96066" lon="2.11164">
        <ele>47</ele>
        <time>2014-09-21T11:05:45.000Z</time>
      </trkpt>
      <trkpt lat="48.96068" lon="2.11151">
        <ele>47.200000762939</ele>
        <time>2014-09-21T11:05:50.000Z</time>
      </trkpt>
      <trkpt lat="48.96068" lon="2.11133">
        <ele>47.200000762939</ele>
        <time>2014-09-21T11:05:57.000Z</time>
      </trkpt>
      <trkpt lat="48.96069" lon="2.11122">
        <ele>47.200000762939</ele>
        <time>2014-09-21T11:06:02.000Z</time>
      </trkpt>
      <trkpt lat="48.96069" lon="2.11118">
        <ele>47</ele>
        <time>2014-09-21T11:06:04.000Z</time>
      </trkpt>
      <trkpt lat="48.9607" lon="2.11106">
        <ele>46.599998474121</ele>
        <time>2014-09-21T11:06:09.000Z</time>
      </trkpt>
      <trkpt lat="48.96071" lon="2.11102">
        <ele>46.599998474121</ele>
        <time>2014-09-21T11:06:11.000Z</time>
      </trkpt>
      <trkpt lat="48.9607" lon="2.11095">
        <ele>46.400001525879</ele>
        <time>2014-09-21T11:06:18.000Z</time>
      </trkpt>
      <trkpt lat="48.96071" lon="2.11094">
        <ele>46.400001525879</ele>
        <time>2014-09-21T11:06:19.000Z</time>
      </trkpt>
      <trkpt lat="48.96074" lon="2.11092">
        <ele>46.400001525879</ele>
        <time>2014-09-21T11:06:24.000Z</time>
      </trkpt>
      <trkpt lat="48.96074" lon="2.11092">
        <ele>46.400001525879</ele>
        <time>2014-09-21T11:06:26.000Z</time>
      </trkpt>
      <trkpt lat="48.96072" lon="2.11084">
        <ele>46</ele>
        <time>2014-09-21T11:06:33.000Z</time>
      </trkpt>
      <trkpt lat="48.96072" lon="2.11077">
        <ele>45.799999237061</ele>
        <time>2014-09-21T11:06:34.000Z</time>
      </trkpt>
      <trkpt lat="48.96072" lon="2.11059">
        <ele>45.400001525879</ele>
        <time>2014-09-21T11:06:40.000Z</time>
      </trkpt>
      <trkpt lat="48.96077" lon="2.11036">
        <ele>45</ele>
        <time>2014-09-21T11:06:49.000Z</time>
      </trkpt>
      <trkpt lat="48.96078" lon="2.11017">
        <ele>44.200000762939</ele>
        <time>2014-09-21T11:06:56.000Z</time>
      </trkpt>
      <trkpt lat="48.96078" lon="2.11011">
        <ele>43.799999237061</ele>
        <time>2014-09-21T11:06:58.000Z</time>
      </trkpt>
      <trkpt lat="48.96077" lon="2.11007">
        <ele>43.599998474121</ele>
        <time>2014-09-21T11:07:00.000Z</time>
      </trkpt>
      <trkpt lat="48.96076" lon="2.1099">
        <ele>43</ele>
        <time>2014-09-21T11:07:06.000Z</time>
      </trkpt>
      <trkpt lat="48.96078" lon="2.10973">
        <ele>42.599998474121</ele>
        <time>2014-09-21T11:07:13.000Z</time>
      </trkpt>
      <trkpt lat="48.96082" lon="2.10963">
        <ele>42.400001525879</ele>
        <time>2014-09-21T11:07:17.000Z</time>
      </trkpt>
      <trkpt lat="48.96086" lon="2.10954">
        <ele>42.200000762939</ele>
        <time>2014-09-21T11:07:22.000Z</time>
      </trkpt>
      <trkpt lat="48.96091" lon="2.10939">
        <ele>42.200000762939</ele>
        <time>2014-09-21T11:07:29.000Z</time>
      </trkpt>
      <trkpt lat="48.96092" lon="2.10936">
        <ele>42.200000762939</ele>
        <time>2014-09-21T11:07:30.000Z</time>
      </trkpt>
      <trkpt lat="48.96094" lon="2.10929">
        <ele>42</ele>
        <time>2014-09-21T11:07:34.000Z</time>
      </trkpt>
      <trkpt lat="48.96098" lon="2.10913">
        <ele>42</ele>
        <time>2014-09-21T11:07:41.000Z</time>
      </trkpt>
      <trkpt lat="48.961" lon="2.10894">
        <ele>42</ele>
        <time>2014-09-21T11:07:48.000Z</time>
      </trkpt>
      <trkpt lat="48.96102" lon="2.10884">
        <ele>42</ele>
        <time>2014-09-21T11:07:53.000Z</time>
      </trkpt>
      <trkpt lat="48.96107" lon="2.10867">
        <ele>42</ele>
        <time>2014-09-21T11:08:02.000Z</time>
      </trkpt>
      <trkpt lat="48.96106" lon="2.10859">
        <ele>42</ele>
        <time>2014-09-21T11:08:09.000Z</time>
      </trkpt>
      <trkpt lat="48.96106" lon="2.10854">
        <ele>42</ele>
        <time>2014-09-21T11:08:12.000Z</time>
      </trkpt>
      <trkpt lat="48.96108" lon="2.10852">
        <ele>42</ele>
        <time>2014-09-21T11:08:14.000Z</time>
      </trkpt>
      <trkpt lat="48.9611" lon="2.10846">
        <ele>42</ele>
        <time>2014-09-21T11:08:22.000Z</time>
      </trkpt>
      <trkpt lat="48.9611" lon="2.10846">
        <ele>42</ele>
        <time>2014-09-21T11:08:23.000Z</time>
      </trkpt>
      <trkpt lat="48.96112" lon="2.10834">
        <ele>42.200000762939</ele>
        <time>2014-09-21T11:08:47.000Z</time>
      </trkpt>
      <trkpt lat="48.96113" lon="2.10831">
        <ele>42.200000762939</ele>
        <time>2014-09-21T11:08:48.000Z</time>
      </trkpt>
      <trkpt lat="48.96113" lon="2.10814">
        <ele>42.200000762939</ele>
        <time>2014-09-21T11:08:55.000Z</time>
      </trkpt>
      <trkpt lat="48.96113" lon="2.10792">
        <ele>42.200000762939</ele>
        <time>2014-09-21T11:09:03.000Z</time>
      </trkpt>
      <trkpt lat="48.96119" lon="2.10782">
        <ele>42.400001525879</ele>
        <time>2014-09-21T11:09:09.000Z</time>
      </trkpt>
      <trkpt lat="48.96123" lon="2.10782">
        <ele>42.599998474121</ele>
        <time>2014-09-21T11:09:14.000Z</time>
      </trkpt>
      <trkpt lat="48.96126" lon="2.10781">
        <ele>42.599998474121</ele>
        <time>2014-09-21T11:09:16.000Z</time>
      </trkpt>
      <trkpt lat="48.96134" lon="2.10786">
        <ele>43</ele>
        <time>2014-09-21T11:09:23.000Z</time>
      </trkpt>
      <trkpt lat="48.96146" lon="2.10795">
        <ele>43.400001525879</ele>
        <time>2014-09-21T11:09:28.000Z</time>
      </trkpt>
      <trkpt lat="48.9615" lon="2.10797">
        <ele>43.599998474121</ele>
        <time>2014-09-21T11:09:30.000Z</time>
      </trkpt>
      <trkpt lat="48.96162" lon="2.10803">
        <ele>44</ele>
        <time>2014-09-21T11:09:37.000Z</time>
      </trkpt>
      <trkpt lat="48.96172" lon="2.10809">
        <ele>44.200000762939</ele>
        <time>2014-09-21T11:09:43.000Z</time>
      </trkpt>
      <trkpt lat="48.96177" lon="2.10815">
        <ele>44.599998474121</ele>
        <time>2014-09-21T11:09:48.000Z</time>
      </trkpt>
      <trkpt lat="48.96183" lon="2.10819">
        <ele>44.599998474121</ele>
        <time>2014-09-21T11:09:53.000Z</time>
      </trkpt>
      <trkpt lat="48.96188" lon="2.10821">
        <ele>45</ele>
        <time>2014-09-21T11:09:59.000Z</time>
      </trkpt>
      <trkpt lat="48.96192" lon="2.10824">
        <ele>45</ele>
        <time>2014-09-21T11:10:01.000Z</time>
      </trkpt>
      <trkpt lat="48.96207" lon="2.10832">
        <ele>45.799999237061</ele>
        <time>2014-09-21T11:10:08.000Z</time>
      </trkpt>
      <trkpt lat="48.96219" lon="2.1084">
        <ele>46.400001525879</ele>
        <time>2014-09-21T11:10:13.000Z</time>
      </trkpt>
      <trkpt lat="48.96221" lon="2.10841">
        <ele>46.400001525879</ele>
        <time>2014-09-21T11:10:14.000Z</time>
      </trkpt>
      <trkpt lat="48.96237" lon="2.10848">
        <ele>47.200000762939</ele>
        <time>2014-09-21T11:10:21.000Z</time>
      </trkpt>
      <trkpt lat="48.96246" lon="2.10854">
        <ele>47.599998474121</ele>
        <time>2014-09-21T11:10:27.000Z</time>
      </trkpt>
      <trkpt lat="48.96251" lon="2.1086">
        <ele>47.799999237061</ele>
        <time>2014-09-21T11:10:30.000Z</time>
      </trkpt>
      <trkpt lat="48.96262" lon="2.10865">
        <ele>48.400001525879</ele>
        <time>2014-09-21T11:10:37.000Z</time>
      </trkpt>
      <trkpt lat="48.96264" lon="2.10866">
        <ele>48.400001525879</ele>
        <time>2014-09-21T11:10:41.000Z</time>
      </trkpt>
      <trkpt lat="48.96265" lon="2.10866">
        <ele>48.599998474121</ele>
        <time>2014-09-21T11:10:44.000Z</time>
      </trkpt>
      <trkpt lat="48.96273" lon="2.10869">
        <ele>49</ele>
        <time>2014-09-21T11:10:47.000Z</time>
      </trkpt>
      <trkpt lat="48.96276" lon="2.10871">
        <ele>49</ele>
        <time>2014-09-21T11:10:49.000Z</time>
      </trkpt>
      <trkpt lat="48.96286" lon="2.10877">
        <ele>49</ele>
        <time>2014-09-21T11:10:53.000Z</time>
      </trkpt>
      <trkpt lat="48.96297" lon="2.10889">
        <ele>49</ele>
        <time>2014-09-21T11:11:01.000Z</time>
      </trkpt>
      <trkpt lat="48.96307" lon="2.10897">
        <ele>49</ele>
        <time>2014-09-21T11:11:07.000Z</time>
      </trkpt>
      <trkpt lat="48.96317" lon="2.10904">
        <ele>49</ele>
        <time>2014-09-21T11:11:13.000Z</time>
      </trkpt>
      <trkpt lat="48.96322" lon="2.10909">
        <ele>49</ele>
        <time>2014-09-21T11:11:18.000Z</time>
      </trkpt>
      <trkpt lat="48.96332" lon="2.1091">
        <ele>49</ele>
        <time>2014-09-21T11:11:26.000Z</time>
      </trkpt>
      <trkpt lat="48.9634" lon="2.10895">
        <ele>49</ele>
        <time>2014-09-21T11:11:34.000Z</time>
      </trkpt>
      <trkpt lat="48.96345" lon="2.1088">
        <ele>49.200000762939</ele>
        <time>2014-09-21T11:11:40.000Z</time>
      </trkpt>
      <trkpt lat="48.96351" lon="2.10864">
        <ele>49.400001525879</ele>
        <time>2014-09-21T11:11:47.000Z</time>
      </trkpt>
      <trkpt lat="48.96354" lon="2.10848">
        <ele>49.799999237061</ele>
        <time>2014-09-21T11:11:54.000Z</time>
      </trkpt>
      <trkpt lat="48.96359" lon="2.10838">
        <ele>49.799999237061</ele>
        <time>2014-09-21T11:11:58.000Z</time>
      </trkpt>
      <trkpt lat="48.96362" lon="2.10829">
        <ele>50</ele>
        <time>2014-09-21T11:12:02.000Z</time>
      </trkpt>
      <trkpt lat="48.96365" lon="2.10822">
        <ele>50</ele>
        <time>2014-09-21T11:12:05.000Z</time>
      </trkpt>
      <trkpt lat="48.96374" lon="2.10808">
        <ele>50.200000762939</ele>
        <time>2014-09-21T11:12:12.000Z</time>
      </trkpt>
      <trkpt lat="48.96374" lon="2.10803">
        <ele>50.200000762939</ele>
        <time>2014-09-21T11:12:14.000Z</time>
      </trkpt>
      <trkpt lat="48.96375" lon="2.10794">
        <ele>50.200000762939</ele>
        <time>2014-09-21T11:12:18.000Z</time>
      </trkpt>
      <trkpt lat="48.96379" lon="2.10774">
        <ele>50.200000762939</ele>
        <time>2014-09-21T11:12:26.000Z</time>
      </trkpt>
      <trkpt lat="48.96383" lon="2.10764">
        <ele>50.400001525879</ele>
        <time>2014-09-21T11:12:30.000Z</time>
      </trkpt>
      <trkpt lat="48.96385" lon="2.10755">
        <ele>50.599998474121</ele>
        <time>2014-09-21T11:12:34.000Z</time>
      </trkpt>
      <trkpt lat="48.96389" lon="2.10739">
        <ele>50.799999237061</ele>
        <time>2014-09-21T11:12:41.000Z</time>
      </trkpt>
      <trkpt lat="48.96392" lon="2.10732">
        <ele>51</ele>
        <time>2014-09-21T11:12:45.000Z</time>
      </trkpt>
      <trkpt lat="48.96392" lon="2.10727">
        <ele>51</ele>
        <time>2014-09-21T11:12:48.000Z</time>
      </trkpt>
      <trkpt lat="48.9639" lon="2.10718">
        <ele>51</ele>
        <time>2014-09-21T11:12:52.000Z</time>
      </trkpt>
      <trkpt lat="48.96395" lon="2.10709">
        <ele>51.200000762939</ele>
        <time>2014-09-21T11:12:57.000Z</time>
      </trkpt>
      <trkpt lat="48.96397" lon="2.107">
        <ele>51.400001525879</ele>
        <time>2014-09-21T11:13:01.000Z</time>
      </trkpt>
      <trkpt lat="48.96402" lon="2.10689">
        <ele>51.799999237061</ele>
        <time>2014-09-21T11:13:07.000Z</time>
      </trkpt>
      <trkpt lat="48.96407" lon="2.10676">
        <ele>52</ele>
        <time>2014-09-21T11:13:13.000Z</time>
      </trkpt>
      <trkpt lat="48.9641" lon="2.10658">
        <ele>52.200000762939</ele>
        <time>2014-09-21T11:13:20.000Z</time>
      </trkpt>
      <trkpt lat="48.96411" lon="2.10642">
        <ele>52.599998474121</ele>
        <time>2014-09-21T11:13:27.000Z</time>
      </trkpt>
      <trkpt lat="48.96412" lon="2.10636">
        <ele>52.799999237061</ele>
        <time>2014-09-21T11:13:30.000Z</time>
      </trkpt>
      <trkpt lat="48.96412" lon="2.10625">
        <ele>53</ele>
        <time>2014-09-21T11:13:35.000Z</time>
      </trkpt>
      <trkpt lat="48.96412" lon="2.10622">
        <ele>52.799999237061</ele>
        <time>2014-09-21T11:13:37.000Z</time>
      </trkpt>
      <trkpt lat="48.96412" lon="2.10605">
        <ele>52.599998474121</ele>
        <time>2014-09-21T11:13:45.000Z</time>
      </trkpt>
      <trkpt lat="48.96413" lon="2.10595">
        <ele>52.599998474121</ele>
        <time>2014-09-21T11:13:49.000Z</time>
      </trkpt>
      <trkpt lat="48.96411" lon="2.10576">
        <ele>52.400001525879</ele>
        <time>2014-09-21T11:13:55.000Z</time>
      </trkpt>
      <trkpt lat="48.96412" lon="2.10562">
        <ele>52.200000762939</ele>
        <time>2014-09-21T11:14:01.000Z</time>
      </trkpt>
      <trkpt lat="48.96413" lon="2.1055">
        <ele>52</ele>
        <time>2014-09-21T11:14:07.000Z</time>
      </trkpt>
      <trkpt lat="48.96415" lon="2.10536">
        <ele>52</ele>
        <time>2014-09-21T11:14:14.000Z</time>
      </trkpt>
      <trkpt lat="48.96417" lon="2.10521">
        <ele>52</ele>
        <time>2014-09-21T11:14:20.000Z</time>
      </trkpt>
      <trkpt lat="48.96416" lon="2.10506">
        <ele>52</ele>
        <time>2014-09-21T11:14:26.000Z</time>
      </trkpt>
      <trkpt lat="48.96416" lon="2.10495">
        <ele>52</ele>
        <time>2014-09-21T11:14:31.000Z</time>
      </trkpt>
      <trkpt lat="48.96416" lon="2.10493">
        <ele>52</ele>
        <time>2014-09-21T11:14:32.000Z</time>
      </trkpt>
      <trkpt lat="48.96416" lon="2.10481">
        <ele>52</ele>
        <time>2014-09-21T11:14:37.000Z</time>
      </trkpt>
      <trkpt lat="48.96417" lon="2.10463">
        <ele>52</ele>
        <time>2014-09-21T11:14:46.000Z</time>
      </trkpt>
      <trkpt lat="48.96417" lon="2.10462">
        <ele>52</ele>
        <time>2014-09-21T11:14:47.000Z</time>
      </trkpt>
      <trkpt lat="48.96409" lon="2.10456">
        <ele>52</ele>
        <time>2014-09-21T11:15:00.000Z</time>
      </trkpt>
      <trkpt lat="48.96407" lon="2.10455">
        <ele>52</ele>
        <time>2014-09-21T11:15:01.000Z</time>
      </trkpt>
      <trkpt lat="48.96404" lon="2.10455">
        <ele>52</ele>
        <time>2014-09-21T11:15:06.000Z</time>
      </trkpt>
      <trkpt lat="48.9641" lon="2.10456">
        <ele>52</ele>
        <time>2014-09-21T11:15:18.000Z</time>
      </trkpt>
      <trkpt lat="48.96413" lon="2.10456">
        <ele>52.200000762939</ele>
        <time>2014-09-21T11:15:20.000Z</time>
      </trkpt>
      <trkpt lat="48.9642" lon="2.10449">
        <ele>52.200000762939</ele>
        <time>2014-09-21T11:15:32.000Z</time>
      </trkpt>
      <trkpt lat="48.96419" lon="2.10447">
        <ele>52.200000762939</ele>
        <time>2014-09-21T11:15:36.000Z</time>
      </trkpt>
      <trkpt lat="48.96422" lon="2.10444">
        <ele>52.400001525879</ele>
        <time>2014-09-21T11:15:44.000Z</time>
      </trkpt>
      <trkpt lat="48.96415" lon="2.10458">
        <ele>52.200000762939</ele>
        <time>2014-09-21T11:16:05.000Z</time>
      </trkpt>
      <trkpt lat="48.96418" lon="2.10469">
        <ele>52</ele>
        <time>2014-09-21T11:16:17.000Z</time>
      </trkpt>
      <trkpt lat="48.96427" lon="2.10466">
        <ele>52.200000762939</ele>
        <time>2014-09-21T11:16:29.000Z</time>
      </trkpt>
      <trkpt lat="48.96429" lon="2.10466">
        <ele>52.200000762939</ele>
        <time>2014-09-21T11:16:33.000Z</time>
      </trkpt>
      <trkpt lat="48.96429" lon="2.10469">
        <ele>52.200000762939</ele>
        <time>2014-09-21T11:17:30.000Z</time>
      </trkpt>
      <trkpt lat="48.96434" lon="2.10457">
        <ele>52.400001525879</ele>
        <time>2014-09-21T11:17:35.000Z</time>
      </trkpt>
      <trkpt lat="48.96442" lon="2.10444">
        <ele>52.599998474121</ele>
        <time>2014-09-21T11:17:41.000Z</time>
      </trkpt>
      <trkpt lat="48.96445" lon="2.10437">
        <ele>52.599998474121</ele>
        <time>2014-09-21T11:17:47.000Z</time>
      </trkpt>
      <trkpt lat="48.96447" lon="2.10428">
        <ele>52.599998474121</ele>
        <time>2014-09-21T11:17:52.000Z</time>
      </trkpt>
      <trkpt lat="48.96459" lon="2.10412">
        <ele>52.200000762939</ele>
        <time>2014-09-21T11:18:00.000Z</time>
      </trkpt>
      <trkpt lat="48.96463" lon="2.104">
        <ele>51.799999237061</ele>
        <time>2014-09-21T11:18:05.000Z</time>
      </trkpt>
      <trkpt lat="48.96465" lon="2.10386">
        <ele>51.599998474121</ele>
        <time>2014-09-21T11:18:10.000Z</time>
      </trkpt>
      <trkpt lat="48.96471" lon="2.1038">
        <ele>51.200000762939</ele>
        <time>2014-09-21T11:18:13.000Z</time>
      </trkpt>
      <trkpt lat="48.96472" lon="2.10374">
        <ele>51</ele>
        <time>2014-09-21T11:18:17.000Z</time>
      </trkpt>
      <trkpt lat="48.96476" lon="2.10365">
        <ele>50.799999237061</ele>
        <time>2014-09-21T11:18:24.000Z</time>
      </trkpt>
      <trkpt lat="48.96485" lon="2.10356">
        <ele>50.400001525879</ele>
        <time>2014-09-21T11:18:29.000Z</time>
      </trkpt>
      <trkpt lat="48.96488" lon="2.10354">
        <ele>50.200000762939</ele>
        <time>2014-09-21T11:18:31.000Z</time>
      </trkpt>
      <trkpt lat="48.96499" lon="2.10343">
        <ele>50</ele>
        <time>2014-09-21T11:18:37.000Z</time>
      </trkpt>
      <trkpt lat="48.96509" lon="2.10334">
        <ele>49.599998474121</ele>
        <time>2014-09-21T11:18:42.000Z</time>
      </trkpt>
      <trkpt lat="48.96513" lon="2.1033">
        <ele>49.400001525879</ele>
        <time>2014-09-21T11:18:44.000Z</time>
      </trkpt>
      <trkpt lat="48.96521" lon="2.1032">
        <ele>49.200000762939</ele>
        <time>2014-09-21T11:18:50.000Z</time>
      </trkpt>
      <trkpt lat="48.96526" lon="2.10315">
        <ele>49</ele>
        <time>2014-09-21T11:18:53.000Z</time>
      </trkpt>
      <trkpt lat="48.96536" lon="2.10302">
        <ele>48.799999237061</ele>
        <time>2014-09-21T11:19:01.000Z</time>
      </trkpt>
      <trkpt lat="48.96544" lon="2.10291">
        <ele>48.599998474121</ele>
        <time>2014-09-21T11:19:08.000Z</time>
      </trkpt>
      <trkpt lat="48.9655" lon="2.10282">
        <ele>48.400001525879</ele>
        <time>2014-09-21T11:19:14.000Z</time>
      </trkpt>
      <trkpt lat="48.96555" lon="2.10276">
        <ele>48.200000762939</ele>
        <time>2014-09-21T11:19:18.000Z</time>
      </trkpt>
      <trkpt lat="48.96561" lon="2.10269">
        <ele>48.200000762939</ele>
        <time>2014-09-21T11:19:23.000Z</time>
      </trkpt>
      <trkpt lat="48.96571" lon="2.10259">
        <ele>48.200000762939</ele>
        <time>2014-09-21T11:19:30.000Z</time>
      </trkpt>
      <trkpt lat="48.96575" lon="2.10255">
        <ele>48.200000762939</ele>
        <time>2014-09-21T11:19:33.000Z</time>
      </trkpt>
      <trkpt lat="48.96576" lon="2.10241">
        <ele>48.400001525879</ele>
        <time>2014-09-21T11:19:40.000Z</time>
      </trkpt>
      <trkpt lat="48.96574" lon="2.10236">
        <ele>48.200000762939</ele>
        <time>2014-09-21T11:19:42.000Z</time>
      </trkpt>
      <trkpt lat="48.96573" lon="2.10226">
        <ele>48</ele>
        <time>2014-09-21T11:19:47.000Z</time>
      </trkpt>
      <trkpt lat="48.96572" lon="2.10215">
        <ele>47.799999237061</ele>
        <time>2014-09-21T11:19:52.000Z</time>
      </trkpt>
      <trkpt lat="48.96571" lon="2.1021">
        <ele>47.599998474121</ele>
        <time>2014-09-21T11:19:55.000Z</time>
      </trkpt>
      <trkpt lat="48.96571" lon="2.10203">
        <ele>47.599998474121</ele>
        <time>2014-09-21T11:20:00.000Z</time>
      </trkpt>
      <trkpt lat="48.96569" lon="2.10189">
        <ele>47.400001525879</ele>
        <time>2014-09-21T11:20:06.000Z</time>
      </trkpt>
      <trkpt lat="48.96568" lon="2.10186">
        <ele>47.400001525879</ele>
        <time>2014-09-21T11:20:07.000Z</time>
      </trkpt>
      <trkpt lat="48.96567" lon="2.10171">
        <ele>47.200000762939</ele>
        <time>2014-09-21T11:20:14.000Z</time>
      </trkpt>
      <trkpt lat="48.96566" lon="2.10166">
        <ele>47</ele>
        <time>2014-09-21T11:20:16.000Z</time>
      </trkpt>
      <trkpt lat="48.9656" lon="2.10153">
        <ele>47</ele>
        <time>2014-09-21T11:20:22.000Z</time>
      </trkpt>
      <trkpt lat="48.96557" lon="2.10138">
        <ele>47</ele>
        <time>2014-09-21T11:20:29.000Z</time>
      </trkpt>
      <trkpt lat="48.96554" lon="2.10122">
        <ele>47</ele>
        <time>2014-09-21T11:20:35.000Z</time>
      </trkpt>
      <trkpt lat="48.96553" lon="2.1011">
        <ele>47</ele>
        <time>2014-09-21T11:20:40.000Z</time>
      </trkpt>
      <trkpt lat="48.96551" lon="2.10096">
        <ele>47.200000762939</ele>
        <time>2014-09-21T11:20:46.000Z</time>
      </trkpt>
      <trkpt lat="48.9655" lon="2.10088">
        <ele>47.599998474121</ele>
        <time>2014-09-21T11:20:50.000Z</time>
      </trkpt>
      <trkpt lat="48.96549" lon="2.10074">
        <ele>48</ele>
        <time>2014-09-21T11:20:57.000Z</time>
      </trkpt>
      <trkpt lat="48.96546" lon="2.10058">
        <ele>48.200000762939</ele>
        <time>2014-09-21T11:21:05.000Z</time>
      </trkpt>
      <trkpt lat="48.96546" lon="2.10055">
        <ele>48.400001525879</ele>
        <time>2014-09-21T11:21:07.000Z</time>
      </trkpt>
      <trkpt lat="48.96544" lon="2.10044">
        <ele>48.400001525879</ele>
        <time>2014-09-21T11:21:13.000Z</time>
      </trkpt>
      <trkpt lat="48.9654" lon="2.10026">
        <ele>48.799999237061</ele>
        <time>2014-09-21T11:21:20.000Z</time>
      </trkpt>
      <trkpt lat="48.9654" lon="2.1001">
        <ele>49.200000762939</ele>
        <time>2014-09-21T11:21:27.000Z</time>
      </trkpt>
      <trkpt lat="48.96538" lon="2.09999">
        <ele>49</ele>
        <time>2014-09-21T11:21:32.000Z</time>
      </trkpt>
      <trkpt lat="48.96539" lon="2.09995">
        <ele>49</ele>
        <time>2014-09-21T11:21:34.000Z</time>
      </trkpt>
      <trkpt lat="48.9653" lon="2.09974">
        <ele>48.200000762939</ele>
        <time>2014-09-21T11:21:43.000Z</time>
      </trkpt>
      <trkpt lat="48.96527" lon="2.0996">
        <ele>47.799999237061</ele>
        <time>2014-09-21T11:21:49.000Z</time>
      </trkpt>
      <trkpt lat="48.96524" lon="2.09948">
        <ele>47.400001525879</ele>
        <time>2014-09-21T11:21:55.000Z</time>
      </trkpt>
      <trkpt lat="48.96527" lon="2.09934">
        <ele>46.799999237061</ele>
        <time>2014-09-21T11:22:01.000Z</time>
      </trkpt>
      <trkpt lat="48.96527" lon="2.09931">
        <ele>46.799999237061</ele>
        <time>2014-09-21T11:22:02.000Z</time>
      </trkpt>
      <trkpt lat="48.96527" lon="2.09926">
        <ele>46.599998474121</ele>
        <time>2014-09-21T11:22:04.000Z</time>
      </trkpt>
      <trkpt lat="48.96525" lon="2.09912">
        <ele>46</ele>
        <time>2014-09-21T11:22:11.000Z</time>
      </trkpt>
      <trkpt lat="48.96524" lon="2.0991">
        <ele>46</ele>
        <time>2014-09-21T11:22:12.000Z</time>
      </trkpt>
      <trkpt lat="48.96523" lon="2.09894">
        <ele>45.599998474121</ele>
        <time>2014-09-21T11:22:19.000Z</time>
      </trkpt>
      <trkpt lat="48.96522" lon="2.09892">
        <ele>45.599998474121</ele>
        <time>2014-09-21T11:22:20.000Z</time>
      </trkpt>
      <trkpt lat="48.96518" lon="2.09874">
        <ele>45.200000762939</ele>
        <time>2014-09-21T11:22:28.000Z</time>
      </trkpt>
      <trkpt lat="48.96516" lon="2.09864">
        <ele>45</ele>
        <time>2014-09-21T11:22:33.000Z</time>
      </trkpt>
      <trkpt lat="48.96515" lon="2.09853">
        <ele>44.799999237061</ele>
        <time>2014-09-21T11:22:39.000Z</time>
      </trkpt>
      <trkpt lat="48.96512" lon="2.09842">
        <ele>44.599998474121</ele>
        <time>2014-09-21T11:22:44.000Z</time>
      </trkpt>
      <trkpt lat="48.96508" lon="2.09821">
        <ele>44.400001525879</ele>
        <time>2014-09-21T11:22:52.000Z</time>
      </trkpt>
      <trkpt lat="48.96503" lon="2.09811">
        <ele>44.599998474121</ele>
        <time>2014-09-21T11:22:57.000Z</time>
      </trkpt>
      <trkpt lat="48.96498" lon="2.09795">
        <ele>45</ele>
        <time>2014-09-21T11:23:04.000Z</time>
      </trkpt>
      <trkpt lat="48.96496" lon="2.09784">
        <ele>45.200000762939</ele>
        <time>2014-09-21T11:23:09.000Z</time>
      </trkpt>
      <trkpt lat="48.96496" lon="2.09773">
        <ele>45.400001525879</ele>
        <time>2014-09-21T11:23:14.000Z</time>
      </trkpt>
      <trkpt lat="48.96496" lon="2.09771">
        <ele>45.400001525879</ele>
        <time>2014-09-21T11:23:15.000Z</time>
      </trkpt>
      <trkpt lat="48.9649" lon="2.09756">
        <ele>45.599998474121</ele>
        <time>2014-09-21T11:23:22.000Z</time>
      </trkpt>
      <trkpt lat="48.96488" lon="2.09738">
        <ele>45.799999237061</ele>
        <time>2014-09-21T11:23:30.000Z</time>
      </trkpt>
      <trkpt lat="48.96487" lon="2.09733">
        <ele>45.799999237061</ele>
        <time>2014-09-21T11:23:32.000Z</time>
      </trkpt>
      <trkpt lat="48.96486" lon="2.09725">
        <ele>46</ele>
        <time>2014-09-21T11:23:36.000Z</time>
      </trkpt>
      <trkpt lat="48.96485" lon="2.09714">
        <ele>46</ele>
        <time>2014-09-21T11:23:42.000Z</time>
      </trkpt>
      <trkpt lat="48.96482" lon="2.09701">
        <ele>46</ele>
        <time>2014-09-21T11:23:49.000Z</time>
      </trkpt>
      <trkpt lat="48.96482" lon="2.09696">
        <ele>46.200000762939</ele>
        <time>2014-09-21T11:23:51.000Z</time>
      </trkpt>
      <trkpt lat="48.96477" lon="2.09684">
        <ele>46.599998474121</ele>
        <time>2014-09-21T11:23:56.000Z</time>
      </trkpt>
      <trkpt lat="48.96475" lon="2.09673">
        <ele>47</ele>
        <time>2014-09-21T11:24:00.000Z</time>
      </trkpt>
      <trkpt lat="48.96473" lon="2.09659">
        <ele>47.400001525879</ele>
        <time>2014-09-21T11:24:07.000Z</time>
      </trkpt>
      <trkpt lat="48.9647" lon="2.09643">
        <ele>47</ele>
        <time>2014-09-21T11:24:14.000Z</time>
      </trkpt>
      <trkpt lat="48.96469" lon="2.09638">
        <ele>46.799999237061</ele>
        <time>2014-09-21T11:24:17.000Z</time>
      </trkpt>
      <trkpt lat="48.96465" lon="2.09621">
        <ele>46.400001525879</ele>
        <time>2014-09-21T11:24:24.000Z</time>
      </trkpt>
      <trkpt lat="48.96465" lon="2.0961">
        <ele>46</ele>
        <time>2014-09-21T11:24:29.000Z</time>
      </trkpt>
      <trkpt lat="48.96461" lon="2.09593">
        <ele>45.799999237061</ele>
        <time>2014-09-21T11:24:36.000Z</time>
      </trkpt>
      <trkpt lat="48.96458" lon="2.09575">
        <ele>45.599998474121</ele>
        <time>2014-09-21T11:24:42.000Z</time>
      </trkpt>
      <trkpt lat="48.96458" lon="2.09563">
        <ele>45.200000762939</ele>
        <time>2014-09-21T11:24:49.000Z</time>
      </trkpt>
      <trkpt lat="48.9646" lon="2.09561">
        <ele>45.400001525879</ele>
        <time>2014-09-21T11:24:57.000Z</time>
      </trkpt>
      <trkpt lat="48.96461" lon="2.09562">
        <ele>45.400001525879</ele>
        <time>2014-09-21T11:25:00.000Z</time>
      </trkpt>
      <trkpt lat="48.96462" lon="2.09565">
        <ele>45.400001525879</ele>
        <time>2014-09-21T11:25:03.000Z</time>
      </trkpt>
      <trkpt lat="48.96459" lon="2.09566">
        <ele>45.400001525879</ele>
        <time>2014-09-21T11:25:09.000Z</time>
      </trkpt>
      <trkpt lat="48.96458" lon="2.09568">
        <ele>45.400001525879</ele>
        <time>2014-09-21T11:25:22.000Z</time>
      </trkpt>
      <trkpt lat="48.96451" lon="2.09564">
        <ele>45</ele>
        <time>2014-09-21T11:25:27.000Z</time>
      </trkpt>
      <trkpt lat="48.96451" lon="2.09563">
        <ele>45</ele>
        <time>2014-09-21T11:25:29.000Z</time>
      </trkpt>
      <trkpt lat="48.96451" lon="2.09554">
        <ele>44.799999237061</ele>
        <time>2014-09-21T11:25:35.000Z</time>
      </trkpt>
      <trkpt lat="48.96453" lon="2.09551">
        <ele>44.799999237061</ele>
        <time>2014-09-21T11:25:36.000Z</time>
      </trkpt>
      <trkpt lat="48.96462" lon="2.0955">
        <ele>45.200000762939</ele>
        <time>2014-09-21T11:25:43.000Z</time>
      </trkpt>
      <trkpt lat="48.96469" lon="2.09548">
        <ele>45.400001525879</ele>
        <time>2014-09-21T11:25:52.000Z</time>
      </trkpt>
      <trkpt lat="48.96473" lon="2.09554">
        <ele>45.599998474121</ele>
        <time>2014-09-21T11:25:58.000Z</time>
      </trkpt>
      <trkpt lat="48.96476" lon="2.09557">
        <ele>45.799999237061</ele>
        <time>2014-09-21T11:26:03.000Z</time>
      </trkpt>
      <trkpt lat="48.96477" lon="2.0956">
        <ele>46</ele>
        <time>2014-09-21T11:26:05.000Z</time>
      </trkpt>
      <trkpt lat="48.96485" lon="2.09567">
        <ele>46.400001525879</ele>
        <time>2014-09-21T11:26:11.000Z</time>
      </trkpt>
      <trkpt lat="48.96496" lon="2.09578">
        <ele>47</ele>
        <time>2014-09-21T11:26:18.000Z</time>
      </trkpt>
      <trkpt lat="48.96501" lon="2.09591">
        <ele>47.200000762939</ele>
        <time>2014-09-21T11:26:25.000Z</time>
      </trkpt>
      <trkpt lat="48.96504" lon="2.09594">
        <ele>47.200000762939</ele>
        <time>2014-09-21T11:26:27.000Z</time>
      </trkpt>
      <trkpt lat="48.9651" lon="2.09604">
        <ele>47.400001525879</ele>
        <time>2014-09-21T11:26:34.000Z</time>
      </trkpt>
      <trkpt lat="48.9651" lon="2.09607">
        <ele>47.400001525879</ele>
        <time>2014-09-21T11:26:36.000Z</time>
      </trkpt>
      <trkpt lat="48.96518" lon="2.09615">
        <ele>47.799999237061</ele>
        <time>2014-09-21T11:26:42.000Z</time>
      </trkpt>
      <trkpt lat="48.96528" lon="2.09624">
        <ele>48</ele>
        <time>2014-09-21T11:26:49.000Z</time>
      </trkpt>
      <trkpt lat="48.9653" lon="2.09625">
        <ele>48</ele>
        <time>2014-09-21T11:26:50.000Z</time>
      </trkpt>
      <trkpt lat="48.96533" lon="2.09633">
        <ele>48</ele>
        <time>2014-09-21T11:26:54.000Z</time>
      </trkpt>
      <trkpt lat="48.9654" lon="2.09636">
        <ele>48</ele>
        <time>2014-09-21T11:26:58.000Z</time>
      </trkpt>
      <trkpt lat="48.9655" lon="2.09648">
        <ele>48</ele>
        <time>2014-09-21T11:27:03.000Z</time>
      </trkpt>
      <trkpt lat="48.96563" lon="2.09668">
        <ele>47.799999237061</ele>
        <time>2014-09-21T11:27:09.000Z</time>
      </trkpt>
      <trkpt lat="48.96572" lon="2.09683">
        <ele>47.200000762939</ele>
        <time>2014-09-21T11:27:13.000Z</time>
      </trkpt>
      <trkpt lat="48.96592" lon="2.09707">
        <ele>46.400001525879</ele>
        <time>2014-09-21T11:27:20.000Z</time>
      </trkpt>
      <trkpt lat="48.9661" lon="2.09728">
        <ele>45.599998474121</ele>
        <time>2014-09-21T11:27:26.000Z</time>
      </trkpt>
      <trkpt lat="48.9663" lon="2.09748">
        <ele>46</ele>
        <time>2014-09-21T11:27:32.000Z</time>
      </trkpt>
      <trkpt lat="48.96646" lon="2.09768">
        <ele>46.200000762939</ele>
        <time>2014-09-21T11:27:38.000Z</time>
      </trkpt>
      <trkpt lat="48.96657" lon="2.09786">
        <ele>46.400001525879</ele>
        <time>2014-09-21T11:27:43.000Z</time>
      </trkpt>
      <trkpt lat="48.96672" lon="2.09803">
        <ele>46.599998474121</ele>
        <time>2014-09-21T11:27:48.000Z</time>
      </trkpt>
      <trkpt lat="48.9669" lon="2.09823">
        <ele>47</ele>
        <time>2014-09-21T11:27:54.000Z</time>
      </trkpt>
      <trkpt lat="48.96703" lon="2.0984">
        <ele>47.400001525879</ele>
        <time>2014-09-21T11:27:59.000Z</time>
      </trkpt>
      <trkpt lat="48.96712" lon="2.0986">
        <ele>47.599998474121</ele>
        <time>2014-09-21T11:28:04.000Z</time>
      </trkpt>
      <trkpt lat="48.96727" lon="2.09877">
        <ele>48</ele>
        <time>2014-09-21T11:28:09.000Z</time>
      </trkpt>
      <trkpt lat="48.96745" lon="2.09896">
        <ele>48.400001525879</ele>
        <time>2014-09-21T11:28:15.000Z</time>
      </trkpt>
      <trkpt lat="48.96762" lon="2.09918">
        <ele>48.799999237061</ele>
        <time>2014-09-21T11:28:21.000Z</time>
      </trkpt>
      <trkpt lat="48.96775" lon="2.09941">
        <ele>48.599998474121</ele>
        <time>2014-09-21T11:28:27.000Z</time>
      </trkpt>
      <trkpt lat="48.96792" lon="2.09968">
        <ele>49</ele>
        <time>2014-09-21T11:28:34.000Z</time>
      </trkpt>
      <trkpt lat="48.96807" lon="2.09979">
        <ele>49.400001525879</ele>
        <time>2014-09-21T11:28:39.000Z</time>
      </trkpt>
      <trkpt lat="48.96825" lon="2.0998">
        <ele>50</ele>
        <time>2014-09-21T11:28:44.000Z</time>
      </trkpt>
      <trkpt lat="48.96842" lon="2.09979">
        <ele>50.599998474121</ele>
        <time>2014-09-21T11:28:49.000Z</time>
      </trkpt>
      <trkpt lat="48.96859" lon="2.09982">
        <ele>51</ele>
        <time>2014-09-21T11:28:54.000Z</time>
      </trkpt>
      <trkpt lat="48.96879" lon="2.09986">
        <ele>50.400001525879</ele>
        <time>2014-09-21T11:28:59.000Z</time>
      </trkpt>
      <trkpt lat="48.96896" lon="2.09988">
        <ele>50</ele>
        <time>2014-09-21T11:29:04.000Z</time>
      </trkpt>
      <trkpt lat="48.96917" lon="2.0999">
        <ele>49.599998474121</ele>
        <time>2014-09-21T11:29:10.000Z</time>
      </trkpt>
      <trkpt lat="48.96939" lon="2.09992">
        <ele>49</ele>
        <time>2014-09-21T11:29:16.000Z</time>
      </trkpt>
      <trkpt lat="48.96962" lon="2.09991">
        <ele>48.400001525879</ele>
        <time>2014-09-21T11:29:23.000Z</time>
      </trkpt>
      <trkpt lat="48.96981" lon="2.09996">
        <ele>48</ele>
        <time>2014-09-21T11:29:28.000Z</time>
      </trkpt>
      <trkpt lat="48.97003" lon="2.10001">
        <ele>47.400001525879</ele>
        <time>2014-09-21T11:29:34.000Z</time>
      </trkpt>
      <trkpt lat="48.97026" lon="2.10004">
        <ele>46.799999237061</ele>
        <time>2014-09-21T11:29:40.000Z</time>
      </trkpt>
      <trkpt lat="48.97045" lon="2.10005">
        <ele>47</ele>
        <time>2014-09-21T11:29:45.000Z</time>
      </trkpt>
      <trkpt lat="48.97065" lon="2.1001">
        <ele>47</ele>
        <time>2014-09-21T11:29:50.000Z</time>
      </trkpt>
      <trkpt lat="48.97089" lon="2.10009">
        <ele>47</ele>
        <time>2014-09-21T11:29:55.000Z</time>
      </trkpt>
      <trkpt lat="48.97101" lon="2.10012">
        <ele>47</ele>
        <time>2014-09-21T11:29:58.000Z</time>
      </trkpt>
      <trkpt lat="48.97115" lon="2.10014">
        <ele>47</ele>
        <time>2014-09-21T11:30:02.000Z</time>
      </trkpt>
      <trkpt lat="48.97142" lon="2.10016">
        <ele>46.599998474121</ele>
        <time>2014-09-21T11:30:08.000Z</time>
      </trkpt>
      <trkpt lat="48.9715" lon="2.10018">
        <ele>46.400001525879</ele>
        <time>2014-09-21T11:30:10.000Z</time>
      </trkpt>
      <trkpt lat="48.97166" lon="2.10018">
        <ele>46.200000762939</ele>
        <time>2014-09-21T11:30:14.000Z</time>
      </trkpt>
      <trkpt lat="48.97182" lon="2.10021">
        <ele>46.200000762939</ele>
        <time>2014-09-21T11:30:21.000Z</time>
      </trkpt>
      <trkpt lat="48.97182" lon="2.1002">
        <ele>46.200000762939</ele>
        <time>2014-09-21T11:30:25.000Z</time>
      </trkpt>
      <trkpt lat="48.97174" lon="2.10019">
        <ele>46.200000762939</ele>
        <time>2014-09-21T11:30:50.000Z</time>
      </trkpt>
      <trkpt lat="48.97175" lon="2.10022">
        <ele>46.200000762939</ele>
        <time>2014-09-21T11:30:57.000Z</time>
      </trkpt>
      <trkpt lat="48.97176" lon="2.10019">
        <ele>46.200000762939</ele>
        <time>2014-09-21T11:31:00.000Z</time>
      </trkpt>
      <trkpt lat="48.97179" lon="2.10006">
        <ele>46.200000762939</ele>
        <time>2014-09-21T11:31:06.000Z</time>
      </trkpt>
      <trkpt lat="48.9718" lon="2.09992">
        <ele>46.200000762939</ele>
        <time>2014-09-21T11:31:12.000Z</time>
      </trkpt>
      <trkpt lat="48.97181" lon="2.0999">
        <ele>46.200000762939</ele>
        <time>2014-09-21T11:31:13.000Z</time>
      </trkpt>
      <trkpt lat="48.97181" lon="2.09976">
        <ele>46.200000762939</ele>
        <time>2014-09-21T11:31:19.000Z</time>
      </trkpt>
      <trkpt lat="48.97181" lon="2.0997">
        <ele>46.200000762939</ele>
        <time>2014-09-21T11:31:21.000Z</time>
      </trkpt>
      <trkpt lat="48.97183" lon="2.09946">
        <ele>46</ele>
        <time>2014-09-21T11:31:28.000Z</time>
      </trkpt>
      <trkpt lat="48.97179" lon="2.0991">
        <ele>46.200000762939</ele>
        <time>2014-09-21T11:31:34.000Z</time>
      </trkpt>
      <trkpt lat="48.97179" lon="2.09883">
        <ele>46</ele>
        <time>2014-09-21T11:31:39.000Z</time>
      </trkpt>
      <trkpt lat="48.9718" lon="2.0986">
        <ele>46</ele>
        <time>2014-09-21T11:31:44.000Z</time>
      </trkpt>
      <trkpt lat="48.97183" lon="2.09831">
        <ele>46</ele>
        <time>2014-09-21T11:31:50.000Z</time>
      </trkpt>
      <trkpt lat="48.97186" lon="2.09803">
        <ele>46</ele>
        <time>2014-09-21T11:31:56.000Z</time>
      </trkpt>
      <trkpt lat="48.97186" lon="2.09777">
        <ele>46</ele>
        <time>2014-09-21T11:32:01.000Z</time>
      </trkpt>
      <trkpt lat="48.97187" lon="2.0976">
        <ele>46</ele>
        <time>2014-09-21T11:32:05.000Z</time>
      </trkpt>
      <trkpt lat="48.97188" lon="2.09717">
        <ele>46.599998474121</ele>
        <time>2014-09-21T11:32:12.000Z</time>
      </trkpt>
      <trkpt lat="48.97189" lon="2.0969">
        <ele>47.200000762939</ele>
        <time>2014-09-21T11:32:17.000Z</time>
      </trkpt>
      <trkpt lat="48.97188" lon="2.0967">
        <ele>47.599998474121</ele>
        <time>2014-09-21T11:32:21.000Z</time>
      </trkpt>
      <trkpt lat="48.97187" lon="2.09646">
        <ele>47.799999237061</ele>
        <time>2014-09-21T11:32:26.000Z</time>
      </trkpt>
      <trkpt lat="48.97188" lon="2.09621">
        <ele>48</ele>
        <time>2014-09-21T11:32:32.000Z</time>
      </trkpt>
      <trkpt lat="48.97188" lon="2.09595">
        <ele>48</ele>
        <time>2014-09-21T11:32:37.000Z</time>
      </trkpt>
      <trkpt lat="48.9719" lon="2.09563">
        <ele>47.799999237061</ele>
        <time>2014-09-21T11:32:43.000Z</time>
      </trkpt>
      <trkpt lat="48.97192" lon="2.09545">
        <ele>47.599998474121</ele>
        <time>2014-09-21T11:32:47.000Z</time>
      </trkpt>
      <trkpt lat="48.97194" lon="2.0953">
        <ele>47.400001525879</ele>
        <time>2014-09-21T11:32:51.000Z</time>
      </trkpt>
      <trkpt lat="48.97198" lon="2.09494">
        <ele>46.799999237061</ele>
        <time>2014-09-21T11:32:59.000Z</time>
      </trkpt>
      <trkpt lat="48.97194" lon="2.09474">
        <ele>46.599998474121</ele>
        <time>2014-09-21T11:33:03.000Z</time>
      </trkpt>
      <trkpt lat="48.97195" lon="2.09462">
        <ele>46.599998474121</ele>
        <time>2014-09-21T11:33:07.000Z</time>
      </trkpt>
      <trkpt lat="48.97194" lon="2.09448">
        <ele>46.400001525879</ele>
        <time>2014-09-21T11:33:13.000Z</time>
      </trkpt>
      <trkpt lat="48.97196" lon="2.09437">
        <ele>46.200000762939</ele>
        <time>2014-09-21T11:33:18.000Z</time>
      </trkpt>
      <trkpt lat="48.97201" lon="2.09427">
        <ele>46</ele>
        <time>2014-09-21T11:33:25.000Z</time>
      </trkpt>
      <trkpt lat="48.97208" lon="2.0942">
        <ele>45.799999237061</ele>
        <time>2014-09-21T11:33:29.000Z</time>
      </trkpt>
      <trkpt lat="48.97209" lon="2.09418">
        <ele>45.799999237061</ele>
        <time>2014-09-21T11:33:30.000Z</time>
      </trkpt>
      <trkpt lat="48.97219" lon="2.09419">
        <ele>45.599998474121</ele>
        <time>2014-09-21T11:33:35.000Z</time>
      </trkpt>
      <trkpt lat="48.97223" lon="2.0942">
        <ele>45.599998474121</ele>
        <time>2014-09-21T11:33:37.000Z</time>
      </trkpt>
      <trkpt lat="48.97238" lon="2.09423">
        <ele>45.400001525879</ele>
        <time>2014-09-21T11:33:45.000Z</time>
      </trkpt>
      <trkpt lat="48.9724" lon="2.09423">
        <ele>45.400001525879</ele>
        <time>2014-09-21T11:33:46.000Z</time>
      </trkpt>
      <trkpt lat="48.97247" lon="2.09426">
        <ele>45.400001525879</ele>
        <time>2014-09-21T11:33:52.000Z</time>
      </trkpt>
      <trkpt lat="48.97251" lon="2.09427">
        <ele>45.200000762939</ele>
        <time>2014-09-21T11:33:55.000Z</time>
      </trkpt>
      <trkpt lat="48.9726" lon="2.0943">
        <ele>45.200000762939</ele>
        <time>2014-09-21T11:33:59.000Z</time>
      </trkpt>
      <trkpt lat="48.97272" lon="2.09437">
        <ele>45</ele>
        <time>2014-09-21T11:34:04.000Z</time>
      </trkpt>
      <trkpt lat="48.97282" lon="2.09436">
        <ele>44.599998474121</ele>
        <time>2014-09-21T11:34:09.000Z</time>
      </trkpt>
      <trkpt lat="48.9729" lon="2.09438">
        <ele>44.200000762939</ele>
        <time>2014-09-21T11:34:13.000Z</time>
      </trkpt>
      <trkpt lat="48.97302" lon="2.09441">
        <ele>43.599998474121</ele>
        <time>2014-09-21T11:34:20.000Z</time>
      </trkpt>
      <trkpt lat="48.97311" lon="2.09443">
        <ele>43.200000762939</ele>
        <time>2014-09-21T11:34:25.000Z</time>
      </trkpt>
      <trkpt lat="48.9732" lon="2.09456">
        <ele>42.799999237061</ele>
        <time>2014-09-21T11:34:32.000Z</time>
      </trkpt>
      <trkpt lat="48.9733" lon="2.09461">
        <ele>42.200000762939</ele>
        <time>2014-09-21T11:34:38.000Z</time>
      </trkpt>
      <trkpt lat="48.97338" lon="2.09468">
        <ele>41.799999237061</ele>
        <time>2014-09-21T11:34:44.000Z</time>
      </trkpt>
      <trkpt lat="48.97346" lon="2.09471">
        <ele>41.400001525879</ele>
        <time>2014-09-21T11:34:48.000Z</time>
      </trkpt>
      <trkpt lat="48.97353" lon="2.09474">
        <ele>41</ele>
        <time>2014-09-21T11:34:52.000Z</time>
      </trkpt>
      <trkpt lat="48.97361" lon="2.09478">
        <ele>40.400001525879</ele>
        <time>2014-09-21T11:34:57.000Z</time>
      </trkpt>
      <trkpt lat="48.97374" lon="2.09481">
        <ele>39.799999237061</ele>
        <time>2014-09-21T11:35:03.000Z</time>
      </trkpt>
      <trkpt lat="48.97389" lon="2.09487">
        <ele>39</ele>
        <time>2014-09-21T11:35:11.000Z</time>
      </trkpt>
      <trkpt lat="48.97397" lon="2.09491">
        <ele>38.599998474121</ele>
        <time>2014-09-21T11:35:16.000Z</time>
      </trkpt>
      <trkpt lat="48.9741" lon="2.09494">
        <ele>38</ele>
        <time>2014-09-21T11:35:23.000Z</time>
      </trkpt>
      <trkpt lat="48.97411" lon="2.09495">
        <ele>37.799999237061</ele>
        <time>2014-09-21T11:35:24.000Z</time>
      </trkpt>
      <trkpt lat="48.97421" lon="2.09498">
        <ele>37.200000762939</ele>
        <time>2014-09-21T11:35:30.000Z</time>
      </trkpt>
      <trkpt lat="48.97432" lon="2.09501">
        <ele>36.599998474121</ele>
        <time>2014-09-21T11:35:35.000Z</time>
      </trkpt>
      <trkpt lat="48.97442" lon="2.09507">
        <ele>36.200000762939</ele>
        <time>2014-09-21T11:35:42.000Z</time>
      </trkpt>
      <trkpt lat="48.97452" lon="2.0951">
        <ele>35.599998474121</ele>
        <time>2014-09-21T11:35:47.000Z</time>
      </trkpt>
      <trkpt lat="48.97461" lon="2.09514">
        <ele>35.400001525879</ele>
        <time>2014-09-21T11:35:51.000Z</time>
      </trkpt>
      <trkpt lat="48.97469" lon="2.09518">
        <ele>34.799999237061</ele>
        <time>2014-09-21T11:35:57.000Z</time>
      </trkpt>
      <trkpt lat="48.9747" lon="2.09518">
        <ele>34.799999237061</ele>
        <time>2014-09-21T11:35:58.000Z</time>
      </trkpt>
      <trkpt lat="48.97481" lon="2.09523">
        <ele>34.200000762939</ele>
        <time>2014-09-21T11:36:05.000Z</time>
      </trkpt>
      <trkpt lat="48.97494" lon="2.09527">
        <ele>33.400001525879</ele>
        <time>2014-09-21T11:36:12.000Z</time>
      </trkpt>
      <trkpt lat="48.97498" lon="2.09529">
        <ele>33.200000762939</ele>
        <time>2014-09-21T11:36:15.000Z</time>
      </trkpt>
      <trkpt lat="48.97501" lon="2.09533">
        <ele>33.200000762939</ele>
        <time>2014-09-21T11:36:20.000Z</time>
      </trkpt>
      <trkpt lat="48.97501" lon="2.09533">
        <ele>33.200000762939</ele>
        <time>2014-09-21T11:36:21.000Z</time>
      </trkpt>
      <trkpt lat="48.9752" lon="2.09533">
        <ele>31.799999237061</ele>
        <time>2014-09-21T11:37:23.000Z</time>
      </trkpt>
      <trkpt lat="48.97524" lon="2.09535">
        <ele>31.60000038147</ele>
        <time>2014-09-21T11:37:26.000Z</time>
      </trkpt>
      <trkpt lat="48.97528" lon="2.09536">
        <ele>31.200000762939</ele>
        <time>2014-09-21T11:37:30.000Z</time>
      </trkpt>
      <trkpt lat="48.97534" lon="2.09536">
        <ele>30.39999961853</ele>
        <time>2014-09-21T11:37:37.000Z</time>
      </trkpt>
      <trkpt lat="48.97537" lon="2.09537">
        <ele>30</ele>
        <time>2014-09-21T11:37:43.000Z</time>
      </trkpt>
      <trkpt lat="48.97539" lon="2.09532">
        <ele>29.60000038147</ele>
        <time>2014-09-21T11:37:49.000Z</time>
      </trkpt>
      <trkpt lat="48.97538" lon="2.09525">
        <ele>29.39999961853</ele>
        <time>2014-09-21T11:37:53.000Z</time>
      </trkpt>
      <trkpt lat="48.97538" lon="2.09522">
        <ele>29.200000762939</ele>
        <time>2014-09-21T11:37:55.000Z</time>
      </trkpt>
      <trkpt lat="48.97537" lon="2.09517">
        <ele>29.200000762939</ele>
        <time>2014-09-21T11:37:59.000Z</time>
      </trkpt>
      <trkpt lat="48.97533" lon="2.09509">
        <ele>29.39999961853</ele>
        <time>2014-09-21T11:38:04.000Z</time>
      </trkpt>
      <trkpt lat="48.97532" lon="2.09504">
        <ele>29.39999961853</ele>
        <time>2014-09-21T11:38:06.000Z</time>
      </trkpt>
      <trkpt lat="48.97529" lon="2.09487">
        <ele>29.39999961853</ele>
        <time>2014-09-21T11:38:16.000Z</time>
      </trkpt>
      <trkpt lat="48.97525" lon="2.09471">
        <ele>29.200000762939</ele>
        <time>2014-09-21T11:38:24.000Z</time>
      </trkpt>
      <trkpt lat="48.97521" lon="2.09462">
        <ele>29.200000762939</ele>
        <time>2014-09-21T11:38:29.000Z</time>
      </trkpt>
      <trkpt lat="48.9752" lon="2.09461">
        <ele>29.200000762939</ele>
        <time>2014-09-21T11:38:30.000Z</time>
      </trkpt>
      <trkpt lat="48.97518" lon="2.09457">
        <ele>29.200000762939</ele>
        <time>2014-09-21T11:38:33.000Z</time>
      </trkpt>
      <trkpt lat="48.97515" lon="2.09448">
        <ele>29</ele>
        <time>2014-09-21T11:38:38.000Z</time>
      </trkpt>
      <trkpt lat="48.97512" lon="2.09439">
        <ele>29</ele>
        <time>2014-09-21T11:38:44.000Z</time>
      </trkpt>
      <trkpt lat="48.97512" lon="2.09432">
        <ele>28.799999237061</ele>
        <time>2014-09-21T11:38:48.000Z</time>
      </trkpt>
      <trkpt lat="48.97511" lon="2.09425">
        <ele>28.60000038147</ele>
        <time>2014-09-21T11:38:52.000Z</time>
      </trkpt>
      <trkpt lat="48.9751" lon="2.09417">
        <ele>28.39999961853</ele>
        <time>2014-09-21T11:38:58.000Z</time>
      </trkpt>
      <trkpt lat="48.97508" lon="2.09407">
        <ele>28.200000762939</ele>
        <time>2014-09-21T11:39:04.000Z</time>
      </trkpt>
      <trkpt lat="48.97508" lon="2.09405">
        <ele>28.200000762939</ele>
        <time>2014-09-21T11:39:09.000Z</time>
      </trkpt>
      <trkpt lat="48.97502" lon="2.09392">
        <ele>28.799999237061</ele>
        <time>2014-09-21T11:39:24.000Z</time>
      </trkpt>
      <trkpt lat="48.97502" lon="2.09387">
        <ele>29</ele>
        <time>2014-09-21T11:39:25.000Z</time>
      </trkpt>
      <trkpt lat="48.97499" lon="2.09377">
        <ele>29</ele>
        <time>2014-09-21T11:39:30.000Z</time>
      </trkpt>
      <trkpt lat="48.97499" lon="2.09372">
        <ele>29</ele>
        <time>2014-09-21T11:39:32.000Z</time>
      </trkpt>
      <trkpt lat="48.97498" lon="2.09366">
        <ele>29</ele>
        <time>2014-09-21T11:39:35.000Z</time>
      </trkpt>
      <trkpt lat="48.97496" lon="2.09354">
        <ele>29.200000762939</ele>
        <time>2014-09-21T11:39:41.000Z</time>
      </trkpt>
      <trkpt lat="48.97492" lon="2.09345">
        <ele>29.39999961853</ele>
        <time>2014-09-21T11:39:46.000Z</time>
      </trkpt>
      <trkpt lat="48.97492" lon="2.09339">
        <ele>29.200000762939</ele>
        <time>2014-09-21T11:39:50.000Z</time>
      </trkpt>
      <trkpt lat="48.97488" lon="2.09326">
        <ele>29.39999961853</ele>
        <time>2014-09-21T11:39:57.000Z</time>
      </trkpt>
      <trkpt lat="48.97482" lon="2.09315">
        <ele>30</ele>
        <time>2014-09-21T11:40:03.000Z</time>
      </trkpt>
      <trkpt lat="48.9748" lon="2.09309">
        <ele>30.39999961853</ele>
        <time>2014-09-21T11:40:07.000Z</time>
      </trkpt>
      <trkpt lat="48.97478" lon="2.09297">
        <ele>30.39999961853</ele>
        <time>2014-09-21T11:40:12.000Z</time>
      </trkpt>
      <trkpt lat="48.97475" lon="2.09288">
        <ele>30.799999237061</ele>
        <time>2014-09-21T11:40:17.000Z</time>
      </trkpt>
      <trkpt lat="48.97475" lon="2.09284">
        <ele>30.799999237061</ele>
        <time>2014-09-21T11:40:19.000Z</time>
      </trkpt>
      <trkpt lat="48.97474" lon="2.0928">
        <ele>30.799999237061</ele>
        <time>2014-09-21T11:40:21.000Z</time>
      </trkpt>
      <trkpt lat="48.9747" lon="2.09265">
        <ele>31</ele>
        <time>2014-09-21T11:40:30.000Z</time>
      </trkpt>
      <trkpt lat="48.9747" lon="2.09261">
        <ele>31</ele>
        <time>2014-09-21T11:40:32.000Z</time>
      </trkpt>
      <trkpt lat="48.97469" lon="2.0925">
        <ele>30.799999237061</ele>
        <time>2014-09-21T11:40:38.000Z</time>
      </trkpt>
      <trkpt lat="48.97467" lon="2.09245">
        <ele>31</ele>
        <time>2014-09-21T11:40:44.000Z</time>
      </trkpt>
      <trkpt lat="48.97467" lon="2.09235">
        <ele>30.60000038147</ele>
        <time>2014-09-21T11:40:54.000Z</time>
      </trkpt>
      <trkpt lat="48.97465" lon="2.09222">
        <ele>30.60000038147</ele>
        <time>2014-09-21T11:41:00.000Z</time>
      </trkpt>
      <trkpt lat="48.97461" lon="2.09208">
        <ele>30.799999237061</ele>
        <time>2014-09-21T11:41:07.000Z</time>
      </trkpt>
      <trkpt lat="48.97455" lon="2.09198">
        <ele>31.200000762939</ele>
        <time>2014-09-21T11:41:12.000Z</time>
      </trkpt>
      <trkpt lat="48.97453" lon="2.09195">
        <ele>31.39999961853</ele>
        <time>2014-09-21T11:41:14.000Z</time>
      </trkpt>
      <trkpt lat="48.9745" lon="2.09189">
        <ele>31.60000038147</ele>
        <time>2014-09-21T11:41:18.000Z</time>
      </trkpt>
      <trkpt lat="48.97448" lon="2.09176">
        <ele>31.60000038147</ele>
        <time>2014-09-21T11:41:24.000Z</time>
      </trkpt>
      <trkpt lat="48.97448" lon="2.09173">
        <ele>31.60000038147</ele>
        <time>2014-09-21T11:41:26.000Z</time>
      </trkpt>
      <trkpt lat="48.97444" lon="2.09164">
        <ele>31.799999237061</ele>
        <time>2014-09-21T11:41:32.000Z</time>
      </trkpt>
      <trkpt lat="48.97441" lon="2.09157">
        <ele>32</ele>
        <time>2014-09-21T11:41:36.000Z</time>
      </trkpt>
      <trkpt lat="48.97438" lon="2.09148">
        <ele>32</ele>
        <time>2014-09-21T11:41:42.000Z</time>
      </trkpt>
      <trkpt lat="48.97436" lon="2.09142">
        <ele>32</ele>
        <time>2014-09-21T11:41:46.000Z</time>
      </trkpt>
      <trkpt lat="48.97433" lon="2.09133">
        <ele>32.200000762939</ele>
        <time>2014-09-21T11:41:51.000Z</time>
      </trkpt>
      <trkpt lat="48.97432" lon="2.09126">
        <ele>32.200000762939</ele>
        <time>2014-09-21T11:41:54.000Z</time>
      </trkpt>
      <trkpt lat="48.97429" lon="2.09114">
        <ele>32.200000762939</ele>
        <time>2014-09-21T11:42:01.000Z</time>
      </trkpt>
      <trkpt lat="48.97425" lon="2.09103">
        <ele>32.200000762939</ele>
        <time>2014-09-21T11:42:06.000Z</time>
      </trkpt>
      <trkpt lat="48.97424" lon="2.09097">
        <ele>32.200000762939</ele>
        <time>2014-09-21T11:42:09.000Z</time>
      </trkpt>
      <trkpt lat="48.97417" lon="2.09087">
        <ele>32.599998474121</ele>
        <time>2014-09-21T11:42:16.000Z</time>
      </trkpt>
      <trkpt lat="48.97413" lon="2.09074">
        <ele>32.599998474121</ele>
        <time>2014-09-21T11:42:22.000Z</time>
      </trkpt>
      <trkpt lat="48.97412" lon="2.09067">
        <ele>32.599998474121</ele>
        <time>2014-09-21T11:42:26.000Z</time>
      </trkpt>
      <trkpt lat="48.97414" lon="2.09064">
        <ele>32.400001525879</ele>
        <time>2014-09-21T11:42:31.000Z</time>
      </trkpt>
      <trkpt lat="48.97416" lon="2.09058">
        <ele>32.400001525879</ele>
        <time>2014-09-21T11:42:37.000Z</time>
      </trkpt>
      <trkpt lat="48.97414" lon="2.09054">
        <ele>32.400001525879</ele>
        <time>2014-09-21T11:42:44.000Z</time>
      </trkpt>
      <trkpt lat="48.97414" lon="2.09055">
        <ele>32.400001525879</ele>
        <time>2014-09-21T11:42:47.000Z</time>
      </trkpt>
      <trkpt lat="48.97421" lon="2.09066">
        <ele>32.200000762939</ele>
        <time>2014-09-21T11:43:07.000Z</time>
      </trkpt>
      <trkpt lat="48.97424" lon="2.09071">
        <ele>32</ele>
        <time>2014-09-21T11:43:11.000Z</time>
      </trkpt>
      <trkpt lat="48.97431" lon="2.09072">
        <ele>31.60000038147</ele>
        <time>2014-09-21T11:43:16.000Z</time>
      </trkpt>
      <trkpt lat="48.97433" lon="2.09071">
        <ele>31.39999961853</ele>
        <time>2014-09-21T11:43:18.000Z</time>
      </trkpt>
      <trkpt lat="48.9744" lon="2.09067">
        <ele>31</ele>
        <time>2014-09-21T11:43:25.000Z</time>
      </trkpt>
      <trkpt lat="48.97444" lon="2.09063">
        <ele>30.60000038147</ele>
        <time>2014-09-21T11:43:30.000Z</time>
      </trkpt>
      <trkpt lat="48.97451" lon="2.09059">
        <ele>30.39999961853</ele>
        <time>2014-09-21T11:43:34.000Z</time>
      </trkpt>
      <trkpt lat="48.97454" lon="2.09057">
        <ele>30.200000762939</ele>
        <time>2014-09-21T11:43:36.000Z</time>
      </trkpt>
      <trkpt lat="48.97462" lon="2.09051">
        <ele>29.799999237061</ele>
        <time>2014-09-21T11:43:42.000Z</time>
      </trkpt>
      <trkpt lat="48.97468" lon="2.09048">
        <ele>29.39999961853</ele>
        <time>2014-09-21T11:43:47.000Z</time>
      </trkpt>
      <trkpt lat="48.9747" lon="2.09046">
        <ele>29.200000762939</ele>
        <time>2014-09-21T11:43:49.000Z</time>
      </trkpt>
      <trkpt lat="48.97473" lon="2.09043">
        <ele>29</ele>
        <time>2014-09-21T11:43:53.000Z</time>
      </trkpt>
      <trkpt lat="48.97477" lon="2.09044">
        <ele>28.799999237061</ele>
        <time>2014-09-21T11:43:56.000Z</time>
      </trkpt>
      <trkpt lat="48.97482" lon="2.09045">
        <ele>28.60000038147</ele>
        <time>2014-09-21T11:44:02.000Z</time>
      </trkpt>
      <trkpt lat="48.97487" lon="2.09048">
        <ele>28.39999961853</ele>
        <time>2014-09-21T11:44:07.000Z</time>
      </trkpt>
      <trkpt lat="48.97492" lon="2.09048">
        <ele>28.200000762939</ele>
        <time>2014-09-21T11:44:14.000Z</time>
      </trkpt>
      <trkpt lat="48.97492" lon="2.09048">
        <ele>28.200000762939</ele>
        <time>2014-09-21T11:44:17.000Z</time>
      </trkpt>
      <trkpt lat="48.97613" lon="2.0981">
        <ele>31</ele>
        <time>2014-09-21T13:43:16.000Z</time>
      </trkpt>
      <trkpt lat="48.97606" lon="2.09821">
        <ele>31.200000762939</ele>
        <time>2014-09-21T13:43:17.000Z</time>
      </trkpt>
      <trkpt lat="48.97606" lon="2.09821">
        <ele>31.200000762939</ele>
        <time>2014-09-21T13:43:17.000Z</time>
      </trkpt>
      <trkpt lat="48.97605" lon="2.09826">
        <ele>31</ele>
        <time>2014-09-21T13:43:20.000Z</time>
      </trkpt>
      <trkpt lat="48.97605" lon="2.0983">
        <ele>31.200000762939</ele>
        <time>2014-09-21T13:43:21.000Z</time>
      </trkpt>
      <trkpt lat="48.97601" lon="2.09838">
        <ele>31.200000762939</ele>
        <time>2014-09-21T13:43:27.000Z</time>
      </trkpt>
      <trkpt lat="48.97599" lon="2.09852">
        <ele>31.39999961853</ele>
        <time>2014-09-21T13:43:38.000Z</time>
      </trkpt>
      <trkpt lat="48.97599" lon="2.09853">
        <ele>31.39999961853</ele>
        <time>2014-09-21T13:43:39.000Z</time>
      </trkpt>
      <trkpt lat="48.97599" lon="2.09859">
        <ele>31.39999961853</ele>
        <time>2014-09-21T13:43:41.000Z</time>
      </trkpt>
      <trkpt lat="48.97599" lon="2.09868">
        <ele>31.39999961853</ele>
        <time>2014-09-21T13:43:45.000Z</time>
      </trkpt>
      <trkpt lat="48.97599" lon="2.09875">
        <ele>31.39999961853</ele>
        <time>2014-09-21T13:43:49.000Z</time>
      </trkpt>
      <trkpt lat="48.97597" lon="2.09887">
        <ele>31.39999961853</ele>
        <time>2014-09-21T13:43:56.000Z</time>
      </trkpt>
      <trkpt lat="48.97593" lon="2.09901">
        <ele>31.39999961853</ele>
        <time>2014-09-21T13:44:04.000Z</time>
      </trkpt>
      <trkpt lat="48.97593" lon="2.09905">
        <ele>31.39999961853</ele>
        <time>2014-09-21T13:44:06.000Z</time>
      </trkpt>
      <trkpt lat="48.97598" lon="2.09916">
        <ele>31.39999961853</ele>
        <time>2014-09-21T13:44:12.000Z</time>
      </trkpt>
      <trkpt lat="48.976" lon="2.09928">
        <ele>31.799999237061</ele>
        <time>2014-09-21T13:44:19.000Z</time>
      </trkpt>
      <trkpt lat="48.97599" lon="2.09929">
        <ele>32</ele>
        <time>2014-09-21T13:44:24.000Z</time>
      </trkpt>
      <trkpt lat="48.97595" lon="2.09927">
        <ele>32</ele>
        <time>2014-09-21T13:44:28.000Z</time>
      </trkpt>
      <trkpt lat="48.97592" lon="2.09925">
        <ele>32</ele>
        <time>2014-09-21T13:44:33.000Z</time>
      </trkpt>
      <trkpt lat="48.9759" lon="2.09923">
        <ele>32</ele>
        <time>2014-09-21T13:44:42.000Z</time>
      </trkpt>
      <trkpt lat="48.97591" lon="2.09925">
        <ele>32</ele>
        <time>2014-09-21T13:44:49.000Z</time>
      </trkpt>
      <trkpt lat="48.976" lon="2.09918">
        <ele>31.39999961853</ele>
        <time>2014-09-21T13:45:43.000Z</time>
      </trkpt>
      <trkpt lat="48.97597" lon="2.09915">
        <ele>31.39999961853</ele>
        <time>2014-09-21T13:45:48.000Z</time>
      </trkpt>
      <trkpt lat="48.97592" lon="2.09917">
        <ele>31.60000038147</ele>
        <time>2014-09-21T13:47:20.000Z</time>
      </trkpt>
      <trkpt lat="48.9759" lon="2.0992">
        <ele>31.799999237061</ele>
        <time>2014-09-21T13:47:24.000Z</time>
      </trkpt>
      <trkpt lat="48.97583" lon="2.09929">
        <ele>32.200000762939</ele>
        <time>2014-09-21T13:47:42.000Z</time>
      </trkpt>
      <trkpt lat="48.97578" lon="2.09946">
        <ele>33</ele>
        <time>2014-09-21T13:47:49.000Z</time>
      </trkpt>
      <trkpt lat="48.97573" lon="2.09967">
        <ele>33.599998474121</ele>
        <time>2014-09-21T13:47:57.000Z</time>
      </trkpt>
      <trkpt lat="48.97572" lon="2.09981">
        <ele>33.599998474121</ele>
        <time>2014-09-21T13:48:03.000Z</time>
      </trkpt>
      <trkpt lat="48.97571" lon="2.10001">
        <ele>33.799999237061</ele>
        <time>2014-09-21T13:48:10.000Z</time>
      </trkpt>
      <trkpt lat="48.97567" lon="2.10012">
        <ele>34</ele>
        <time>2014-09-21T13:48:15.000Z</time>
      </trkpt>
      <trkpt lat="48.97563" lon="2.10026">
        <ele>34.200000762939</ele>
        <time>2014-09-21T13:48:21.000Z</time>
      </trkpt>
      <trkpt lat="48.97559" lon="2.10043">
        <ele>34.200000762939</ele>
        <time>2014-09-21T13:48:27.000Z</time>
      </trkpt>
      <trkpt lat="48.97555" lon="2.10056">
        <ele>34</ele>
        <time>2014-09-21T13:48:33.000Z</time>
      </trkpt>
      <trkpt lat="48.97553" lon="2.10064">
        <ele>34</ele>
        <time>2014-09-21T13:48:37.000Z</time>
      </trkpt>
      <trkpt lat="48.97556" lon="2.10066">
        <ele>34.200000762939</ele>
        <time>2014-09-21T13:48:42.000Z</time>
      </trkpt>
      <trkpt lat="48.97564" lon="2.10068">
        <ele>34.400001525879</ele>
        <time>2014-09-21T13:48:47.000Z</time>
      </trkpt>
      <trkpt lat="48.97575" lon="2.10068">
        <ele>34.799999237061</ele>
        <time>2014-09-21T13:48:54.000Z</time>
      </trkpt>
      <trkpt lat="48.97584" lon="2.10071">
        <ele>35.200000762939</ele>
        <time>2014-09-21T13:48:59.000Z</time>
      </trkpt>
      <trkpt lat="48.9759" lon="2.10073">
        <ele>35.400001525879</ele>
        <time>2014-09-21T13:49:02.000Z</time>
      </trkpt>
      <trkpt lat="48.97601" lon="2.10073">
        <ele>35.799999237061</ele>
        <time>2014-09-21T13:49:08.000Z</time>
      </trkpt>
      <trkpt lat="48.97612" lon="2.10074">
        <ele>35.799999237061</ele>
        <time>2014-09-21T13:49:14.000Z</time>
      </trkpt>
      <trkpt lat="48.97622" lon="2.10075">
        <ele>35.599998474121</ele>
        <time>2014-09-21T13:49:20.000Z</time>
      </trkpt>
      <trkpt lat="48.9763" lon="2.10073">
        <ele>35.400001525879</ele>
        <time>2014-09-21T13:49:26.000Z</time>
      </trkpt>
      <trkpt lat="48.97637" lon="2.10075">
        <ele>35.200000762939</ele>
        <time>2014-09-21T13:49:31.000Z</time>
      </trkpt>
      <trkpt lat="48.97646" lon="2.10079">
        <ele>35</ele>
        <time>2014-09-21T13:49:36.000Z</time>
      </trkpt>
      <trkpt lat="48.97656" lon="2.10078">
        <ele>34.799999237061</ele>
        <time>2014-09-21T13:49:43.000Z</time>
      </trkpt>
      <trkpt lat="48.97667" lon="2.10082">
        <ele>34.599998474121</ele>
        <time>2014-09-21T13:49:49.000Z</time>
      </trkpt>
      <trkpt lat="48.97672" lon="2.10083">
        <ele>34.400001525879</ele>
        <time>2014-09-21T13:49:52.000Z</time>
      </trkpt>
      <trkpt lat="48.97682" lon="2.10083">
        <ele>34.200000762939</ele>
        <time>2014-09-21T13:49:59.000Z</time>
      </trkpt>
      <trkpt lat="48.97684" lon="2.10083">
        <ele>34.200000762939</ele>
        <time>2014-09-21T13:50:00.000Z</time>
      </trkpt>
      <trkpt lat="48.97689" lon="2.10083">
        <ele>34</ele>
        <time>2014-09-21T13:50:03.000Z</time>
      </trkpt>
      <trkpt lat="48.97701" lon="2.10085">
        <ele>33.599998474121</ele>
        <time>2014-09-21T13:50:10.000Z</time>
      </trkpt>
      <trkpt lat="48.97714" lon="2.10084">
        <ele>33</ele>
        <time>2014-09-21T13:50:17.000Z</time>
      </trkpt>
      <trkpt lat="48.97725" lon="2.10087">
        <ele>32.599998474121</ele>
        <time>2014-09-21T13:50:23.000Z</time>
      </trkpt>
      <trkpt lat="48.97737" lon="2.10092">
        <ele>32.200000762939</ele>
        <time>2014-09-21T13:50:30.000Z</time>
      </trkpt>
      <trkpt lat="48.97743" lon="2.10098">
        <ele>31.799999237061</ele>
        <time>2014-09-21T13:50:34.000Z</time>
      </trkpt>
      <trkpt lat="48.9774" lon="2.10122">
        <ele>31.799999237061</ele>
        <time>2014-09-21T13:50:42.000Z</time>
      </trkpt>
      <trkpt lat="48.97736" lon="2.10136">
        <ele>31.60000038147</ele>
        <time>2014-09-21T13:50:48.000Z</time>
      </trkpt>
      <trkpt lat="48.97734" lon="2.10151">
        <ele>31.60000038147</ele>
        <time>2014-09-21T13:50:55.000Z</time>
      </trkpt>
      <trkpt lat="48.97731" lon="2.10169">
        <ele>31.39999961853</ele>
        <time>2014-09-21T13:51:01.000Z</time>
      </trkpt>
      <trkpt lat="48.9773" lon="2.10185">
        <ele>31.39999961853</ele>
        <time>2014-09-21T13:51:07.000Z</time>
      </trkpt>
      <trkpt lat="48.9773" lon="2.10201">
        <ele>31.200000762939</ele>
        <time>2014-09-21T13:51:14.000Z</time>
      </trkpt>
      <trkpt lat="48.97727" lon="2.1021">
        <ele>31.200000762939</ele>
        <time>2014-09-21T13:51:19.000Z</time>
      </trkpt>
      <trkpt lat="48.97724" lon="2.10221">
        <ele>31.39999961853</ele>
        <time>2014-09-21T13:51:24.000Z</time>
      </trkpt>
      <trkpt lat="48.97722" lon="2.10235">
        <ele>31.60000038147</ele>
        <time>2014-09-21T13:51:30.000Z</time>
      </trkpt>
      <trkpt lat="48.97722" lon="2.10248">
        <ele>31.39999961853</ele>
        <time>2014-09-21T13:51:36.000Z</time>
      </trkpt>
      <trkpt lat="48.97722" lon="2.10259">
        <ele>31.39999961853</ele>
        <time>2014-09-21T13:51:41.000Z</time>
      </trkpt>
      <trkpt lat="48.97719" lon="2.10274">
        <ele>31.39999961853</ele>
        <time>2014-09-21T13:51:47.000Z</time>
      </trkpt>
      <trkpt lat="48.97714" lon="2.10289">
        <ele>32.200000762939</ele>
        <time>2014-09-21T13:51:53.000Z</time>
      </trkpt>
      <trkpt lat="48.97712" lon="2.10301">
        <ele>32.599998474121</ele>
        <time>2014-09-21T13:51:58.000Z</time>
      </trkpt>
      <trkpt lat="48.9771" lon="2.1031">
        <ele>33</ele>
        <time>2014-09-21T13:52:02.000Z</time>
      </trkpt>
      <trkpt lat="48.97711" lon="2.10317">
        <ele>33.200000762939</ele>
        <time>2014-09-21T13:52:05.000Z</time>
      </trkpt>
      <trkpt lat="48.9771" lon="2.10333">
        <ele>33.599998474121</ele>
        <time>2014-09-21T13:52:12.000Z</time>
      </trkpt>
      <trkpt lat="48.97709" lon="2.1034">
        <ele>33.599998474121</ele>
        <time>2014-09-21T13:52:15.000Z</time>
      </trkpt>
      <trkpt lat="48.97708" lon="2.10351">
        <ele>33.799999237061</ele>
        <time>2014-09-21T13:52:22.000Z</time>
      </trkpt>
      <trkpt lat="48.97707" lon="2.10362">
        <ele>33.599998474121</ele>
        <time>2014-09-21T13:52:27.000Z</time>
      </trkpt>
      <trkpt lat="48.97707" lon="2.10371">
        <ele>33.599998474121</ele>
        <time>2014-09-21T13:52:31.000Z</time>
      </trkpt>
      <trkpt lat="48.97705" lon="2.10386">
        <ele>33.400001525879</ele>
        <time>2014-09-21T13:52:38.000Z</time>
      </trkpt>
      <trkpt lat="48.97702" lon="2.10399">
        <ele>33.400001525879</ele>
        <time>2014-09-21T13:52:44.000Z</time>
      </trkpt>
      <trkpt lat="48.977" lon="2.10408">
        <ele>33.599998474121</ele>
        <time>2014-09-21T13:52:49.000Z</time>
      </trkpt>
      <trkpt lat="48.97698" lon="2.1042">
        <ele>33.799999237061</ele>
        <time>2014-09-21T13:52:55.000Z</time>
      </trkpt>
      <trkpt lat="48.97695" lon="2.10431">
        <ele>33.599998474121</ele>
        <time>2014-09-21T13:53:00.000Z</time>
      </trkpt>
      <trkpt lat="48.97692" lon="2.10451">
        <ele>33.400001525879</ele>
        <time>2014-09-21T13:53:08.000Z</time>
      </trkpt>
      <trkpt lat="48.9769" lon="2.10459">
        <ele>33.400001525879</ele>
        <time>2014-09-21T13:53:12.000Z</time>
      </trkpt>
      <trkpt lat="48.97689" lon="2.10468">
        <ele>33.400001525879</ele>
        <time>2014-09-21T13:53:16.000Z</time>
      </trkpt>
      <trkpt lat="48.97686" lon="2.10483">
        <ele>33.200000762939</ele>
        <time>2014-09-21T13:53:23.000Z</time>
      </trkpt>
      <trkpt lat="48.97682" lon="2.10502">
        <ele>33</ele>
        <time>2014-09-21T13:53:30.000Z</time>
      </trkpt>
      <trkpt lat="48.97679" lon="2.10516">
        <ele>32.599998474121</ele>
        <time>2014-09-21T13:53:36.000Z</time>
      </trkpt>
      <trkpt lat="48.97679" lon="2.10518">
        <ele>32.599998474121</ele>
        <time>2014-09-21T13:53:37.000Z</time>
      </trkpt>
      <trkpt lat="48.97673" lon="2.10531">
        <ele>32.400001525879</ele>
        <time>2014-09-21T13:53:42.000Z</time>
      </trkpt>
      <trkpt lat="48.97671" lon="2.10544">
        <ele>32</ele>
        <time>2014-09-21T13:53:49.000Z</time>
      </trkpt>
      <trkpt lat="48.97668" lon="2.10558">
        <ele>31.799999237061</ele>
        <time>2014-09-21T13:53:55.000Z</time>
      </trkpt>
      <trkpt lat="48.97665" lon="2.10571">
        <ele>32</ele>
        <time>2014-09-21T13:54:00.000Z</time>
      </trkpt>
      <trkpt lat="48.97664" lon="2.10586">
        <ele>31.799999237061</ele>
        <time>2014-09-21T13:54:06.000Z</time>
      </trkpt>
      <trkpt lat="48.97661" lon="2.10599">
        <ele>31.60000038147</ele>
        <time>2014-09-21T13:54:11.000Z</time>
      </trkpt>
      <trkpt lat="48.97657" lon="2.10619">
        <ele>31.200000762939</ele>
        <time>2014-09-21T13:54:18.000Z</time>
      </trkpt>
      <trkpt lat="48.97656" lon="2.10623">
        <ele>31.200000762939</ele>
        <time>2014-09-21T13:54:22.000Z</time>
      </trkpt>
      <trkpt lat="48.97656" lon="2.10625">
        <ele>31.200000762939</ele>
        <time>2014-09-21T13:54:45.000Z</time>
      </trkpt>
      <trkpt lat="48.97657" lon="2.1063">
        <ele>31</ele>
        <time>2014-09-21T13:54:49.000Z</time>
      </trkpt>
      <trkpt lat="48.97654" lon="2.10645">
        <ele>30.799999237061</ele>
        <time>2014-09-21T13:54:56.000Z</time>
      </trkpt>
      <trkpt lat="48.97652" lon="2.10652">
        <ele>30.60000038147</ele>
        <time>2014-09-21T13:55:00.000Z</time>
      </trkpt>
      <trkpt lat="48.97652" lon="2.10651">
        <ele>30.60000038147</ele>
        <time>2014-09-21T13:55:01.000Z</time>
      </trkpt>
      <trkpt lat="48.9765" lon="2.10664">
        <ele>30.39999961853</ele>
        <time>2014-09-21T13:55:20.000Z</time>
      </trkpt>
      <trkpt lat="48.9765" lon="2.10676">
        <ele>30.200000762939</ele>
        <time>2014-09-21T13:55:24.000Z</time>
      </trkpt>
      <trkpt lat="48.97648" lon="2.10693">
        <ele>30.200000762939</ele>
        <time>2014-09-21T13:55:30.000Z</time>
      </trkpt>
      <trkpt lat="48.97646" lon="2.107">
        <ele>30</ele>
        <time>2014-09-21T13:55:33.000Z</time>
      </trkpt>
      <trkpt lat="48.97644" lon="2.10714">
        <ele>29.60000038147</ele>
        <time>2014-09-21T13:55:39.000Z</time>
      </trkpt>
      <trkpt lat="48.97637" lon="2.10735">
        <ele>29</ele>
        <time>2014-09-21T13:55:47.000Z</time>
      </trkpt>
      <trkpt lat="48.97634" lon="2.10749">
        <ele>28.60000038147</ele>
        <time>2014-09-21T13:55:52.000Z</time>
      </trkpt>
      <trkpt lat="48.97631" lon="2.10759">
        <ele>28.799999237061</ele>
        <time>2014-09-21T13:55:56.000Z</time>
      </trkpt>
      <trkpt lat="48.97628" lon="2.10772">
        <ele>28.799999237061</ele>
        <time>2014-09-21T13:56:01.000Z</time>
      </trkpt>
      <trkpt lat="48.97626" lon="2.10786">
        <ele>29</ele>
        <time>2014-09-21T13:56:06.000Z</time>
      </trkpt>
      <trkpt lat="48.97624" lon="2.108">
        <ele>29.200000762939</ele>
        <time>2014-09-21T13:56:12.000Z</time>
      </trkpt>
      <trkpt lat="48.97623" lon="2.10812">
        <ele>29.39999961853</ele>
        <time>2014-09-21T13:56:17.000Z</time>
      </trkpt>
      <trkpt lat="48.97622" lon="2.10823">
        <ele>29.60000038147</ele>
        <time>2014-09-21T13:56:23.000Z</time>
      </trkpt>
      <trkpt lat="48.97622" lon="2.10824">
        <ele>29.60000038147</ele>
        <time>2014-09-21T13:56:26.000Z</time>
      </trkpt>
      <trkpt lat="48.97623" lon="2.10832">
        <ele>29.60000038147</ele>
        <time>2014-09-21T13:56:32.000Z</time>
      </trkpt>
      <trkpt lat="48.97622" lon="2.10839">
        <ele>29.60000038147</ele>
        <time>2014-09-21T13:56:35.000Z</time>
      </trkpt>
      <trkpt lat="48.97619" lon="2.10856">
        <ele>30.200000762939</ele>
        <time>2014-09-21T13:56:43.000Z</time>
      </trkpt>
      <trkpt lat="48.97617" lon="2.10868">
        <ele>30.60000038147</ele>
        <time>2014-09-21T13:56:49.000Z</time>
      </trkpt>
      <trkpt lat="48.97617" lon="2.10882">
        <ele>30.799999237061</ele>
        <time>2014-09-21T13:56:54.000Z</time>
      </trkpt>
      <trkpt lat="48.97619" lon="2.10888">
        <ele>31</ele>
        <time>2014-09-21T13:56:58.000Z</time>
      </trkpt>
      <trkpt lat="48.97614" lon="2.109">
        <ele>31.39999961853</ele>
        <time>2014-09-21T13:57:04.000Z</time>
      </trkpt>
      <trkpt lat="48.97611" lon="2.10919">
        <ele>32</ele>
        <time>2014-09-21T13:57:11.000Z</time>
      </trkpt>
      <trkpt lat="48.97605" lon="2.10938">
        <ele>32.400001525879</ele>
        <time>2014-09-21T13:57:19.000Z</time>
      </trkpt>
      <trkpt lat="48.97605" lon="2.10942">
        <ele>32.400001525879</ele>
        <time>2014-09-21T13:57:22.000Z</time>
      </trkpt>
      <trkpt lat="48.97602" lon="2.1096">
        <ele>32.599998474121</ele>
        <time>2014-09-21T13:57:29.000Z</time>
      </trkpt>
      <trkpt lat="48.97599" lon="2.10981">
        <ele>33</ele>
        <time>2014-09-21T13:57:37.000Z</time>
      </trkpt>
      <trkpt lat="48.97596" lon="2.11002">
        <ele>32.799999237061</ele>
        <time>2014-09-21T13:57:46.000Z</time>
      </trkpt>
      <trkpt lat="48.97594" lon="2.11022">
        <ele>32.599998474121</ele>
        <time>2014-09-21T13:57:53.000Z</time>
      </trkpt>
      <trkpt lat="48.97591" lon="2.11039">
        <ele>32.400001525879</ele>
        <time>2014-09-21T13:58:01.000Z</time>
      </trkpt>
      <trkpt lat="48.97589" lon="2.11054">
        <ele>32.200000762939</ele>
        <time>2014-09-21T13:58:07.000Z</time>
      </trkpt>
      <trkpt lat="48.97583" lon="2.11077">
        <ele>32</ele>
        <time>2014-09-21T13:58:14.000Z</time>
      </trkpt>
      <trkpt lat="48.97579" lon="2.11096">
        <ele>32.200000762939</ele>
        <time>2014-09-21T13:58:21.000Z</time>
      </trkpt>
      <trkpt lat="48.97579" lon="2.11098">
        <ele>32.200000762939</ele>
        <time>2014-09-21T13:58:22.000Z</time>
      </trkpt>
      <trkpt lat="48.97576" lon="2.1111">
        <ele>32.400001525879</ele>
        <time>2014-09-21T13:58:27.000Z</time>
      </trkpt>
      <trkpt lat="48.97574" lon="2.11127">
        <ele>32.599998474121</ele>
        <time>2014-09-21T13:58:33.000Z</time>
      </trkpt>
      <trkpt lat="48.97569" lon="2.11145">
        <ele>32.200000762939</ele>
        <time>2014-09-21T13:58:39.000Z</time>
      </trkpt>
      <trkpt lat="48.97565" lon="2.11163">
        <ele>32</ele>
        <time>2014-09-21T13:58:46.000Z</time>
      </trkpt>
      <trkpt lat="48.97562" lon="2.11181">
        <ele>31.60000038147</ele>
        <time>2014-09-21T13:58:53.000Z</time>
      </trkpt>
      <trkpt lat="48.97557" lon="2.11204">
        <ele>31.60000038147</ele>
        <time>2014-09-21T13:59:01.000Z</time>
      </trkpt>
      <trkpt lat="48.97554" lon="2.11223">
        <ele>31.799999237061</ele>
        <time>2014-09-21T13:59:08.000Z</time>
      </trkpt>
      <trkpt lat="48.9755" lon="2.1124">
        <ele>32</ele>
        <time>2014-09-21T13:59:17.000Z</time>
      </trkpt>
      <trkpt lat="48.9755" lon="2.11257">
        <ele>32</ele>
        <time>2014-09-21T13:59:25.000Z</time>
      </trkpt>
      <trkpt lat="48.97548" lon="2.11272">
        <ele>32</ele>
        <time>2014-09-21T13:59:31.000Z</time>
      </trkpt>
      <trkpt lat="48.97545" lon="2.11291">
        <ele>32</ele>
        <time>2014-09-21T13:59:37.000Z</time>
      </trkpt>
      <trkpt lat="48.9754" lon="2.11307">
        <ele>32</ele>
        <time>2014-09-21T13:59:44.000Z</time>
      </trkpt>
      <trkpt lat="48.97539" lon="2.11317">
        <ele>32</ele>
        <time>2014-09-21T13:59:49.000Z</time>
      </trkpt>
      <trkpt lat="48.97541" lon="2.1133">
        <ele>32</ele>
        <time>2014-09-21T13:59:55.000Z</time>
      </trkpt>
      <trkpt lat="48.97542" lon="2.11345">
        <ele>32.200000762939</ele>
        <time>2014-09-21T14:00:01.000Z</time>
      </trkpt>
      <trkpt lat="48.9754" lon="2.11364">
        <ele>32</ele>
        <time>2014-09-21T14:00:09.000Z</time>
      </trkpt>
      <trkpt lat="48.97539" lon="2.11378">
        <ele>31.799999237061</ele>
        <time>2014-09-21T14:00:14.000Z</time>
      </trkpt>
      <trkpt lat="48.97537" lon="2.11395">
        <ele>31.39999961853</ele>
        <time>2014-09-21T14:00:20.000Z</time>
      </trkpt>
      <trkpt lat="48.97535" lon="2.11407">
        <ele>31.200000762939</ele>
        <time>2014-09-21T14:00:25.000Z</time>
      </trkpt>
      <trkpt lat="48.97536" lon="2.11417">
        <ele>31.39999961853</ele>
        <time>2014-09-21T14:00:29.000Z</time>
      </trkpt>
      <trkpt lat="48.97535" lon="2.11434">
        <ele>31.60000038147</ele>
        <time>2014-09-21T14:00:36.000Z</time>
      </trkpt>
      <trkpt lat="48.97531" lon="2.11451">
        <ele>31.60000038147</ele>
        <time>2014-09-21T14:00:43.000Z</time>
      </trkpt>
      <trkpt lat="48.97528" lon="2.11469">
        <ele>31.799999237061</ele>
        <time>2014-09-21T14:00:50.000Z</time>
      </trkpt>
      <trkpt lat="48.97523" lon="2.11487">
        <ele>32</ele>
        <time>2014-09-21T14:00:56.000Z</time>
      </trkpt>
      <trkpt lat="48.9752" lon="2.11501">
        <ele>32</ele>
        <time>2014-09-21T14:01:02.000Z</time>
      </trkpt>
      <trkpt lat="48.97519" lon="2.11518">
        <ele>32</ele>
        <time>2014-09-21T14:01:09.000Z</time>
      </trkpt>
      <trkpt lat="48.97515" lon="2.11538">
        <ele>31.799999237061</ele>
        <time>2014-09-21T14:01:17.000Z</time>
      </trkpt>
      <trkpt lat="48.97512" lon="2.11559">
        <ele>31.799999237061</ele>
        <time>2014-09-21T14:01:25.000Z</time>
      </trkpt>
      <trkpt lat="48.9751" lon="2.11577">
        <ele>32</ele>
        <time>2014-09-21T14:01:32.000Z</time>
      </trkpt>
      <trkpt lat="48.97507" lon="2.11591">
        <ele>31.799999237061</ele>
        <time>2014-09-21T14:01:38.000Z</time>
      </trkpt>
      <trkpt lat="48.97499" lon="2.1161">
        <ele>31.60000038147</ele>
        <time>2014-09-21T14:01:46.000Z</time>
      </trkpt>
      <trkpt lat="48.97497" lon="2.11616">
        <ele>31.60000038147</ele>
        <time>2014-09-21T14:01:49.000Z</time>
      </trkpt>
      <trkpt lat="48.97494" lon="2.11626">
        <ele>31.39999961853</ele>
        <time>2014-09-21T14:01:54.000Z</time>
      </trkpt>
      <trkpt lat="48.9749" lon="2.11643">
        <ele>31.39999961853</ele>
        <time>2014-09-21T14:02:01.000Z</time>
      </trkpt>
      <trkpt lat="48.97486" lon="2.11661">
        <ele>31.39999961853</ele>
        <time>2014-09-21T14:02:08.000Z</time>
      </trkpt>
      <trkpt lat="48.97485" lon="2.11674">
        <ele>31.39999961853</ele>
        <time>2014-09-21T14:02:13.000Z</time>
      </trkpt>
      <trkpt lat="48.97481" lon="2.11692">
        <ele>31.200000762939</ele>
        <time>2014-09-21T14:02:20.000Z</time>
      </trkpt>
      <trkpt lat="48.97477" lon="2.11709">
        <ele>31</ele>
        <time>2014-09-21T14:02:27.000Z</time>
      </trkpt>
      <trkpt lat="48.97475" lon="2.11723">
        <ele>30.799999237061</ele>
        <time>2014-09-21T14:02:33.000Z</time>
      </trkpt>
      <trkpt lat="48.97472" lon="2.11731">
        <ele>30.799999237061</ele>
        <time>2014-09-21T14:02:37.000Z</time>
      </trkpt>
      <trkpt lat="48.9747" lon="2.11747">
        <ele>30.60000038147</ele>
        <time>2014-09-21T14:02:44.000Z</time>
      </trkpt>
      <trkpt lat="48.97469" lon="2.11758">
        <ele>30.799999237061</ele>
        <time>2014-09-21T14:02:48.000Z</time>
      </trkpt>
      <trkpt lat="48.97466" lon="2.1177">
        <ele>31</ele>
        <time>2014-09-21T14:02:53.000Z</time>
      </trkpt>
      <trkpt lat="48.97462" lon="2.11784">
        <ele>30.799999237061</ele>
        <time>2014-09-21T14:02:59.000Z</time>
      </trkpt>
      <trkpt lat="48.97462" lon="2.11796">
        <ele>30.60000038147</ele>
        <time>2014-09-21T14:03:04.000Z</time>
      </trkpt>
      <trkpt lat="48.97459" lon="2.11813">
        <ele>30.39999961853</ele>
        <time>2014-09-21T14:03:11.000Z</time>
      </trkpt>
      <trkpt lat="48.97457" lon="2.11824">
        <ele>30.200000762939</ele>
        <time>2014-09-21T14:03:16.000Z</time>
      </trkpt>
      <trkpt lat="48.97455" lon="2.11837">
        <ele>30</ele>
        <time>2014-09-21T14:03:21.000Z</time>
      </trkpt>
      <trkpt lat="48.9745" lon="2.11857">
        <ele>30</ele>
        <time>2014-09-21T14:03:29.000Z</time>
      </trkpt>
      <trkpt lat="48.9745" lon="2.11865">
        <ele>30</ele>
        <time>2014-09-21T14:03:33.000Z</time>
      </trkpt>
      <trkpt lat="48.97448" lon="2.11879">
        <ele>30</ele>
        <time>2014-09-21T14:03:39.000Z</time>
      </trkpt>
      <trkpt lat="48.97444" lon="2.11894">
        <ele>30</ele>
        <time>2014-09-21T14:03:45.000Z</time>
      </trkpt>
      <trkpt lat="48.97444" lon="2.11895">
        <ele>30</ele>
        <time>2014-09-21T14:03:48.000Z</time>
      </trkpt>
      <trkpt lat="48.97442" lon="2.11903">
        <ele>30</ele>
        <time>2014-09-21T14:03:58.000Z</time>
      </trkpt>
      <trkpt lat="48.97441" lon="2.11906">
        <ele>30</ele>
        <time>2014-09-21T14:03:59.000Z</time>
      </trkpt>
      <trkpt lat="48.97439" lon="2.11921">
        <ele>30.200000762939</ele>
        <time>2014-09-21T14:04:05.000Z</time>
      </trkpt>
      <trkpt lat="48.97435" lon="2.1194">
        <ele>30.60000038147</ele>
        <time>2014-09-21T14:04:12.000Z</time>
      </trkpt>
      <trkpt lat="48.97435" lon="2.11953">
        <ele>30.60000038147</ele>
        <time>2014-09-21T14:04:18.000Z</time>
      </trkpt>
      <trkpt lat="48.97431" lon="2.11972">
        <ele>31</ele>
        <time>2014-09-21T14:04:26.000Z</time>
      </trkpt>
      <trkpt lat="48.97429" lon="2.1199">
        <ele>31.200000762939</ele>
        <time>2014-09-21T14:04:33.000Z</time>
      </trkpt>
      <trkpt lat="48.9743" lon="2.11998">
        <ele>31.39999961853</ele>
        <time>2014-09-21T14:04:36.000Z</time>
      </trkpt>
      <trkpt lat="48.97426" lon="2.12009">
        <ele>32</ele>
        <time>2014-09-21T14:04:41.000Z</time>
      </trkpt>
      <trkpt lat="48.97424" lon="2.12025">
        <ele>32.799999237061</ele>
        <time>2014-09-21T14:04:48.000Z</time>
      </trkpt>
      <trkpt lat="48.97423" lon="2.12043">
        <ele>33.599998474121</ele>
        <time>2014-09-21T14:04:55.000Z</time>
      </trkpt>
      <trkpt lat="48.97422" lon="2.12055">
        <ele>34.200000762939</ele>
        <time>2014-09-21T14:05:00.000Z</time>
      </trkpt>
      <trkpt lat="48.97422" lon="2.12067">
        <ele>34.599998474121</ele>
        <time>2014-09-21T14:05:05.000Z</time>
      </trkpt>
      <trkpt lat="48.9742" lon="2.12082">
        <ele>34.799999237061</ele>
        <time>2014-09-21T14:05:11.000Z</time>
      </trkpt>
      <trkpt lat="48.97419" lon="2.12093">
        <ele>35.200000762939</ele>
        <time>2014-09-21T14:05:16.000Z</time>
      </trkpt>
      <trkpt lat="48.97416" lon="2.12105">
        <ele>35.400001525879</ele>
        <time>2014-09-21T14:05:21.000Z</time>
      </trkpt>
      <trkpt lat="48.97413" lon="2.12111">
        <ele>35.400001525879</ele>
        <time>2014-09-21T14:05:24.000Z</time>
      </trkpt>
      <trkpt lat="48.97407" lon="2.12109">
        <ele>35.400001525879</ele>
        <time>2014-09-21T14:05:31.000Z</time>
      </trkpt>
      <trkpt lat="48.97405" lon="2.12107">
        <ele>35.200000762939</ele>
        <time>2014-09-21T14:05:37.000Z</time>
      </trkpt>
      <trkpt lat="48.97399" lon="2.12101">
        <ele>35</ele>
        <time>2014-09-21T14:06:06.000Z</time>
      </trkpt>
      <trkpt lat="48.97397" lon="2.12096">
        <ele>35</ele>
        <time>2014-09-21T14:06:15.000Z</time>
      </trkpt>
      <trkpt lat="48.97392" lon="2.12101">
        <ele>35</ele>
        <time>2014-09-21T14:06:23.000Z</time>
      </trkpt>
      <trkpt lat="48.9738" lon="2.12106">
        <ele>35</ele>
        <time>2014-09-21T14:06:28.000Z</time>
      </trkpt>
      <trkpt lat="48.97372" lon="2.12108">
        <ele>35.200000762939</ele>
        <time>2014-09-21T14:06:34.000Z</time>
      </trkpt>
      <trkpt lat="48.9737" lon="2.12107">
        <ele>35</ele>
        <time>2014-09-21T14:06:36.000Z</time>
      </trkpt>
      <trkpt lat="48.97363" lon="2.12107">
        <ele>35</ele>
        <time>2014-09-21T14:06:41.000Z</time>
      </trkpt>
      <trkpt lat="48.97351" lon="2.12104">
        <ele>35</ele>
        <time>2014-09-21T14:06:48.000Z</time>
      </trkpt>
      <trkpt lat="48.97343" lon="2.12097">
        <ele>34.799999237061</ele>
        <time>2014-09-21T14:06:53.000Z</time>
      </trkpt>
      <trkpt lat="48.97332" lon="2.12094">
        <ele>34.599998474121</ele>
        <time>2014-09-21T14:07:00.000Z</time>
      </trkpt>
      <trkpt lat="48.97328" lon="2.12092">
        <ele>34.599998474121</ele>
        <time>2014-09-21T14:07:02.000Z</time>
      </trkpt>
      <trkpt lat="48.97311" lon="2.1209">
        <ele>34.400001525879</ele>
        <time>2014-09-21T14:07:11.000Z</time>
      </trkpt>
      <trkpt lat="48.97305" lon="2.12084">
        <ele>34.200000762939</ele>
        <time>2014-09-21T14:07:15.000Z</time>
      </trkpt>
      <trkpt lat="48.97294" lon="2.12079">
        <ele>34</ele>
        <time>2014-09-21T14:07:22.000Z</time>
      </trkpt>
      <trkpt lat="48.97285" lon="2.12071">
        <ele>33.799999237061</ele>
        <time>2014-09-21T14:07:29.000Z</time>
      </trkpt>
      <trkpt lat="48.97273" lon="2.12072">
        <ele>33.799999237061</ele>
        <time>2014-09-21T14:07:36.000Z</time>
      </trkpt>
      <trkpt lat="48.97263" lon="2.12071">
        <ele>34.400001525879</ele>
        <time>2014-09-21T14:07:42.000Z</time>
      </trkpt>
      <trkpt lat="48.97261" lon="2.12071">
        <ele>34.400001525879</ele>
        <time>2014-09-21T14:07:43.000Z</time>
      </trkpt>
      <trkpt lat="48.97252" lon="2.12067">
        <ele>34.799999237061</ele>
        <time>2014-09-21T14:07:49.000Z</time>
      </trkpt>
      <trkpt lat="48.97244" lon="2.12062">
        <ele>35</ele>
        <time>2014-09-21T14:07:54.000Z</time>
      </trkpt>
      <trkpt lat="48.9724" lon="2.12059">
        <ele>35</ele>
        <time>2014-09-21T14:07:57.000Z</time>
      </trkpt>
      <trkpt lat="48.97237" lon="2.12056">
        <ele>35</ele>
        <time>2014-09-21T14:07:59.000Z</time>
      </trkpt>
      <trkpt lat="48.97228" lon="2.12053">
        <ele>35.400001525879</ele>
        <time>2014-09-21T14:08:05.000Z</time>
      </trkpt>
      <trkpt lat="48.97221" lon="2.12051">
        <ele>35.599998474121</ele>
        <time>2014-09-21T14:08:09.000Z</time>
      </trkpt>
      <trkpt lat="48.97214" lon="2.1205">
        <ele>36</ele>
        <time>2014-09-21T14:08:13.000Z</time>
      </trkpt>
      <trkpt lat="48.97203" lon="2.12048">
        <ele>36.400001525879</ele>
        <time>2014-09-21T14:08:20.000Z</time>
      </trkpt>
      <trkpt lat="48.97193" lon="2.12044">
        <ele>36.799999237061</ele>
        <time>2014-09-21T14:08:26.000Z</time>
      </trkpt>
      <trkpt lat="48.97186" lon="2.12038">
        <ele>36.799999237061</ele>
        <time>2014-09-21T14:08:32.000Z</time>
      </trkpt>
      <trkpt lat="48.97183" lon="2.12036">
        <ele>36.799999237061</ele>
        <time>2014-09-21T14:08:35.000Z</time>
      </trkpt>
      <trkpt lat="48.97181" lon="2.12037">
        <ele>36.799999237061</ele>
        <time>2014-09-21T14:08:39.000Z</time>
      </trkpt>
      <trkpt lat="48.97181" lon="2.12044">
        <ele>37</ele>
        <time>2014-09-21T14:09:47.000Z</time>
      </trkpt>
      <trkpt lat="48.97172" lon="2.12059">
        <ele>37.799999237061</ele>
        <time>2014-09-21T14:09:52.000Z</time>
      </trkpt>
      <trkpt lat="48.97165" lon="2.12072">
        <ele>37.599998474121</ele>
        <time>2014-09-21T14:09:58.000Z</time>
      </trkpt>
      <trkpt lat="48.97153" lon="2.1209">
        <ele>37.599998474121</ele>
        <time>2014-09-21T14:10:06.000Z</time>
      </trkpt>
      <trkpt lat="48.97147" lon="2.12103">
        <ele>37.799999237061</ele>
        <time>2014-09-21T14:10:13.000Z</time>
      </trkpt>
      <trkpt lat="48.97145" lon="2.12116">
        <ele>38</ele>
        <time>2014-09-21T14:10:20.000Z</time>
      </trkpt>
      <trkpt lat="48.9714" lon="2.12124">
        <ele>38</ele>
        <time>2014-09-21T14:10:25.000Z</time>
      </trkpt>
      <trkpt lat="48.97135" lon="2.12132">
        <ele>38</ele>
        <time>2014-09-21T14:10:30.000Z</time>
      </trkpt>
      <trkpt lat="48.97132" lon="2.12137">
        <ele>38</ele>
        <time>2014-09-21T14:10:33.000Z</time>
      </trkpt>
      <trkpt lat="48.9712" lon="2.12151">
        <ele>38</ele>
        <time>2014-09-21T14:10:40.000Z</time>
      </trkpt>
      <trkpt lat="48.97113" lon="2.12159">
        <ele>38</ele>
        <time>2014-09-21T14:10:45.000Z</time>
      </trkpt>
      <trkpt lat="48.97104" lon="2.12175">
        <ele>38</ele>
        <time>2014-09-21T14:10:52.000Z</time>
      </trkpt>
      <trkpt lat="48.97097" lon="2.12184">
        <ele>38</ele>
        <time>2014-09-21T14:10:57.000Z</time>
      </trkpt>
      <trkpt lat="48.97088" lon="2.12199">
        <ele>38</ele>
        <time>2014-09-21T14:11:04.000Z</time>
      </trkpt>
      <trkpt lat="48.97079" lon="2.12216">
        <ele>38</ele>
        <time>2014-09-21T14:11:12.000Z</time>
      </trkpt>
      <trkpt lat="48.97073" lon="2.12222">
        <ele>37.799999237061</ele>
        <time>2014-09-21T14:11:16.000Z</time>
      </trkpt>
      <trkpt lat="48.97072" lon="2.12224">
        <ele>37.799999237061</ele>
        <time>2014-09-21T14:11:17.000Z</time>
      </trkpt>
      <trkpt lat="48.97064" lon="2.12239">
        <ele>37.599998474121</ele>
        <time>2014-09-21T14:11:24.000Z</time>
      </trkpt>
      <trkpt lat="48.97056" lon="2.12257">
        <ele>37.200000762939</ele>
        <time>2014-09-21T14:11:31.000Z</time>
      </trkpt>
      <trkpt lat="48.97052" lon="2.12266">
        <ele>37</ele>
        <time>2014-09-21T14:11:36.000Z</time>
      </trkpt>
      <trkpt lat="48.97044" lon="2.12278">
        <ele>37</ele>
        <time>2014-09-21T14:11:43.000Z</time>
      </trkpt>
      <trkpt lat="48.97038" lon="2.12284">
        <ele>37</ele>
        <time>2014-09-21T14:11:47.000Z</time>
      </trkpt>
      <trkpt lat="48.97032" lon="2.12293">
        <ele>37</ele>
        <time>2014-09-21T14:11:53.000Z</time>
      </trkpt>
      <trkpt lat="48.97023" lon="2.12308">
        <ele>37</ele>
        <time>2014-09-21T14:12:01.000Z</time>
      </trkpt>
      <trkpt lat="48.97017" lon="2.12322">
        <ele>37</ele>
        <time>2014-09-21T14:12:08.000Z</time>
      </trkpt>
      <trkpt lat="48.97009" lon="2.12335">
        <ele>37.200000762939</ele>
        <time>2014-09-21T14:12:15.000Z</time>
      </trkpt>
      <trkpt lat="48.97002" lon="2.12344">
        <ele>37.599998474121</ele>
        <time>2014-09-21T14:12:22.000Z</time>
      </trkpt>
      <trkpt lat="48.9699" lon="2.1236">
        <ele>38.200000762939</ele>
        <time>2014-09-21T14:12:33.000Z</time>
      </trkpt>
      <trkpt lat="48.96984" lon="2.12373">
        <ele>38.599998474121</ele>
        <time>2014-09-21T14:12:39.000Z</time>
      </trkpt>
      <trkpt lat="48.96974" lon="2.12393">
        <ele>38.599998474121</ele>
        <time>2014-09-21T14:12:47.000Z</time>
      </trkpt>
      <trkpt lat="48.96966" lon="2.12406">
        <ele>38.599998474121</ele>
        <time>2014-09-21T14:12:54.000Z</time>
      </trkpt>
      <trkpt lat="48.96963" lon="2.12411">
        <ele>38.599998474121</ele>
        <time>2014-09-21T14:12:56.000Z</time>
      </trkpt>
      <trkpt lat="48.96956" lon="2.12419">
        <ele>38.200000762939</ele>
        <time>2014-09-21T14:13:01.000Z</time>
      </trkpt>
      <trkpt lat="48.96949" lon="2.12431">
        <ele>37.799999237061</ele>
        <time>2014-09-21T14:13:06.000Z</time>
      </trkpt>
      <trkpt lat="48.96943" lon="2.12439">
        <ele>37.599998474121</ele>
        <time>2014-09-21T14:13:11.000Z</time>
      </trkpt>
      <trkpt lat="48.96936" lon="2.12454">
        <ele>37.400001525879</ele>
        <time>2014-09-21T14:13:18.000Z</time>
      </trkpt>
      <trkpt lat="48.96929" lon="2.12467">
        <ele>37.200000762939</ele>
        <time>2014-09-21T14:13:25.000Z</time>
      </trkpt>
      <trkpt lat="48.96922" lon="2.12481">
        <ele>37</ele>
        <time>2014-09-21T14:13:32.000Z</time>
      </trkpt>
      <trkpt lat="48.96915" lon="2.12494">
        <ele>37.400001525879</ele>
        <time>2014-09-21T14:13:39.000Z</time>
      </trkpt>
      <trkpt lat="48.96911" lon="2.12501">
        <ele>37.200000762939</ele>
        <time>2014-09-21T14:13:43.000Z</time>
      </trkpt>
      <trkpt lat="48.96905" lon="2.12513">
        <ele>37.200000762939</ele>
        <time>2014-09-21T14:13:50.000Z</time>
      </trkpt>
      <trkpt lat="48.96898" lon="2.12521">
        <ele>37.200000762939</ele>
        <time>2014-09-21T14:13:55.000Z</time>
      </trkpt>
      <trkpt lat="48.96895" lon="2.12527">
        <ele>37.200000762939</ele>
        <time>2014-09-21T14:14:01.000Z</time>
      </trkpt>
      <trkpt lat="48.96892" lon="2.12533">
        <ele>37.200000762939</ele>
        <time>2014-09-21T14:14:06.000Z</time>
      </trkpt>
      <trkpt lat="48.96881" lon="2.1255">
        <ele>37.799999237061</ele>
        <time>2014-09-21T14:14:16.000Z</time>
      </trkpt>
      <trkpt lat="48.96872" lon="2.12564">
        <ele>38.400001525879</ele>
        <time>2014-09-21T14:14:24.000Z</time>
      </trkpt>
      <trkpt lat="48.96863" lon="2.12579">
        <ele>38.799999237061</ele>
        <time>2014-09-21T14:14:33.000Z</time>
      </trkpt>
      <trkpt lat="48.96857" lon="2.12589">
        <ele>39.200000762939</ele>
        <time>2014-09-21T14:14:39.000Z</time>
      </trkpt>
      <trkpt lat="48.96847" lon="2.12597">
        <ele>39.400001525879</ele>
        <time>2014-09-21T14:14:48.000Z</time>
      </trkpt>
      <trkpt lat="48.96837" lon="2.12603">
        <ele>39.599998474121</ele>
        <time>2014-09-21T14:14:56.000Z</time>
      </trkpt>
      <trkpt lat="48.96825" lon="2.12607">
        <ele>39.799999237061</ele>
        <time>2014-09-21T14:15:03.000Z</time>
      </trkpt>
      <trkpt lat="48.9681" lon="2.12611">
        <ele>40</ele>
        <time>2014-09-21T14:15:13.000Z</time>
      </trkpt>
      <trkpt lat="48.96798" lon="2.12616">
        <ele>40.400001525879</ele>
        <time>2014-09-21T14:15:20.000Z</time>
      </trkpt>
      <trkpt lat="48.96786" lon="2.12618">
        <ele>40.799999237061</ele>
        <time>2014-09-21T14:15:27.000Z</time>
      </trkpt>
      <trkpt lat="48.96777" lon="2.1262">
        <ele>41</ele>
        <time>2014-09-21T14:15:33.000Z</time>
      </trkpt>
      <trkpt lat="48.96774" lon="2.12621">
        <ele>41</ele>
        <time>2014-09-21T14:15:35.000Z</time>
      </trkpt>
      <trkpt lat="48.9677" lon="2.12621">
        <ele>41.200000762939</ele>
        <time>2014-09-21T14:15:39.000Z</time>
      </trkpt>
      <trkpt lat="48.96758" lon="2.12624">
        <ele>41.599998474121</ele>
        <time>2014-09-21T14:15:46.000Z</time>
      </trkpt>
      <trkpt lat="48.9675" lon="2.12626">
        <ele>42</ele>
        <time>2014-09-21T14:15:52.000Z</time>
      </trkpt>
      <trkpt lat="48.9674" lon="2.1263">
        <ele>42.400001525879</ele>
        <time>2014-09-21T14:15:59.000Z</time>
      </trkpt>
      <trkpt lat="48.96729" lon="2.12632">
        <ele>42.599998474121</ele>
        <time>2014-09-21T14:16:06.000Z</time>
      </trkpt>
      <trkpt lat="48.96718" lon="2.12635">
        <ele>42.599998474121</ele>
        <time>2014-09-21T14:16:13.000Z</time>
      </trkpt>
      <trkpt lat="48.9671" lon="2.12637">
        <ele>42.799999237061</ele>
        <time>2014-09-21T14:16:19.000Z</time>
      </trkpt>
      <trkpt lat="48.96697" lon="2.12642">
        <ele>43</ele>
        <time>2014-09-21T14:16:28.000Z</time>
      </trkpt>
      <trkpt lat="48.96687" lon="2.12646">
        <ele>43</ele>
        <time>2014-09-21T14:16:35.000Z</time>
      </trkpt>
      <trkpt lat="48.96671" lon="2.12648">
        <ele>42.799999237061</ele>
        <time>2014-09-21T14:16:44.000Z</time>
      </trkpt>
      <trkpt lat="48.9666" lon="2.1265">
        <ele>42.599998474121</ele>
        <time>2014-09-21T14:16:51.000Z</time>
      </trkpt>
      <trkpt lat="48.96647" lon="2.12652">
        <ele>42.400001525879</ele>
        <time>2014-09-21T14:16:58.000Z</time>
      </trkpt>
      <trkpt lat="48.96636" lon="2.12655">
        <ele>42.400001525879</ele>
        <time>2014-09-21T14:17:05.000Z</time>
      </trkpt>
      <trkpt lat="48.96622" lon="2.12658">
        <ele>42.200000762939</ele>
        <time>2014-09-21T14:17:13.000Z</time>
      </trkpt>
      <trkpt lat="48.96609" lon="2.12661">
        <ele>42</ele>
        <time>2014-09-21T14:17:21.000Z</time>
      </trkpt>
      <trkpt lat="48.96596" lon="2.12665">
        <ele>42.200000762939</ele>
        <time>2014-09-21T14:17:30.000Z</time>
      </trkpt>
      <trkpt lat="48.96584" lon="2.12667">
        <ele>42.599998474121</ele>
        <time>2014-09-21T14:17:37.000Z</time>
      </trkpt>
      <trkpt lat="48.96571" lon="2.12672">
        <ele>42.799999237061</ele>
        <time>2014-09-21T14:17:45.000Z</time>
      </trkpt>
      <trkpt lat="48.96563" lon="2.12674">
        <ele>43</ele>
        <time>2014-09-21T14:17:51.000Z</time>
      </trkpt>
      <trkpt lat="48.96549" lon="2.12677">
        <ele>43.200000762939</ele>
        <time>2014-09-21T14:17:59.000Z</time>
      </trkpt>
      <trkpt lat="48.96539" lon="2.12681">
        <ele>43.200000762939</ele>
        <time>2014-09-21T14:18:06.000Z</time>
      </trkpt>
      <trkpt lat="48.96526" lon="2.12685">
        <ele>42.799999237061</ele>
        <time>2014-09-21T14:18:14.000Z</time>
      </trkpt>
      <trkpt lat="48.96514" lon="2.12688">
        <ele>43.200000762939</ele>
        <time>2014-09-21T14:18:21.000Z</time>
      </trkpt>
      <trkpt lat="48.96504" lon="2.1269">
        <ele>43.799999237061</ele>
        <time>2014-09-21T14:18:27.000Z</time>
      </trkpt>
      <trkpt lat="48.96493" lon="2.12693">
        <ele>44.400001525879</ele>
        <time>2014-09-21T14:18:34.000Z</time>
      </trkpt>
      <trkpt lat="48.96485" lon="2.12695">
        <ele>45</ele>
        <time>2014-09-21T14:18:40.000Z</time>
      </trkpt>
      <trkpt lat="48.96475" lon="2.12698">
        <ele>45.400001525879</ele>
        <time>2014-09-21T14:18:47.000Z</time>
      </trkpt>
      <trkpt lat="48.96462" lon="2.12703">
        <ele>46</ele>
        <time>2014-09-21T14:18:55.000Z</time>
      </trkpt>
      <trkpt lat="48.9646" lon="2.12703">
        <ele>46</ele>
        <time>2014-09-21T14:18:56.000Z</time>
      </trkpt>
      <trkpt lat="48.96453" lon="2.12705">
        <ele>46.400001525879</ele>
        <time>2014-09-21T14:19:01.000Z</time>
      </trkpt>
      <trkpt lat="48.96441" lon="2.12708">
        <ele>46.799999237061</ele>
        <time>2014-09-21T14:19:08.000Z</time>
      </trkpt>
      <trkpt lat="48.96439" lon="2.12709">
        <ele>46.799999237061</ele>
        <time>2014-09-21T14:19:09.000Z</time>
      </trkpt>
      <trkpt lat="48.96429" lon="2.12711">
        <ele>46.799999237061</ele>
        <time>2014-09-21T14:19:15.000Z</time>
      </trkpt>
      <trkpt lat="48.96419" lon="2.12715">
        <ele>46.599998474121</ele>
        <time>2014-09-21T14:19:21.000Z</time>
      </trkpt>
      <trkpt lat="48.96409" lon="2.12719">
        <ele>46.599998474121</ele>
        <time>2014-09-21T14:19:27.000Z</time>
      </trkpt>
      <trkpt lat="48.96396" lon="2.12722">
        <ele>46.799999237061</ele>
        <time>2014-09-21T14:19:35.000Z</time>
      </trkpt>
      <trkpt lat="48.96387" lon="2.12724">
        <ele>46.799999237061</ele>
        <time>2014-09-21T14:19:41.000Z</time>
      </trkpt>
      <trkpt lat="48.96374" lon="2.12727">
        <ele>47</ele>
        <time>2014-09-21T14:19:49.000Z</time>
      </trkpt>
      <trkpt lat="48.96362" lon="2.1273">
        <ele>47.200000762939</ele>
        <time>2014-09-21T14:19:57.000Z</time>
      </trkpt>
      <trkpt lat="48.96354" lon="2.12732">
        <ele>47</ele>
        <time>2014-09-21T14:20:02.000Z</time>
      </trkpt>
      <trkpt lat="48.96351" lon="2.12731">
        <ele>47</ele>
        <time>2014-09-21T14:20:04.000Z</time>
      </trkpt>
      <trkpt lat="48.9634" lon="2.1273">
        <ele>46.799999237061</ele>
        <time>2014-09-21T14:20:11.000Z</time>
      </trkpt>
      <trkpt lat="48.96326" lon="2.12735">
        <ele>46.400001525879</ele>
        <time>2014-09-21T14:20:18.000Z</time>
      </trkpt>
      <trkpt lat="48.96318" lon="2.12737">
        <ele>46.200000762939</ele>
        <time>2014-09-21T14:20:23.000Z</time>
      </trkpt>
      <trkpt lat="48.96305" lon="2.12741">
        <ele>45.799999237061</ele>
        <time>2014-09-21T14:20:31.000Z</time>
      </trkpt>
      <trkpt lat="48.963" lon="2.12743">
        <ele>45.599998474121</ele>
        <time>2014-09-21T14:20:34.000Z</time>
      </trkpt>
      <trkpt lat="48.96291" lon="2.12746">
        <ele>45.400001525879</ele>
        <time>2014-09-21T14:20:41.000Z</time>
      </trkpt>
      <trkpt lat="48.96279" lon="2.12748">
        <ele>45</ele>
        <time>2014-09-21T14:20:48.000Z</time>
      </trkpt>
      <trkpt lat="48.96265" lon="2.12751">
        <ele>44.599998474121</ele>
        <time>2014-09-21T14:20:56.000Z</time>
      </trkpt>
      <trkpt lat="48.96249" lon="2.12757">
        <ele>44</ele>
        <time>2014-09-21T14:21:05.000Z</time>
      </trkpt>
      <trkpt lat="48.96238" lon="2.1276">
        <ele>43.599998474121</ele>
        <time>2014-09-21T14:21:12.000Z</time>
      </trkpt>
      <trkpt lat="48.96229" lon="2.12764">
        <ele>43.400001525879</ele>
        <time>2014-09-21T14:21:18.000Z</time>
      </trkpt>
      <trkpt lat="48.96223" lon="2.12765">
        <ele>43.200000762939</ele>
        <time>2014-09-21T14:21:23.000Z</time>
      </trkpt>
      <trkpt lat="48.96216" lon="2.12764">
        <ele>43</ele>
        <time>2014-09-21T14:21:28.000Z</time>
      </trkpt>
      <trkpt lat="48.96203" lon="2.12769">
        <ele>42.400001525879</ele>
        <time>2014-09-21T14:21:36.000Z</time>
      </trkpt>
      <trkpt lat="48.96201" lon="2.1277">
        <ele>42.400001525879</ele>
        <time>2014-09-21T14:21:37.000Z</time>
      </trkpt>
      <trkpt lat="48.96192" lon="2.12772">
        <ele>42</ele>
        <time>2014-09-21T14:21:41.000Z</time>
      </trkpt>
      <trkpt lat="48.9618" lon="2.12776">
        <ele>42.599998474121</ele>
        <time>2014-09-21T14:21:48.000Z</time>
      </trkpt>
      <trkpt lat="48.96166" lon="2.1278">
        <ele>43.200000762939</ele>
        <time>2014-09-21T14:21:57.000Z</time>
      </trkpt>
      <trkpt lat="48.96156" lon="2.12785">
        <ele>43.599998474121</ele>
        <time>2014-09-21T14:22:04.000Z</time>
      </trkpt>
      <trkpt lat="48.96146" lon="2.12794">
        <ele>44</ele>
        <time>2014-09-21T14:22:10.000Z</time>
      </trkpt>
      <trkpt lat="48.96142" lon="2.12793">
        <ele>44.200000762939</ele>
        <time>2014-09-21T14:22:13.000Z</time>
      </trkpt>
      <trkpt lat="48.96141" lon="2.12785">
        <ele>44.200000762939</ele>
        <time>2014-09-21T14:22:19.000Z</time>
      </trkpt>
      <trkpt lat="48.96142" lon="2.12784">
        <ele>44.200000762939</ele>
        <time>2014-09-21T14:22:23.000Z</time>
      </trkpt>
      <trkpt lat="48.96135" lon="2.12778">
        <ele>44.599998474121</ele>
        <time>2014-09-21T14:24:08.000Z</time>
      </trkpt>
      <trkpt lat="48.96131" lon="2.12776">
        <ele>44.799999237061</ele>
        <time>2014-09-21T14:24:11.000Z</time>
      </trkpt>
      <trkpt lat="48.96128" lon="2.12776">
        <ele>44.799999237061</ele>
        <time>2014-09-21T14:24:14.000Z</time>
      </trkpt>
      <trkpt lat="48.96119" lon="2.12778">
        <ele>45.200000762939</ele>
        <time>2014-09-21T14:24:21.000Z</time>
      </trkpt>
      <trkpt lat="48.96117" lon="2.12777">
        <ele>45.200000762939</ele>
        <time>2014-09-21T14:24:22.000Z</time>
      </trkpt>
      <trkpt lat="48.96107" lon="2.12767">
        <ele>45.799999237061</ele>
        <time>2014-09-21T14:24:31.000Z</time>
      </trkpt>
      <trkpt lat="48.96097" lon="2.12756">
        <ele>45.799999237061</ele>
        <time>2014-09-21T14:24:39.000Z</time>
      </trkpt>
      <trkpt lat="48.96088" lon="2.12748">
        <ele>46</ele>
        <time>2014-09-21T14:24:47.000Z</time>
      </trkpt>
      <trkpt lat="48.96083" lon="2.12741">
        <ele>46</ele>
        <time>2014-09-21T14:24:53.000Z</time>
      </trkpt>
      <trkpt lat="48.96079" lon="2.12734">
        <ele>46</ele>
        <time>2014-09-21T14:25:00.000Z</time>
      </trkpt>
      <trkpt lat="48.96075" lon="2.12727">
        <ele>46</ele>
        <time>2014-09-21T14:25:05.000Z</time>
      </trkpt>
      <trkpt lat="48.96063" lon="2.12714">
        <ele>46</ele>
        <time>2014-09-21T14:25:13.000Z</time>
      </trkpt>
      <trkpt lat="48.96053" lon="2.12708">
        <ele>46</ele>
        <time>2014-09-21T14:25:19.000Z</time>
      </trkpt>
      <trkpt lat="48.96043" lon="2.12704">
        <ele>46</ele>
        <time>2014-09-21T14:25:26.000Z</time>
      </trkpt>
      <trkpt lat="48.96034" lon="2.12698">
        <ele>46</ele>
        <time>2014-09-21T14:25:33.000Z</time>
      </trkpt>
      <trkpt lat="48.96022" lon="2.12688">
        <ele>46</ele>
        <time>2014-09-21T14:25:41.000Z</time>
      </trkpt>
      <trkpt lat="48.96015" lon="2.12679">
        <ele>46</ele>
        <time>2014-09-21T14:25:47.000Z</time>
      </trkpt>
      <trkpt lat="48.96007" lon="2.12671">
        <ele>46</ele>
        <time>2014-09-21T14:25:53.000Z</time>
      </trkpt>
      <trkpt lat="48.96" lon="2.12662">
        <ele>46</ele>
        <time>2014-09-21T14:26:00.000Z</time>
      </trkpt>
      <trkpt lat="48.95992" lon="2.12656">
        <ele>46.200000762939</ele>
        <time>2014-09-21T14:26:06.000Z</time>
      </trkpt>
      <trkpt lat="48.95985" lon="2.12648">
        <ele>46.200000762939</ele>
        <time>2014-09-21T14:26:12.000Z</time>
      </trkpt>
      <trkpt lat="48.95972" lon="2.1264">
        <ele>46.400001525879</ele>
        <time>2014-09-21T14:26:22.000Z</time>
      </trkpt>
      <trkpt lat="48.95966" lon="2.12636">
        <ele>46.599998474121</ele>
        <time>2014-09-21T14:26:28.000Z</time>
      </trkpt>
      <trkpt lat="48.95955" lon="2.12627">
        <ele>46.799999237061</ele>
        <time>2014-09-21T14:26:36.000Z</time>
      </trkpt>
      <trkpt lat="48.95954" lon="2.12627">
        <ele>46.799999237061</ele>
        <time>2014-09-21T14:26:37.000Z</time>
      </trkpt>
      <trkpt lat="48.95951" lon="2.12622">
        <ele>47</ele>
        <time>2014-09-21T14:26:40.000Z</time>
      </trkpt>
      <trkpt lat="48.95945" lon="2.12616">
        <ele>47</ele>
        <time>2014-09-21T14:26:45.000Z</time>
      </trkpt>
      <trkpt lat="48.9594" lon="2.1261">
        <ele>47.200000762939</ele>
        <time>2014-09-21T14:26:49.000Z</time>
      </trkpt>
      <trkpt lat="48.95932" lon="2.12604">
        <ele>47.200000762939</ele>
        <time>2014-09-21T14:26:54.000Z</time>
      </trkpt>
      <trkpt lat="48.95931" lon="2.12603">
        <ele>47.200000762939</ele>
        <time>2014-09-21T14:26:55.000Z</time>
      </trkpt>
      <trkpt lat="48.95924" lon="2.12595">
        <ele>47.200000762939</ele>
        <time>2014-09-21T14:27:01.000Z</time>
      </trkpt>
      <trkpt lat="48.95917" lon="2.1259">
        <ele>47.200000762939</ele>
        <time>2014-09-21T14:27:06.000Z</time>
      </trkpt>
      <trkpt lat="48.95916" lon="2.12589">
        <ele>47.200000762939</ele>
        <time>2014-09-21T14:27:07.000Z</time>
      </trkpt>
      <trkpt lat="48.95906" lon="2.12577">
        <ele>47.200000762939</ele>
        <time>2014-09-21T14:27:15.000Z</time>
      </trkpt>
      <trkpt lat="48.95899" lon="2.12569">
        <ele>46.799999237061</ele>
        <time>2014-09-21T14:27:20.000Z</time>
      </trkpt>
      <trkpt lat="48.95891" lon="2.1256">
        <ele>46.599998474121</ele>
        <time>2014-09-21T14:27:26.000Z</time>
      </trkpt>
      <trkpt lat="48.9588" lon="2.12548">
        <ele>46.200000762939</ele>
        <time>2014-09-21T14:27:34.000Z</time>
      </trkpt>
      <trkpt lat="48.9587" lon="2.12538">
        <ele>45.799999237061</ele>
        <time>2014-09-21T14:27:40.000Z</time>
      </trkpt>
      <trkpt lat="48.95861" lon="2.12528">
        <ele>45.400001525879</ele>
        <time>2014-09-21T14:27:47.000Z</time>
      </trkpt>
      <trkpt lat="48.95851" lon="2.12512">
        <ele>45</ele>
        <time>2014-09-21T14:27:56.000Z</time>
      </trkpt>
      <trkpt lat="48.95843" lon="2.12501">
        <ele>44.799999237061</ele>
        <time>2014-09-21T14:28:03.000Z</time>
      </trkpt>
      <trkpt lat="48.95835" lon="2.12492">
        <ele>44.400001525879</ele>
        <time>2014-09-21T14:28:09.000Z</time>
      </trkpt>
      <trkpt lat="48.95825" lon="2.12484">
        <ele>44.400001525879</ele>
        <time>2014-09-21T14:28:16.000Z</time>
      </trkpt>
      <trkpt lat="48.9582" lon="2.12492">
        <ele>44.200000762939</ele>
        <time>2014-09-21T14:28:22.000Z</time>
      </trkpt>
      <trkpt lat="48.95816" lon="2.12504">
        <ele>44.200000762939</ele>
        <time>2014-09-21T14:28:28.000Z</time>
      </trkpt>
      <trkpt lat="48.95812" lon="2.12511">
        <ele>44.200000762939</ele>
        <time>2014-09-21T14:28:32.000Z</time>
      </trkpt>
      <trkpt lat="48.95805" lon="2.1251">
        <ele>44</ele>
        <time>2014-09-21T14:28:37.000Z</time>
      </trkpt>
      <trkpt lat="48.95797" lon="2.12516">
        <ele>43.799999237061</ele>
        <time>2014-09-21T14:28:44.000Z</time>
      </trkpt>
      <trkpt lat="48.9579" lon="2.12531">
        <ele>43.599998474121</ele>
        <time>2014-09-21T14:28:51.000Z</time>
      </trkpt>
      <trkpt lat="48.95786" lon="2.12542">
        <ele>43.400001525879</ele>
        <time>2014-09-21T14:28:57.000Z</time>
      </trkpt>
      <trkpt lat="48.95783" lon="2.12551">
        <ele>43.400001525879</ele>
        <time>2014-09-21T14:29:02.000Z</time>
      </trkpt>
      <trkpt lat="48.9578" lon="2.12557">
        <ele>43.200000762939</ele>
        <time>2014-09-21T14:29:05.000Z</time>
      </trkpt>
      <trkpt lat="48.95774" lon="2.12571">
        <ele>43</ele>
        <time>2014-09-21T14:29:12.000Z</time>
      </trkpt>
      <trkpt lat="48.95768" lon="2.12591">
        <ele>43.400001525879</ele>
        <time>2014-09-21T14:29:21.000Z</time>
      </trkpt>
      <trkpt lat="48.95763" lon="2.12609">
        <ele>43.599998474121</ele>
        <time>2014-09-21T14:29:29.000Z</time>
      </trkpt>
      <trkpt lat="48.95759" lon="2.12625">
        <ele>44</ele>
        <time>2014-09-21T14:29:35.000Z</time>
      </trkpt>
      <trkpt lat="48.95756" lon="2.12641">
        <ele>44.200000762939</ele>
        <time>2014-09-21T14:29:42.000Z</time>
      </trkpt>
      <trkpt lat="48.95755" lon="2.12647">
        <ele>44</ele>
        <time>2014-09-21T14:29:45.000Z</time>
      </trkpt>
      <trkpt lat="48.95751" lon="2.12656">
        <ele>43.799999237061</ele>
        <time>2014-09-21T14:29:50.000Z</time>
      </trkpt>
      <trkpt lat="48.95749" lon="2.1266">
        <ele>43.799999237061</ele>
        <time>2014-09-21T14:29:52.000Z</time>
      </trkpt>
      <trkpt lat="48.95742" lon="2.12671">
        <ele>43.599998474121</ele>
        <time>2014-09-21T14:29:59.000Z</time>
      </trkpt>
      <trkpt lat="48.95739" lon="2.12678">
        <ele>43.599998474121</ele>
        <time>2014-09-21T14:30:03.000Z</time>
      </trkpt>
      <trkpt lat="48.95737" lon="2.12681">
        <ele>43.599998474121</ele>
        <time>2014-09-21T14:30:05.000Z</time>
      </trkpt>
      <trkpt lat="48.95728" lon="2.12696">
        <ele>43.400001525879</ele>
        <time>2014-09-21T14:30:13.000Z</time>
      </trkpt>
      <trkpt lat="48.95728" lon="2.12697">
        <ele>43.400001525879</ele>
        <time>2014-09-21T14:30:14.000Z</time>
      </trkpt>
      <trkpt lat="48.95724" lon="2.12702">
        <ele>43.400001525879</ele>
        <time>2014-09-21T14:30:19.000Z</time>
      </trkpt>
      <trkpt lat="48.9572" lon="2.12717">
        <ele>43.400001525879</ele>
        <time>2014-09-21T14:30:27.000Z</time>
      </trkpt>
      <trkpt lat="48.95718" lon="2.12727">
        <ele>43.400001525879</ele>
        <time>2014-09-21T14:30:33.000Z</time>
      </trkpt>
      <trkpt lat="48.95718" lon="2.12727">
        <ele>43.400001525879</ele>
        <time>2014-09-21T14:30:34.000Z</time>
      </trkpt>
      <trkpt lat="48.95716" lon="2.12736">
        <ele>43.400001525879</ele>
        <time>2014-09-21T14:30:47.000Z</time>
      </trkpt>
      <trkpt lat="48.95716" lon="2.12738">
        <ele>43.200000762939</ele>
        <time>2014-09-21T14:30:48.000Z</time>
      </trkpt>
      <trkpt lat="48.95715" lon="2.12747">
        <ele>43.400001525879</ele>
        <time>2014-09-21T14:30:51.000Z</time>
      </trkpt>
      <trkpt lat="48.95712" lon="2.12762">
        <ele>43.400001525879</ele>
        <time>2014-09-21T14:30:57.000Z</time>
      </trkpt>
      <trkpt lat="48.9571" lon="2.12769">
        <ele>43.599998474121</ele>
        <time>2014-09-21T14:31:00.000Z</time>
      </trkpt>
      <trkpt lat="48.95705" lon="2.12775">
        <ele>44</ele>
        <time>2014-09-21T14:31:04.000Z</time>
      </trkpt>
      <trkpt lat="48.95697" lon="2.12782">
        <ele>44.400001525879</ele>
        <time>2014-09-21T14:31:12.000Z</time>
      </trkpt>
      <trkpt lat="48.95688" lon="2.12789">
        <ele>44.799999237061</ele>
        <time>2014-09-21T14:31:17.000Z</time>
      </trkpt>
      <trkpt lat="48.95678" lon="2.12793">
        <ele>45.599998474121</ele>
        <time>2014-09-21T14:31:24.000Z</time>
      </trkpt>
      <trkpt lat="48.95671" lon="2.12804">
        <ele>46.599998474121</ele>
        <time>2014-09-21T14:31:31.000Z</time>
      </trkpt>
      <trkpt lat="48.9567" lon="2.12807">
        <ele>46.799999237061</ele>
        <time>2014-09-21T14:31:33.000Z</time>
      </trkpt>
      <trkpt lat="48.95666" lon="2.12818">
        <ele>46.400001525879</ele>
        <time>2014-09-21T14:31:40.000Z</time>
      </trkpt>
      <trkpt lat="48.95664" lon="2.1282">
        <ele>46.200000762939</ele>
        <time>2014-09-21T14:31:42.000Z</time>
      </trkpt>
      <trkpt lat="48.95662" lon="2.12824">
        <ele>46.200000762939</ele>
        <time>2014-09-21T14:31:46.000Z</time>
      </trkpt>
      <trkpt lat="48.95659" lon="2.12828">
        <ele>46</ele>
        <time>2014-09-21T14:31:50.000Z</time>
      </trkpt>
      <trkpt lat="48.95649" lon="2.12842">
        <ele>46.799999237061</ele>
        <time>2014-09-21T14:31:54.000Z</time>
      </trkpt>
      <trkpt lat="48.95635" lon="2.12861">
        <ele>47.200000762939</ele>
        <time>2014-09-21T14:32:01.000Z</time>
      </trkpt>
      <trkpt lat="48.95631" lon="2.12865">
        <ele>47</ele>
        <time>2014-09-21T14:32:04.000Z</time>
      </trkpt>
      <trkpt lat="48.95627" lon="2.12879">
        <ele>46.599998474121</ele>
        <time>2014-09-21T14:32:11.000Z</time>
      </trkpt>
      <trkpt lat="48.95624" lon="2.12889">
        <ele>46.200000762939</ele>
        <time>2014-09-21T14:32:16.000Z</time>
      </trkpt>
      <trkpt lat="48.95622" lon="2.12893">
        <ele>46</ele>
        <time>2014-09-21T14:32:19.000Z</time>
      </trkpt>
      <trkpt lat="48.95615" lon="2.12906">
        <ele>45.400001525879</ele>
        <time>2014-09-21T14:32:26.000Z</time>
      </trkpt>
      <trkpt lat="48.95608" lon="2.12914">
        <ele>45.200000762939</ele>
        <time>2014-09-21T14:32:32.000Z</time>
      </trkpt>
      <trkpt lat="48.95601" lon="2.12927">
        <ele>45.799999237061</ele>
        <time>2014-09-21T14:32:39.000Z</time>
      </trkpt>
      <trkpt lat="48.95593" lon="2.12937">
        <ele>46.799999237061</ele>
        <time>2014-09-21T14:32:47.000Z</time>
      </trkpt>
      <trkpt lat="48.95591" lon="2.12939">
        <ele>46.799999237061</ele>
        <time>2014-09-21T14:32:49.000Z</time>
      </trkpt>
      <trkpt lat="48.95584" lon="2.1295">
        <ele>47.599998474121</ele>
        <time>2014-09-21T14:32:56.000Z</time>
      </trkpt>
      <trkpt lat="48.95578" lon="2.12961">
        <ele>48.400001525879</ele>
        <time>2014-09-21T14:33:03.000Z</time>
      </trkpt>
      <trkpt lat="48.95571" lon="2.12971">
        <ele>48.200000762939</ele>
        <time>2014-09-21T14:33:10.000Z</time>
      </trkpt>
      <trkpt lat="48.95563" lon="2.12984">
        <ele>47.799999237061</ele>
        <time>2014-09-21T14:33:18.000Z</time>
      </trkpt>
      <trkpt lat="48.95557" lon="2.12997">
        <ele>47.599998474121</ele>
        <time>2014-09-21T14:33:24.000Z</time>
      </trkpt>
      <trkpt lat="48.95551" lon="2.1302">
        <ele>47.400001525879</ele>
        <time>2014-09-21T14:33:30.000Z</time>
      </trkpt>
      <trkpt lat="48.95549" lon="2.13025">
        <ele>47.200000762939</ele>
        <time>2014-09-21T14:33:33.000Z</time>
      </trkpt>
      <trkpt lat="48.95542" lon="2.13042">
        <ele>46.400001525879</ele>
        <time>2014-09-21T14:33:41.000Z</time>
      </trkpt>
      <trkpt lat="48.95536" lon="2.1305">
        <ele>46.200000762939</ele>
        <time>2014-09-21T14:33:46.000Z</time>
      </trkpt>
      <trkpt lat="48.9553" lon="2.13062">
        <ele>45.599998474121</ele>
        <time>2014-09-21T14:33:52.000Z</time>
      </trkpt>
      <trkpt lat="48.95526" lon="2.13071">
        <ele>45.200000762939</ele>
        <time>2014-09-21T14:33:58.000Z</time>
      </trkpt>
      <trkpt lat="48.95521" lon="2.13082">
        <ele>45.400001525879</ele>
        <time>2014-09-21T14:34:05.000Z</time>
      </trkpt>
      <trkpt lat="48.95512" lon="2.13097">
        <ele>46.200000762939</ele>
        <time>2014-09-21T14:34:14.000Z</time>
      </trkpt>
      <trkpt lat="48.95504" lon="2.13109">
        <ele>47</ele>
        <time>2014-09-21T14:34:18.000Z</time>
      </trkpt>
      <trkpt lat="48.95501" lon="2.13113">
        <ele>47.200000762939</ele>
        <time>2014-09-21T14:34:20.000Z</time>
      </trkpt>
      <trkpt lat="48.95493" lon="2.1313">
        <ele>48</ele>
        <time>2014-09-21T14:34:26.000Z</time>
      </trkpt>
      <trkpt lat="48.95487" lon="2.13138">
        <ele>47.400001525879</ele>
        <time>2014-09-21T14:34:29.000Z</time>
      </trkpt>
      <trkpt lat="48.95478" lon="2.13152">
        <ele>46.400001525879</ele>
        <time>2014-09-21T14:34:35.000Z</time>
      </trkpt>
      <trkpt lat="48.95471" lon="2.1316">
        <ele>45.799999237061</ele>
        <time>2014-09-21T14:34:41.000Z</time>
      </trkpt>
      <trkpt lat="48.95466" lon="2.13163">
        <ele>45.599998474121</ele>
        <time>2014-09-21T14:34:44.000Z</time>
      </trkpt>
      <trkpt lat="48.95458" lon="2.13169">
        <ele>45.400001525879</ele>
        <time>2014-09-21T14:34:50.000Z</time>
      </trkpt>
      <trkpt lat="48.95451" lon="2.13175">
        <ele>45.200000762939</ele>
        <time>2014-09-21T14:34:57.000Z</time>
      </trkpt>
      <trkpt lat="48.95447" lon="2.13181">
        <ele>45</ele>
        <time>2014-09-21T14:35:05.000Z</time>
      </trkpt>
      <trkpt lat="48.95442" lon="2.13182">
        <ele>45</ele>
        <time>2014-09-21T14:35:13.000Z</time>
      </trkpt>
      <trkpt lat="48.95432" lon="2.13177">
        <ele>45.799999237061</ele>
        <time>2014-09-21T14:35:20.000Z</time>
      </trkpt>
      <trkpt lat="48.95429" lon="2.13175">
        <ele>46</ele>
        <time>2014-09-21T14:35:22.000Z</time>
      </trkpt>
      <trkpt lat="48.9542" lon="2.13166">
        <ele>46.799999237061</ele>
        <time>2014-09-21T14:35:30.000Z</time>
      </trkpt>
      <trkpt lat="48.95411" lon="2.13159">
        <ele>47.599998474121</ele>
        <time>2014-09-21T14:35:37.000Z</time>
      </trkpt>
      <trkpt lat="48.95404" lon="2.13154">
        <ele>48.200000762939</ele>
        <time>2014-09-21T14:35:43.000Z</time>
      </trkpt>
      <trkpt lat="48.95397" lon="2.13148">
        <ele>48.799999237061</ele>
        <time>2014-09-21T14:35:49.000Z</time>
      </trkpt>
      <trkpt lat="48.9539" lon="2.13142">
        <ele>49.599998474121</ele>
        <time>2014-09-21T14:35:55.000Z</time>
      </trkpt>
      <trkpt lat="48.95381" lon="2.13135">
        <ele>50.400001525879</ele>
        <time>2014-09-21T14:36:02.000Z</time>
      </trkpt>
      <trkpt lat="48.95374" lon="2.1313">
        <ele>51</ele>
        <time>2014-09-21T14:36:07.000Z</time>
      </trkpt>
      <trkpt lat="48.95367" lon="2.13126">
        <ele>51.599998474121</ele>
        <time>2014-09-21T14:36:13.000Z</time>
      </trkpt>
      <trkpt lat="48.95365" lon="2.13125">
        <ele>51.799999237061</ele>
        <time>2014-09-21T14:36:14.000Z</time>
      </trkpt>
      <trkpt lat="48.95352" lon="2.13117">
        <ele>52.599998474121</ele>
        <time>2014-09-21T14:36:24.000Z</time>
      </trkpt>
      <trkpt lat="48.95343" lon="2.13107">
        <ele>52.599998474121</ele>
        <time>2014-09-21T14:36:31.000Z</time>
      </trkpt>
      <trkpt lat="48.95334" lon="2.13102">
        <ele>52.799999237061</ele>
        <time>2014-09-21T14:36:37.000Z</time>
      </trkpt>
      <trkpt lat="48.95323" lon="2.1309">
        <ele>52.799999237061</ele>
        <time>2014-09-21T14:36:42.000Z</time>
      </trkpt>
      <trkpt lat="48.95312" lon="2.13078">
        <ele>53</ele>
        <time>2014-09-21T14:36:46.000Z</time>
      </trkpt>
      <trkpt lat="48.95288" lon="2.13061">
        <ele>53.200000762939</ele>
        <time>2014-09-21T14:36:53.000Z</time>
      </trkpt>
      <trkpt lat="48.95274" lon="2.13049">
        <ele>53.400001525879</ele>
        <time>2014-09-21T14:36:57.000Z</time>
      </trkpt>
      <trkpt lat="48.95256" lon="2.13033">
        <ele>53.599998474121</ele>
        <time>2014-09-21T14:37:02.000Z</time>
      </trkpt>
      <trkpt lat="48.95241" lon="2.13021">
        <ele>53.599998474121</ele>
        <time>2014-09-21T14:37:06.000Z</time>
      </trkpt>
      <trkpt lat="48.95218" lon="2.13002">
        <ele>54</ele>
        <time>2014-09-21T14:37:12.000Z</time>
      </trkpt>
      <trkpt lat="48.95211" lon="2.12997">
        <ele>54</ele>
        <time>2014-09-21T14:37:14.000Z</time>
      </trkpt>
      <trkpt lat="48.95185" lon="2.12977">
        <ele>54.200000762939</ele>
        <time>2014-09-21T14:37:21.000Z</time>
      </trkpt>
      <trkpt lat="48.95167" lon="2.1296">
        <ele>54.400001525879</ele>
        <time>2014-09-21T14:37:27.000Z</time>
      </trkpt>
      <trkpt lat="48.9515" lon="2.12948">
        <ele>54.599998474121</ele>
        <time>2014-09-21T14:37:32.000Z</time>
      </trkpt>
      <trkpt lat="48.95136" lon="2.12937">
        <ele>54.599998474121</ele>
        <time>2014-09-21T14:37:36.000Z</time>
      </trkpt>
      <trkpt lat="48.95119" lon="2.12925">
        <ele>54.799999237061</ele>
        <time>2014-09-21T14:37:40.000Z</time>
      </trkpt>
      <trkpt lat="48.95111" lon="2.12917">
        <ele>55</ele>
        <time>2014-09-21T14:37:42.000Z</time>
      </trkpt>
      <trkpt lat="48.95095" lon="2.12905">
        <ele>55.599998474121</ele>
        <time>2014-09-21T14:37:46.000Z</time>
      </trkpt>
      <trkpt lat="48.95078" lon="2.12894">
        <ele>56.200000762939</ele>
        <time>2014-09-21T14:37:50.000Z</time>
      </trkpt>
      <trkpt lat="48.95058" lon="2.12879">
        <ele>57</ele>
        <time>2014-09-21T14:37:54.000Z</time>
      </trkpt>
      <trkpt lat="48.95043" lon="2.12863">
        <ele>57.599998474121</ele>
        <time>2014-09-21T14:37:57.000Z</time>
      </trkpt>
      <trkpt lat="48.95024" lon="2.12849">
        <ele>58.200000762939</ele>
        <time>2014-09-21T14:38:01.000Z</time>
      </trkpt>
      <trkpt lat="48.95" lon="2.1283">
        <ele>59</ele>
        <time>2014-09-21T14:38:07.000Z</time>
      </trkpt>
      <trkpt lat="48.94986" lon="2.12819">
        <ele>59.200000762939</ele>
        <time>2014-09-21T14:38:10.000Z</time>
      </trkpt>
      <trkpt lat="48.94965" lon="2.12801">
        <ele>59.799999237061</ele>
        <time>2014-09-21T14:38:15.000Z</time>
      </trkpt>
      <trkpt lat="48.94945" lon="2.12786">
        <ele>60.400001525879</ele>
        <time>2014-09-21T14:38:20.000Z</time>
      </trkpt>
      <trkpt lat="48.94933" lon="2.12776">
        <ele>60.400001525879</ele>
        <time>2014-09-21T14:38:23.000Z</time>
      </trkpt>
      <trkpt lat="48.94912" lon="2.12759">
        <ele>60.200000762939</ele>
        <time>2014-09-21T14:38:28.000Z</time>
      </trkpt>
      <trkpt lat="48.94896" lon="2.12746">
        <ele>60</ele>
        <time>2014-09-21T14:38:32.000Z</time>
      </trkpt>
      <trkpt lat="48.94877" lon="2.12731">
        <ele>60.400001525879</ele>
        <time>2014-09-21T14:38:37.000Z</time>
      </trkpt>
      <trkpt lat="48.94867" lon="2.12722">
        <ele>60.599998474121</ele>
        <time>2014-09-21T14:38:40.000Z</time>
      </trkpt>
      <trkpt lat="48.94846" lon="2.12704">
        <ele>61</ele>
        <time>2014-09-21T14:38:46.000Z</time>
      </trkpt>
      <trkpt lat="48.9483" lon="2.12692">
        <ele>61.599998474121</ele>
        <time>2014-09-21T14:38:51.000Z</time>
      </trkpt>
      <trkpt lat="48.94811" lon="2.12678">
        <ele>62.200000762939</ele>
        <time>2014-09-21T14:38:56.000Z</time>
      </trkpt>
      <trkpt lat="48.94795" lon="2.12666">
        <ele>62.599998474121</ele>
        <time>2014-09-21T14:39:00.000Z</time>
      </trkpt>
      <trkpt lat="48.9478" lon="2.12654">
        <ele>63</ele>
        <time>2014-09-21T14:39:04.000Z</time>
      </trkpt>
      <trkpt lat="48.94768" lon="2.12644">
        <ele>63.200000762939</ele>
        <time>2014-09-21T14:39:07.000Z</time>
      </trkpt>
      <trkpt lat="48.9475" lon="2.12628">
        <ele>63.400001525879</ele>
        <time>2014-09-21T14:39:12.000Z</time>
      </trkpt>
      <trkpt lat="48.9473" lon="2.12613">
        <ele>63.599998474121</ele>
        <time>2014-09-21T14:39:18.000Z</time>
      </trkpt>
      <trkpt lat="48.94712" lon="2.12601">
        <ele>63.799999237061</ele>
        <time>2014-09-21T14:39:23.000Z</time>
      </trkpt>
      <trkpt lat="48.94683" lon="2.12578">
        <ele>64</ele>
        <time>2014-09-21T14:39:30.000Z</time>
      </trkpt>
      <trkpt lat="48.9466" lon="2.1256">
        <ele>63.200000762939</ele>
        <time>2014-09-21T14:39:36.000Z</time>
      </trkpt>
      <trkpt lat="48.94645" lon="2.1255">
        <ele>62.799999237061</ele>
        <time>2014-09-21T14:39:40.000Z</time>
      </trkpt>
      <trkpt lat="48.94624" lon="2.12529">
        <ele>62</ele>
        <time>2014-09-21T14:39:46.000Z</time>
      </trkpt>
      <trkpt lat="48.94598" lon="2.12505">
        <ele>61.400001525879</ele>
        <time>2014-09-21T14:39:53.000Z</time>
      </trkpt>
      <trkpt lat="48.94595" lon="2.12502">
        <ele>61.400001525879</ele>
        <time>2014-09-21T14:39:54.000Z</time>
      </trkpt>
      <trkpt lat="48.94574" lon="2.12487">
        <ele>61.200000762939</ele>
        <time>2014-09-21T14:39:59.000Z</time>
      </trkpt>
      <trkpt lat="48.94558" lon="2.12474">
        <ele>61</ele>
        <time>2014-09-21T14:40:04.000Z</time>
      </trkpt>
      <trkpt lat="48.94554" lon="2.12472">
        <ele>60.799999237061</ele>
        <time>2014-09-21T14:40:05.000Z</time>
      </trkpt>
      <trkpt lat="48.94546" lon="2.12466">
        <ele>60.799999237061</ele>
        <time>2014-09-21T14:40:07.000Z</time>
      </trkpt>
      <trkpt lat="48.94539" lon="2.1246">
        <ele>60.599998474121</ele>
        <time>2014-09-21T14:40:09.000Z</time>
      </trkpt>
      <trkpt lat="48.94524" lon="2.12447">
        <ele>60.400001525879</ele>
        <time>2014-09-21T14:40:13.000Z</time>
      </trkpt>
      <trkpt lat="48.945" lon="2.12427">
        <ele>59.400001525879</ele>
        <time>2014-09-21T14:40:19.000Z</time>
      </trkpt>
      <trkpt lat="48.94476" lon="2.1241">
        <ele>58.400001525879</ele>
        <time>2014-09-21T14:40:25.000Z</time>
      </trkpt>
      <trkpt lat="48.94452" lon="2.12391">
        <ele>57.799999237061</ele>
        <time>2014-09-21T14:40:30.000Z</time>
      </trkpt>
      <trkpt lat="48.94428" lon="2.1237">
        <ele>57.599998474121</ele>
        <time>2014-09-21T14:40:35.000Z</time>
      </trkpt>
      <trkpt lat="48.94414" lon="2.12359">
        <ele>57.799999237061</ele>
        <time>2014-09-21T14:40:38.000Z</time>
      </trkpt>
      <trkpt lat="48.94384" lon="2.12333">
        <ele>57.799999237061</ele>
        <time>2014-09-21T14:40:45.000Z</time>
      </trkpt>
      <trkpt lat="48.94367" lon="2.12321">
        <ele>57.799999237061</ele>
        <time>2014-09-21T14:40:51.000Z</time>
      </trkpt>
      <trkpt lat="48.94357" lon="2.12313">
        <ele>58</ele>
        <time>2014-09-21T14:40:57.000Z</time>
      </trkpt>
      <trkpt lat="48.94348" lon="2.12307">
        <ele>58</ele>
        <time>2014-09-21T14:41:03.000Z</time>
      </trkpt>
      <trkpt lat="48.9434" lon="2.123">
        <ele>58</ele>
        <time>2014-09-21T14:41:08.000Z</time>
      </trkpt>
      <trkpt lat="48.9433" lon="2.12292">
        <ele>58</ele>
        <time>2014-09-21T14:41:14.000Z</time>
      </trkpt>
      <trkpt lat="48.94322" lon="2.12285">
        <ele>58</ele>
        <time>2014-09-21T14:41:20.000Z</time>
      </trkpt>
      <trkpt lat="48.94314" lon="2.12279">
        <ele>58</ele>
        <time>2014-09-21T14:41:26.000Z</time>
      </trkpt>
      <trkpt lat="48.94302" lon="2.1227">
        <ele>58</ele>
        <time>2014-09-21T14:41:34.000Z</time>
      </trkpt>
      <trkpt lat="48.94294" lon="2.12263">
        <ele>58</ele>
        <time>2014-09-21T14:41:40.000Z</time>
      </trkpt>
      <trkpt lat="48.94287" lon="2.12256">
        <ele>58</ele>
        <time>2014-09-21T14:41:46.000Z</time>
      </trkpt>
      <trkpt lat="48.94275" lon="2.12248">
        <ele>58</ele>
        <time>2014-09-21T14:41:55.000Z</time>
      </trkpt>
      <trkpt lat="48.94265" lon="2.12241">
        <ele>58</ele>
        <time>2014-09-21T14:42:02.000Z</time>
      </trkpt>
      <trkpt lat="48.94258" lon="2.12238">
        <ele>58</ele>
        <time>2014-09-21T14:42:08.000Z</time>
      </trkpt>
      <trkpt lat="48.94249" lon="2.12233">
        <ele>58</ele>
        <time>2014-09-21T14:42:16.000Z</time>
      </trkpt>
      <trkpt lat="48.94241" lon="2.12224">
        <ele>58.400001525879</ele>
        <time>2014-09-21T14:42:23.000Z</time>
      </trkpt>
      <trkpt lat="48.94236" lon="2.12218">
        <ele>58.400001525879</ele>
        <time>2014-09-21T14:42:28.000Z</time>
      </trkpt>
      <trkpt lat="48.94233" lon="2.12212">
        <ele>58.599998474121</ele>
        <time>2014-09-21T14:42:33.000Z</time>
      </trkpt>
      <trkpt lat="48.94233" lon="2.12212">
        <ele>58.599998474121</ele>
        <time>2014-09-21T14:42:35.000Z</time>
      </trkpt>
      <trkpt lat="48.94226" lon="2.1221">
        <ele>58.599998474121</ele>
        <time>2014-09-21T14:42:46.000Z</time>
      </trkpt>
      <trkpt lat="48.94217" lon="2.12205">
        <ele>58.799999237061</ele>
        <time>2014-09-21T14:42:51.000Z</time>
      </trkpt>
      <trkpt lat="48.94208" lon="2.12198">
        <ele>58.799999237061</ele>
        <time>2014-09-21T14:42:57.000Z</time>
      </trkpt>
      <trkpt lat="48.94199" lon="2.12189">
        <ele>59</ele>
        <time>2014-09-21T14:43:02.000Z</time>
      </trkpt>
      <trkpt lat="48.9419" lon="2.12181">
        <ele>59.200000762939</ele>
        <time>2014-09-21T14:43:08.000Z</time>
      </trkpt>
      <trkpt lat="48.94187" lon="2.12178">
        <ele>59.400001525879</ele>
        <time>2014-09-21T14:43:10.000Z</time>
      </trkpt>
      <trkpt lat="48.94176" lon="2.12169">
        <ele>59.599998474121</ele>
        <time>2014-09-21T14:43:18.000Z</time>
      </trkpt>
      <trkpt lat="48.94166" lon="2.12162">
        <ele>59.599998474121</ele>
        <time>2014-09-21T14:43:25.000Z</time>
      </trkpt>
      <trkpt lat="48.94157" lon="2.12154">
        <ele>60</ele>
        <time>2014-09-21T14:43:31.000Z</time>
      </trkpt>
      <trkpt lat="48.94149" lon="2.12147">
        <ele>60.400001525879</ele>
        <time>2014-09-21T14:43:35.000Z</time>
      </trkpt>
      <trkpt lat="48.94139" lon="2.12136">
        <ele>60.799999237061</ele>
        <time>2014-09-21T14:43:41.000Z</time>
      </trkpt>
      <trkpt lat="48.94131" lon="2.12128">
        <ele>61.200000762939</ele>
        <time>2014-09-21T14:43:47.000Z</time>
      </trkpt>
      <trkpt lat="48.94123" lon="2.12123">
        <ele>61.400001525879</ele>
        <time>2014-09-21T14:43:53.000Z</time>
      </trkpt>
      <trkpt lat="48.94116" lon="2.12118">
        <ele>61.599998474121</ele>
        <time>2014-09-21T14:43:57.000Z</time>
      </trkpt>
      <trkpt lat="48.94108" lon="2.12114">
        <ele>61.799999237061</ele>
        <time>2014-09-21T14:44:02.000Z</time>
      </trkpt>
      <trkpt lat="48.94106" lon="2.12112">
        <ele>61.799999237061</ele>
        <time>2014-09-21T14:44:04.000Z</time>
      </trkpt>
      <trkpt lat="48.94099" lon="2.12106">
        <ele>62</ele>
        <time>2014-09-21T14:44:09.000Z</time>
      </trkpt>
      <trkpt lat="48.94088" lon="2.12095">
        <ele>62.200000762939</ele>
        <time>2014-09-21T14:44:17.000Z</time>
      </trkpt>
      <trkpt lat="48.94079" lon="2.12088">
        <ele>62.200000762939</ele>
        <time>2014-09-21T14:44:23.000Z</time>
      </trkpt>
      <trkpt lat="48.9407" lon="2.12081">
        <ele>62.400001525879</ele>
        <time>2014-09-21T14:44:29.000Z</time>
      </trkpt>
      <trkpt lat="48.94061" lon="2.12075">
        <ele>62.400001525879</ele>
        <time>2014-09-21T14:44:35.000Z</time>
      </trkpt>
      <trkpt lat="48.94048" lon="2.12066">
        <ele>61.799999237061</ele>
        <time>2014-09-21T14:44:41.000Z</time>
      </trkpt>
      <trkpt lat="48.94037" lon="2.12056">
        <ele>61.400001525879</ele>
        <time>2014-09-21T14:44:47.000Z</time>
      </trkpt>
      <trkpt lat="48.9403" lon="2.12049">
        <ele>61.200000762939</ele>
        <time>2014-09-21T14:44:52.000Z</time>
      </trkpt>
      <trkpt lat="48.9401" lon="2.12033">
        <ele>60.799999237061</ele>
        <time>2014-09-21T14:45:00.000Z</time>
      </trkpt>
      <trkpt lat="48.93992" lon="2.1202">
        <ele>60.599998474121</ele>
        <time>2014-09-21T14:45:06.000Z</time>
      </trkpt>
      <trkpt lat="48.93972" lon="2.12005">
        <ele>60.400001525879</ele>
        <time>2014-09-21T14:45:12.000Z</time>
      </trkpt>
      <trkpt lat="48.93954" lon="2.11987">
        <ele>60.200000762939</ele>
        <time>2014-09-21T14:45:18.000Z</time>
      </trkpt>
      <trkpt lat="48.93938" lon="2.11974">
        <ele>60</ele>
        <time>2014-09-21T14:45:23.000Z</time>
      </trkpt>
      <trkpt lat="48.93924" lon="2.11964">
        <ele>60.400001525879</ele>
        <time>2014-09-21T14:45:28.000Z</time>
      </trkpt>
      <trkpt lat="48.93903" lon="2.11946">
        <ele>61</ele>
        <time>2014-09-21T14:45:35.000Z</time>
      </trkpt>
      <trkpt lat="48.93899" lon="2.11943">
        <ele>61</ele>
        <time>2014-09-21T14:45:36.000Z</time>
      </trkpt>
      <trkpt lat="48.93883" lon="2.11928">
        <ele>61.400001525879</ele>
        <time>2014-09-21T14:45:41.000Z</time>
      </trkpt>
      <trkpt lat="48.93857" lon="2.11909">
        <ele>62</ele>
        <time>2014-09-21T14:45:48.000Z</time>
      </trkpt>
      <trkpt lat="48.93853" lon="2.11907">
        <ele>62</ele>
        <time>2014-09-21T14:45:49.000Z</time>
      </trkpt>
      <trkpt lat="48.9383" lon="2.11885">
        <ele>61.400001525879</ele>
        <time>2014-09-21T14:45:56.000Z</time>
      </trkpt>
      <trkpt lat="48.93811" lon="2.1188">
        <ele>61.400001525879</ele>
        <time>2014-09-21T14:46:01.000Z</time>
      </trkpt>
      <trkpt lat="48.93792" lon="2.11878">
        <ele>61.599998474121</ele>
        <time>2014-09-21T14:46:07.000Z</time>
      </trkpt>
      <trkpt lat="48.93783" lon="2.11879">
        <ele>61.799999237061</ele>
        <time>2014-09-21T14:46:12.000Z</time>
      </trkpt>
      <trkpt lat="48.93779" lon="2.11879">
        <ele>61.799999237061</ele>
        <time>2014-09-21T14:46:16.000Z</time>
      </trkpt>
      <trkpt lat="48.93779" lon="2.1188">
        <ele>61.799999237061</ele>
        <time>2014-09-21T14:46:19.000Z</time>
      </trkpt>
      <trkpt lat="48.9378" lon="2.11878">
        <ele>61.799999237061</ele>
        <time>2014-09-21T14:46:40.000Z</time>
      </trkpt>
      <trkpt lat="48.93792" lon="2.11879">
        <ele>61.599998474121</ele>
        <time>2014-09-21T14:46:45.000Z</time>
      </trkpt>
      <trkpt lat="48.93805" lon="2.1188">
        <ele>61.599998474121</ele>
        <time>2014-09-21T14:46:51.000Z</time>
      </trkpt>
      <trkpt lat="48.9381" lon="2.11879">
        <ele>61.400001525879</ele>
        <time>2014-09-21T14:46:58.000Z</time>
      </trkpt>
      <trkpt lat="48.93805" lon="2.11882">
        <ele>61.599998474121</ele>
        <time>2014-09-21T14:47:17.000Z</time>
      </trkpt>
      <trkpt lat="48.938" lon="2.11882">
        <ele>61.599998474121</ele>
        <time>2014-09-21T14:47:19.000Z</time>
      </trkpt>
      <trkpt lat="48.93787" lon="2.1188">
        <ele>61.799999237061</ele>
        <time>2014-09-21T14:47:27.000Z</time>
      </trkpt>
      <trkpt lat="48.93772" lon="2.1188">
        <ele>62</ele>
        <time>2014-09-21T14:47:35.000Z</time>
      </trkpt>
      <trkpt lat="48.93757" lon="2.11879">
        <ele>63</ele>
        <time>2014-09-21T14:47:44.000Z</time>
      </trkpt>
      <trkpt lat="48.93746" lon="2.11877">
        <ele>63.799999237061</ele>
        <time>2014-09-21T14:47:51.000Z</time>
      </trkpt>
      <trkpt lat="48.93732" lon="2.11875">
        <ele>64.599998474121</ele>
        <time>2014-09-21T14:47:59.000Z</time>
      </trkpt>
      <trkpt lat="48.93722" lon="2.11874">
        <ele>64.800003051758</ele>
        <time>2014-09-21T14:48:05.000Z</time>
      </trkpt>
      <trkpt lat="48.93709" lon="2.11874">
        <ele>65.400001525879</ele>
        <time>2014-09-21T14:48:13.000Z</time>
      </trkpt>
      <trkpt lat="48.93692" lon="2.11873">
        <ele>66</ele>
        <time>2014-09-21T14:48:23.000Z</time>
      </trkpt>
      <trkpt lat="48.93677" lon="2.1187">
        <ele>66.800003051758</ele>
        <time>2014-09-21T14:48:32.000Z</time>
      </trkpt>
      <trkpt lat="48.93665" lon="2.11869">
        <ele>67.599998474121</ele>
        <time>2014-09-21T14:48:39.000Z</time>
      </trkpt>
      <trkpt lat="48.93654" lon="2.11867">
        <ele>68.199996948242</ele>
        <time>2014-09-21T14:48:46.000Z</time>
      </trkpt>
      <trkpt lat="48.93644" lon="2.11867">
        <ele>68.599998474121</ele>
        <time>2014-09-21T14:48:52.000Z</time>
      </trkpt>
      <trkpt lat="48.93633" lon="2.11867">
        <ele>69</ele>
        <time>2014-09-21T14:48:59.000Z</time>
      </trkpt>
      <trkpt lat="48.93625" lon="2.11859">
        <ele>69.599998474121</ele>
        <time>2014-09-21T14:49:05.000Z</time>
      </trkpt>
      <trkpt lat="48.93619" lon="2.11849">
        <ele>70</ele>
        <time>2014-09-21T14:49:11.000Z</time>
      </trkpt>
      <trkpt lat="48.93612" lon="2.11837">
        <ele>70.599998474121</ele>
        <time>2014-09-21T14:49:18.000Z</time>
      </trkpt>
      <trkpt lat="48.93609" lon="2.11826">
        <ele>71</ele>
        <time>2014-09-21T14:49:23.000Z</time>
      </trkpt>
      <trkpt lat="48.93606" lon="2.11815">
        <ele>71.199996948242</ele>
        <time>2014-09-21T14:49:28.000Z</time>
      </trkpt>
      <trkpt lat="48.93604" lon="2.11804">
        <ele>71.199996948242</ele>
        <time>2014-09-21T14:49:34.000Z</time>
      </trkpt>
      <trkpt lat="48.93602" lon="2.11794">
        <ele>71.400001525879</ele>
        <time>2014-09-21T14:49:39.000Z</time>
      </trkpt>
      <trkpt lat="48.936" lon="2.11787">
        <ele>71.400001525879</ele>
        <time>2014-09-21T14:49:42.000Z</time>
      </trkpt>
      <trkpt lat="48.93594" lon="2.11774">
        <ele>71.400001525879</ele>
        <time>2014-09-21T14:49:48.000Z</time>
      </trkpt>
      <trkpt lat="48.93589" lon="2.11764">
        <ele>71.599998474121</ele>
        <time>2014-09-21T14:49:53.000Z</time>
      </trkpt>
      <trkpt lat="48.93585" lon="2.11747">
        <ele>71.599998474121</ele>
        <time>2014-09-21T14:50:00.000Z</time>
      </trkpt>
      <trkpt lat="48.93583" lon="2.11739">
        <ele>71.800003051758</ele>
        <time>2014-09-21T14:50:04.000Z</time>
      </trkpt>
      <trkpt lat="48.9358" lon="2.11724">
        <ele>72</ele>
        <time>2014-09-21T14:50:11.000Z</time>
      </trkpt>
      <trkpt lat="48.93578" lon="2.11718">
        <ele>72</ele>
        <time>2014-09-21T14:50:14.000Z</time>
      </trkpt>
      <trkpt lat="48.93577" lon="2.11712">
        <ele>72</ele>
        <time>2014-09-21T14:50:16.000Z</time>
      </trkpt>
      <trkpt lat="48.93577" lon="2.11702">
        <ele>72.199996948242</ele>
        <time>2014-09-21T14:50:20.000Z</time>
      </trkpt>
      <trkpt lat="48.93577" lon="2.11694">
        <ele>72.400001525879</ele>
        <time>2014-09-21T14:50:24.000Z</time>
      </trkpt>
      <trkpt lat="48.93578" lon="2.1168">
        <ele>72.800003051758</ele>
        <time>2014-09-21T14:50:31.000Z</time>
      </trkpt>
      <trkpt lat="48.93578" lon="2.11669">
        <ele>73</ele>
        <time>2014-09-21T14:50:36.000Z</time>
      </trkpt>
      <trkpt lat="48.93577" lon="2.11655">
        <ele>73.199996948242</ele>
        <time>2014-09-21T14:50:42.000Z</time>
      </trkpt>
      <trkpt lat="48.93574" lon="2.11639">
        <ele>73.199996948242</ele>
        <time>2014-09-21T14:50:48.000Z</time>
      </trkpt>
      <trkpt lat="48.93567" lon="2.11616">
        <ele>73</ele>
        <time>2014-09-21T14:50:57.000Z</time>
      </trkpt>
      <trkpt lat="48.93564" lon="2.11604">
        <ele>72.599998474121</ele>
        <time>2014-09-21T14:51:02.000Z</time>
      </trkpt>
      <trkpt lat="48.93559" lon="2.11584">
        <ele>72.199996948242</ele>
        <time>2014-09-21T14:51:10.000Z</time>
      </trkpt>
      <trkpt lat="48.93554" lon="2.11572">
        <ele>72</ele>
        <time>2014-09-21T14:51:15.000Z</time>
      </trkpt>
      <trkpt lat="48.93552" lon="2.11565">
        <ele>72.199996948242</ele>
        <time>2014-09-21T14:51:19.000Z</time>
      </trkpt>
      <trkpt lat="48.93548" lon="2.11557">
        <ele>72.199996948242</ele>
        <time>2014-09-21T14:51:23.000Z</time>
      </trkpt>
      <trkpt lat="48.93547" lon="2.11552">
        <ele>72.199996948242</ele>
        <time>2014-09-21T14:51:25.000Z</time>
      </trkpt>
      <trkpt lat="48.93541" lon="2.11544">
        <ele>72.400001525879</ele>
        <time>2014-09-21T14:51:29.000Z</time>
      </trkpt>
      <trkpt lat="48.9354" lon="2.11539">
        <ele>72.400001525879</ele>
        <time>2014-09-21T14:51:31.000Z</time>
      </trkpt>
      <trkpt lat="48.93535" lon="2.1153">
        <ele>72.599998474121</ele>
        <time>2014-09-21T14:51:37.000Z</time>
      </trkpt>
      <trkpt lat="48.93534" lon="2.11529">
        <ele>72.599998474121</ele>
        <time>2014-09-21T14:51:39.000Z</time>
      </trkpt>
      <trkpt lat="48.9353" lon="2.11528">
        <ele>72.599998474121</ele>
        <time>2014-09-21T14:51:47.000Z</time>
      </trkpt>
      <trkpt lat="48.93521" lon="2.11524">
        <ele>72.599998474121</ele>
        <time>2014-09-21T14:51:52.000Z</time>
      </trkpt>
      <trkpt lat="48.93509" lon="2.11523">
        <ele>72.599998474121</ele>
        <time>2014-09-21T14:51:59.000Z</time>
      </trkpt>
      <trkpt lat="48.93498" lon="2.11521">
        <ele>72.599998474121</ele>
        <time>2014-09-21T14:52:06.000Z</time>
      </trkpt>
      <trkpt lat="48.9349" lon="2.11519">
        <ele>72.599998474121</ele>
        <time>2014-09-21T14:52:11.000Z</time>
      </trkpt>
      <trkpt lat="48.93482" lon="2.11518">
        <ele>72.800003051758</ele>
        <time>2014-09-21T14:52:17.000Z</time>
      </trkpt>
      <trkpt lat="48.93472" lon="2.11516">
        <ele>72.800003051758</ele>
        <time>2014-09-21T14:52:24.000Z</time>
      </trkpt>
      <trkpt lat="48.9347" lon="2.11516">
        <ele>72.800003051758</ele>
        <time>2014-09-21T14:52:25.000Z</time>
      </trkpt>
      <trkpt lat="48.93465" lon="2.11517">
        <ele>72.800003051758</ele>
        <time>2014-09-21T14:52:29.000Z</time>
      </trkpt>
      <trkpt lat="48.93457" lon="2.11515">
        <ele>72.800003051758</ele>
        <time>2014-09-21T14:52:34.000Z</time>
      </trkpt>
      <trkpt lat="48.93449" lon="2.11513">
        <ele>73</ele>
        <time>2014-09-21T14:52:40.000Z</time>
      </trkpt>
      <trkpt lat="48.93448" lon="2.11513">
        <ele>73</ele>
        <time>2014-09-21T14:52:41.000Z</time>
      </trkpt>
      <trkpt lat="48.93434" lon="2.11513">
        <ele>73.400001525879</ele>
        <time>2014-09-21T14:52:49.000Z</time>
      </trkpt>
      <trkpt lat="48.93424" lon="2.11513">
        <ele>73.400001525879</ele>
        <time>2014-09-21T14:52:55.000Z</time>
      </trkpt>
      <trkpt lat="48.93414" lon="2.11513">
        <ele>73.599998474121</ele>
        <time>2014-09-21T14:53:01.000Z</time>
      </trkpt>
      <trkpt lat="48.93406" lon="2.11508">
        <ele>73.599998474121</ele>
        <time>2014-09-21T14:53:06.000Z</time>
      </trkpt>
      <trkpt lat="48.93404" lon="2.11508">
        <ele>73.599998474121</ele>
        <time>2014-09-21T14:53:07.000Z</time>
      </trkpt>
      <trkpt lat="48.93397" lon="2.11504">
        <ele>73.599998474121</ele>
        <time>2014-09-21T14:53:12.000Z</time>
      </trkpt>
      <trkpt lat="48.93384" lon="2.115">
        <ele>73.800003051758</ele>
        <time>2014-09-21T14:53:20.000Z</time>
      </trkpt>
      <trkpt lat="48.93372" lon="2.11496">
        <ele>73.800003051758</ele>
        <time>2014-09-21T14:53:27.000Z</time>
      </trkpt>
      <trkpt lat="48.93364" lon="2.11494">
        <ele>74</ele>
        <time>2014-09-21T14:53:32.000Z</time>
      </trkpt>
      <trkpt lat="48.93355" lon="2.11495">
        <ele>74.199996948242</ele>
        <time>2014-09-21T14:53:37.000Z</time>
      </trkpt>
      <trkpt lat="48.93343" lon="2.11494">
        <ele>74.800003051758</ele>
        <time>2014-09-21T14:53:43.000Z</time>
      </trkpt>
      <trkpt lat="48.93339" lon="2.1149">
        <ele>75</ele>
        <time>2014-09-21T14:53:49.000Z</time>
      </trkpt>
      <trkpt lat="48.93336" lon="2.11489">
        <ele>75.199996948242</ele>
        <time>2014-09-21T14:53:51.000Z</time>
      </trkpt>
      <trkpt lat="48.9333" lon="2.11484">
        <ele>75.400001525879</ele>
        <time>2014-09-21T14:53:56.000Z</time>
      </trkpt>
      <trkpt lat="48.93328" lon="2.11479">
        <ele>75.400001525879</ele>
        <time>2014-09-21T14:54:01.000Z</time>
      </trkpt>
      <trkpt lat="48.93328" lon="2.11477">
        <ele>75.400001525879</ele>
        <time>2014-09-21T14:54:04.000Z</time>
      </trkpt>
      <trkpt lat="48.93321" lon="2.11485">
        <ele>76</ele>
        <time>2014-09-21T14:55:22.000Z</time>
      </trkpt>
      <trkpt lat="48.93314" lon="2.11478">
        <ele>76.199996948242</ele>
        <time>2014-09-21T14:55:28.000Z</time>
      </trkpt>
      <trkpt lat="48.93313" lon="2.11477">
        <ele>76.199996948242</ele>
        <time>2014-09-21T14:55:31.000Z</time>
      </trkpt>
      <trkpt lat="48.9331" lon="2.11468">
        <ele>76.199996948242</ele>
        <time>2014-09-21T14:56:59.000Z</time>
      </trkpt>
      <trkpt lat="48.93305" lon="2.11466">
        <ele>76.400001525879</ele>
        <time>2014-09-21T14:57:02.000Z</time>
      </trkpt>
      <trkpt lat="48.93293" lon="2.1146">
        <ele>77</ele>
        <time>2014-09-21T14:57:09.000Z</time>
      </trkpt>
      <trkpt lat="48.93284" lon="2.1145">
        <ele>77.400001525879</ele>
        <time>2014-09-21T14:57:15.000Z</time>
      </trkpt>
      <trkpt lat="48.93275" lon="2.11441">
        <ele>77.599998474121</ele>
        <time>2014-09-21T14:57:22.000Z</time>
      </trkpt>
      <trkpt lat="48.93263" lon="2.11436">
        <ele>77.599998474121</ele>
        <time>2014-09-21T14:57:29.000Z</time>
      </trkpt>
      <trkpt lat="48.93255" lon="2.11431">
        <ele>77.599998474121</ele>
        <time>2014-09-21T14:57:34.000Z</time>
      </trkpt>
      <trkpt lat="48.93244" lon="2.11423">
        <ele>77.400001525879</ele>
        <time>2014-09-21T14:57:42.000Z</time>
      </trkpt>
      <trkpt lat="48.93236" lon="2.11417">
        <ele>77.199996948242</ele>
        <time>2014-09-21T14:57:47.000Z</time>
      </trkpt>
      <trkpt lat="48.93226" lon="2.11409">
        <ele>77</ele>
        <time>2014-09-21T14:57:54.000Z</time>
      </trkpt>
      <trkpt lat="48.93217" lon="2.114">
        <ele>77</ele>
        <time>2014-09-21T14:58:01.000Z</time>
      </trkpt>
      <trkpt lat="48.9321" lon="2.11392">
        <ele>77</ele>
        <time>2014-09-21T14:58:07.000Z</time>
      </trkpt>
      <trkpt lat="48.93201" lon="2.11385">
        <ele>77</ele>
        <time>2014-09-21T14:58:13.000Z</time>
      </trkpt>
      <trkpt lat="48.93191" lon="2.11378">
        <ele>77</ele>
        <time>2014-09-21T14:58:20.000Z</time>
      </trkpt>
      <trkpt lat="48.93179" lon="2.11367">
        <ele>77.199996948242</ele>
        <time>2014-09-21T14:58:28.000Z</time>
      </trkpt>
      <trkpt lat="48.93169" lon="2.1136">
        <ele>77.199996948242</ele>
        <time>2014-09-21T14:58:34.000Z</time>
      </trkpt>
      <trkpt lat="48.93159" lon="2.11356">
        <ele>77.400001525879</ele>
        <time>2014-09-21T14:58:40.000Z</time>
      </trkpt>
      <trkpt lat="48.93148" lon="2.11347">
        <ele>77.599998474121</ele>
        <time>2014-09-21T14:58:45.000Z</time>
      </trkpt>
      <trkpt lat="48.93135" lon="2.11338">
        <ele>77.599998474121</ele>
        <time>2014-09-21T14:58:50.000Z</time>
      </trkpt>
      <trkpt lat="48.93131" lon="2.11334">
        <ele>77.800003051758</ele>
        <time>2014-09-21T14:58:53.000Z</time>
      </trkpt>
      <trkpt lat="48.9312" lon="2.11325">
        <ele>77.800003051758</ele>
        <time>2014-09-21T14:58:59.000Z</time>
      </trkpt>
      <trkpt lat="48.93112" lon="2.11317">
        <ele>77.800003051758</ele>
        <time>2014-09-21T14:59:05.000Z</time>
      </trkpt>
      <trkpt lat="48.93107" lon="2.11311">
        <ele>77.800003051758</ele>
        <time>2014-09-21T14:59:10.000Z</time>
      </trkpt>
      <trkpt lat="48.93105" lon="2.11311">
        <ele>77.800003051758</ele>
        <time>2014-09-21T14:59:13.000Z</time>
      </trkpt>
      <trkpt lat="48.93112" lon="2.11313">
        <ele>77.800003051758</ele>
        <time>2014-09-21T14:59:41.000Z</time>
      </trkpt>
      <trkpt lat="48.93116" lon="2.11318">
        <ele>77.800003051758</ele>
        <time>2014-09-21T14:59:45.000Z</time>
      </trkpt>
      <trkpt lat="48.93117" lon="2.11319">
        <ele>77.800003051758</ele>
        <time>2014-09-21T14:59:46.000Z</time>
      </trkpt>
      <trkpt lat="48.93121" lon="2.11329">
        <ele>77.800003051758</ele>
        <time>2014-09-21T14:59:51.000Z</time>
      </trkpt>
      <trkpt lat="48.93123" lon="2.1134">
        <ele>77.800003051758</ele>
        <time>2014-09-21T14:59:56.000Z</time>
      </trkpt>
      <trkpt lat="48.93119" lon="2.11353">
        <ele>77.599998474121</ele>
        <time>2014-09-21T15:00:02.000Z</time>
      </trkpt>
      <trkpt lat="48.93115" lon="2.1136">
        <ele>77.599998474121</ele>
        <time>2014-09-21T15:00:06.000Z</time>
      </trkpt>
      <trkpt lat="48.9311" lon="2.11376">
        <ele>77.400001525879</ele>
        <time>2014-09-21T15:00:13.000Z</time>
      </trkpt>
      <trkpt lat="48.93104" lon="2.1139">
        <ele>77.199996948242</ele>
        <time>2014-09-21T15:00:20.000Z</time>
      </trkpt>
      <trkpt lat="48.93104" lon="2.11392">
        <ele>77.199996948242</ele>
        <time>2014-09-21T15:00:21.000Z</time>
      </trkpt>
      <trkpt lat="48.93101" lon="2.11402">
        <ele>77</ele>
        <time>2014-09-21T15:00:25.000Z</time>
      </trkpt>
      <trkpt lat="48.93094" lon="2.11421">
        <ele>76.800003051758</ele>
        <time>2014-09-21T15:00:34.000Z</time>
      </trkpt>
      <trkpt lat="48.93089" lon="2.11433">
        <ele>76.800003051758</ele>
        <time>2014-09-21T15:00:39.000Z</time>
      </trkpt>
      <trkpt lat="48.93088" lon="2.11438">
        <ele>76.599998474121</ele>
        <time>2014-09-21T15:00:41.000Z</time>
      </trkpt>
      <trkpt lat="48.93083" lon="2.11451">
        <ele>76.599998474121</ele>
        <time>2014-09-21T15:00:48.000Z</time>
      </trkpt>
      <trkpt lat="48.93073" lon="2.11456">
        <ele>76.400001525879</ele>
        <time>2014-09-21T15:00:54.000Z</time>
      </trkpt>
      <trkpt lat="48.93065" lon="2.11459">
        <ele>76.599998474121</ele>
        <time>2014-09-21T15:00:58.000Z</time>
      </trkpt>
      <trkpt lat="48.93057" lon="2.11459">
        <ele>76.599998474121</ele>
        <time>2014-09-21T15:01:03.000Z</time>
      </trkpt>
      <trkpt lat="48.9305" lon="2.11459">
        <ele>76.599998474121</ele>
        <time>2014-09-21T15:01:08.000Z</time>
      </trkpt>
      <trkpt lat="48.93048" lon="2.11457">
        <ele>76.800003051758</ele>
        <time>2014-09-21T15:01:14.000Z</time>
      </trkpt>
      <trkpt lat="48.93049" lon="2.11456">
        <ele>76.800003051758</ele>
        <time>2014-09-21T15:01:15.000Z</time>
      </trkpt>
      <trkpt lat="48.93055" lon="2.11454">
        <ele>76.599998474121</ele>
        <time>2014-09-21T15:04:10.000Z</time>
      </trkpt>
      <trkpt lat="48.93055" lon="2.11454">
        <ele>76.599998474121</ele>
        <time>2014-09-21T15:04:11.000Z</time>
      </trkpt>
      <trkpt lat="48.93067" lon="2.11453">
        <ele>76.400001525879</ele>
        <time>2014-09-21T15:05:06.000Z</time>
      </trkpt>
      <trkpt lat="48.93072" lon="2.11456">
        <ele>76.400001525879</ele>
        <time>2014-09-21T15:05:09.000Z</time>
      </trkpt>
      <trkpt lat="48.93081" lon="2.11457">
        <ele>76.400001525879</ele>
        <time>2014-09-21T15:05:16.000Z</time>
      </trkpt>
      <trkpt lat="48.9309" lon="2.11459">
        <ele>76.400001525879</ele>
        <time>2014-09-21T15:05:22.000Z</time>
      </trkpt>
      <trkpt lat="48.93099" lon="2.1146">
        <ele>76.400001525879</ele>
        <time>2014-09-21T15:05:28.000Z</time>
      </trkpt>
      <trkpt lat="48.93102" lon="2.1146">
        <ele>76.400001525879</ele>
        <time>2014-09-21T15:05:30.000Z</time>
      </trkpt>
      <trkpt lat="48.93105" lon="2.11468">
        <ele>76.400001525879</ele>
        <time>2014-09-21T15:05:35.000Z</time>
      </trkpt>
      <trkpt lat="48.93103" lon="2.11478">
        <ele>76.199996948242</ele>
        <time>2014-09-21T15:05:39.000Z</time>
      </trkpt>
      <trkpt lat="48.93103" lon="2.11489">
        <ele>76</ele>
        <time>2014-09-21T15:05:44.000Z</time>
      </trkpt>
      <trkpt lat="48.93098" lon="2.11502">
        <ele>76.199996948242</ele>
        <time>2014-09-21T15:05:51.000Z</time>
      </trkpt>
      <trkpt lat="48.93095" lon="2.11513">
        <ele>76.199996948242</ele>
        <time>2014-09-21T15:05:56.000Z</time>
      </trkpt>
      <trkpt lat="48.93089" lon="2.11528">
        <ele>76.199996948242</ele>
        <time>2014-09-21T15:06:05.000Z</time>
      </trkpt>
      <trkpt lat="48.93083" lon="2.11542">
        <ele>76.199996948242</ele>
        <time>2014-09-21T15:06:13.000Z</time>
      </trkpt>
      <trkpt lat="48.93083" lon="2.1155">
        <ele>76.199996948242</ele>
        <time>2014-09-21T15:06:17.000Z</time>
      </trkpt>
      <trkpt lat="48.9308" lon="2.11557">
        <ele>76.400001525879</ele>
        <time>2014-09-21T15:06:23.000Z</time>
      </trkpt>
      <trkpt lat="48.93081" lon="2.11572">
        <ele>76.599998474121</ele>
        <time>2014-09-21T15:06:30.000Z</time>
      </trkpt>
      <trkpt lat="48.93084" lon="2.11581">
        <ele>76.599998474121</ele>
        <time>2014-09-21T15:06:35.000Z</time>
      </trkpt>
      <trkpt lat="48.93085" lon="2.1159">
        <ele>76.599998474121</ele>
        <time>2014-09-21T15:06:40.000Z</time>
      </trkpt>
      <trkpt lat="48.93089" lon="2.11609">
        <ele>76.400001525879</ele>
        <time>2014-09-21T15:06:47.000Z</time>
      </trkpt>
      <trkpt lat="48.93094" lon="2.11628">
        <ele>76.400001525879</ele>
        <time>2014-09-21T15:06:55.000Z</time>
      </trkpt>
      <trkpt lat="48.93094" lon="2.11638">
        <ele>76.400001525879</ele>
        <time>2014-09-21T15:06:59.000Z</time>
      </trkpt>
      <trkpt lat="48.93096" lon="2.11653">
        <ele>76.199996948242</ele>
        <time>2014-09-21T15:07:07.000Z</time>
      </trkpt>
      <trkpt lat="48.93097" lon="2.11669">
        <ele>75.800003051758</ele>
        <time>2014-09-21T15:07:14.000Z</time>
      </trkpt>
      <trkpt lat="48.93099" lon="2.11683">
        <ele>75.400001525879</ele>
        <time>2014-09-21T15:07:21.000Z</time>
      </trkpt>
      <trkpt lat="48.93103" lon="2.11695">
        <ele>75.199996948242</ele>
        <time>2014-09-21T15:07:27.000Z</time>
      </trkpt>
      <trkpt lat="48.93108" lon="2.11715">
        <ele>74.800003051758</ele>
        <time>2014-09-21T15:07:35.000Z</time>
      </trkpt>
      <trkpt lat="48.93111" lon="2.11729">
        <ele>74.400001525879</ele>
        <time>2014-09-21T15:07:41.000Z</time>
      </trkpt>
      <trkpt lat="48.93109" lon="2.11733">
        <ele>74.199996948242</ele>
        <time>2014-09-21T15:07:46.000Z</time>
      </trkpt>
      <trkpt lat="48.93109" lon="2.11735">
        <ele>74.199996948242</ele>
        <time>2014-09-21T15:07:47.000Z</time>
      </trkpt>
      <trkpt lat="48.9311" lon="2.11744">
        <ele>74</ele>
        <time>2014-09-21T15:07:52.000Z</time>
      </trkpt>
      <trkpt lat="48.93112" lon="2.11755">
        <ele>74</ele>
        <time>2014-09-21T15:07:56.000Z</time>
      </trkpt>
      <trkpt lat="48.93113" lon="2.11762">
        <ele>74</ele>
        <time>2014-09-21T15:07:59.000Z</time>
      </trkpt>
      <trkpt lat="48.93116" lon="2.1178">
        <ele>74.199996948242</ele>
        <time>2014-09-21T15:08:06.000Z</time>
      </trkpt>
      <trkpt lat="48.9312" lon="2.11798">
        <ele>74.199996948242</ele>
        <time>2014-09-21T15:08:13.000Z</time>
      </trkpt>
      <trkpt lat="48.93123" lon="2.11814">
        <ele>74.199996948242</ele>
        <time>2014-09-21T15:08:21.000Z</time>
      </trkpt>
      <trkpt lat="48.93123" lon="2.11814">
        <ele>74.199996948242</ele>
        <time>2014-09-21T15:08:23.000Z</time>
      </trkpt>
      <trkpt lat="48.93117" lon="2.1182">
        <ele>74.199996948242</ele>
        <time>2014-09-21T15:08:53.000Z</time>
      </trkpt>
      <trkpt lat="48.93104" lon="2.11818">
        <ele>74</ele>
        <time>2014-09-21T15:09:00.000Z</time>
      </trkpt>
      <trkpt lat="48.93094" lon="2.11816">
        <ele>74.199996948242</ele>
        <time>2014-09-21T15:09:06.000Z</time>
      </trkpt>
      <trkpt lat="48.93081" lon="2.11814">
        <ele>74.400001525879</ele>
        <time>2014-09-21T15:09:14.000Z</time>
      </trkpt>
      <trkpt lat="48.93072" lon="2.11811">
        <ele>74.400001525879</ele>
        <time>2014-09-21T15:09:20.000Z</time>
      </trkpt>
      <trkpt lat="48.93063" lon="2.11807">
        <ele>74.599998474121</ele>
        <time>2014-09-21T15:09:26.000Z</time>
      </trkpt>
      <trkpt lat="48.93053" lon="2.11806">
        <ele>74.599998474121</ele>
        <time>2014-09-21T15:09:32.000Z</time>
      </trkpt>
      <trkpt lat="48.93044" lon="2.118">
        <ele>74.800003051758</ele>
        <time>2014-09-21T15:09:39.000Z</time>
      </trkpt>
      <trkpt lat="48.93038" lon="2.11795">
        <ele>74.800003051758</ele>
        <time>2014-09-21T15:09:45.000Z</time>
      </trkpt>
      <trkpt lat="48.9303" lon="2.11788">
        <ele>75</ele>
        <time>2014-09-21T15:09:52.000Z</time>
      </trkpt>
      <trkpt lat="48.93024" lon="2.11781">
        <ele>75</ele>
        <time>2014-09-21T15:09:59.000Z</time>
      </trkpt>
      <trkpt lat="48.93015" lon="2.11772">
        <ele>75.199996948242</ele>
        <time>2014-09-21T15:10:06.000Z</time>
      </trkpt>
      <trkpt lat="48.93006" lon="2.11762">
        <ele>75.199996948242</ele>
        <time>2014-09-21T15:10:14.000Z</time>
      </trkpt>
      <trkpt lat="48.92998" lon="2.11754">
        <ele>75.400001525879</ele>
        <time>2014-09-21T15:10:21.000Z</time>
      </trkpt>
      <trkpt lat="48.92993" lon="2.11747">
        <ele>75.400001525879</ele>
        <time>2014-09-21T15:10:25.000Z</time>
      </trkpt>
      <trkpt lat="48.92977" lon="2.11727">
        <ele>75.800003051758</ele>
        <time>2014-09-21T15:10:33.000Z</time>
      </trkpt>
      <trkpt lat="48.92969" lon="2.11717">
        <ele>76</ele>
        <time>2014-09-21T15:10:40.000Z</time>
      </trkpt>
      <trkpt lat="48.92964" lon="2.1171">
        <ele>76.199996948242</ele>
        <time>2014-09-21T15:10:46.000Z</time>
      </trkpt>
      <trkpt lat="48.92954" lon="2.11699">
        <ele>76.400001525879</ele>
        <time>2014-09-21T15:10:54.000Z</time>
      </trkpt>
      <trkpt lat="48.92947" lon="2.11692">
        <ele>76.599998474121</ele>
        <time>2014-09-21T15:11:00.000Z</time>
      </trkpt>
      <trkpt lat="48.92934" lon="2.1168">
        <ele>76.599998474121</ele>
        <time>2014-09-21T15:11:08.000Z</time>
      </trkpt>
      <trkpt lat="48.92927" lon="2.11676">
        <ele>76.400001525879</ele>
        <time>2014-09-21T15:11:13.000Z</time>
      </trkpt>
      <trkpt lat="48.9292" lon="2.11671">
        <ele>76.199996948242</ele>
        <time>2014-09-21T15:11:19.000Z</time>
      </trkpt>
      <trkpt lat="48.92914" lon="2.11665">
        <ele>76</ele>
        <time>2014-09-21T15:11:25.000Z</time>
      </trkpt>
      <trkpt lat="48.92905" lon="2.11657">
        <ele>75.800003051758</ele>
        <time>2014-09-21T15:11:30.000Z</time>
      </trkpt>
      <trkpt lat="48.92896" lon="2.11649">
        <ele>75.199996948242</ele>
        <time>2014-09-21T15:11:35.000Z</time>
      </trkpt>
      <trkpt lat="48.92889" lon="2.11639">
        <ele>74.800003051758</ele>
        <time>2014-09-21T15:11:41.000Z</time>
      </trkpt>
      <trkpt lat="48.92883" lon="2.11622">
        <ele>74.400001525879</ele>
        <time>2014-09-21T15:11:49.000Z</time>
      </trkpt>
      <trkpt lat="48.92879" lon="2.11615">
        <ele>74.199996948242</ele>
        <time>2014-09-21T15:11:54.000Z</time>
      </trkpt>
      <trkpt lat="48.92871" lon="2.116">
        <ele>73.800003051758</ele>
        <time>2014-09-21T15:12:01.000Z</time>
      </trkpt>
      <trkpt lat="48.92866" lon="2.11589">
        <ele>73.400001525879</ele>
        <time>2014-09-21T15:12:07.000Z</time>
      </trkpt>
      <trkpt lat="48.92862" lon="2.11584">
        <ele>73.199996948242</ele>
        <time>2014-09-21T15:12:10.000Z</time>
      </trkpt>
      <trkpt lat="48.92854" lon="2.11567">
        <ele>72.199996948242</ele>
        <time>2014-09-21T15:12:17.000Z</time>
      </trkpt>
      <trkpt lat="48.92856" lon="2.11557">
        <ele>72.400001525879</ele>
        <time>2014-09-21T15:12:22.000Z</time>
      </trkpt>
      <trkpt lat="48.92861" lon="2.11551">
        <ele>72.599998474121</ele>
        <time>2014-09-21T15:12:26.000Z</time>
      </trkpt>
      <trkpt lat="48.92868" lon="2.11541">
        <ele>72.599998474121</ele>
        <time>2014-09-21T15:12:32.000Z</time>
      </trkpt>
      <trkpt lat="48.92869" lon="2.11538">
        <ele>72.599998474121</ele>
        <time>2014-09-21T15:12:34.000Z</time>
      </trkpt>
      <trkpt lat="48.92873" lon="2.11532">
        <ele>72.800003051758</ele>
        <time>2014-09-21T15:12:38.000Z</time>
      </trkpt>
      <trkpt lat="48.92877" lon="2.11527">
        <ele>72.800003051758</ele>
        <time>2014-09-21T15:12:41.000Z</time>
      </trkpt>
      <trkpt lat="48.92887" lon="2.11516">
        <ele>73</ele>
        <time>2014-09-21T15:12:47.000Z</time>
      </trkpt>
      <trkpt lat="48.9289" lon="2.11502">
        <ele>72.800003051758</ele>
        <time>2014-09-21T15:12:52.000Z</time>
      </trkpt>
      <trkpt lat="48.92891" lon="2.11498">
        <ele>72.800003051758</ele>
        <time>2014-09-21T15:12:54.000Z</time>
      </trkpt>
      <trkpt lat="48.92891" lon="2.11485">
        <ele>72.400001525879</ele>
        <time>2014-09-21T15:13:00.000Z</time>
      </trkpt>
      <trkpt lat="48.9289" lon="2.11476">
        <ele>72.199996948242</ele>
        <time>2014-09-21T15:13:04.000Z</time>
      </trkpt>
      <trkpt lat="48.92894" lon="2.11455">
        <ele>71.800003051758</ele>
        <time>2014-09-21T15:13:12.000Z</time>
      </trkpt>
      <trkpt lat="48.92895" lon="2.11451">
        <ele>71.800003051758</ele>
        <time>2014-09-21T15:13:14.000Z</time>
      </trkpt>
      <trkpt lat="48.92899" lon="2.11437">
        <ele>72.199996948242</ele>
        <time>2014-09-21T15:13:20.000Z</time>
      </trkpt>
      <trkpt lat="48.92901" lon="2.11425">
        <ele>72.400001525879</ele>
        <time>2014-09-21T15:13:25.000Z</time>
      </trkpt>
      <trkpt lat="48.929" lon="2.11413">
        <ele>72.599998474121</ele>
        <time>2014-09-21T15:13:29.000Z</time>
      </trkpt>
      <trkpt lat="48.929" lon="2.11402">
        <ele>72.400001525879</ele>
        <time>2014-09-21T15:13:33.000Z</time>
      </trkpt>
      <trkpt lat="48.92907" lon="2.11386">
        <ele>72.599998474121</ele>
        <time>2014-09-21T15:13:40.000Z</time>
      </trkpt>
      <trkpt lat="48.9291" lon="2.1138">
        <ele>72.800003051758</ele>
        <time>2014-09-21T15:13:43.000Z</time>
      </trkpt>
      <trkpt lat="48.92912" lon="2.11363">
        <ele>72.800003051758</ele>
        <time>2014-09-21T15:13:50.000Z</time>
      </trkpt>
      <trkpt lat="48.92911" lon="2.11357">
        <ele>72.800003051758</ele>
        <time>2014-09-21T15:13:52.000Z</time>
      </trkpt>
      <trkpt lat="48.92916" lon="2.11338">
        <ele>73.400001525879</ele>
        <time>2014-09-21T15:13:58.000Z</time>
      </trkpt>
      <trkpt lat="48.92922" lon="2.11319">
        <ele>74</ele>
        <time>2014-09-21T15:14:05.000Z</time>
      </trkpt>
      <trkpt lat="48.92923" lon="2.1131">
        <ele>74</ele>
        <time>2014-09-21T15:14:09.000Z</time>
      </trkpt>
      <trkpt lat="48.92924" lon="2.11304">
        <ele>73.800003051758</ele>
        <time>2014-09-21T15:14:11.000Z</time>
      </trkpt>
      <trkpt lat="48.92924" lon="2.11288">
        <ele>73</ele>
        <time>2014-09-21T15:14:16.000Z</time>
      </trkpt>
      <trkpt lat="48.92926" lon="2.11275">
        <ele>72.400001525879</ele>
        <time>2014-09-21T15:14:22.000Z</time>
      </trkpt>
      <trkpt lat="48.92932" lon="2.11262">
        <ele>72.199996948242</ele>
        <time>2014-09-21T15:14:29.000Z</time>
      </trkpt>
      <trkpt lat="48.92934" lon="2.11259">
        <ele>72.199996948242</ele>
        <time>2014-09-21T15:14:31.000Z</time>
      </trkpt>
      <trkpt lat="48.92934" lon="2.11251">
        <ele>72</ele>
        <time>2014-09-21T15:14:35.000Z</time>
      </trkpt>
      <trkpt lat="48.92927" lon="2.11236">
        <ele>71.199996948242</ele>
        <time>2014-09-21T15:14:42.000Z</time>
      </trkpt>
      <trkpt lat="48.92923" lon="2.11227">
        <ele>71</ele>
        <time>2014-09-21T15:14:46.000Z</time>
      </trkpt>
      <trkpt lat="48.92916" lon="2.11208">
        <ele>70.199996948242</ele>
        <time>2014-09-21T15:14:55.000Z</time>
      </trkpt>
      <trkpt lat="48.92909" lon="2.11196">
        <ele>69.599998474121</ele>
        <time>2014-09-21T15:15:01.000Z</time>
      </trkpt>
      <trkpt lat="48.92902" lon="2.11185">
        <ele>69</ele>
        <time>2014-09-21T15:15:07.000Z</time>
      </trkpt>
      <trkpt lat="48.9289" lon="2.11167">
        <ele>68</ele>
        <time>2014-09-21T15:15:12.000Z</time>
      </trkpt>
      <trkpt lat="48.9288" lon="2.1115">
        <ele>67.599998474121</ele>
        <time>2014-09-21T15:15:17.000Z</time>
      </trkpt>
      <trkpt lat="48.92873" lon="2.11139">
        <ele>67.400001525879</ele>
        <time>2014-09-21T15:15:21.000Z</time>
      </trkpt>
      <trkpt lat="48.92868" lon="2.11125">
        <ele>67.199996948242</ele>
        <time>2014-09-21T15:15:27.000Z</time>
      </trkpt>
      <trkpt lat="48.9286" lon="2.11109">
        <ele>67</ele>
        <time>2014-09-21T15:15:33.000Z</time>
      </trkpt>
      <trkpt lat="48.92853" lon="2.11097">
        <ele>67.199996948242</ele>
        <time>2014-09-21T15:15:39.000Z</time>
      </trkpt>
      <trkpt lat="48.92842" lon="2.1109">
        <ele>67.599998474121</ele>
        <time>2014-09-21T15:15:44.000Z</time>
      </trkpt>
      <trkpt lat="48.92836" lon="2.11091">
        <ele>67.800003051758</ele>
        <time>2014-09-21T15:15:49.000Z</time>
      </trkpt>
      <trkpt lat="48.92829" lon="2.11085">
        <ele>68</ele>
        <time>2014-09-21T15:15:55.000Z</time>
      </trkpt>
      <trkpt lat="48.92823" lon="2.1108">
        <ele>68.199996948242</ele>
        <time>2014-09-21T15:16:02.000Z</time>
      </trkpt>
      <trkpt lat="48.92811" lon="2.11071">
        <ele>68.800003051758</ele>
        <time>2014-09-21T15:16:09.000Z</time>
      </trkpt>
      <trkpt lat="48.92799" lon="2.11064">
        <ele>69.599998474121</ele>
        <time>2014-09-21T15:16:16.000Z</time>
      </trkpt>
      <trkpt lat="48.92787" lon="2.11054">
        <ele>70.400001525879</ele>
        <time>2014-09-21T15:16:23.000Z</time>
      </trkpt>
      <trkpt lat="48.9278" lon="2.1105">
        <ele>70.800003051758</ele>
        <time>2014-09-21T15:16:27.000Z</time>
      </trkpt>
      <trkpt lat="48.9277" lon="2.11041">
        <ele>71</ele>
        <time>2014-09-21T15:16:34.000Z</time>
      </trkpt>
      <trkpt lat="48.92768" lon="2.1104">
        <ele>71</ele>
        <time>2014-09-21T15:16:35.000Z</time>
      </trkpt>
      <trkpt lat="48.92756" lon="2.11029">
        <ele>70.800003051758</ele>
        <time>2014-09-21T15:16:42.000Z</time>
      </trkpt>
      <trkpt lat="48.9275" lon="2.11023">
        <ele>70.800003051758</ele>
        <time>2014-09-21T15:16:48.000Z</time>
      </trkpt>
      <trkpt lat="48.92737" lon="2.11012">
        <ele>70.599998474121</ele>
        <time>2014-09-21T15:16:55.000Z</time>
      </trkpt>
      <trkpt lat="48.92726" lon="2.11007">
        <ele>70.199996948242</ele>
        <time>2014-09-21T15:17:01.000Z</time>
      </trkpt>
      <trkpt lat="48.92719" lon="2.11003">
        <ele>70</ele>
        <time>2014-09-21T15:17:06.000Z</time>
      </trkpt>
      <trkpt lat="48.92715" lon="2.10998">
        <ele>70</ele>
        <time>2014-09-21T15:17:10.000Z</time>
      </trkpt>
      <trkpt lat="48.92703" lon="2.10987">
        <ele>70</ele>
        <time>2014-09-21T15:17:17.000Z</time>
      </trkpt>
      <trkpt lat="48.92696" lon="2.10981">
        <ele>69.800003051758</ele>
        <time>2014-09-21T15:17:22.000Z</time>
      </trkpt>
      <trkpt lat="48.92688" lon="2.10973">
        <ele>69.800003051758</ele>
        <time>2014-09-21T15:17:28.000Z</time>
      </trkpt>
      <trkpt lat="48.92678" lon="2.10965">
        <ele>69.599998474121</ele>
        <time>2014-09-21T15:17:36.000Z</time>
      </trkpt>
      <trkpt lat="48.9267" lon="2.10957">
        <ele>69.599998474121</ele>
        <time>2014-09-21T15:17:42.000Z</time>
      </trkpt>
      <trkpt lat="48.92662" lon="2.10952">
        <ele>69.400001525879</ele>
        <time>2014-09-21T15:17:48.000Z</time>
      </trkpt>
      <trkpt lat="48.9265" lon="2.10938">
        <ele>69.199996948242</ele>
        <time>2014-09-21T15:17:54.000Z</time>
      </trkpt>
      <trkpt lat="48.92638" lon="2.10927">
        <ele>69</ele>
        <time>2014-09-21T15:17:58.000Z</time>
      </trkpt>
      <trkpt lat="48.92624" lon="2.10918">
        <ele>68.599998474121</ele>
        <time>2014-09-21T15:18:02.000Z</time>
      </trkpt>
      <trkpt lat="48.92614" lon="2.10908">
        <ele>68.400001525879</ele>
        <time>2014-09-21T15:18:07.000Z</time>
      </trkpt>
      <trkpt lat="48.92608" lon="2.10903">
        <ele>68.199996948242</ele>
        <time>2014-09-21T15:18:11.000Z</time>
      </trkpt>
      <trkpt lat="48.92597" lon="2.10897">
        <ele>69</ele>
        <time>2014-09-21T15:18:17.000Z</time>
      </trkpt>
      <trkpt lat="48.92587" lon="2.10888">
        <ele>69.800003051758</ele>
        <time>2014-09-21T15:18:24.000Z</time>
      </trkpt>
      <trkpt lat="48.92581" lon="2.10883">
        <ele>70.199996948242</ele>
        <time>2014-09-21T15:18:28.000Z</time>
      </trkpt>
      <trkpt lat="48.92574" lon="2.10877">
        <ele>70.800003051758</ele>
        <time>2014-09-21T15:18:33.000Z</time>
      </trkpt>
      <trkpt lat="48.92562" lon="2.10868">
        <ele>71.800003051758</ele>
        <time>2014-09-21T15:18:40.000Z</time>
      </trkpt>
      <trkpt lat="48.92556" lon="2.10863">
        <ele>72.199996948242</ele>
        <time>2014-09-21T15:18:44.000Z</time>
      </trkpt>
      <trkpt lat="48.92548" lon="2.10856">
        <ele>73</ele>
        <time>2014-09-21T15:18:49.000Z</time>
      </trkpt>
      <trkpt lat="48.9254" lon="2.10849">
        <ele>73.599998474121</ele>
        <time>2014-09-21T15:18:55.000Z</time>
      </trkpt>
      <trkpt lat="48.92529" lon="2.1084">
        <ele>74.400001525879</ele>
        <time>2014-09-21T15:19:02.000Z</time>
      </trkpt>
      <trkpt lat="48.92521" lon="2.10831">
        <ele>75</ele>
        <time>2014-09-21T15:19:08.000Z</time>
      </trkpt>
      <trkpt lat="48.92511" lon="2.10824">
        <ele>75.400001525879</ele>
        <time>2014-09-21T15:19:14.000Z</time>
      </trkpt>
      <trkpt lat="48.92501" lon="2.10819">
        <ele>75.599998474121</ele>
        <time>2014-09-21T15:19:20.000Z</time>
      </trkpt>
      <trkpt lat="48.92496" lon="2.10814">
        <ele>75.599998474121</ele>
        <time>2014-09-21T15:19:24.000Z</time>
      </trkpt>
      <trkpt lat="48.92483" lon="2.10806">
        <ele>76</ele>
        <time>2014-09-21T15:19:34.000Z</time>
      </trkpt>
      <trkpt lat="48.92482" lon="2.10806">
        <ele>76</ele>
        <time>2014-09-21T15:19:35.000Z</time>
      </trkpt>
      <trkpt lat="48.92474" lon="2.10803">
        <ele>76.199996948242</ele>
        <time>2014-09-21T15:19:40.000Z</time>
      </trkpt>
      <trkpt lat="48.92472" lon="2.108">
        <ele>76.199996948242</ele>
        <time>2014-09-21T15:19:41.000Z</time>
      </trkpt>
      <trkpt lat="48.9246" lon="2.10786">
        <ele>76.599998474121</ele>
        <time>2014-09-21T15:19:50.000Z</time>
      </trkpt>
      <trkpt lat="48.92447" lon="2.10776">
        <ele>76.800003051758</ele>
        <time>2014-09-21T15:19:58.000Z</time>
      </trkpt>
      <trkpt lat="48.92437" lon="2.10767">
        <ele>77</ele>
        <time>2014-09-21T15:20:03.000Z</time>
      </trkpt>
      <trkpt lat="48.92418" lon="2.10752">
        <ele>77</ele>
        <time>2014-09-21T15:20:10.000Z</time>
      </trkpt>
      <trkpt lat="48.92408" lon="2.10746">
        <ele>77</ele>
        <time>2014-09-21T15:20:16.000Z</time>
      </trkpt>
      <trkpt lat="48.92407" lon="2.10745">
        <ele>77</ele>
        <time>2014-09-21T15:20:17.000Z</time>
      </trkpt>
      <trkpt lat="48.92404" lon="2.10741">
        <ele>77</ele>
        <time>2014-09-21T15:20:21.000Z</time>
      </trkpt>
      <trkpt lat="48.92396" lon="2.1073">
        <ele>77.400001525879</ele>
        <time>2014-09-21T15:20:26.000Z</time>
      </trkpt>
      <trkpt lat="48.92384" lon="2.10723">
        <ele>77.400001525879</ele>
        <time>2014-09-21T15:20:32.000Z</time>
      </trkpt>
      <trkpt lat="48.92376" lon="2.10717">
        <ele>77.599998474121</ele>
        <time>2014-09-21T15:20:38.000Z</time>
      </trkpt>
      <trkpt lat="48.92364" lon="2.1071">
        <ele>77.800003051758</ele>
        <time>2014-09-21T15:20:45.000Z</time>
      </trkpt>
      <trkpt lat="48.92357" lon="2.10703">
        <ele>78</ele>
        <time>2014-09-21T15:20:50.000Z</time>
      </trkpt>
      <trkpt lat="48.92348" lon="2.10693">
        <ele>77.400001525879</ele>
        <time>2014-09-21T15:20:56.000Z</time>
      </trkpt>
      <trkpt lat="48.92341" lon="2.10689">
        <ele>77</ele>
        <time>2014-09-21T15:21:01.000Z</time>
      </trkpt>
      <trkpt lat="48.92339" lon="2.10688">
        <ele>76.800003051758</ele>
        <time>2014-09-21T15:21:02.000Z</time>
      </trkpt>
      <trkpt lat="48.92332" lon="2.10681">
        <ele>76.400001525879</ele>
        <time>2014-09-21T15:21:07.000Z</time>
      </trkpt>
      <trkpt lat="48.92327" lon="2.10677">
        <ele>76</ele>
        <time>2014-09-21T15:21:11.000Z</time>
      </trkpt>
      <trkpt lat="48.92323" lon="2.10673">
        <ele>75.800003051758</ele>
        <time>2014-09-21T15:21:14.000Z</time>
      </trkpt>
      <trkpt lat="48.92316" lon="2.10669">
        <ele>75.400001525879</ele>
        <time>2014-09-21T15:21:19.000Z</time>
      </trkpt>
      <trkpt lat="48.92314" lon="2.10666">
        <ele>75.199996948242</ele>
        <time>2014-09-21T15:21:22.000Z</time>
      </trkpt>
      <trkpt lat="48.92305" lon="2.10657">
        <ele>74.800003051758</ele>
        <time>2014-09-21T15:21:26.000Z</time>
      </trkpt>
      <trkpt lat="48.92292" lon="2.10646">
        <ele>74.400001525879</ele>
        <time>2014-09-21T15:21:32.000Z</time>
      </trkpt>
      <trkpt lat="48.92284" lon="2.10639">
        <ele>74.199996948242</ele>
        <time>2014-09-21T15:21:36.000Z</time>
      </trkpt>
      <trkpt lat="48.92275" lon="2.10632">
        <ele>73.800003051758</ele>
        <time>2014-09-21T15:21:42.000Z</time>
      </trkpt>
      <trkpt lat="48.92266" lon="2.10624">
        <ele>73.400001525879</ele>
        <time>2014-09-21T15:21:48.000Z</time>
      </trkpt>
      <trkpt lat="48.92257" lon="2.10616">
        <ele>73</ele>
        <time>2014-09-21T15:21:55.000Z</time>
      </trkpt>
      <trkpt lat="48.92254" lon="2.10614">
        <ele>72.800003051758</ele>
        <time>2014-09-21T15:21:57.000Z</time>
      </trkpt>
      <trkpt lat="48.9224" lon="2.10604">
        <ele>72</ele>
        <time>2014-09-21T15:22:05.000Z</time>
      </trkpt>
      <trkpt lat="48.92233" lon="2.10599">
        <ele>71.800003051758</ele>
        <time>2014-09-21T15:22:10.000Z</time>
      </trkpt>
      <trkpt lat="48.92229" lon="2.10598">
        <ele>71.400001525879</ele>
        <time>2014-09-21T15:22:16.000Z</time>
      </trkpt>
      <trkpt lat="48.92215" lon="2.10587">
        <ele>70.800003051758</ele>
        <time>2014-09-21T15:23:25.000Z</time>
      </trkpt>
      <trkpt lat="48.92207" lon="2.1058">
        <ele>70.400001525879</ele>
        <time>2014-09-21T15:23:30.000Z</time>
      </trkpt>
      <trkpt lat="48.92197" lon="2.10572">
        <ele>70</ele>
        <time>2014-09-21T15:23:37.000Z</time>
      </trkpt>
      <trkpt lat="48.92189" lon="2.10566">
        <ele>69.800003051758</ele>
        <time>2014-09-21T15:23:43.000Z</time>
      </trkpt>
      <trkpt lat="48.92178" lon="2.10558">
        <ele>69.400001525879</ele>
        <time>2014-09-21T15:23:50.000Z</time>
      </trkpt>
      <trkpt lat="48.92168" lon="2.1055">
        <ele>69.199996948242</ele>
        <time>2014-09-21T15:23:57.000Z</time>
      </trkpt>
      <trkpt lat="48.92158" lon="2.10542">
        <ele>68.800003051758</ele>
        <time>2014-09-21T15:24:05.000Z</time>
      </trkpt>
      <trkpt lat="48.92145" lon="2.10532">
        <ele>68.400001525879</ele>
        <time>2014-09-21T15:24:14.000Z</time>
      </trkpt>
      <trkpt lat="48.92142" lon="2.10529">
        <ele>68.400001525879</ele>
        <time>2014-09-21T15:24:16.000Z</time>
      </trkpt>
      <trkpt lat="48.92132" lon="2.1052">
        <ele>68.199996948242</ele>
        <time>2014-09-21T15:24:23.000Z</time>
      </trkpt>
      <trkpt lat="48.92122" lon="2.10511">
        <ele>68</ele>
        <time>2014-09-21T15:24:30.000Z</time>
      </trkpt>
      <trkpt lat="48.92112" lon="2.10501">
        <ele>68</ele>
        <time>2014-09-21T15:24:37.000Z</time>
      </trkpt>
      <trkpt lat="48.92105" lon="2.10497">
        <ele>67.599998474121</ele>
        <time>2014-09-21T15:24:43.000Z</time>
      </trkpt>
      <trkpt lat="48.92092" lon="2.10488">
        <ele>67</ele>
        <time>2014-09-21T15:24:51.000Z</time>
      </trkpt>
      <trkpt lat="48.9208" lon="2.10477">
        <ele>66.199996948242</ele>
        <time>2014-09-21T15:24:59.000Z</time>
      </trkpt>
      <trkpt lat="48.92069" lon="2.10471">
        <ele>65.400001525879</ele>
        <time>2014-09-21T15:25:06.000Z</time>
      </trkpt>
      <trkpt lat="48.92063" lon="2.10466">
        <ele>65.199996948242</ele>
        <time>2014-09-21T15:25:10.000Z</time>
      </trkpt>
      <trkpt lat="48.92052" lon="2.10456">
        <ele>64.599998474121</ele>
        <time>2014-09-21T15:25:18.000Z</time>
      </trkpt>
      <trkpt lat="48.92046" lon="2.10451">
        <ele>64.199996948242</ele>
        <time>2014-09-21T15:25:22.000Z</time>
      </trkpt>
      <trkpt lat="48.92041" lon="2.10447">
        <ele>63.799999237061</ele>
        <time>2014-09-21T15:25:26.000Z</time>
      </trkpt>
      <trkpt lat="48.9203" lon="2.10437">
        <ele>63.200000762939</ele>
        <time>2014-09-21T15:25:33.000Z</time>
      </trkpt>
      <trkpt lat="48.92026" lon="2.1042">
        <ele>63</ele>
        <time>2014-09-21T15:25:41.000Z</time>
      </trkpt>
      <trkpt lat="48.92024" lon="2.10412">
        <ele>63</ele>
        <time>2014-09-21T15:25:46.000Z</time>
      </trkpt>
      <trkpt lat="48.92018" lon="2.10396">
        <ele>63.599998474121</ele>
        <time>2014-09-21T15:25:55.000Z</time>
      </trkpt>
      <trkpt lat="48.92013" lon="2.1038">
        <ele>64.400001525879</ele>
        <time>2014-09-21T15:26:03.000Z</time>
      </trkpt>
      <trkpt lat="48.92008" lon="2.10368">
        <ele>65</ele>
        <time>2014-09-21T15:26:10.000Z</time>
      </trkpt>
      <trkpt lat="48.92002" lon="2.10353">
        <ele>65.599998474121</ele>
        <time>2014-09-21T15:26:17.000Z</time>
      </trkpt>
      <trkpt lat="48.91998" lon="2.1034">
        <ele>66.199996948242</ele>
        <time>2014-09-21T15:26:22.000Z</time>
      </trkpt>
      <trkpt lat="48.91993" lon="2.10327">
        <ele>66.800003051758</ele>
        <time>2014-09-21T15:26:29.000Z</time>
      </trkpt>
      <trkpt lat="48.91985" lon="2.10307">
        <ele>66.800003051758</ele>
        <time>2014-09-21T15:26:38.000Z</time>
      </trkpt>
      <trkpt lat="48.91974" lon="2.10285">
        <ele>66.400001525879</ele>
        <time>2014-09-21T15:26:45.000Z</time>
      </trkpt>
      <trkpt lat="48.91967" lon="2.10267">
        <ele>66.400001525879</ele>
        <time>2014-09-21T15:26:53.000Z</time>
      </trkpt>
      <trkpt lat="48.91962" lon="2.10252">
        <ele>66.599998474121</ele>
        <time>2014-09-21T15:27:01.000Z</time>
      </trkpt>
      <trkpt lat="48.91956" lon="2.1024">
        <ele>66.599998474121</ele>
        <time>2014-09-21T15:27:08.000Z</time>
      </trkpt>
      <trkpt lat="48.91943" lon="2.10229">
        <ele>65.599998474121</ele>
        <time>2014-09-21T15:27:13.000Z</time>
      </trkpt>
      <trkpt lat="48.9193" lon="2.10215">
        <ele>65</ele>
        <time>2014-09-21T15:27:19.000Z</time>
      </trkpt>
      <trkpt lat="48.91925" lon="2.10213">
        <ele>64.800003051758</ele>
        <time>2014-09-21T15:27:25.000Z</time>
      </trkpt>
      <trkpt lat="48.91924" lon="2.10213">
        <ele>64.800003051758</ele>
        <time>2014-09-21T15:27:26.000Z</time>
      </trkpt>
      <trkpt lat="48.91915" lon="2.10205">
        <ele>64.400001525879</ele>
        <time>2014-09-21T15:27:51.000Z</time>
      </trkpt>
      <trkpt lat="48.91906" lon="2.10196">
        <ele>64</ele>
        <time>2014-09-21T15:27:56.000Z</time>
      </trkpt>
      <trkpt lat="48.91899" lon="2.10174">
        <ele>64.199996948242</ele>
        <time>2014-09-21T15:28:06.000Z</time>
      </trkpt>
      <trkpt lat="48.91896" lon="2.10155">
        <ele>64.400001525879</ele>
        <time>2014-09-21T15:28:12.000Z</time>
      </trkpt>
      <trkpt lat="48.91894" lon="2.10143">
        <ele>64.599998474121</ele>
        <time>2014-09-21T15:28:17.000Z</time>
      </trkpt>
      <trkpt lat="48.91886" lon="2.10125">
        <ele>64.599998474121</ele>
        <time>2014-09-21T15:28:26.000Z</time>
      </trkpt>
      <trkpt lat="48.91879" lon="2.10112">
        <ele>64.400001525879</ele>
        <time>2014-09-21T15:28:34.000Z</time>
      </trkpt>
      <trkpt lat="48.91874" lon="2.10104">
        <ele>64.400001525879</ele>
        <time>2014-09-21T15:28:40.000Z</time>
      </trkpt>
      <trkpt lat="48.91868" lon="2.10091">
        <ele>64.400001525879</ele>
        <time>2014-09-21T15:28:49.000Z</time>
      </trkpt>
      <trkpt lat="48.91868" lon="2.10089">
        <ele>64.400001525879</ele>
        <time>2014-09-21T15:28:52.000Z</time>
      </trkpt>
      <trkpt lat="48.91863" lon="2.10082">
        <ele>64.199996948242</ele>
        <time>2014-09-21T15:29:27.000Z</time>
      </trkpt>
      <trkpt lat="48.91857" lon="2.10072">
        <ele>64</ele>
        <time>2014-09-21T15:29:32.000Z</time>
      </trkpt>
      <trkpt lat="48.91849" lon="2.10058">
        <ele>63.799999237061</ele>
        <time>2014-09-21T15:29:41.000Z</time>
      </trkpt>
      <trkpt lat="48.91841" lon="2.10043">
        <ele>63.599998474121</ele>
        <time>2014-09-21T15:29:49.000Z</time>
      </trkpt>
      <trkpt lat="48.91834" lon="2.1003">
        <ele>63.400001525879</ele>
        <time>2014-09-21T15:29:56.000Z</time>
      </trkpt>
      <trkpt lat="48.91828" lon="2.10015">
        <ele>63.400001525879</ele>
        <time>2014-09-21T15:30:03.000Z</time>
      </trkpt>
      <trkpt lat="48.91822" lon="2.10003">
        <ele>63.200000762939</ele>
        <time>2014-09-21T15:30:09.000Z</time>
      </trkpt>
      <trkpt lat="48.91814" lon="2.09988">
        <ele>63</ele>
        <time>2014-09-21T15:30:16.000Z</time>
      </trkpt>
      <trkpt lat="48.91806" lon="2.09974">
        <ele>62.799999237061</ele>
        <time>2014-09-21T15:30:23.000Z</time>
      </trkpt>
      <trkpt lat="48.918" lon="2.09963">
        <ele>62.599998474121</ele>
        <time>2014-09-21T15:30:29.000Z</time>
      </trkpt>
      <trkpt lat="48.91792" lon="2.09948">
        <ele>62.400001525879</ele>
        <time>2014-09-21T15:30:36.000Z</time>
      </trkpt>
      <trkpt lat="48.91783" lon="2.09929">
        <ele>62.200000762939</ele>
        <time>2014-09-21T15:30:42.000Z</time>
      </trkpt>
      <trkpt lat="48.91777" lon="2.09914">
        <ele>62.200000762939</ele>
        <time>2014-09-21T15:30:50.000Z</time>
      </trkpt>
      <trkpt lat="48.91773" lon="2.09901">
        <ele>62.200000762939</ele>
        <time>2014-09-21T15:30:56.000Z</time>
      </trkpt>
      <trkpt lat="48.91764" lon="2.09882">
        <ele>62.799999237061</ele>
        <time>2014-09-21T15:31:04.000Z</time>
      </trkpt>
      <trkpt lat="48.9176" lon="2.09872">
        <ele>63</ele>
        <time>2014-09-21T15:31:09.000Z</time>
      </trkpt>
      <trkpt lat="48.91753" lon="2.09858">
        <ele>63.599998474121</ele>
        <time>2014-09-21T15:31:15.000Z</time>
      </trkpt>
      <trkpt lat="48.91747" lon="2.09846">
        <ele>63.799999237061</ele>
        <time>2014-09-21T15:31:19.000Z</time>
      </trkpt>
      <trkpt lat="48.9174" lon="2.09832">
        <ele>64.199996948242</ele>
        <time>2014-09-21T15:31:25.000Z</time>
      </trkpt>
      <trkpt lat="48.91735" lon="2.09823">
        <ele>64.599998474121</ele>
        <time>2014-09-21T15:31:30.000Z</time>
      </trkpt>
      <trkpt lat="48.91729" lon="2.09809">
        <ele>64.800003051758</ele>
        <time>2014-09-21T15:31:36.000Z</time>
      </trkpt>
      <trkpt lat="48.91721" lon="2.09793">
        <ele>65</ele>
        <time>2014-09-21T15:31:41.000Z</time>
      </trkpt>
      <trkpt lat="48.91716" lon="2.09781">
        <ele>65.199996948242</ele>
        <time>2014-09-21T15:31:46.000Z</time>
      </trkpt>
      <trkpt lat="48.91711" lon="2.09772">
        <ele>65.400001525879</ele>
        <time>2014-09-21T15:31:52.000Z</time>
      </trkpt>
      <trkpt lat="48.91704" lon="2.09759">
        <ele>65.599998474121</ele>
        <time>2014-09-21T15:31:59.000Z</time>
      </trkpt>
      <trkpt lat="48.91695" lon="2.09742">
        <ele>66</ele>
        <time>2014-09-21T15:32:08.000Z</time>
      </trkpt>
      <trkpt lat="48.9169" lon="2.09733">
        <ele>66.400001525879</ele>
        <time>2014-09-21T15:32:12.000Z</time>
      </trkpt>
      <trkpt lat="48.91685" lon="2.09721">
        <ele>67</ele>
        <time>2014-09-21T15:32:17.000Z</time>
      </trkpt>
      <trkpt lat="48.9168" lon="2.09709">
        <ele>67.800003051758</ele>
        <time>2014-09-21T15:32:23.000Z</time>
      </trkpt>
      <trkpt lat="48.91679" lon="2.09708">
        <ele>67.800003051758</ele>
        <time>2014-09-21T15:32:24.000Z</time>
      </trkpt>
      <trkpt lat="48.91674" lon="2.09698">
        <ele>68.400001525879</ele>
        <time>2014-09-21T15:32:30.000Z</time>
      </trkpt>
      <trkpt lat="48.9167" lon="2.0969">
        <ele>68.800003051758</ele>
        <time>2014-09-21T15:32:34.000Z</time>
      </trkpt>
      <trkpt lat="48.91664" lon="2.09681">
        <ele>69.400001525879</ele>
        <time>2014-09-21T15:32:39.000Z</time>
      </trkpt>
      <trkpt lat="48.91663" lon="2.09679">
        <ele>69.599998474121</ele>
        <time>2014-09-21T15:32:40.000Z</time>
      </trkpt>
      <trkpt lat="48.91657" lon="2.09664">
        <ele>70.400001525879</ele>
        <time>2014-09-21T15:32:47.000Z</time>
      </trkpt>
      <trkpt lat="48.91653" lon="2.09652">
        <ele>71.199996948242</ele>
        <time>2014-09-21T15:32:53.000Z</time>
      </trkpt>
      <trkpt lat="48.91652" lon="2.09648">
        <ele>71.400001525879</ele>
        <time>2014-09-21T15:32:55.000Z</time>
      </trkpt>
      <trkpt lat="48.91652" lon="2.09644">
        <ele>71.599998474121</ele>
        <time>2014-09-21T15:32:57.000Z</time>
      </trkpt>
      <trkpt lat="48.91646" lon="2.09638">
        <ele>72.199996948242</ele>
        <time>2014-09-21T15:33:04.000Z</time>
      </trkpt>
      <trkpt lat="48.91646" lon="2.09638">
        <ele>72.199996948242</ele>
        <time>2014-09-21T15:33:05.000Z</time>
      </trkpt>
      <trkpt lat="48.91647" lon="2.09638">
        <ele>72.199996948242</ele>
        <time>2014-09-21T15:33:29.000Z</time>
      </trkpt>
      <trkpt lat="48.91647" lon="2.09638">
        <ele>72.199996948242</ele>
        <time>2014-09-21T15:33:30.000Z</time>
      </trkpt>
      <trkpt lat="48.91646" lon="2.09636">
        <ele>72.199996948242</ele>
        <time>2014-09-21T15:33:33.000Z</time>
      </trkpt>
      <trkpt lat="48.91643" lon="2.09631">
        <ele>72.599998474121</ele>
        <time>2014-09-21T15:33:38.000Z</time>
      </trkpt>
      <trkpt lat="48.91629" lon="2.09618">
        <ele>74</ele>
        <time>2014-09-21T15:34:00.000Z</time>
      </trkpt>
      <trkpt lat="48.91627" lon="2.09613">
        <ele>74.400001525879</ele>
        <time>2014-09-21T15:34:02.000Z</time>
      </trkpt>
      <trkpt lat="48.91618" lon="2.09604">
        <ele>75.199996948242</ele>
        <time>2014-09-21T15:34:08.000Z</time>
      </trkpt>
      <trkpt lat="48.9161" lon="2.09595">
        <ele>76</ele>
        <time>2014-09-21T15:34:14.000Z</time>
      </trkpt>
      <trkpt lat="48.91605" lon="2.09592">
        <ele>76.199996948242</ele>
        <time>2014-09-21T15:34:17.000Z</time>
      </trkpt>
      <trkpt lat="48.91602" lon="2.09587">
        <ele>76.199996948242</ele>
        <time>2014-09-21T15:34:21.000Z</time>
      </trkpt>
      <trkpt lat="48.91595" lon="2.09584">
        <ele>76</ele>
        <time>2014-09-21T15:34:25.000Z</time>
      </trkpt>
      <trkpt lat="48.9159" lon="2.0958">
        <ele>76</ele>
        <time>2014-09-21T15:34:28.000Z</time>
      </trkpt>
      <trkpt lat="48.9158" lon="2.09566">
        <ele>76</ele>
        <time>2014-09-21T15:34:36.000Z</time>
      </trkpt>
      <trkpt lat="48.91575" lon="2.09559">
        <ele>76</ele>
        <time>2014-09-21T15:34:41.000Z</time>
      </trkpt>
      <trkpt lat="48.91572" lon="2.09545">
        <ele>76.400001525879</ele>
        <time>2014-09-21T15:34:48.000Z</time>
      </trkpt>
      <trkpt lat="48.91571" lon="2.0954">
        <ele>76.599998474121</ele>
        <time>2014-09-21T15:34:51.000Z</time>
      </trkpt>
      <trkpt lat="48.91568" lon="2.0953">
        <ele>77</ele>
        <time>2014-09-21T15:34:56.000Z</time>
      </trkpt>
      <trkpt lat="48.9157" lon="2.09517">
        <ele>77.599998474121</ele>
        <time>2014-09-21T15:35:01.000Z</time>
      </trkpt>
      <trkpt lat="48.91575" lon="2.09498">
        <ele>78.800003051758</ele>
        <time>2014-09-21T15:35:09.000Z</time>
      </trkpt>
      <trkpt lat="48.91576" lon="2.09497">
        <ele>79</ele>
        <time>2014-09-21T15:35:10.000Z</time>
      </trkpt>
      <trkpt lat="48.91582" lon="2.09488">
        <ele>79.800003051758</ele>
        <time>2014-09-21T15:35:15.000Z</time>
      </trkpt>
      <trkpt lat="48.91585" lon="2.09471">
        <ele>80.800003051758</ele>
        <time>2014-09-21T15:35:23.000Z</time>
      </trkpt>
      <trkpt lat="48.91577" lon="2.09452">
        <ele>81</ele>
        <time>2014-09-21T15:35:28.000Z</time>
      </trkpt>
      <trkpt lat="48.91566" lon="2.09428">
        <ele>81.400001525879</ele>
        <time>2014-09-21T15:35:36.000Z</time>
      </trkpt>
      <trkpt lat="48.91563" lon="2.09418">
        <ele>81.599998474121</ele>
        <time>2014-09-21T15:35:41.000Z</time>
      </trkpt>
      <trkpt lat="48.91559" lon="2.09406">
        <ele>81.599998474121</ele>
        <time>2014-09-21T15:35:47.000Z</time>
      </trkpt>
      <trkpt lat="48.91562" lon="2.09393">
        <ele>81.800003051758</ele>
        <time>2014-09-21T15:35:53.000Z</time>
      </trkpt>
      <trkpt lat="48.91564" lon="2.09386">
        <ele>82</ele>
        <time>2014-09-21T15:35:56.000Z</time>
      </trkpt>
      <trkpt lat="48.91564" lon="2.09375">
        <ele>82</ele>
        <time>2014-09-21T15:36:02.000Z</time>
      </trkpt>
      <trkpt lat="48.91562" lon="2.09372">
        <ele>81.800003051758</ele>
        <time>2014-09-21T15:36:03.000Z</time>
      </trkpt>
      <trkpt lat="48.91555" lon="2.09358">
        <ele>81.599998474121</ele>
        <time>2014-09-21T15:36:11.000Z</time>
      </trkpt>
      <trkpt lat="48.91551" lon="2.09348">
        <ele>81.400001525879</ele>
        <time>2014-09-21T15:36:16.000Z</time>
      </trkpt>
      <trkpt lat="48.9154" lon="2.09335">
        <ele>80.800003051758</ele>
        <time>2014-09-21T15:36:22.000Z</time>
      </trkpt>
      <trkpt lat="48.91535" lon="2.0933">
        <ele>80.599998474121</ele>
        <time>2014-09-21T15:36:25.000Z</time>
      </trkpt>
      <trkpt lat="48.9154" lon="2.0931">
        <ele>81.400001525879</ele>
        <time>2014-09-21T15:36:31.000Z</time>
      </trkpt>
      <trkpt lat="48.91535" lon="2.09296">
        <ele>81.400001525879</ele>
        <time>2014-09-21T15:36:36.000Z</time>
      </trkpt>
      <trkpt lat="48.91534" lon="2.09294">
        <ele>81.400001525879</ele>
        <time>2014-09-21T15:36:37.000Z</time>
      </trkpt>
      <trkpt lat="48.91524" lon="2.09281">
        <ele>81.199996948242</ele>
        <time>2014-09-21T15:36:43.000Z</time>
      </trkpt>
      <trkpt lat="48.91515" lon="2.09278">
        <ele>81</ele>
        <time>2014-09-21T15:36:49.000Z</time>
      </trkpt>
      <trkpt lat="48.91507" lon="2.09274">
        <ele>81</ele>
        <time>2014-09-21T15:36:55.000Z</time>
      </trkpt>
      <trkpt lat="48.91503" lon="2.09262">
        <ele>81.400001525879</ele>
        <time>2014-09-21T15:37:02.000Z</time>
      </trkpt>
      <trkpt lat="48.91498" lon="2.09246">
        <ele>81.599998474121</ele>
        <time>2014-09-21T15:37:07.000Z</time>
      </trkpt>
      <trkpt lat="48.91495" lon="2.09236">
        <ele>81.599998474121</ele>
        <time>2014-09-21T15:37:11.000Z</time>
      </trkpt>
      <trkpt lat="48.91494" lon="2.09226">
        <ele>81.400001525879</ele>
        <time>2014-09-21T15:37:16.000Z</time>
      </trkpt>
      <trkpt lat="48.9149" lon="2.09218">
        <ele>81.400001525879</ele>
        <time>2014-09-21T15:37:20.000Z</time>
      </trkpt>
      <trkpt lat="48.91489" lon="2.09216">
        <ele>81.199996948242</ele>
        <time>2014-09-21T15:37:21.000Z</time>
      </trkpt>
      <trkpt lat="48.91481" lon="2.09201">
        <ele>81</ele>
        <time>2014-09-21T15:37:28.000Z</time>
      </trkpt>
      <trkpt lat="48.91476" lon="2.09193">
        <ele>80.800003051758</ele>
        <time>2014-09-21T15:37:32.000Z</time>
      </trkpt>
      <trkpt lat="48.91473" lon="2.09183">
        <ele>80.400001525879</ele>
        <time>2014-09-21T15:37:37.000Z</time>
      </trkpt>
      <trkpt lat="48.91464" lon="2.09171">
        <ele>80</ele>
        <time>2014-09-21T15:37:43.000Z</time>
      </trkpt>
      <trkpt lat="48.91463" lon="2.09169">
        <ele>80</ele>
        <time>2014-09-21T15:37:44.000Z</time>
      </trkpt>
      <trkpt lat="48.91457" lon="2.09148">
        <ele>79.400001525879</ele>
        <time>2014-09-21T15:37:52.000Z</time>
      </trkpt>
      <trkpt lat="48.91453" lon="2.09132">
        <ele>79.400001525879</ele>
        <time>2014-09-21T15:37:58.000Z</time>
      </trkpt>
      <trkpt lat="48.91452" lon="2.09124">
        <ele>79.199996948242</ele>
        <time>2014-09-21T15:38:01.000Z</time>
      </trkpt>
      <trkpt lat="48.91444" lon="2.09108">
        <ele>79.199996948242</ele>
        <time>2014-09-21T15:38:09.000Z</time>
      </trkpt>
      <trkpt lat="48.91443" lon="2.09105">
        <ele>79.199996948242</ele>
        <time>2014-09-21T15:38:13.000Z</time>
      </trkpt>
      <trkpt lat="48.91434" lon="2.09105">
        <ele>79.400001525879</ele>
        <time>2014-09-21T15:39:32.000Z</time>
      </trkpt>
      <trkpt lat="48.91434" lon="2.09102">
        <ele>79.400001525879</ele>
        <time>2014-09-21T15:39:38.000Z</time>
      </trkpt>
      <trkpt lat="48.91441" lon="2.09103">
        <ele>79.199996948242</ele>
        <time>2014-09-21T15:39:55.000Z</time>
      </trkpt>
      <trkpt lat="48.91444" lon="2.09109">
        <ele>79.199996948242</ele>
        <time>2014-09-21T15:39:58.000Z</time>
      </trkpt>
      <trkpt lat="48.91452" lon="2.09114">
        <ele>79.199996948242</ele>
        <time>2014-09-21T15:40:03.000Z</time>
      </trkpt>
      <trkpt lat="48.9147" lon="2.0912">
        <ele>78.800003051758</ele>
        <time>2014-09-21T15:40:09.000Z</time>
      </trkpt>
      <trkpt lat="48.91482" lon="2.09125">
        <ele>78.599998474121</ele>
        <time>2014-09-21T15:40:14.000Z</time>
      </trkpt>
      <trkpt lat="48.91494" lon="2.09129">
        <ele>78.400001525879</ele>
        <time>2014-09-21T15:40:21.000Z</time>
      </trkpt>
      <trkpt lat="48.91504" lon="2.09135">
        <ele>78.199996948242</ele>
        <time>2014-09-21T15:40:28.000Z</time>
      </trkpt>
      <trkpt lat="48.91514" lon="2.09138">
        <ele>77.800003051758</ele>
        <time>2014-09-21T15:40:34.000Z</time>
      </trkpt>
      <trkpt lat="48.91526" lon="2.09143">
        <ele>77.599998474121</ele>
        <time>2014-09-21T15:40:41.000Z</time>
      </trkpt>
      <trkpt lat="48.91534" lon="2.09147">
        <ele>77.599998474121</ele>
        <time>2014-09-21T15:40:46.000Z</time>
      </trkpt>
      <trkpt lat="48.91542" lon="2.0915">
        <ele>77.599998474121</ele>
        <time>2014-09-21T15:40:51.000Z</time>
      </trkpt>
      <trkpt lat="48.91551" lon="2.09155">
        <ele>77.599998474121</ele>
        <time>2014-09-21T15:40:57.000Z</time>
      </trkpt>
      <trkpt lat="48.91563" lon="2.09158">
        <ele>77.400001525879</ele>
        <time>2014-09-21T15:41:04.000Z</time>
      </trkpt>
      <trkpt lat="48.91574" lon="2.09162">
        <ele>77.599998474121</ele>
        <time>2014-09-21T15:41:11.000Z</time>
      </trkpt>
      <trkpt lat="48.91587" lon="2.09169">
        <ele>77.800003051758</ele>
        <time>2014-09-21T15:41:17.000Z</time>
      </trkpt>
      <trkpt lat="48.91597" lon="2.09172">
        <ele>77.800003051758</ele>
        <time>2014-09-21T15:41:23.000Z</time>
      </trkpt>
      <trkpt lat="48.91608" lon="2.09179">
        <ele>78</ele>
        <time>2014-09-21T15:41:30.000Z</time>
      </trkpt>
      <trkpt lat="48.91615" lon="2.09182">
        <ele>77.800003051758</ele>
        <time>2014-09-21T15:41:35.000Z</time>
      </trkpt>
      <trkpt lat="48.91622" lon="2.09187">
        <ele>77.800003051758</ele>
        <time>2014-09-21T15:41:42.000Z</time>
      </trkpt>
      <trkpt lat="48.91634" lon="2.09193">
        <ele>77.400001525879</ele>
        <time>2014-09-21T15:41:49.000Z</time>
      </trkpt>
      <trkpt lat="48.91646" lon="2.09195">
        <ele>77</ele>
        <time>2014-09-21T15:41:55.000Z</time>
      </trkpt>
      <trkpt lat="48.91656" lon="2.09201">
        <ele>77</ele>
        <time>2014-09-21T15:42:02.000Z</time>
      </trkpt>
      <trkpt lat="48.91666" lon="2.09205">
        <ele>77</ele>
        <time>2014-09-21T15:42:07.000Z</time>
      </trkpt>
      <trkpt lat="48.91678" lon="2.09211">
        <ele>77</ele>
        <time>2014-09-21T15:42:15.000Z</time>
      </trkpt>
      <trkpt lat="48.91681" lon="2.09211">
        <ele>77</ele>
        <time>2014-09-21T15:42:17.000Z</time>
      </trkpt>
      <trkpt lat="48.9169" lon="2.09214">
        <ele>77</ele>
        <time>2014-09-21T15:42:22.000Z</time>
      </trkpt>
      <trkpt lat="48.91703" lon="2.09219">
        <ele>77.199996948242</ele>
        <time>2014-09-21T15:42:29.000Z</time>
      </trkpt>
      <trkpt lat="48.91717" lon="2.09227">
        <ele>77.400001525879</ele>
        <time>2014-09-21T15:42:36.000Z</time>
      </trkpt>
      <trkpt lat="48.91731" lon="2.09234">
        <ele>77.400001525879</ele>
        <time>2014-09-21T15:42:43.000Z</time>
      </trkpt>
      <trkpt lat="48.91747" lon="2.09244">
        <ele>77.599998474121</ele>
        <time>2014-09-21T15:42:51.000Z</time>
      </trkpt>
      <trkpt lat="48.91748" lon="2.09246">
        <ele>77.599998474121</ele>
        <time>2014-09-21T15:42:52.000Z</time>
      </trkpt>
      <trkpt lat="48.9176" lon="2.09244">
        <ele>77.800003051758</ele>
        <time>2014-09-21T15:43:00.000Z</time>
      </trkpt>
      <trkpt lat="48.91767" lon="2.0923">
        <ele>77.800003051758</ele>
        <time>2014-09-21T15:43:08.000Z</time>
      </trkpt>
      <trkpt lat="48.91772" lon="2.09216">
        <ele>77.599998474121</ele>
        <time>2014-09-21T15:43:15.000Z</time>
      </trkpt>
      <trkpt lat="48.91778" lon="2.09209">
        <ele>77.800003051758</ele>
        <time>2014-09-21T15:43:20.000Z</time>
      </trkpt>
      <trkpt lat="48.91783" lon="2.09199">
        <ele>77.800003051758</ele>
        <time>2014-09-21T15:43:26.000Z</time>
      </trkpt>
      <trkpt lat="48.91785" lon="2.09196">
        <ele>77.800003051758</ele>
        <time>2014-09-21T15:43:31.000Z</time>
      </trkpt>
      <trkpt lat="48.91788" lon="2.09189">
        <ele>77.800003051758</ele>
        <time>2014-09-21T15:43:40.000Z</time>
      </trkpt>
      <trkpt lat="48.91791" lon="2.09176">
        <ele>77.800003051758</ele>
        <time>2014-09-21T15:43:46.000Z</time>
      </trkpt>
      <trkpt lat="48.91793" lon="2.09172">
        <ele>78</ele>
        <time>2014-09-21T15:43:48.000Z</time>
      </trkpt>
      <trkpt lat="48.918" lon="2.0915">
        <ele>78.599998474121</ele>
        <time>2014-09-21T15:44:00.000Z</time>
      </trkpt>
      <trkpt lat="48.91803" lon="2.09134">
        <ele>79</ele>
        <time>2014-09-21T15:44:08.000Z</time>
      </trkpt>
      <trkpt lat="48.91808" lon="2.09115">
        <ele>79.599998474121</ele>
        <time>2014-09-21T15:44:18.000Z</time>
      </trkpt>
      <trkpt lat="48.91812" lon="2.09106">
        <ele>79.800003051758</ele>
        <time>2014-09-21T15:44:23.000Z</time>
      </trkpt>
      <trkpt lat="48.91819" lon="2.09092">
        <ele>79.800003051758</ele>
        <time>2014-09-21T15:44:31.000Z</time>
      </trkpt>
      <trkpt lat="48.91824" lon="2.09078">
        <ele>79.800003051758</ele>
        <time>2014-09-21T15:44:38.000Z</time>
      </trkpt>
      <trkpt lat="48.91832" lon="2.09059">
        <ele>80.400001525879</ele>
        <time>2014-09-21T15:44:49.000Z</time>
      </trkpt>
      <trkpt lat="48.91839" lon="2.09042">
        <ele>80.800003051758</ele>
        <time>2014-09-21T15:44:58.000Z</time>
      </trkpt>
      <trkpt lat="48.91844" lon="2.09025">
        <ele>81.199996948242</ele>
        <time>2014-09-21T15:45:04.000Z</time>
      </trkpt>
      <trkpt lat="48.91847" lon="2.0901">
        <ele>81.400001525879</ele>
        <time>2014-09-21T15:45:11.000Z</time>
      </trkpt>
      <trkpt lat="48.91845" lon="2.08983">
        <ele>81.400001525879</ele>
        <time>2014-09-21T15:45:18.000Z</time>
      </trkpt>
      <trkpt lat="48.91849" lon="2.0897">
        <ele>81.199996948242</ele>
        <time>2014-09-21T15:45:25.000Z</time>
      </trkpt>
      <trkpt lat="48.9185" lon="2.08968">
        <ele>81.199996948242</ele>
        <time>2014-09-21T15:45:26.000Z</time>
      </trkpt>
      <trkpt lat="48.91855" lon="2.08958">
        <ele>81</ele>
        <time>2014-09-21T15:45:32.000Z</time>
      </trkpt>
      <trkpt lat="48.91858" lon="2.08944">
        <ele>80.800003051758</ele>
        <time>2014-09-21T15:45:37.000Z</time>
      </trkpt>
      <trkpt lat="48.91863" lon="2.08933">
        <ele>80.400001525879</ele>
        <time>2014-09-21T15:45:42.000Z</time>
      </trkpt>
      <trkpt lat="48.9187" lon="2.0892">
        <ele>80.199996948242</ele>
        <time>2014-09-21T15:45:49.000Z</time>
      </trkpt>
      <trkpt lat="48.91875" lon="2.08904">
        <ele>80.400001525879</ele>
        <time>2014-09-21T15:45:57.000Z</time>
      </trkpt>
      <trkpt lat="48.91876" lon="2.08903">
        <ele>80.400001525879</ele>
        <time>2014-09-21T15:45:58.000Z</time>
      </trkpt>
      <trkpt lat="48.91879" lon="2.08893">
        <ele>80.599998474121</ele>
        <time>2014-09-21T15:46:03.000Z</time>
      </trkpt>
      <trkpt lat="48.91881" lon="2.08889">
        <ele>80.599998474121</ele>
        <time>2014-09-21T15:46:06.000Z</time>
      </trkpt>
      <trkpt lat="48.91885" lon="2.08879">
        <ele>80.599998474121</ele>
        <time>2014-09-21T15:46:12.000Z</time>
      </trkpt>
      <trkpt lat="48.9189" lon="2.0886">
        <ele>80.800003051758</ele>
        <time>2014-09-21T15:46:17.000Z</time>
      </trkpt>
      <trkpt lat="48.91895" lon="2.08842">
        <ele>81.199996948242</ele>
        <time>2014-09-21T15:46:23.000Z</time>
      </trkpt>
      <trkpt lat="48.91895" lon="2.08839">
        <ele>81.199996948242</ele>
        <time>2014-09-21T15:46:24.000Z</time>
      </trkpt>
      <trkpt lat="48.91898" lon="2.08829">
        <ele>81.400001525879</ele>
        <time>2014-09-21T15:46:28.000Z</time>
      </trkpt>
      <trkpt lat="48.91903" lon="2.08811">
        <ele>81.800003051758</ele>
        <time>2014-09-21T15:46:36.000Z</time>
      </trkpt>
      <trkpt lat="48.91905" lon="2.08804">
        <ele>82</ele>
        <time>2014-09-21T15:46:39.000Z</time>
      </trkpt>
      <trkpt lat="48.91909" lon="2.08791">
        <ele>82.199996948242</ele>
        <time>2014-09-21T15:46:44.000Z</time>
      </trkpt>
      <trkpt lat="48.91913" lon="2.08779">
        <ele>82.199996948242</ele>
        <time>2014-09-21T15:46:50.000Z</time>
      </trkpt>
      <trkpt lat="48.91915" lon="2.08769">
        <ele>82</ele>
        <time>2014-09-21T15:46:54.000Z</time>
      </trkpt>
      <trkpt lat="48.91916" lon="2.08762">
        <ele>82</ele>
        <time>2014-09-21T15:46:57.000Z</time>
      </trkpt>
      <trkpt lat="48.9192" lon="2.08748">
        <ele>81.800003051758</ele>
        <time>2014-09-21T15:47:04.000Z</time>
      </trkpt>
      <trkpt lat="48.91925" lon="2.08734">
        <ele>81.800003051758</ele>
        <time>2014-09-21T15:47:10.000Z</time>
      </trkpt>
      <trkpt lat="48.91926" lon="2.08733">
        <ele>81.599998474121</ele>
        <time>2014-09-21T15:47:11.000Z</time>
      </trkpt>
      <trkpt lat="48.91933" lon="2.08716">
        <ele>81</ele>
        <time>2014-09-21T15:47:20.000Z</time>
      </trkpt>
      <trkpt lat="48.91937" lon="2.08697">
        <ele>80.400001525879</ele>
        <time>2014-09-21T15:47:28.000Z</time>
      </trkpt>
      <trkpt lat="48.91936" lon="2.0868">
        <ele>79.800003051758</ele>
        <time>2014-09-21T15:47:33.000Z</time>
      </trkpt>
      <trkpt lat="48.9194" lon="2.0867">
        <ele>79.400001525879</ele>
        <time>2014-09-21T15:47:38.000Z</time>
      </trkpt>
      <trkpt lat="48.91944" lon="2.08657">
        <ele>79</ele>
        <time>2014-09-21T15:47:45.000Z</time>
      </trkpt>
      <trkpt lat="48.91945" lon="2.08655">
        <ele>79</ele>
        <time>2014-09-21T15:47:46.000Z</time>
      </trkpt>
      <trkpt lat="48.9195" lon="2.08646">
        <ele>79</ele>
        <time>2014-09-21T15:47:51.000Z</time>
      </trkpt>
      <trkpt lat="48.91948" lon="2.08639">
        <ele>79</ele>
        <time>2014-09-21T15:47:58.000Z</time>
      </trkpt>
      <trkpt lat="48.91947" lon="2.08634">
        <ele>79</ele>
        <time>2014-09-21T15:48:13.000Z</time>
      </trkpt>
      <trkpt lat="48.91944" lon="2.0863">
        <ele>79</ele>
        <time>2014-09-21T15:48:17.000Z</time>
      </trkpt>
      <trkpt lat="48.91944" lon="2.08628">
        <ele>79</ele>
        <time>2014-09-21T15:48:21.000Z</time>
      </trkpt>
      <trkpt lat="48.91954" lon="2.08616">
        <ele>79</ele>
        <time>2014-09-21T15:50:06.000Z</time>
      </trkpt>
      <trkpt lat="48.9196" lon="2.08614">
        <ele>79</ele>
        <time>2014-09-21T15:50:11.000Z</time>
      </trkpt>
      <trkpt lat="48.91966" lon="2.08611">
        <ele>79</ele>
        <time>2014-09-21T15:50:17.000Z</time>
      </trkpt>
      <trkpt lat="48.91973" lon="2.08607">
        <ele>79</ele>
        <time>2014-09-21T15:50:21.000Z</time>
      </trkpt>
      <trkpt lat="48.91979" lon="2.08603">
        <ele>79.199996948242</ele>
        <time>2014-09-21T15:50:26.000Z</time>
      </trkpt>
      <trkpt lat="48.91984" lon="2.08599">
        <ele>79.199996948242</ele>
        <time>2014-09-21T15:50:30.000Z</time>
      </trkpt>
      <trkpt lat="48.91986" lon="2.08598">
        <ele>79.199996948242</ele>
        <time>2014-09-21T15:50:32.000Z</time>
      </trkpt>
      <trkpt lat="48.91993" lon="2.08596">
        <ele>79.400001525879</ele>
        <time>2014-09-21T15:50:37.000Z</time>
      </trkpt>
      <trkpt lat="48.92" lon="2.08594">
        <ele>79.400001525879</ele>
        <time>2014-09-21T15:50:42.000Z</time>
      </trkpt>
      <trkpt lat="48.92007" lon="2.08591">
        <ele>79.599998474121</ele>
        <time>2014-09-21T15:50:47.000Z</time>
      </trkpt>
      <trkpt lat="48.92013" lon="2.08589">
        <ele>79.800003051758</ele>
        <time>2014-09-21T15:50:52.000Z</time>
      </trkpt>
      <trkpt lat="48.92014" lon="2.08588">
        <ele>79.800003051758</ele>
        <time>2014-09-21T15:50:53.000Z</time>
      </trkpt>
      <trkpt lat="48.92024" lon="2.08582">
        <ele>80</ele>
        <time>2014-09-21T15:51:03.000Z</time>
      </trkpt>
      <trkpt lat="48.92028" lon="2.08579">
        <ele>80</ele>
        <time>2014-09-21T15:51:06.000Z</time>
      </trkpt>
      <trkpt lat="48.92034" lon="2.08575">
        <ele>80</ele>
        <time>2014-09-21T15:51:11.000Z</time>
      </trkpt>
      <trkpt lat="48.92042" lon="2.08572">
        <ele>80</ele>
        <time>2014-09-21T15:51:18.000Z</time>
      </trkpt>
      <trkpt lat="48.92046" lon="2.08571">
        <ele>80</ele>
        <time>2014-09-21T15:51:21.000Z</time>
      </trkpt>
      <trkpt lat="48.92057" lon="2.08567">
        <ele>80</ele>
        <time>2014-09-21T15:51:28.000Z</time>
      </trkpt>
      <trkpt lat="48.92061" lon="2.08566">
        <ele>80</ele>
        <time>2014-09-21T15:51:31.000Z</time>
      </trkpt>
      <trkpt lat="48.9207" lon="2.08562">
        <ele>79.800003051758</ele>
        <time>2014-09-21T15:51:39.000Z</time>
      </trkpt>
      <trkpt lat="48.92077" lon="2.08559">
        <ele>79.800003051758</ele>
        <time>2014-09-21T15:51:45.000Z</time>
      </trkpt>
      <trkpt lat="48.92084" lon="2.08554">
        <ele>79.599998474121</ele>
        <time>2014-09-21T15:51:50.000Z</time>
      </trkpt>
      <trkpt lat="48.92086" lon="2.08553">
        <ele>79.599998474121</ele>
        <time>2014-09-21T15:51:51.000Z</time>
      </trkpt>
      <trkpt lat="48.92092" lon="2.08551">
        <ele>79.400001525879</ele>
        <time>2014-09-21T15:51:55.000Z</time>
      </trkpt>
      <trkpt lat="48.92098" lon="2.08546">
        <ele>79.199996948242</ele>
        <time>2014-09-21T15:52:00.000Z</time>
      </trkpt>
      <trkpt lat="48.92103" lon="2.08545">
        <ele>79.199996948242</ele>
        <time>2014-09-21T15:52:04.000Z</time>
      </trkpt>
      <trkpt lat="48.92111" lon="2.08544">
        <ele>79</ele>
        <time>2014-09-21T15:52:11.000Z</time>
      </trkpt>
      <trkpt lat="48.92119" lon="2.0854">
        <ele>78.800003051758</ele>
        <time>2014-09-21T15:52:17.000Z</time>
      </trkpt>
      <trkpt lat="48.92126" lon="2.08536">
        <ele>78.599998474121</ele>
        <time>2014-09-21T15:52:23.000Z</time>
      </trkpt>
      <trkpt lat="48.92133" lon="2.08534">
        <ele>78.400001525879</ele>
        <time>2014-09-21T15:52:29.000Z</time>
      </trkpt>
      <trkpt lat="48.9214" lon="2.08529">
        <ele>78.199996948242</ele>
        <time>2014-09-21T15:52:34.000Z</time>
      </trkpt>
      <trkpt lat="48.92145" lon="2.08526">
        <ele>78</ele>
        <time>2014-09-21T15:52:39.000Z</time>
      </trkpt>
      <trkpt lat="48.92148" lon="2.08525">
        <ele>78</ele>
        <time>2014-09-21T15:52:42.000Z</time>
      </trkpt>
      <trkpt lat="48.92156" lon="2.08521">
        <ele>77.599998474121</ele>
        <time>2014-09-21T15:52:48.000Z</time>
      </trkpt>
      <trkpt lat="48.92158" lon="2.0852">
        <ele>77.599998474121</ele>
        <time>2014-09-21T15:52:50.000Z</time>
      </trkpt>
      <trkpt lat="48.92162" lon="2.08518">
        <ele>77.400001525879</ele>
        <time>2014-09-21T15:52:56.000Z</time>
      </trkpt>
      <trkpt lat="48.92169" lon="2.08516">
        <ele>77.400001525879</ele>
        <time>2014-09-21T15:53:02.000Z</time>
      </trkpt>
      <trkpt lat="48.92176" lon="2.08516">
        <ele>77.400001525879</ele>
        <time>2014-09-21T15:53:08.000Z</time>
      </trkpt>
      <trkpt lat="48.92188" lon="2.08516">
        <ele>77.400001525879</ele>
        <time>2014-09-21T15:53:16.000Z</time>
      </trkpt>
      <trkpt lat="48.92197" lon="2.08514">
        <ele>77</ele>
        <time>2014-09-21T15:53:22.000Z</time>
      </trkpt>
      <trkpt lat="48.922" lon="2.08512">
        <ele>76.599998474121</ele>
        <time>2014-09-21T15:53:25.000Z</time>
      </trkpt>
      <trkpt lat="48.92208" lon="2.08514">
        <ele>76.400001525879</ele>
        <time>2014-09-21T15:53:32.000Z</time>
      </trkpt>
      <trkpt lat="48.9221" lon="2.08514">
        <ele>76.400001525879</ele>
        <time>2014-09-21T15:53:34.000Z</time>
      </trkpt>
      <trkpt lat="48.92214" lon="2.08518">
        <ele>76.400001525879</ele>
        <time>2014-09-21T15:53:40.000Z</time>
      </trkpt>
      <trkpt lat="48.92215" lon="2.08519">
        <ele>76.400001525879</ele>
        <time>2014-09-21T15:53:45.000Z</time>
      </trkpt>
      <trkpt lat="48.92229" lon="2.0851">
        <ele>76.199996948242</ele>
        <time>2014-09-21T15:54:38.000Z</time>
      </trkpt>
      <trkpt lat="48.92221" lon="2.085">
        <ele>76</ele>
        <time>2014-09-21T15:54:43.000Z</time>
      </trkpt>
      <trkpt lat="48.92214" lon="2.0849">
        <ele>75.800003051758</ele>
        <time>2014-09-21T15:54:49.000Z</time>
      </trkpt>
      <trkpt lat="48.92208" lon="2.08478">
        <ele>75.400001525879</ele>
        <time>2014-09-21T15:54:55.000Z</time>
      </trkpt>
      <trkpt lat="48.92203" lon="2.08469">
        <ele>75.199996948242</ele>
        <time>2014-09-21T15:55:01.000Z</time>
      </trkpt>
      <trkpt lat="48.92197" lon="2.08458">
        <ele>74.800003051758</ele>
        <time>2014-09-21T15:55:08.000Z</time>
      </trkpt>
      <trkpt lat="48.92194" lon="2.0845">
        <ele>74.400001525879</ele>
        <time>2014-09-21T15:55:12.000Z</time>
      </trkpt>
      <trkpt lat="48.92188" lon="2.0845">
        <ele>74.400001525879</ele>
        <time>2014-09-21T15:55:18.000Z</time>
      </trkpt>
      <trkpt lat="48.92183" lon="2.08451">
        <ele>74.599998474121</ele>
        <time>2014-09-21T15:55:23.000Z</time>
      </trkpt>
      <trkpt lat="48.92176" lon="2.08454">
        <ele>74.599998474121</ele>
        <time>2014-09-21T15:55:29.000Z</time>
      </trkpt>
      <trkpt lat="48.92174" lon="2.08455">
        <ele>74.599998474121</ele>
        <time>2014-09-21T15:55:31.000Z</time>
      </trkpt>
      <trkpt lat="48.92167" lon="2.0846">
        <ele>74.800003051758</ele>
        <time>2014-09-21T15:55:37.000Z</time>
      </trkpt>
      <trkpt lat="48.92161" lon="2.08462">
        <ele>74.800003051758</ele>
        <time>2014-09-21T15:55:42.000Z</time>
      </trkpt>
      <trkpt lat="48.92157" lon="2.08464">
        <ele>75</ele>
        <time>2014-09-21T15:55:46.000Z</time>
      </trkpt>
      <trkpt lat="48.92155" lon="2.08464">
        <ele>75</ele>
        <time>2014-09-21T15:55:51.000Z</time>
      </trkpt>
    </trkseg>
  </trk>
</gpx>